| 1 | <?xml version='1.0' encoding='UTF-8'?>
|
|---|
| 2 | <gpx version='1.1' creator='JOSM' xmlns='http://www.topografix.com/GPX/1/1'>
|
|---|
| 3 | <metadata>
|
|---|
| 4 | <bounds minlat='57.371018' minlon='21.520577' maxlat='57.493438' maxlon='21.662042' />
|
|---|
| 5 | </metadata>
|
|---|
| 6 | <trk>
|
|---|
| 7 | <trkseg>
|
|---|
| 8 | <trkpt lat='57.385517' lon='21.546248'>
|
|---|
| 9 | <time>2007-10-07T08:00:58Z</time>
|
|---|
| 10 | </trkpt>
|
|---|
| 11 | <trkpt lat='57.385515' lon='21.546247'>
|
|---|
| 12 | <time>2007-10-07T08:01:00Z</time>
|
|---|
| 13 | </trkpt>
|
|---|
| 14 | <trkpt lat='57.385517' lon='21.546247'>
|
|---|
| 15 | <time>2007-10-07T08:01:03Z</time>
|
|---|
| 16 | </trkpt>
|
|---|
| 17 | <trkpt lat='57.385427' lon='21.546175'>
|
|---|
| 18 | <time>2007-10-07T08:01:43Z</time>
|
|---|
| 19 | </trkpt>
|
|---|
| 20 | <trkpt lat='57.38548' lon='21.5462'>
|
|---|
| 21 | <time>2007-10-07T08:01:47Z</time>
|
|---|
| 22 | </trkpt>
|
|---|
| 23 | <trkpt lat='57.385585' lon='21.546257'>
|
|---|
| 24 | <time>2007-10-07T08:01:55Z</time>
|
|---|
| 25 | </trkpt>
|
|---|
| 26 | <trkpt lat='57.385585' lon='21.546288'>
|
|---|
| 27 | <time>2007-10-07T08:02:01Z</time>
|
|---|
| 28 | </trkpt>
|
|---|
| 29 | <trkpt lat='57.385553' lon='21.5464'>
|
|---|
| 30 | <time>2007-10-07T08:02:04Z</time>
|
|---|
| 31 | </trkpt>
|
|---|
| 32 | <trkpt lat='57.385483' lon='21.546687'>
|
|---|
| 33 | <time>2007-10-07T08:02:08Z</time>
|
|---|
| 34 | </trkpt>
|
|---|
| 35 | <trkpt lat='57.385495' lon='21.546762'>
|
|---|
| 36 | <time>2007-10-07T08:02:09Z</time>
|
|---|
| 37 | </trkpt>
|
|---|
| 38 | <trkpt lat='57.385597' lon='21.54699'>
|
|---|
| 39 | <time>2007-10-07T08:02:12Z</time>
|
|---|
| 40 | </trkpt>
|
|---|
| 41 | <trkpt lat='57.386395' lon='21.547928'>
|
|---|
| 42 | <time>2007-10-07T08:02:21Z</time>
|
|---|
| 43 | </trkpt>
|
|---|
| 44 | <trkpt lat='57.387567' lon='21.549153'>
|
|---|
| 45 | <time>2007-10-07T08:02:32Z</time>
|
|---|
| 46 | </trkpt>
|
|---|
| 47 | <trkpt lat='57.388163' lon='21.549353'>
|
|---|
| 48 | <time>2007-10-07T08:02:37Z</time>
|
|---|
| 49 | </trkpt>
|
|---|
| 50 | <trkpt lat='57.389663' lon='21.549752'>
|
|---|
| 51 | <time>2007-10-07T08:02:52Z</time>
|
|---|
| 52 | </trkpt>
|
|---|
| 53 | <trkpt lat='57.389635' lon='21.550192'>
|
|---|
| 54 | <time>2007-10-07T08:02:56Z</time>
|
|---|
| 55 | </trkpt>
|
|---|
| 56 | <trkpt lat='57.389587' lon='21.553975'>
|
|---|
| 57 | <time>2007-10-07T08:03:15Z</time>
|
|---|
| 58 | </trkpt>
|
|---|
| 59 | <trkpt lat='57.389548' lon='21.558688'>
|
|---|
| 60 | <time>2007-10-07T08:03:33Z</time>
|
|---|
| 61 | </trkpt>
|
|---|
| 62 | <trkpt lat='57.389583' lon='21.562157'>
|
|---|
| 63 | <time>2007-10-07T08:03:49Z</time>
|
|---|
| 64 | </trkpt>
|
|---|
| 65 | <trkpt lat='57.389568' lon='21.562495'>
|
|---|
| 66 | <time>2007-10-07T08:03:58Z</time>
|
|---|
| 67 | </trkpt>
|
|---|
| 68 | <trkpt lat='57.389595' lon='21.562582'>
|
|---|
| 69 | <time>2007-10-07T08:04:24Z</time>
|
|---|
| 70 | </trkpt>
|
|---|
| 71 | <trkpt lat='57.389612' lon='21.565457'>
|
|---|
| 72 | <time>2007-10-07T08:04:37Z</time>
|
|---|
| 73 | </trkpt>
|
|---|
| 74 | <trkpt lat='57.389632' lon='21.569022'>
|
|---|
| 75 | <time>2007-10-07T08:04:54Z</time>
|
|---|
| 76 | </trkpt>
|
|---|
| 77 | <trkpt lat='57.38963' lon='21.569095'>
|
|---|
| 78 | <time>2007-10-07T08:04:58Z</time>
|
|---|
| 79 | </trkpt>
|
|---|
| 80 | <trkpt lat='57.38963' lon='21.569092'>
|
|---|
| 81 | <time>2007-10-07T08:05:02Z</time>
|
|---|
| 82 | </trkpt>
|
|---|
| 83 | <trkpt lat='57.389618' lon='21.569058'>
|
|---|
| 84 | <time>2007-10-07T08:05:12Z</time>
|
|---|
| 85 | </trkpt>
|
|---|
| 86 | <trkpt lat='57.389612' lon='21.572835'>
|
|---|
| 87 | <time>2007-10-07T08:05:31Z</time>
|
|---|
| 88 | </trkpt>
|
|---|
| 89 | <trkpt lat='57.389613' lon='21.57386'>
|
|---|
| 90 | <time>2007-10-07T08:05:39Z</time>
|
|---|
| 91 | </trkpt>
|
|---|
| 92 | <trkpt lat='57.389613' lon='21.573833'>
|
|---|
| 93 | <time>2007-10-07T08:05:44Z</time>
|
|---|
| 94 | </trkpt>
|
|---|
| 95 | <trkpt lat='57.389635' lon='21.574045'>
|
|---|
| 96 | <time>2007-10-07T08:06:25Z</time>
|
|---|
| 97 | </trkpt>
|
|---|
| 98 | <trkpt lat='57.38958' lon='21.574505'>
|
|---|
| 99 | <time>2007-10-07T08:06:28Z</time>
|
|---|
| 100 | </trkpt>
|
|---|
| 101 | <trkpt lat='57.38911' lon='21.576862'>
|
|---|
| 102 | <time>2007-10-07T08:06:41Z</time>
|
|---|
| 103 | </trkpt>
|
|---|
| 104 | <trkpt lat='57.388598' lon='21.578685'>
|
|---|
| 105 | <time>2007-10-07T08:06:53Z</time>
|
|---|
| 106 | </trkpt>
|
|---|
| 107 | <trkpt lat='57.38856' lon='21.578748'>
|
|---|
| 108 | <time>2007-10-07T08:06:56Z</time>
|
|---|
| 109 | </trkpt>
|
|---|
| 110 | <trkpt lat='57.388407' lon='21.57869'>
|
|---|
| 111 | <time>2007-10-07T08:07:00Z</time>
|
|---|
| 112 | </trkpt>
|
|---|
| 113 | <trkpt lat='57.388372' lon='21.578737'>
|
|---|
| 114 | <time>2007-10-07T08:07:01Z</time>
|
|---|
| 115 | </trkpt>
|
|---|
| 116 | <trkpt lat='57.388317' lon='21.57911'>
|
|---|
| 117 | <time>2007-10-07T08:07:05Z</time>
|
|---|
| 118 | </trkpt>
|
|---|
| 119 | <trkpt lat='57.387957' lon='21.580655'>
|
|---|
| 120 | <time>2007-10-07T08:07:20Z</time>
|
|---|
| 121 | </trkpt>
|
|---|
| 122 | <trkpt lat='57.387833' lon='21.581047'>
|
|---|
| 123 | <time>2007-10-07T08:07:28Z</time>
|
|---|
| 124 | </trkpt>
|
|---|
| 125 | <trkpt lat='57.387382' lon='21.580862'>
|
|---|
| 126 | <time>2007-10-07T08:07:44Z</time>
|
|---|
| 127 | </trkpt>
|
|---|
| 128 | <trkpt lat='57.387378' lon='21.580875'>
|
|---|
| 129 | <time>2007-10-07T08:07:48Z</time>
|
|---|
| 130 | </trkpt>
|
|---|
| 131 | <trkpt lat='57.387312' lon='21.580873'>
|
|---|
| 132 | <time>2007-10-07T08:07:52Z</time>
|
|---|
| 133 | </trkpt>
|
|---|
| 134 | <trkpt lat='57.387272' lon='21.580848'>
|
|---|
| 135 | <time>2007-10-07T08:07:55Z</time>
|
|---|
| 136 | </trkpt>
|
|---|
| 137 | <trkpt lat='57.387147' lon='21.580782'>
|
|---|
| 138 | <time>2007-10-07T08:19:50Z</time>
|
|---|
| 139 | </trkpt>
|
|---|
| 140 | <trkpt lat='57.38711' lon='21.580938'>
|
|---|
| 141 | <time>2007-10-07T08:19:54Z</time>
|
|---|
| 142 | </trkpt>
|
|---|
| 143 | <trkpt lat='57.387045' lon='21.580977'>
|
|---|
| 144 | <time>2007-10-07T08:19:58Z</time>
|
|---|
| 145 | </trkpt>
|
|---|
| 146 | <trkpt lat='57.386813' lon='21.580715'>
|
|---|
| 147 | <time>2007-10-07T08:20:06Z</time>
|
|---|
| 148 | </trkpt>
|
|---|
| 149 | <trkpt lat='57.38676' lon='21.580838'>
|
|---|
| 150 | <time>2007-10-07T08:20:09Z</time>
|
|---|
| 151 | </trkpt>
|
|---|
| 152 | <trkpt lat='57.386963' lon='21.581215'>
|
|---|
| 153 | <time>2007-10-07T08:20:13Z</time>
|
|---|
| 154 | </trkpt>
|
|---|
| 155 | <trkpt lat='57.387358' lon='21.582223'>
|
|---|
| 156 | <time>2007-10-07T08:20:23Z</time>
|
|---|
| 157 | </trkpt>
|
|---|
| 158 | <trkpt lat='57.38736' lon='21.583063'>
|
|---|
| 159 | <time>2007-10-07T08:20:32Z</time>
|
|---|
| 160 | </trkpt>
|
|---|
| 161 | <trkpt lat='57.387558' lon='21.583483'>
|
|---|
| 162 | <time>2007-10-07T08:20:38Z</time>
|
|---|
| 163 | </trkpt>
|
|---|
| 164 | <trkpt lat='57.3874' lon='21.584133'>
|
|---|
| 165 | <time>2007-10-07T08:20:42Z</time>
|
|---|
| 166 | </trkpt>
|
|---|
| 167 | <trkpt lat='57.387' lon='21.585447'>
|
|---|
| 168 | <time>2007-10-07T08:20:50Z</time>
|
|---|
| 169 | </trkpt>
|
|---|
| 170 | <trkpt lat='57.386292' lon='21.58623'>
|
|---|
| 171 | <time>2007-10-07T08:21:01Z</time>
|
|---|
| 172 | </trkpt>
|
|---|
| 173 | <trkpt lat='57.38587' lon='21.586343'>
|
|---|
| 174 | <time>2007-10-07T08:21:10Z</time>
|
|---|
| 175 | </trkpt>
|
|---|
| 176 | <trkpt lat='57.385832' lon='21.586303'>
|
|---|
| 177 | <time>2007-10-07T08:21:11Z</time>
|
|---|
| 178 | </trkpt>
|
|---|
| 179 | <trkpt lat='57.385797' lon='21.586137'>
|
|---|
| 180 | <time>2007-10-07T08:21:15Z</time>
|
|---|
| 181 | </trkpt>
|
|---|
| 182 | <trkpt lat='57.385667' lon='21.585858'>
|
|---|
| 183 | <time>2007-10-07T08:21:19Z</time>
|
|---|
| 184 | </trkpt>
|
|---|
| 185 | <trkpt lat='57.385222' lon='21.585563'>
|
|---|
| 186 | <time>2007-10-07T08:21:28Z</time>
|
|---|
| 187 | </trkpt>
|
|---|
| 188 | <trkpt lat='57.385062' lon='21.585693'>
|
|---|
| 189 | <time>2007-10-07T08:21:32Z</time>
|
|---|
| 190 | </trkpt>
|
|---|
| 191 | <trkpt lat='57.38499' lon='21.585898'>
|
|---|
| 192 | <time>2007-10-07T08:21:36Z</time>
|
|---|
| 193 | </trkpt>
|
|---|
| 194 | <trkpt lat='57.385037' lon='21.586097'>
|
|---|
| 195 | <time>2007-10-07T08:21:41Z</time>
|
|---|
| 196 | </trkpt>
|
|---|
| 197 | <trkpt lat='57.387992' lon='21.585012'>
|
|---|
| 198 | <time>2007-10-07T08:31:11Z</time>
|
|---|
| 199 | </trkpt>
|
|---|
| 200 | <trkpt lat='57.387655' lon='21.587168'>
|
|---|
| 201 | <time>2007-10-07T08:31:15Z</time>
|
|---|
| 202 | </trkpt>
|
|---|
| 203 | <trkpt lat='57.38911' lon='21.589807'>
|
|---|
| 204 | <time>2007-10-07T08:31:34Z</time>
|
|---|
| 205 | </trkpt>
|
|---|
| 206 | <trkpt lat='57.389597' lon='21.590828'>
|
|---|
| 207 | <time>2007-10-07T08:31:41Z</time>
|
|---|
| 208 | </trkpt>
|
|---|
| 209 | <trkpt lat='57.389817' lon='21.59142'>
|
|---|
| 210 | <time>2007-10-07T08:31:46Z</time>
|
|---|
| 211 | </trkpt>
|
|---|
| 212 | <trkpt lat='57.390032' lon='21.591317'>
|
|---|
| 213 | <time>2007-10-07T08:31:49Z</time>
|
|---|
| 214 | </trkpt>
|
|---|
| 215 | <trkpt lat='57.390068' lon='21.591192'>
|
|---|
| 216 | <time>2007-10-07T08:31:50Z</time>
|
|---|
| 217 | </trkpt>
|
|---|
| 218 | <trkpt lat='57.391095' lon='21.588502'>
|
|---|
| 219 | <time>2007-10-07T08:32:07Z</time>
|
|---|
| 220 | </trkpt>
|
|---|
| 221 | <trkpt lat='57.391665' lon='21.58844'>
|
|---|
| 222 | <time>2007-10-07T08:32:12Z</time>
|
|---|
| 223 | </trkpt>
|
|---|
| 224 | <trkpt lat='57.392237' lon='21.588998'>
|
|---|
| 225 | <time>2007-10-07T08:32:17Z</time>
|
|---|
| 226 | </trkpt>
|
|---|
| 227 | <trkpt lat='57.393692' lon='21.590867'>
|
|---|
| 228 | <time>2007-10-07T08:32:30Z</time>
|
|---|
| 229 | </trkpt>
|
|---|
| 230 | <trkpt lat='57.39474' lon='21.592665'>
|
|---|
| 231 | <time>2007-10-07T08:32:41Z</time>
|
|---|
| 232 | </trkpt>
|
|---|
| 233 | <trkpt lat='57.395413' lon='21.59298'>
|
|---|
| 234 | <time>2007-10-07T08:32:47Z</time>
|
|---|
| 235 | </trkpt>
|
|---|
| 236 | <trkpt lat='57.396212' lon='21.593377'>
|
|---|
| 237 | <time>2007-10-07T08:32:55Z</time>
|
|---|
| 238 | </trkpt>
|
|---|
| 239 | <trkpt lat='57.396405' lon='21.593933'>
|
|---|
| 240 | <time>2007-10-07T08:32:59Z</time>
|
|---|
| 241 | </trkpt>
|
|---|
| 242 | <trkpt lat='57.396337' lon='21.594458'>
|
|---|
| 243 | <time>2007-10-07T08:33:03Z</time>
|
|---|
| 244 | </trkpt>
|
|---|
| 245 | <trkpt lat='57.39598' lon='21.594537'>
|
|---|
| 246 | <time>2007-10-07T08:33:08Z</time>
|
|---|
| 247 | </trkpt>
|
|---|
| 248 | <trkpt lat='57.395923' lon='21.594408'>
|
|---|
| 249 | <time>2007-10-07T08:33:09Z</time>
|
|---|
| 250 | </trkpt>
|
|---|
| 251 | <trkpt lat='57.395935' lon='21.593792'>
|
|---|
| 252 | <time>2007-10-07T08:33:13Z</time>
|
|---|
| 253 | </trkpt>
|
|---|
| 254 | <trkpt lat='57.39606' lon='21.591997'>
|
|---|
| 255 | <time>2007-10-07T08:33:24Z</time>
|
|---|
| 256 | </trkpt>
|
|---|
| 257 | <trkpt lat='57.39644' lon='21.590762'>
|
|---|
| 258 | <time>2007-10-07T08:33:33Z</time>
|
|---|
| 259 | </trkpt>
|
|---|
| 260 | <trkpt lat='57.397108' lon='21.58953'>
|
|---|
| 261 | <time>2007-10-07T08:33:46Z</time>
|
|---|
| 262 | </trkpt>
|
|---|
| 263 | <trkpt lat='57.398215' lon='21.587995'>
|
|---|
| 264 | <time>2007-10-07T08:33:58Z</time>
|
|---|
| 265 | </trkpt>
|
|---|
| 266 | <trkpt lat='57.400062' lon='21.585535'>
|
|---|
| 267 | <time>2007-10-07T08:34:17Z</time>
|
|---|
| 268 | </trkpt>
|
|---|
| 269 | <trkpt lat='57.401153' lon='21.583965'>
|
|---|
| 270 | <time>2007-10-07T08:34:29Z</time>
|
|---|
| 271 | </trkpt>
|
|---|
| 272 | <trkpt lat='57.401758' lon='21.582653'>
|
|---|
| 273 | <time>2007-10-07T08:34:37Z</time>
|
|---|
| 274 | </trkpt>
|
|---|
| 275 | <trkpt lat='57.402423' lon='21.580482'>
|
|---|
| 276 | <time>2007-10-07T08:34:48Z</time>
|
|---|
| 277 | </trkpt>
|
|---|
| 278 | <trkpt lat='57.402952' lon='21.577812'>
|
|---|
| 279 | <time>2007-10-07T08:35:01Z</time>
|
|---|
| 280 | </trkpt>
|
|---|
| 281 | <trkpt lat='57.403298' lon='21.575995'>
|
|---|
| 282 | <time>2007-10-07T08:35:14Z</time>
|
|---|
| 283 | </trkpt>
|
|---|
| 284 | <trkpt lat='57.403335' lon='21.575407'>
|
|---|
| 285 | <time>2007-10-07T08:35:22Z</time>
|
|---|
| 286 | </trkpt>
|
|---|
| 287 | <trkpt lat='57.403428' lon='21.575275'>
|
|---|
| 288 | <time>2007-10-07T08:35:26Z</time>
|
|---|
| 289 | </trkpt>
|
|---|
| 290 | <trkpt lat='57.40357' lon='21.575233'>
|
|---|
| 291 | <time>2007-10-07T08:35:30Z</time>
|
|---|
| 292 | </trkpt>
|
|---|
| 293 | <trkpt lat='57.403687' lon='21.575225'>
|
|---|
| 294 | <time>2007-10-07T08:35:34Z</time>
|
|---|
| 295 | </trkpt>
|
|---|
| 296 | <trkpt lat='57.403743' lon='21.575275'>
|
|---|
| 297 | <time>2007-10-07T08:35:38Z</time>
|
|---|
| 298 | </trkpt>
|
|---|
| 299 | <trkpt lat='57.403797' lon='21.575262'>
|
|---|
| 300 | <time>2007-10-07T08:35:42Z</time>
|
|---|
| 301 | </trkpt>
|
|---|
| 302 | <trkpt lat='57.403793' lon='21.575228'>
|
|---|
| 303 | <time>2007-10-07T08:35:51Z</time>
|
|---|
| 304 | </trkpt>
|
|---|
| 305 | <trkpt lat='57.403805' lon='21.575158'>
|
|---|
| 306 | <time>2007-10-07T08:35:55Z</time>
|
|---|
| 307 | </trkpt>
|
|---|
| 308 | <trkpt lat='57.403808' lon='21.575152'>
|
|---|
| 309 | <time>2007-10-07T08:35:59Z</time>
|
|---|
| 310 | </trkpt>
|
|---|
| 311 | <trkpt lat='57.403828' lon='21.575175'>
|
|---|
| 312 | <time>2007-10-07T08:36:03Z</time>
|
|---|
| 313 | </trkpt>
|
|---|
| 314 | <trkpt lat='57.403832' lon='21.575185'>
|
|---|
| 315 | <time>2007-10-07T08:36:08Z</time>
|
|---|
| 316 | </trkpt>
|
|---|
| 317 | <trkpt lat='57.404025' lon='21.575415'>
|
|---|
| 318 | <time>2007-10-07T08:52:29Z</time>
|
|---|
| 319 | </trkpt>
|
|---|
| 320 | <trkpt lat='57.403962' lon='21.575378'>
|
|---|
| 321 | <time>2007-10-07T08:52:30Z</time>
|
|---|
| 322 | </trkpt>
|
|---|
| 323 | <trkpt lat='57.403902' lon='21.575252'>
|
|---|
| 324 | <time>2007-10-07T08:52:35Z</time>
|
|---|
| 325 | </trkpt>
|
|---|
| 326 | <trkpt lat='57.40389' lon='21.575192'>
|
|---|
| 327 | <time>2007-10-07T08:52:48Z</time>
|
|---|
| 328 | </trkpt>
|
|---|
| 329 | <trkpt lat='57.403872' lon='21.575173'>
|
|---|
| 330 | <time>2007-10-07T08:52:49Z</time>
|
|---|
| 331 | </trkpt>
|
|---|
| 332 | <trkpt lat='57.403745' lon='21.575122'>
|
|---|
| 333 | <time>2007-10-07T08:52:53Z</time>
|
|---|
| 334 | </trkpt>
|
|---|
| 335 | <trkpt lat='57.403257' lon='21.575245'>
|
|---|
| 336 | <time>2007-10-07T08:53:08Z</time>
|
|---|
| 337 | </trkpt>
|
|---|
| 338 | <trkpt lat='57.403162' lon='21.575623'>
|
|---|
| 339 | <time>2007-10-07T08:53:13Z</time>
|
|---|
| 340 | </trkpt>
|
|---|
| 341 | <trkpt lat='57.403015' lon='21.576977'>
|
|---|
| 342 | <time>2007-10-07T08:53:22Z</time>
|
|---|
| 343 | </trkpt>
|
|---|
| 344 | <trkpt lat='57.402657' lon='21.579325'>
|
|---|
| 345 | <time>2007-10-07T08:53:38Z</time>
|
|---|
| 346 | </trkpt>
|
|---|
| 347 | <trkpt lat='57.40199' lon='21.582095'>
|
|---|
| 348 | <time>2007-10-07T08:53:55Z</time>
|
|---|
| 349 | </trkpt>
|
|---|
| 350 | <trkpt lat='57.40118' lon='21.583875'>
|
|---|
| 351 | <time>2007-10-07T08:54:07Z</time>
|
|---|
| 352 | </trkpt>
|
|---|
| 353 | <trkpt lat='57.399407' lon='21.586182'>
|
|---|
| 354 | <time>2007-10-07T08:54:27Z</time>
|
|---|
| 355 | </trkpt>
|
|---|
| 356 | <trkpt lat='57.397793' lon='21.58834'>
|
|---|
| 357 | <time>2007-10-07T08:54:44Z</time>
|
|---|
| 358 | </trkpt>
|
|---|
| 359 | <trkpt lat='57.39672' lon='21.589853'>
|
|---|
| 360 | <time>2007-10-07T08:55:00Z</time>
|
|---|
| 361 | </trkpt>
|
|---|
| 362 | <trkpt lat='57.396722' lon='21.589857'>
|
|---|
| 363 | <time>2007-10-07T08:55:04Z</time>
|
|---|
| 364 | </trkpt>
|
|---|
| 365 | <trkpt lat='57.396682' lon='21.590005'>
|
|---|
| 366 | <time>2007-10-07T08:55:14Z</time>
|
|---|
| 367 | </trkpt>
|
|---|
| 368 | <trkpt lat='57.396708' lon='21.590335'>
|
|---|
| 369 | <time>2007-10-07T08:55:17Z</time>
|
|---|
| 370 | </trkpt>
|
|---|
| 371 | <trkpt lat='57.396755' lon='21.590455'>
|
|---|
| 372 | <time>2007-10-07T08:55:18Z</time>
|
|---|
| 373 | </trkpt>
|
|---|
| 374 | <trkpt lat='57.39708' lon='21.590862'>
|
|---|
| 375 | <time>2007-10-07T08:55:22Z</time>
|
|---|
| 376 | </trkpt>
|
|---|
| 377 | <trkpt lat='57.39796' lon='21.592147'>
|
|---|
| 378 | <time>2007-10-07T08:55:33Z</time>
|
|---|
| 379 | </trkpt>
|
|---|
| 380 | <trkpt lat='57.397995' lon='21.592272'>
|
|---|
| 381 | <time>2007-10-07T08:55:34Z</time>
|
|---|
| 382 | </trkpt>
|
|---|
| 383 | <trkpt lat='57.397995' lon='21.592798'>
|
|---|
| 384 | <time>2007-10-07T08:55:38Z</time>
|
|---|
| 385 | </trkpt>
|
|---|
| 386 | <trkpt lat='57.397812' lon='21.593102'>
|
|---|
| 387 | <time>2007-10-07T08:55:42Z</time>
|
|---|
| 388 | </trkpt>
|
|---|
| 389 | <trkpt lat='57.397568' lon='21.593148'>
|
|---|
| 390 | <time>2007-10-07T08:55:45Z</time>
|
|---|
| 391 | </trkpt>
|
|---|
| 392 | <trkpt lat='57.396018' lon='21.592788'>
|
|---|
| 393 | <time>2007-10-07T08:55:58Z</time>
|
|---|
| 394 | </trkpt>
|
|---|
| 395 | <trkpt lat='57.3947' lon='21.59242'>
|
|---|
| 396 | <time>2007-10-07T08:56:10Z</time>
|
|---|
| 397 | </trkpt>
|
|---|
| 398 | <trkpt lat='57.394332' lon='21.592003'>
|
|---|
| 399 | <time>2007-10-07T08:56:14Z</time>
|
|---|
| 400 | </trkpt>
|
|---|
| 401 | <trkpt lat='57.393377' lon='21.59022'>
|
|---|
| 402 | <time>2007-10-07T08:56:26Z</time>
|
|---|
| 403 | </trkpt>
|
|---|
| 404 | <trkpt lat='57.391683' lon='21.58828'>
|
|---|
| 405 | <time>2007-10-07T08:56:43Z</time>
|
|---|
| 406 | </trkpt>
|
|---|
| 407 | <trkpt lat='57.391253' lon='21.588192'>
|
|---|
| 408 | <time>2007-10-07T08:56:47Z</time>
|
|---|
| 409 | </trkpt>
|
|---|
| 410 | <trkpt lat='57.390852' lon='21.588585'>
|
|---|
| 411 | <time>2007-10-07T08:56:51Z</time>
|
|---|
| 412 | </trkpt>
|
|---|
| 413 | <trkpt lat='57.390557' lon='21.589242'>
|
|---|
| 414 | <time>2007-10-07T08:56:55Z</time>
|
|---|
| 415 | </trkpt>
|
|---|
| 416 | <trkpt lat='57.389768' lon='21.590552'>
|
|---|
| 417 | <time>2007-10-07T08:57:07Z</time>
|
|---|
| 418 | </trkpt>
|
|---|
| 419 | <trkpt lat='57.38948' lon='21.590275'>
|
|---|
| 420 | <time>2007-10-07T08:57:11Z</time>
|
|---|
| 421 | </trkpt>
|
|---|
| 422 | <trkpt lat='57.38793' lon='21.58742'>
|
|---|
| 423 | <time>2007-10-07T08:57:32Z</time>
|
|---|
| 424 | </trkpt>
|
|---|
| 425 | <trkpt lat='57.387353' lon='21.58624'>
|
|---|
| 426 | <time>2007-10-07T08:57:40Z</time>
|
|---|
| 427 | </trkpt>
|
|---|
| 428 | <trkpt lat='57.387317' lon='21.58606'>
|
|---|
| 429 | <time>2007-10-07T08:57:41Z</time>
|
|---|
| 430 | </trkpt>
|
|---|
| 431 | <trkpt lat='57.387278' lon='21.585245'>
|
|---|
| 432 | <time>2007-10-07T08:57:45Z</time>
|
|---|
| 433 | </trkpt>
|
|---|
| 434 | <trkpt lat='57.387368' lon='21.584638'>
|
|---|
| 435 | <time>2007-10-07T08:57:48Z</time>
|
|---|
| 436 | </trkpt>
|
|---|
| 437 | <trkpt lat='57.387813' lon='21.582872'>
|
|---|
| 438 | <time>2007-10-07T08:58:04Z</time>
|
|---|
| 439 | </trkpt>
|
|---|
| 440 | <trkpt lat='57.387807' lon='21.582875'>
|
|---|
| 441 | <time>2007-10-07T08:58:18Z</time>
|
|---|
| 442 | </trkpt>
|
|---|
| 443 | <trkpt lat='57.388312' lon='21.580532'>
|
|---|
| 444 | <time>2007-10-07T08:58:33Z</time>
|
|---|
| 445 | </trkpt>
|
|---|
| 446 | <trkpt lat='57.388883' lon='21.577942'>
|
|---|
| 447 | <time>2007-10-07T08:58:46Z</time>
|
|---|
| 448 | </trkpt>
|
|---|
| 449 | <trkpt lat='57.389727' lon='21.5739'>
|
|---|
| 450 | <time>2007-10-07T08:59:07Z</time>
|
|---|
| 451 | </trkpt>
|
|---|
| 452 | <trkpt lat='57.389705' lon='21.569557'>
|
|---|
| 453 | <time>2007-10-07T08:59:25Z</time>
|
|---|
| 454 | </trkpt>
|
|---|
| 455 | <trkpt lat='57.38966' lon='21.566215'>
|
|---|
| 456 | <time>2007-10-07T08:59:40Z</time>
|
|---|
| 457 | </trkpt>
|
|---|
| 458 | <trkpt lat='57.389633' lon='21.565337'>
|
|---|
| 459 | <time>2007-10-07T08:59:52Z</time>
|
|---|
| 460 | </trkpt>
|
|---|
| 461 | <trkpt lat='57.389633' lon='21.565312'>
|
|---|
| 462 | <time>2007-10-07T09:00:06Z</time>
|
|---|
| 463 | </trkpt>
|
|---|
| 464 | <trkpt lat='57.389663' lon='21.565083'>
|
|---|
| 465 | <time>2007-10-07T09:00:09Z</time>
|
|---|
| 466 | </trkpt>
|
|---|
| 467 | <trkpt lat='57.389635' lon='21.563157'>
|
|---|
| 468 | <time>2007-10-07T09:00:22Z</time>
|
|---|
| 469 | </trkpt>
|
|---|
| 470 | <trkpt lat='57.38964' lon='21.559107'>
|
|---|
| 471 | <time>2007-10-07T09:00:41Z</time>
|
|---|
| 472 | </trkpt>
|
|---|
| 473 | <trkpt lat='57.389742' lon='21.554838'>
|
|---|
| 474 | <time>2007-10-07T09:01:01Z</time>
|
|---|
| 475 | </trkpt>
|
|---|
| 476 | <trkpt lat='57.389672' lon='21.550335'>
|
|---|
| 477 | <time>2007-10-07T09:01:21Z</time>
|
|---|
| 478 | </trkpt>
|
|---|
| 479 | <trkpt lat='57.389745' lon='21.54962'>
|
|---|
| 480 | <time>2007-10-07T09:01:25Z</time>
|
|---|
| 481 | </trkpt>
|
|---|
| 482 | <trkpt lat='57.39019' lon='21.547957'>
|
|---|
| 483 | <time>2007-10-07T09:01:38Z</time>
|
|---|
| 484 | </trkpt>
|
|---|
| 485 | <trkpt lat='57.390198' lon='21.547972'>
|
|---|
| 486 | <time>2007-10-07T09:01:41Z</time>
|
|---|
| 487 | </trkpt>
|
|---|
| 488 | <trkpt lat='57.39023' lon='21.548008'>
|
|---|
| 489 | <time>2007-10-07T09:01:53Z</time>
|
|---|
| 490 | </trkpt>
|
|---|
| 491 | <trkpt lat='57.39031' lon='21.547043'>
|
|---|
| 492 | <time>2007-10-07T09:02:05Z</time>
|
|---|
| 493 | </trkpt>
|
|---|
| 494 | <trkpt lat='57.390042' lon='21.546585'>
|
|---|
| 495 | <time>2007-10-07T09:02:09Z</time>
|
|---|
| 496 | </trkpt>
|
|---|
| 497 | <trkpt lat='57.388478' lon='21.54402'>
|
|---|
| 498 | <time>2007-10-07T09:02:28Z</time>
|
|---|
| 499 | </trkpt>
|
|---|
| 500 | <trkpt lat='57.38692' lon='21.541637'>
|
|---|
| 501 | <time>2007-10-07T09:02:44Z</time>
|
|---|
| 502 | </trkpt>
|
|---|
| 503 | <trkpt lat='57.385197' lon='21.538967'>
|
|---|
| 504 | <time>2007-10-07T09:03:02Z</time>
|
|---|
| 505 | </trkpt>
|
|---|
| 506 | <trkpt lat='57.384125' lon='21.537493'>
|
|---|
| 507 | <time>2007-10-07T09:03:14Z</time>
|
|---|
| 508 | </trkpt>
|
|---|
| 509 | <trkpt lat='57.383783' lon='21.537635'>
|
|---|
| 510 | <time>2007-10-07T09:03:17Z</time>
|
|---|
| 511 | </trkpt>
|
|---|
| 512 | <trkpt lat='57.382885' lon='21.538072'>
|
|---|
| 513 | <time>2007-10-07T09:03:26Z</time>
|
|---|
| 514 | </trkpt>
|
|---|
| 515 | <trkpt lat='57.38201' lon='21.537965'>
|
|---|
| 516 | <time>2007-10-07T09:03:33Z</time>
|
|---|
| 517 | </trkpt>
|
|---|
| 518 | <trkpt lat='57.38075' lon='21.537505'>
|
|---|
| 519 | <time>2007-10-07T09:03:43Z</time>
|
|---|
| 520 | </trkpt>
|
|---|
| 521 | <trkpt lat='57.37994' lon='21.536607'>
|
|---|
| 522 | <time>2007-10-07T09:03:51Z</time>
|
|---|
| 523 | </trkpt>
|
|---|
| 524 | <trkpt lat='57.379578' lon='21.536065'>
|
|---|
| 525 | <time>2007-10-07T09:03:55Z</time>
|
|---|
| 526 | </trkpt>
|
|---|
| 527 | <trkpt lat='57.379328' lon='21.53534'>
|
|---|
| 528 | <time>2007-10-07T09:03:59Z</time>
|
|---|
| 529 | </trkpt>
|
|---|
| 530 | <trkpt lat='57.378738' lon='21.533278'>
|
|---|
| 531 | <time>2007-10-07T09:04:11Z</time>
|
|---|
| 532 | </trkpt>
|
|---|
| 533 | <trkpt lat='57.378428' lon='21.531647'>
|
|---|
| 534 | <time>2007-10-07T09:04:23Z</time>
|
|---|
| 535 | </trkpt>
|
|---|
| 536 | <trkpt lat='57.378518' lon='21.531502'>
|
|---|
| 537 | <time>2007-10-07T09:04:27Z</time>
|
|---|
| 538 | </trkpt>
|
|---|
| 539 | <trkpt lat='57.37921' lon='21.531382'>
|
|---|
| 540 | <time>2007-10-07T09:04:45Z</time>
|
|---|
| 541 | </trkpt>
|
|---|
| 542 | <trkpt lat='57.379485' lon='21.531198'>
|
|---|
| 543 | <time>2007-10-07T09:04:54Z</time>
|
|---|
| 544 | </trkpt>
|
|---|
| 545 | <trkpt lat='57.379615' lon='21.53103'>
|
|---|
| 546 | <time>2007-10-07T09:05:02Z</time>
|
|---|
| 547 | </trkpt>
|
|---|
| 548 | <trkpt lat='57.379607' lon='21.531047'>
|
|---|
| 549 | <time>2007-10-07T09:05:06Z</time>
|
|---|
| 550 | </trkpt>
|
|---|
| 551 | <trkpt lat='57.379617' lon='21.531043'>
|
|---|
| 552 | <time>2007-10-07T09:05:17Z</time>
|
|---|
| 553 | </trkpt>
|
|---|
| 554 | <trkpt lat='57.37962' lon='21.531042'>
|
|---|
| 555 | <time>2007-10-07T09:05:18Z</time>
|
|---|
| 556 | </trkpt>
|
|---|
| 557 | <trkpt lat='57.379678' lon='21.53097'>
|
|---|
| 558 | <time>2007-10-07T09:05:26Z</time>
|
|---|
| 559 | </trkpt>
|
|---|
| 560 | <trkpt lat='57.379685' lon='21.530968'>
|
|---|
| 561 | <time>2007-10-07T09:05:31Z</time>
|
|---|
| 562 | </trkpt>
|
|---|
| 563 | <trkpt lat='57.37972' lon='21.530922'>
|
|---|
| 564 | <time>2007-10-07T09:05:52Z</time>
|
|---|
| 565 | </trkpt>
|
|---|
| 566 | <trkpt lat='57.37969' lon='21.530898'>
|
|---|
| 567 | <time>2007-10-07T09:05:57Z</time>
|
|---|
| 568 | </trkpt>
|
|---|
| 569 | <trkpt lat='57.379717' lon='21.530885'>
|
|---|
| 570 | <time>2007-10-07T09:06:01Z</time>
|
|---|
| 571 | </trkpt>
|
|---|
| 572 | <trkpt lat='57.379747' lon='21.53083'>
|
|---|
| 573 | <time>2007-10-07T09:06:06Z</time>
|
|---|
| 574 | </trkpt>
|
|---|
| 575 | <trkpt lat='57.379765' lon='21.530732'>
|
|---|
| 576 | <time>2007-10-07T09:06:14Z</time>
|
|---|
| 577 | </trkpt>
|
|---|
| 578 | <trkpt lat='57.379757' lon='21.530622'>
|
|---|
| 579 | <time>2007-10-07T09:06:22Z</time>
|
|---|
| 580 | </trkpt>
|
|---|
| 581 | <trkpt lat='57.379743' lon='21.530567'>
|
|---|
| 582 | <time>2007-10-07T09:06:26Z</time>
|
|---|
| 583 | </trkpt>
|
|---|
| 584 | <trkpt lat='57.37973' lon='21.530525'>
|
|---|
| 585 | <time>2007-10-07T09:06:30Z</time>
|
|---|
| 586 | </trkpt>
|
|---|
| 587 | <trkpt lat='57.379715' lon='21.530515'>
|
|---|
| 588 | <time>2007-10-07T09:06:34Z</time>
|
|---|
| 589 | </trkpt>
|
|---|
| 590 | <trkpt lat='57.379693' lon='21.530513'>
|
|---|
| 591 | <time>2007-10-07T09:06:37Z</time>
|
|---|
| 592 | </trkpt>
|
|---|
| 593 | <trkpt lat='57.379687' lon='21.530507'>
|
|---|
| 594 | <time>2007-10-07T09:06:38Z</time>
|
|---|
| 595 | </trkpt>
|
|---|
| 596 | <trkpt lat='57.379638' lon='21.530442'>
|
|---|
| 597 | <time>2007-10-07T09:06:46Z</time>
|
|---|
| 598 | </trkpt>
|
|---|
| 599 | <trkpt lat='57.379598' lon='21.530468'>
|
|---|
| 600 | <time>2007-10-07T09:06:49Z</time>
|
|---|
| 601 | </trkpt>
|
|---|
| 602 | <trkpt lat='57.379565' lon='21.530447'>
|
|---|
| 603 | <time>2007-10-07T09:06:54Z</time>
|
|---|
| 604 | </trkpt>
|
|---|
| 605 | <trkpt lat='57.37954' lon='21.530427'>
|
|---|
| 606 | <time>2007-10-07T09:06:58Z</time>
|
|---|
| 607 | </trkpt>
|
|---|
| 608 | <trkpt lat='57.379485' lon='21.530368'>
|
|---|
| 609 | <time>2007-10-07T09:07:06Z</time>
|
|---|
| 610 | </trkpt>
|
|---|
| 611 | <trkpt lat='57.37947' lon='21.530337'>
|
|---|
| 612 | <time>2007-10-07T09:07:09Z</time>
|
|---|
| 613 | </trkpt>
|
|---|
| 614 | <trkpt lat='57.379423' lon='21.530243'>
|
|---|
| 615 | <time>2007-10-07T09:07:17Z</time>
|
|---|
| 616 | </trkpt>
|
|---|
| 617 | <trkpt lat='57.379417' lon='21.530198'>
|
|---|
| 618 | <time>2007-10-07T09:07:21Z</time>
|
|---|
| 619 | </trkpt>
|
|---|
| 620 | <trkpt lat='57.379415' lon='21.530158'>
|
|---|
| 621 | <time>2007-10-07T09:07:25Z</time>
|
|---|
| 622 | </trkpt>
|
|---|
| 623 | <trkpt lat='57.379413' lon='21.530138'>
|
|---|
| 624 | <time>2007-10-07T09:07:29Z</time>
|
|---|
| 625 | </trkpt>
|
|---|
| 626 | <trkpt lat='57.379425' lon='21.53014'>
|
|---|
| 627 | <time>2007-10-07T09:07:40Z</time>
|
|---|
| 628 | </trkpt>
|
|---|
| 629 | <trkpt lat='57.379427' lon='21.530152'>
|
|---|
| 630 | <time>2007-10-07T09:07:44Z</time>
|
|---|
| 631 | </trkpt>
|
|---|
| 632 | <trkpt lat='57.379448' lon='21.530118'>
|
|---|
| 633 | <time>2007-10-07T09:07:57Z</time>
|
|---|
| 634 | </trkpt>
|
|---|
| 635 | <trkpt lat='57.379447' lon='21.53011'>
|
|---|
| 636 | <time>2007-10-07T09:07:58Z</time>
|
|---|
| 637 | </trkpt>
|
|---|
| 638 | <trkpt lat='57.379418' lon='21.52989'>
|
|---|
| 639 | <time>2007-10-07T09:08:11Z</time>
|
|---|
| 640 | </trkpt>
|
|---|
| 641 | <trkpt lat='57.379373' lon='21.529793'>
|
|---|
| 642 | <time>2007-10-07T09:08:23Z</time>
|
|---|
| 643 | </trkpt>
|
|---|
| 644 | <trkpt lat='57.379348' lon='21.529668'>
|
|---|
| 645 | <time>2007-10-07T09:08:27Z</time>
|
|---|
| 646 | </trkpt>
|
|---|
| 647 | <trkpt lat='57.379337' lon='21.529598'>
|
|---|
| 648 | <time>2007-10-07T09:08:31Z</time>
|
|---|
| 649 | </trkpt>
|
|---|
| 650 | <trkpt lat='57.37935' lon='21.529547'>
|
|---|
| 651 | <time>2007-10-07T09:08:35Z</time>
|
|---|
| 652 | </trkpt>
|
|---|
| 653 | <trkpt lat='57.37935' lon='21.529478'>
|
|---|
| 654 | <time>2007-10-07T09:08:39Z</time>
|
|---|
| 655 | </trkpt>
|
|---|
| 656 | <trkpt lat='57.379355' lon='21.529417'>
|
|---|
| 657 | <time>2007-10-07T09:08:43Z</time>
|
|---|
| 658 | </trkpt>
|
|---|
| 659 | <trkpt lat='57.379328' lon='21.529278'>
|
|---|
| 660 | <time>2007-10-07T09:08:52Z</time>
|
|---|
| 661 | </trkpt>
|
|---|
| 662 | <trkpt lat='57.37927' lon='21.52917'>
|
|---|
| 663 | <time>2007-10-07T09:09:01Z</time>
|
|---|
| 664 | </trkpt>
|
|---|
| 665 | <trkpt lat='57.379185' lon='21.529048'>
|
|---|
| 666 | <time>2007-10-07T09:09:14Z</time>
|
|---|
| 667 | </trkpt>
|
|---|
| 668 | <trkpt lat='57.379177' lon='21.529038'>
|
|---|
| 669 | <time>2007-10-07T09:09:18Z</time>
|
|---|
| 670 | </trkpt>
|
|---|
| 671 | <trkpt lat='57.379047' lon='21.528895'>
|
|---|
| 672 | <time>2007-10-07T09:09:33Z</time>
|
|---|
| 673 | </trkpt>
|
|---|
| 674 | <trkpt lat='57.378958' lon='21.528758'>
|
|---|
| 675 | <time>2007-10-07T09:09:47Z</time>
|
|---|
| 676 | </trkpt>
|
|---|
| 677 | <trkpt lat='57.378803' lon='21.52867'>
|
|---|
| 678 | <time>2007-10-07T09:10:05Z</time>
|
|---|
| 679 | </trkpt>
|
|---|
| 680 | <trkpt lat='57.378655' lon='21.528557'>
|
|---|
| 681 | <time>2007-10-07T09:10:24Z</time>
|
|---|
| 682 | </trkpt>
|
|---|
| 683 | <trkpt lat='57.378612' lon='21.528522'>
|
|---|
| 684 | <time>2007-10-07T09:10:30Z</time>
|
|---|
| 685 | </trkpt>
|
|---|
| 686 | <trkpt lat='57.378588' lon='21.528477'>
|
|---|
| 687 | <time>2007-10-07T09:10:34Z</time>
|
|---|
| 688 | </trkpt>
|
|---|
| 689 | <trkpt lat='57.378493' lon='21.528408'>
|
|---|
| 690 | <time>2007-10-07T09:10:46Z</time>
|
|---|
| 691 | </trkpt>
|
|---|
| 692 | <trkpt lat='57.378465' lon='21.528387'>
|
|---|
| 693 | <time>2007-10-07T09:10:49Z</time>
|
|---|
| 694 | </trkpt>
|
|---|
| 695 | <trkpt lat='57.378355' lon='21.528268'>
|
|---|
| 696 | <time>2007-10-07T09:11:07Z</time>
|
|---|
| 697 | </trkpt>
|
|---|
| 698 | <trkpt lat='57.378322' lon='21.528243'>
|
|---|
| 699 | <time>2007-10-07T09:11:11Z</time>
|
|---|
| 700 | </trkpt>
|
|---|
| 701 | <trkpt lat='57.378245' lon='21.528168'>
|
|---|
| 702 | <time>2007-10-07T09:11:23Z</time>
|
|---|
| 703 | </trkpt>
|
|---|
| 704 | <trkpt lat='57.37821' lon='21.528142'>
|
|---|
| 705 | <time>2007-10-07T09:11:28Z</time>
|
|---|
| 706 | </trkpt>
|
|---|
| 707 | <trkpt lat='57.37818' lon='21.52808'>
|
|---|
| 708 | <time>2007-10-07T09:11:33Z</time>
|
|---|
| 709 | </trkpt>
|
|---|
| 710 | <trkpt lat='57.37814' lon='21.527998'>
|
|---|
| 711 | <time>2007-10-07T09:11:40Z</time>
|
|---|
| 712 | </trkpt>
|
|---|
| 713 | <trkpt lat='57.378077' lon='21.527893'>
|
|---|
| 714 | <time>2007-10-07T09:11:52Z</time>
|
|---|
| 715 | </trkpt>
|
|---|
| 716 | <trkpt lat='57.378057' lon='21.52784'>
|
|---|
| 717 | <time>2007-10-07T09:11:56Z</time>
|
|---|
| 718 | </trkpt>
|
|---|
| 719 | <trkpt lat='57.378025' lon='21.527785'>
|
|---|
| 720 | <time>2007-10-07T09:12:01Z</time>
|
|---|
| 721 | </trkpt>
|
|---|
| 722 | <trkpt lat='57.377928' lon='21.527735'>
|
|---|
| 723 | <time>2007-10-07T09:12:13Z</time>
|
|---|
| 724 | </trkpt>
|
|---|
| 725 | <trkpt lat='57.377907' lon='21.527687'>
|
|---|
| 726 | <time>2007-10-07T09:12:17Z</time>
|
|---|
| 727 | </trkpt>
|
|---|
| 728 | <trkpt lat='57.37789' lon='21.527622'>
|
|---|
| 729 | <time>2007-10-07T09:12:22Z</time>
|
|---|
| 730 | </trkpt>
|
|---|
| 731 | <trkpt lat='57.37786' lon='21.527555'>
|
|---|
| 732 | <time>2007-10-07T09:12:25Z</time>
|
|---|
| 733 | </trkpt>
|
|---|
| 734 | <trkpt lat='57.377805' lon='21.527475'>
|
|---|
| 735 | <time>2007-10-07T09:12:33Z</time>
|
|---|
| 736 | </trkpt>
|
|---|
| 737 | <trkpt lat='57.377773' lon='21.527445'>
|
|---|
| 738 | <time>2007-10-07T09:12:37Z</time>
|
|---|
| 739 | </trkpt>
|
|---|
| 740 | <trkpt lat='57.37776' lon='21.527433'>
|
|---|
| 741 | <time>2007-10-07T09:12:41Z</time>
|
|---|
| 742 | </trkpt>
|
|---|
| 743 | <trkpt lat='57.377708' lon='21.527418'>
|
|---|
| 744 | <time>2007-10-07T09:12:45Z</time>
|
|---|
| 745 | </trkpt>
|
|---|
| 746 | <trkpt lat='57.377678' lon='21.527375'>
|
|---|
| 747 | <time>2007-10-07T09:12:49Z</time>
|
|---|
| 748 | </trkpt>
|
|---|
| 749 | <trkpt lat='57.377645' lon='21.527327'>
|
|---|
| 750 | <time>2007-10-07T09:12:53Z</time>
|
|---|
| 751 | </trkpt>
|
|---|
| 752 | <trkpt lat='57.377642' lon='21.527292'>
|
|---|
| 753 | <time>2007-10-07T09:12:56Z</time>
|
|---|
| 754 | </trkpt>
|
|---|
| 755 | <trkpt lat='57.377643' lon='21.527283'>
|
|---|
| 756 | <time>2007-10-07T09:13:00Z</time>
|
|---|
| 757 | </trkpt>
|
|---|
| 758 | <trkpt lat='57.377625' lon='21.527238'>
|
|---|
| 759 | <time>2007-10-07T09:13:04Z</time>
|
|---|
| 760 | </trkpt>
|
|---|
| 761 | <trkpt lat='57.377595' lon='21.52721'>
|
|---|
| 762 | <time>2007-10-07T09:13:08Z</time>
|
|---|
| 763 | </trkpt>
|
|---|
| 764 | <trkpt lat='57.377517' lon='21.527152'>
|
|---|
| 765 | <time>2007-10-07T09:13:14Z</time>
|
|---|
| 766 | </trkpt>
|
|---|
| 767 | <trkpt lat='57.377492' lon='21.527137'>
|
|---|
| 768 | <time>2007-10-07T09:13:17Z</time>
|
|---|
| 769 | </trkpt>
|
|---|
| 770 | <trkpt lat='57.377485' lon='21.527125'>
|
|---|
| 771 | <time>2007-10-07T09:13:18Z</time>
|
|---|
| 772 | </trkpt>
|
|---|
| 773 | <trkpt lat='57.377462' lon='21.527103'>
|
|---|
| 774 | <time>2007-10-07T09:13:22Z</time>
|
|---|
| 775 | </trkpt>
|
|---|
| 776 | <trkpt lat='57.377435' lon='21.527058'>
|
|---|
| 777 | <time>2007-10-07T09:13:26Z</time>
|
|---|
| 778 | </trkpt>
|
|---|
| 779 | <trkpt lat='57.377415' lon='21.526998'>
|
|---|
| 780 | <time>2007-10-07T09:13:30Z</time>
|
|---|
| 781 | </trkpt>
|
|---|
| 782 | <trkpt lat='57.377387' lon='21.526957'>
|
|---|
| 783 | <time>2007-10-07T09:13:35Z</time>
|
|---|
| 784 | </trkpt>
|
|---|
| 785 | <trkpt lat='57.377325' lon='21.526937'>
|
|---|
| 786 | <time>2007-10-07T09:13:41Z</time>
|
|---|
| 787 | </trkpt>
|
|---|
| 788 | <trkpt lat='57.377282' lon='21.526897'>
|
|---|
| 789 | <time>2007-10-07T09:13:45Z</time>
|
|---|
| 790 | </trkpt>
|
|---|
| 791 | <trkpt lat='57.37725' lon='21.52687'>
|
|---|
| 792 | <time>2007-10-07T09:13:49Z</time>
|
|---|
| 793 | </trkpt>
|
|---|
| 794 | <trkpt lat='57.377223' lon='21.526868'>
|
|---|
| 795 | <time>2007-10-07T09:13:53Z</time>
|
|---|
| 796 | </trkpt>
|
|---|
| 797 | <trkpt lat='57.377185' lon='21.526863'>
|
|---|
| 798 | <time>2007-10-07T09:13:57Z</time>
|
|---|
| 799 | </trkpt>
|
|---|
| 800 | <trkpt lat='57.37716' lon='21.52681'>
|
|---|
| 801 | <time>2007-10-07T09:14:01Z</time>
|
|---|
| 802 | </trkpt>
|
|---|
| 803 | <trkpt lat='57.377132' lon='21.526773'>
|
|---|
| 804 | <time>2007-10-07T09:14:04Z</time>
|
|---|
| 805 | </trkpt>
|
|---|
| 806 | <trkpt lat='57.37701' lon='21.526737'>
|
|---|
| 807 | <time>2007-10-07T09:14:17Z</time>
|
|---|
| 808 | </trkpt>
|
|---|
| 809 | <trkpt lat='57.376972' lon='21.526752'>
|
|---|
| 810 | <time>2007-10-07T09:14:21Z</time>
|
|---|
| 811 | </trkpt>
|
|---|
| 812 | <trkpt lat='57.376965' lon='21.526752'>
|
|---|
| 813 | <time>2007-10-07T09:14:22Z</time>
|
|---|
| 814 | </trkpt>
|
|---|
| 815 | <trkpt lat='57.376833' lon='21.526633'>
|
|---|
| 816 | <time>2007-10-07T09:14:39Z</time>
|
|---|
| 817 | </trkpt>
|
|---|
| 818 | <trkpt lat='57.376733' lon='21.526563'>
|
|---|
| 819 | <time>2007-10-07T09:14:51Z</time>
|
|---|
| 820 | </trkpt>
|
|---|
| 821 | <trkpt lat='57.376712' lon='21.526517'>
|
|---|
| 822 | <time>2007-10-07T09:14:55Z</time>
|
|---|
| 823 | </trkpt>
|
|---|
| 824 | <trkpt lat='57.376685' lon='21.526467'>
|
|---|
| 825 | <time>2007-10-07T09:15:00Z</time>
|
|---|
| 826 | </trkpt>
|
|---|
| 827 | <trkpt lat='57.37655' lon='21.5262'>
|
|---|
| 828 | <time>2007-10-07T09:15:22Z</time>
|
|---|
| 829 | </trkpt>
|
|---|
| 830 | <trkpt lat='57.376503' lon='21.52614'>
|
|---|
| 831 | <time>2007-10-07T09:15:29Z</time>
|
|---|
| 832 | </trkpt>
|
|---|
| 833 | <trkpt lat='57.37643' lon='21.526117'>
|
|---|
| 834 | <time>2007-10-07T09:15:38Z</time>
|
|---|
| 835 | </trkpt>
|
|---|
| 836 | <trkpt lat='57.376308' lon='21.525987'>
|
|---|
| 837 | <time>2007-10-07T09:15:55Z</time>
|
|---|
| 838 | </trkpt>
|
|---|
| 839 | <trkpt lat='57.376188' lon='21.525765'>
|
|---|
| 840 | <time>2007-10-07T09:16:15Z</time>
|
|---|
| 841 | </trkpt>
|
|---|
| 842 | <trkpt lat='57.376063' lon='21.525653'>
|
|---|
| 843 | <time>2007-10-07T09:16:31Z</time>
|
|---|
| 844 | </trkpt>
|
|---|
| 845 | <trkpt lat='57.376033' lon='21.525637'>
|
|---|
| 846 | <time>2007-10-07T09:16:35Z</time>
|
|---|
| 847 | </trkpt>
|
|---|
| 848 | <trkpt lat='57.375933' lon='21.525555'>
|
|---|
| 849 | <time>2007-10-07T09:16:49Z</time>
|
|---|
| 850 | </trkpt>
|
|---|
| 851 | <trkpt lat='57.375907' lon='21.525528'>
|
|---|
| 852 | <time>2007-10-07T09:16:53Z</time>
|
|---|
| 853 | </trkpt>
|
|---|
| 854 | <trkpt lat='57.37585' lon='21.525505'>
|
|---|
| 855 | <time>2007-10-07T09:17:00Z</time>
|
|---|
| 856 | </trkpt>
|
|---|
| 857 | <trkpt lat='57.37582' lon='21.525493'>
|
|---|
| 858 | <time>2007-10-07T09:17:04Z</time>
|
|---|
| 859 | </trkpt>
|
|---|
| 860 | <trkpt lat='57.375693' lon='21.525407'>
|
|---|
| 861 | <time>2007-10-07T09:17:20Z</time>
|
|---|
| 862 | </trkpt>
|
|---|
| 863 | <trkpt lat='57.37562' lon='21.52533'>
|
|---|
| 864 | <time>2007-10-07T09:17:32Z</time>
|
|---|
| 865 | </trkpt>
|
|---|
| 866 | <trkpt lat='57.37559' lon='21.525308'>
|
|---|
| 867 | <time>2007-10-07T09:17:36Z</time>
|
|---|
| 868 | </trkpt>
|
|---|
| 869 | <trkpt lat='57.375442' lon='21.525202'>
|
|---|
| 870 | <time>2007-10-07T09:17:54Z</time>
|
|---|
| 871 | </trkpt>
|
|---|
| 872 | <trkpt lat='57.37532' lon='21.525105'>
|
|---|
| 873 | <time>2007-10-07T09:18:09Z</time>
|
|---|
| 874 | </trkpt>
|
|---|
| 875 | <trkpt lat='57.375235' lon='21.524998'>
|
|---|
| 876 | <time>2007-10-07T09:18:22Z</time>
|
|---|
| 877 | </trkpt>
|
|---|
| 878 | <trkpt lat='57.375167' lon='21.524913'>
|
|---|
| 879 | <time>2007-10-07T09:18:33Z</time>
|
|---|
| 880 | </trkpt>
|
|---|
| 881 | <trkpt lat='57.375132' lon='21.524888'>
|
|---|
| 882 | <time>2007-10-07T09:18:38Z</time>
|
|---|
| 883 | </trkpt>
|
|---|
| 884 | <trkpt lat='57.375083' lon='21.524882'>
|
|---|
| 885 | <time>2007-10-07T09:18:45Z</time>
|
|---|
| 886 | </trkpt>
|
|---|
| 887 | <trkpt lat='57.375078' lon='21.524875'>
|
|---|
| 888 | <time>2007-10-07T09:18:46Z</time>
|
|---|
| 889 | </trkpt>
|
|---|
| 890 | <trkpt lat='57.375023' lon='21.524815'>
|
|---|
| 891 | <time>2007-10-07T09:18:53Z</time>
|
|---|
| 892 | </trkpt>
|
|---|
| 893 | <trkpt lat='57.37499' lon='21.524768'>
|
|---|
| 894 | <time>2007-10-07T09:18:58Z</time>
|
|---|
| 895 | </trkpt>
|
|---|
| 896 | <trkpt lat='57.374967' lon='21.524772'>
|
|---|
| 897 | <time>2007-10-07T09:19:01Z</time>
|
|---|
| 898 | </trkpt>
|
|---|
| 899 | <trkpt lat='57.374958' lon='21.524782'>
|
|---|
| 900 | <time>2007-10-07T09:19:02Z</time>
|
|---|
| 901 | </trkpt>
|
|---|
| 902 | <trkpt lat='57.37492' lon='21.524782'>
|
|---|
| 903 | <time>2007-10-07T09:19:06Z</time>
|
|---|
| 904 | </trkpt>
|
|---|
| 905 | <trkpt lat='57.374818' lon='21.524755'>
|
|---|
| 906 | <time>2007-10-07T09:19:21Z</time>
|
|---|
| 907 | </trkpt>
|
|---|
| 908 | <trkpt lat='57.374847' lon='21.524767'>
|
|---|
| 909 | <time>2007-10-07T09:19:32Z</time>
|
|---|
| 910 | </trkpt>
|
|---|
| 911 | <trkpt lat='57.37485' lon='21.524765'>
|
|---|
| 912 | <time>2007-10-07T09:19:37Z</time>
|
|---|
| 913 | </trkpt>
|
|---|
| 914 | <trkpt lat='57.37484' lon='21.524708'>
|
|---|
| 915 | <time>2007-10-07T09:19:46Z</time>
|
|---|
| 916 | </trkpt>
|
|---|
| 917 | <trkpt lat='57.37481' lon='21.524705'>
|
|---|
| 918 | <time>2007-10-07T09:19:49Z</time>
|
|---|
| 919 | </trkpt>
|
|---|
| 920 | <trkpt lat='57.374762' lon='21.524698'>
|
|---|
| 921 | <time>2007-10-07T09:19:53Z</time>
|
|---|
| 922 | </trkpt>
|
|---|
| 923 | <trkpt lat='57.374753' lon='21.52469'>
|
|---|
| 924 | <time>2007-10-07T09:19:54Z</time>
|
|---|
| 925 | </trkpt>
|
|---|
| 926 | <trkpt lat='57.374722' lon='21.524653'>
|
|---|
| 927 | <time>2007-10-07T09:19:59Z</time>
|
|---|
| 928 | </trkpt>
|
|---|
| 929 | <trkpt lat='57.37469' lon='21.524622'>
|
|---|
| 930 | <time>2007-10-07T09:20:03Z</time>
|
|---|
| 931 | </trkpt>
|
|---|
| 932 | <trkpt lat='57.374662' lon='21.52456'>
|
|---|
| 933 | <time>2007-10-07T09:20:07Z</time>
|
|---|
| 934 | </trkpt>
|
|---|
| 935 | <trkpt lat='57.374635' lon='21.524537'>
|
|---|
| 936 | <time>2007-10-07T09:20:11Z</time>
|
|---|
| 937 | </trkpt>
|
|---|
| 938 | <trkpt lat='57.374605' lon='21.52452'>
|
|---|
| 939 | <time>2007-10-07T09:20:15Z</time>
|
|---|
| 940 | </trkpt>
|
|---|
| 941 | <trkpt lat='57.374563' lon='21.52449'>
|
|---|
| 942 | <time>2007-10-07T09:20:19Z</time>
|
|---|
| 943 | </trkpt>
|
|---|
| 944 | <trkpt lat='57.374465' lon='21.524385'>
|
|---|
| 945 | <time>2007-10-07T09:20:35Z</time>
|
|---|
| 946 | </trkpt>
|
|---|
| 947 | <trkpt lat='57.37443' lon='21.524375'>
|
|---|
| 948 | <time>2007-10-07T09:20:39Z</time>
|
|---|
| 949 | </trkpt>
|
|---|
| 950 | <trkpt lat='57.374388' lon='21.524358'>
|
|---|
| 951 | <time>2007-10-07T09:20:43Z</time>
|
|---|
| 952 | </trkpt>
|
|---|
| 953 | <trkpt lat='57.374347' lon='21.524362'>
|
|---|
| 954 | <time>2007-10-07T09:20:47Z</time>
|
|---|
| 955 | </trkpt>
|
|---|
| 956 | <trkpt lat='57.374272' lon='21.524278'>
|
|---|
| 957 | <time>2007-10-07T09:20:56Z</time>
|
|---|
| 958 | </trkpt>
|
|---|
| 959 | <trkpt lat='57.37425' lon='21.524187'>
|
|---|
| 960 | <time>2007-10-07T09:21:01Z</time>
|
|---|
| 961 | </trkpt>
|
|---|
| 962 | <trkpt lat='57.374237' lon='21.524143'>
|
|---|
| 963 | <time>2007-10-07T09:21:05Z</time>
|
|---|
| 964 | </trkpt>
|
|---|
| 965 | <trkpt lat='57.37421' lon='21.52413'>
|
|---|
| 966 | <time>2007-10-07T09:21:09Z</time>
|
|---|
| 967 | </trkpt>
|
|---|
| 968 | <trkpt lat='57.374128' lon='21.523995'>
|
|---|
| 969 | <time>2007-10-07T09:21:24Z</time>
|
|---|
| 970 | </trkpt>
|
|---|
| 971 | <trkpt lat='57.374105' lon='21.523977'>
|
|---|
| 972 | <time>2007-10-07T09:21:28Z</time>
|
|---|
| 973 | </trkpt>
|
|---|
| 974 | <trkpt lat='57.374075' lon='21.523987'>
|
|---|
| 975 | <time>2007-10-07T09:21:32Z</time>
|
|---|
| 976 | </trkpt>
|
|---|
| 977 | <trkpt lat='57.374075' lon='21.523905'>
|
|---|
| 978 | <time>2007-10-07T09:21:36Z</time>
|
|---|
| 979 | </trkpt>
|
|---|
| 980 | <trkpt lat='57.374072' lon='21.523888'>
|
|---|
| 981 | <time>2007-10-07T09:21:40Z</time>
|
|---|
| 982 | </trkpt>
|
|---|
| 983 | <trkpt lat='57.374038' lon='21.52376'>
|
|---|
| 984 | <time>2007-10-07T09:21:45Z</time>
|
|---|
| 985 | </trkpt>
|
|---|
| 986 | <trkpt lat='57.37401' lon='21.523647'>
|
|---|
| 987 | <time>2007-10-07T09:21:53Z</time>
|
|---|
| 988 | </trkpt>
|
|---|
| 989 | <trkpt lat='57.374' lon='21.52362'>
|
|---|
| 990 | <time>2007-10-07T09:21:58Z</time>
|
|---|
| 991 | </trkpt>
|
|---|
| 992 | <trkpt lat='57.374398' lon='21.522447'>
|
|---|
| 993 | <time>2007-10-07T09:22:06Z</time>
|
|---|
| 994 | </trkpt>
|
|---|
| 995 | <trkpt lat='57.373973' lon='21.523283'>
|
|---|
| 996 | <time>2007-10-07T09:22:11Z</time>
|
|---|
| 997 | </trkpt>
|
|---|
| 998 | <trkpt lat='57.373912' lon='21.52336'>
|
|---|
| 999 | <time>2007-10-07T09:22:15Z</time>
|
|---|
| 1000 | </trkpt>
|
|---|
| 1001 | <trkpt lat='57.37387' lon='21.523342'>
|
|---|
| 1002 | <time>2007-10-07T09:22:19Z</time>
|
|---|
| 1003 | </trkpt>
|
|---|
| 1004 | <trkpt lat='57.373858' lon='21.5233'>
|
|---|
| 1005 | <time>2007-10-07T09:22:24Z</time>
|
|---|
| 1006 | </trkpt>
|
|---|
| 1007 | <trkpt lat='57.373833' lon='21.52327'>
|
|---|
| 1008 | <time>2007-10-07T09:22:25Z</time>
|
|---|
| 1009 | </trkpt>
|
|---|
| 1010 | <trkpt lat='57.373817' lon='21.523317'>
|
|---|
| 1011 | <time>2007-10-07T09:22:29Z</time>
|
|---|
| 1012 | </trkpt>
|
|---|
| 1013 | <trkpt lat='57.373808' lon='21.5232'>
|
|---|
| 1014 | <time>2007-10-07T09:22:32Z</time>
|
|---|
| 1015 | </trkpt>
|
|---|
| 1016 | <trkpt lat='57.373808' lon='21.523065'>
|
|---|
| 1017 | <time>2007-10-07T09:22:37Z</time>
|
|---|
| 1018 | </trkpt>
|
|---|
| 1019 | <trkpt lat='57.373805' lon='21.523028'>
|
|---|
| 1020 | <time>2007-10-07T09:22:40Z</time>
|
|---|
| 1021 | </trkpt>
|
|---|
| 1022 | <trkpt lat='57.373805' lon='21.522918'>
|
|---|
| 1023 | <time>2007-10-07T09:22:45Z</time>
|
|---|
| 1024 | </trkpt>
|
|---|
| 1025 | <trkpt lat='57.373805' lon='21.522863'>
|
|---|
| 1026 | <time>2007-10-07T09:22:49Z</time>
|
|---|
| 1027 | </trkpt>
|
|---|
| 1028 | <trkpt lat='57.3738' lon='21.522848'>
|
|---|
| 1029 | <time>2007-10-07T09:22:53Z</time>
|
|---|
| 1030 | </trkpt>
|
|---|
| 1031 | <trkpt lat='57.373822' lon='21.522705'>
|
|---|
| 1032 | <time>2007-10-07T09:23:02Z</time>
|
|---|
| 1033 | </trkpt>
|
|---|
| 1034 | <trkpt lat='57.373822' lon='21.522635'>
|
|---|
| 1035 | <time>2007-10-07T09:23:06Z</time>
|
|---|
| 1036 | </trkpt>
|
|---|
| 1037 | <trkpt lat='57.373813' lon='21.522622'>
|
|---|
| 1038 | <time>2007-10-07T09:23:10Z</time>
|
|---|
| 1039 | </trkpt>
|
|---|
| 1040 | <trkpt lat='57.373815' lon='21.522398'>
|
|---|
| 1041 | <time>2007-10-07T09:23:18Z</time>
|
|---|
| 1042 | </trkpt>
|
|---|
| 1043 | <trkpt lat='57.373823' lon='21.522307'>
|
|---|
| 1044 | <time>2007-10-07T09:23:22Z</time>
|
|---|
| 1045 | </trkpt>
|
|---|
| 1046 | <trkpt lat='57.37384' lon='21.522255'>
|
|---|
| 1047 | <time>2007-10-07T09:23:26Z</time>
|
|---|
| 1048 | </trkpt>
|
|---|
| 1049 | <trkpt lat='57.373865' lon='21.522105'>
|
|---|
| 1050 | <time>2007-10-07T09:23:33Z</time>
|
|---|
| 1051 | </trkpt>
|
|---|
| 1052 | <trkpt lat='57.373905' lon='21.52203'>
|
|---|
| 1053 | <time>2007-10-07T09:23:38Z</time>
|
|---|
| 1054 | </trkpt>
|
|---|
| 1055 | <trkpt lat='57.37392' lon='21.522'>
|
|---|
| 1056 | <time>2007-10-07T09:23:41Z</time>
|
|---|
| 1057 | </trkpt>
|
|---|
| 1058 | <trkpt lat='57.373927' lon='21.521988'>
|
|---|
| 1059 | <time>2007-10-07T09:23:42Z</time>
|
|---|
| 1060 | </trkpt>
|
|---|
| 1061 | <trkpt lat='57.373938' lon='21.521925'>
|
|---|
| 1062 | <time>2007-10-07T09:23:46Z</time>
|
|---|
| 1063 | </trkpt>
|
|---|
| 1064 | <trkpt lat='57.373953' lon='21.521895'>
|
|---|
| 1065 | <time>2007-10-07T09:23:49Z</time>
|
|---|
| 1066 | </trkpt>
|
|---|
| 1067 | <trkpt lat='57.373977' lon='21.52187'>
|
|---|
| 1068 | <time>2007-10-07T09:23:53Z</time>
|
|---|
| 1069 | </trkpt>
|
|---|
| 1070 | <trkpt lat='57.374007' lon='21.521865'>
|
|---|
| 1071 | <time>2007-10-07T09:23:57Z</time>
|
|---|
| 1072 | </trkpt>
|
|---|
| 1073 | <trkpt lat='57.374015' lon='21.52186'>
|
|---|
| 1074 | <time>2007-10-07T09:23:58Z</time>
|
|---|
| 1075 | </trkpt>
|
|---|
| 1076 | <trkpt lat='57.37405' lon='21.521793'>
|
|---|
| 1077 | <time>2007-10-07T09:24:06Z</time>
|
|---|
| 1078 | </trkpt>
|
|---|
| 1079 | <trkpt lat='57.374097' lon='21.52169'>
|
|---|
| 1080 | <time>2007-10-07T09:24:10Z</time>
|
|---|
| 1081 | </trkpt>
|
|---|
| 1082 | <trkpt lat='57.374102' lon='21.521665'>
|
|---|
| 1083 | <time>2007-10-07T09:24:13Z</time>
|
|---|
| 1084 | </trkpt>
|
|---|
| 1085 | <trkpt lat='57.374132' lon='21.521593'>
|
|---|
| 1086 | <time>2007-10-07T09:24:18Z</time>
|
|---|
| 1087 | </trkpt>
|
|---|
| 1088 | <trkpt lat='57.374142' lon='21.521558'>
|
|---|
| 1089 | <time>2007-10-07T09:24:21Z</time>
|
|---|
| 1090 | </trkpt>
|
|---|
| 1091 | <trkpt lat='57.374163' lon='21.5215'>
|
|---|
| 1092 | <time>2007-10-07T09:24:26Z</time>
|
|---|
| 1093 | </trkpt>
|
|---|
| 1094 | <trkpt lat='57.374177' lon='21.521465'>
|
|---|
| 1095 | <time>2007-10-07T09:24:29Z</time>
|
|---|
| 1096 | </trkpt>
|
|---|
| 1097 | <trkpt lat='57.374182' lon='21.521447'>
|
|---|
| 1098 | <time>2007-10-07T09:24:30Z</time>
|
|---|
| 1099 | </trkpt>
|
|---|
| 1100 | <trkpt lat='57.374198' lon='21.521402'>
|
|---|
| 1101 | <time>2007-10-07T09:24:34Z</time>
|
|---|
| 1102 | </trkpt>
|
|---|
| 1103 | <trkpt lat='57.374207' lon='21.521348'>
|
|---|
| 1104 | <time>2007-10-07T09:24:37Z</time>
|
|---|
| 1105 | </trkpt>
|
|---|
| 1106 | <trkpt lat='57.37421' lon='21.52133'>
|
|---|
| 1107 | <time>2007-10-07T09:24:38Z</time>
|
|---|
| 1108 | </trkpt>
|
|---|
| 1109 | <trkpt lat='57.374223' lon='21.521292'>
|
|---|
| 1110 | <time>2007-10-07T09:24:42Z</time>
|
|---|
| 1111 | </trkpt>
|
|---|
| 1112 | <trkpt lat='57.374278' lon='21.521162'>
|
|---|
| 1113 | <time>2007-10-07T09:24:57Z</time>
|
|---|
| 1114 | </trkpt>
|
|---|
| 1115 | <trkpt lat='57.374298' lon='21.521127'>
|
|---|
| 1116 | <time>2007-10-07T09:25:02Z</time>
|
|---|
| 1117 | </trkpt>
|
|---|
| 1118 | <trkpt lat='57.374323' lon='21.521082'>
|
|---|
| 1119 | <time>2007-10-07T09:25:05Z</time>
|
|---|
| 1120 | </trkpt>
|
|---|
| 1121 | <trkpt lat='57.374407' lon='21.520993'>
|
|---|
| 1122 | <time>2007-10-07T09:25:18Z</time>
|
|---|
| 1123 | </trkpt>
|
|---|
| 1124 | <trkpt lat='57.374435' lon='21.520975'>
|
|---|
| 1125 | <time>2007-10-07T09:25:21Z</time>
|
|---|
| 1126 | </trkpt>
|
|---|
| 1127 | <trkpt lat='57.374475' lon='21.520953'>
|
|---|
| 1128 | <time>2007-10-07T09:25:26Z</time>
|
|---|
| 1129 | </trkpt>
|
|---|
| 1130 | <trkpt lat='57.374495' lon='21.520923'>
|
|---|
| 1131 | <time>2007-10-07T09:25:30Z</time>
|
|---|
| 1132 | </trkpt>
|
|---|
| 1133 | <trkpt lat='57.374513' lon='21.520908'>
|
|---|
| 1134 | <time>2007-10-07T09:25:33Z</time>
|
|---|
| 1135 | </trkpt>
|
|---|
| 1136 | <trkpt lat='57.374522' lon='21.520902'>
|
|---|
| 1137 | <time>2007-10-07T09:25:34Z</time>
|
|---|
| 1138 | </trkpt>
|
|---|
| 1139 | <trkpt lat='57.374565' lon='21.520748'>
|
|---|
| 1140 | <time>2007-10-07T09:25:46Z</time>
|
|---|
| 1141 | </trkpt>
|
|---|
| 1142 | <trkpt lat='57.374615' lon='21.520703'>
|
|---|
| 1143 | <time>2007-10-07T09:25:54Z</time>
|
|---|
| 1144 | </trkpt>
|
|---|
| 1145 | <trkpt lat='57.374642' lon='21.520695'>
|
|---|
| 1146 | <time>2007-10-07T09:25:58Z</time>
|
|---|
| 1147 | </trkpt>
|
|---|
| 1148 | <trkpt lat='57.374662' lon='21.520673'>
|
|---|
| 1149 | <time>2007-10-07T09:26:02Z</time>
|
|---|
| 1150 | </trkpt>
|
|---|
| 1151 | <trkpt lat='57.374705' lon='21.520625'>
|
|---|
| 1152 | <time>2007-10-07T09:26:10Z</time>
|
|---|
| 1153 | </trkpt>
|
|---|
| 1154 | <trkpt lat='57.37481' lon='21.520577'>
|
|---|
| 1155 | <time>2007-10-07T09:26:26Z</time>
|
|---|
| 1156 | </trkpt>
|
|---|
| 1157 | <trkpt lat='57.374965' lon='21.520622'>
|
|---|
| 1158 | <time>2007-10-07T09:26:46Z</time>
|
|---|
| 1159 | </trkpt>
|
|---|
| 1160 | <trkpt lat='57.374985' lon='21.52064'>
|
|---|
| 1161 | <time>2007-10-07T09:26:49Z</time>
|
|---|
| 1162 | </trkpt>
|
|---|
| 1163 | <trkpt lat='57.375008' lon='21.520673'>
|
|---|
| 1164 | <time>2007-10-07T09:26:53Z</time>
|
|---|
| 1165 | </trkpt>
|
|---|
| 1166 | <trkpt lat='57.375075' lon='21.520755'>
|
|---|
| 1167 | <time>2007-10-07T09:27:05Z</time>
|
|---|
| 1168 | </trkpt>
|
|---|
| 1169 | <trkpt lat='57.375103' lon='21.520778'>
|
|---|
| 1170 | <time>2007-10-07T09:27:09Z</time>
|
|---|
| 1171 | </trkpt>
|
|---|
| 1172 | <trkpt lat='57.37513' lon='21.520807'>
|
|---|
| 1173 | <time>2007-10-07T09:27:13Z</time>
|
|---|
| 1174 | </trkpt>
|
|---|
| 1175 | <trkpt lat='57.375177' lon='21.520863'>
|
|---|
| 1176 | <time>2007-10-07T09:27:21Z</time>
|
|---|
| 1177 | </trkpt>
|
|---|
| 1178 | <trkpt lat='57.375195' lon='21.5209'>
|
|---|
| 1179 | <time>2007-10-07T09:27:25Z</time>
|
|---|
| 1180 | </trkpt>
|
|---|
| 1181 | <trkpt lat='57.375245' lon='21.52096'>
|
|---|
| 1182 | <time>2007-10-07T09:27:33Z</time>
|
|---|
| 1183 | </trkpt>
|
|---|
| 1184 | <trkpt lat='57.375282' lon='21.521023'>
|
|---|
| 1185 | <time>2007-10-07T09:27:40Z</time>
|
|---|
| 1186 | </trkpt>
|
|---|
| 1187 | <trkpt lat='57.375313' lon='21.5211'>
|
|---|
| 1188 | <time>2007-10-07T09:27:47Z</time>
|
|---|
| 1189 | </trkpt>
|
|---|
| 1190 | <trkpt lat='57.37539' lon='21.521273'>
|
|---|
| 1191 | <time>2007-10-07T09:28:03Z</time>
|
|---|
| 1192 | </trkpt>
|
|---|
| 1193 | <trkpt lat='57.375437' lon='21.521383'>
|
|---|
| 1194 | <time>2007-10-07T09:28:15Z</time>
|
|---|
| 1195 | </trkpt>
|
|---|
| 1196 | <trkpt lat='57.375478' lon='21.521373'>
|
|---|
| 1197 | <time>2007-10-07T09:28:19Z</time>
|
|---|
| 1198 | </trkpt>
|
|---|
| 1199 | <trkpt lat='57.375517' lon='21.521388'>
|
|---|
| 1200 | <time>2007-10-07T09:28:23Z</time>
|
|---|
| 1201 | </trkpt>
|
|---|
| 1202 | <trkpt lat='57.375542' lon='21.52141'>
|
|---|
| 1203 | <time>2007-10-07T09:28:27Z</time>
|
|---|
| 1204 | </trkpt>
|
|---|
| 1205 | <trkpt lat='57.375548' lon='21.521428'>
|
|---|
| 1206 | <time>2007-10-07T09:28:29Z</time>
|
|---|
| 1207 | </trkpt>
|
|---|
| 1208 | <trkpt lat='57.375567' lon='21.521457'>
|
|---|
| 1209 | <time>2007-10-07T09:28:33Z</time>
|
|---|
| 1210 | </trkpt>
|
|---|
| 1211 | <trkpt lat='57.375583' lon='21.521502'>
|
|---|
| 1212 | <time>2007-10-07T09:28:37Z</time>
|
|---|
| 1213 | </trkpt>
|
|---|
| 1214 | <trkpt lat='57.375577' lon='21.52157'>
|
|---|
| 1215 | <time>2007-10-07T09:28:41Z</time>
|
|---|
| 1216 | </trkpt>
|
|---|
| 1217 | <trkpt lat='57.375598' lon='21.52163'>
|
|---|
| 1218 | <time>2007-10-07T09:28:45Z</time>
|
|---|
| 1219 | </trkpt>
|
|---|
| 1220 | <trkpt lat='57.375622' lon='21.52165'>
|
|---|
| 1221 | <time>2007-10-07T09:28:49Z</time>
|
|---|
| 1222 | </trkpt>
|
|---|
| 1223 | <trkpt lat='57.37565' lon='21.52165'>
|
|---|
| 1224 | <time>2007-10-07T09:28:53Z</time>
|
|---|
| 1225 | </trkpt>
|
|---|
| 1226 | <trkpt lat='57.375672' lon='21.521665'>
|
|---|
| 1227 | <time>2007-10-07T09:28:57Z</time>
|
|---|
| 1228 | </trkpt>
|
|---|
| 1229 | <trkpt lat='57.375748' lon='21.521763'>
|
|---|
| 1230 | <time>2007-10-07T09:29:09Z</time>
|
|---|
| 1231 | </trkpt>
|
|---|
| 1232 | <trkpt lat='57.375777' lon='21.521788'>
|
|---|
| 1233 | <time>2007-10-07T09:29:13Z</time>
|
|---|
| 1234 | </trkpt>
|
|---|
| 1235 | <trkpt lat='57.375833' lon='21.52189'>
|
|---|
| 1236 | <time>2007-10-07T09:29:25Z</time>
|
|---|
| 1237 | </trkpt>
|
|---|
| 1238 | <trkpt lat='57.375848' lon='21.521917'>
|
|---|
| 1239 | <time>2007-10-07T09:29:29Z</time>
|
|---|
| 1240 | </trkpt>
|
|---|
| 1241 | <trkpt lat='57.375893' lon='21.521995'>
|
|---|
| 1242 | <time>2007-10-07T09:29:37Z</time>
|
|---|
| 1243 | </trkpt>
|
|---|
| 1244 | <trkpt lat='57.375908' lon='21.522025'>
|
|---|
| 1245 | <time>2007-10-07T09:29:41Z</time>
|
|---|
| 1246 | </trkpt>
|
|---|
| 1247 | <trkpt lat='57.375932' lon='21.522113'>
|
|---|
| 1248 | <time>2007-10-07T09:29:49Z</time>
|
|---|
| 1249 | </trkpt>
|
|---|
| 1250 | <trkpt lat='57.375985' lon='21.522208'>
|
|---|
| 1251 | <time>2007-10-07T09:29:57Z</time>
|
|---|
| 1252 | </trkpt>
|
|---|
| 1253 | <trkpt lat='57.376028' lon='21.522353'>
|
|---|
| 1254 | <time>2007-10-07T09:30:10Z</time>
|
|---|
| 1255 | </trkpt>
|
|---|
| 1256 | <trkpt lat='57.376027' lon='21.522408'>
|
|---|
| 1257 | <time>2007-10-07T09:30:14Z</time>
|
|---|
| 1258 | </trkpt>
|
|---|
| 1259 | <trkpt lat='57.376038' lon='21.522492'>
|
|---|
| 1260 | <time>2007-10-07T09:30:21Z</time>
|
|---|
| 1261 | </trkpt>
|
|---|
| 1262 | <trkpt lat='57.376038' lon='21.522503'>
|
|---|
| 1263 | <time>2007-10-07T09:30:22Z</time>
|
|---|
| 1264 | </trkpt>
|
|---|
| 1265 | <trkpt lat='57.37603' lon='21.522547'>
|
|---|
| 1266 | <time>2007-10-07T09:30:26Z</time>
|
|---|
| 1267 | </trkpt>
|
|---|
| 1268 | <trkpt lat='57.376047' lon='21.522595'>
|
|---|
| 1269 | <time>2007-10-07T09:30:30Z</time>
|
|---|
| 1270 | </trkpt>
|
|---|
| 1271 | <trkpt lat='57.37605' lon='21.52263'>
|
|---|
| 1272 | <time>2007-10-07T09:30:34Z</time>
|
|---|
| 1273 | </trkpt>
|
|---|
| 1274 | <trkpt lat='57.376058' lon='21.522685'>
|
|---|
| 1275 | <time>2007-10-07T09:30:37Z</time>
|
|---|
| 1276 | </trkpt>
|
|---|
| 1277 | <trkpt lat='57.376062' lon='21.522788'>
|
|---|
| 1278 | <time>2007-10-07T09:30:45Z</time>
|
|---|
| 1279 | </trkpt>
|
|---|
| 1280 | <trkpt lat='57.376078' lon='21.52292'>
|
|---|
| 1281 | <time>2007-10-07T09:30:54Z</time>
|
|---|
| 1282 | </trkpt>
|
|---|
| 1283 | <trkpt lat='57.376088' lon='21.522957'>
|
|---|
| 1284 | <time>2007-10-07T09:30:57Z</time>
|
|---|
| 1285 | </trkpt>
|
|---|
| 1286 | <trkpt lat='57.376092' lon='21.522967'>
|
|---|
| 1287 | <time>2007-10-07T09:30:58Z</time>
|
|---|
| 1288 | </trkpt>
|
|---|
| 1289 | <trkpt lat='57.376128' lon='21.523037'>
|
|---|
| 1290 | <time>2007-10-07T09:31:06Z</time>
|
|---|
| 1291 | </trkpt>
|
|---|
| 1292 | <trkpt lat='57.376137' lon='21.52307'>
|
|---|
| 1293 | <time>2007-10-07T09:31:10Z</time>
|
|---|
| 1294 | </trkpt>
|
|---|
| 1295 | <trkpt lat='57.376253' lon='21.52322'>
|
|---|
| 1296 | <time>2007-10-07T09:32:01Z</time>
|
|---|
| 1297 | </trkpt>
|
|---|
| 1298 | <trkpt lat='57.376258' lon='21.523215'>
|
|---|
| 1299 | <time>2007-10-07T09:32:05Z</time>
|
|---|
| 1300 | </trkpt>
|
|---|
| 1301 | <trkpt lat='57.37631' lon='21.52326'>
|
|---|
| 1302 | <time>2007-10-07T09:32:13Z</time>
|
|---|
| 1303 | </trkpt>
|
|---|
| 1304 | <trkpt lat='57.376338' lon='21.523285'>
|
|---|
| 1305 | <time>2007-10-07T09:32:17Z</time>
|
|---|
| 1306 | </trkpt>
|
|---|
| 1307 | <trkpt lat='57.376453' lon='21.523407'>
|
|---|
| 1308 | <time>2007-10-07T09:32:29Z</time>
|
|---|
| 1309 | </trkpt>
|
|---|
| 1310 | <trkpt lat='57.376535' lon='21.523525'>
|
|---|
| 1311 | <time>2007-10-07T09:32:41Z</time>
|
|---|
| 1312 | </trkpt>
|
|---|
| 1313 | <trkpt lat='57.376547' lon='21.523527'>
|
|---|
| 1314 | <time>2007-10-07T09:32:45Z</time>
|
|---|
| 1315 | </trkpt>
|
|---|
| 1316 | <trkpt lat='57.376563' lon='21.52357'>
|
|---|
| 1317 | <time>2007-10-07T09:32:49Z</time>
|
|---|
| 1318 | </trkpt>
|
|---|
| 1319 | <trkpt lat='57.376572' lon='21.523577'>
|
|---|
| 1320 | <time>2007-10-07T09:32:53Z</time>
|
|---|
| 1321 | </trkpt>
|
|---|
| 1322 | <trkpt lat='57.376628' lon='21.523608'>
|
|---|
| 1323 | <time>2007-10-07T09:33:01Z</time>
|
|---|
| 1324 | </trkpt>
|
|---|
| 1325 | <trkpt lat='57.376653' lon='21.523588'>
|
|---|
| 1326 | <time>2007-10-07T09:33:05Z</time>
|
|---|
| 1327 | </trkpt>
|
|---|
| 1328 | <trkpt lat='57.376682' lon='21.523572'>
|
|---|
| 1329 | <time>2007-10-07T09:33:08Z</time>
|
|---|
| 1330 | </trkpt>
|
|---|
| 1331 | <trkpt lat='57.376737' lon='21.523585'>
|
|---|
| 1332 | <time>2007-10-07T09:33:13Z</time>
|
|---|
| 1333 | </trkpt>
|
|---|
| 1334 | <trkpt lat='57.376762' lon='21.5236'>
|
|---|
| 1335 | <time>2007-10-07T09:33:16Z</time>
|
|---|
| 1336 | </trkpt>
|
|---|
| 1337 | <trkpt lat='57.376833' lon='21.523593'>
|
|---|
| 1338 | <time>2007-10-07T09:33:24Z</time>
|
|---|
| 1339 | </trkpt>
|
|---|
| 1340 | <trkpt lat='57.376878' lon='21.52365'>
|
|---|
| 1341 | <time>2007-10-07T09:33:29Z</time>
|
|---|
| 1342 | </trkpt>
|
|---|
| 1343 | <trkpt lat='57.376908' lon='21.523682'>
|
|---|
| 1344 | <time>2007-10-07T09:33:33Z</time>
|
|---|
| 1345 | </trkpt>
|
|---|
| 1346 | <trkpt lat='57.376942' lon='21.52366'>
|
|---|
| 1347 | <time>2007-10-07T09:33:37Z</time>
|
|---|
| 1348 | </trkpt>
|
|---|
| 1349 | <trkpt lat='57.377035' lon='21.523735'>
|
|---|
| 1350 | <time>2007-10-07T09:33:48Z</time>
|
|---|
| 1351 | </trkpt>
|
|---|
| 1352 | <trkpt lat='57.377077' lon='21.52372'>
|
|---|
| 1353 | <time>2007-10-07T09:33:53Z</time>
|
|---|
| 1354 | </trkpt>
|
|---|
| 1355 | <trkpt lat='57.377113' lon='21.52374'>
|
|---|
| 1356 | <time>2007-10-07T09:33:57Z</time>
|
|---|
| 1357 | </trkpt>
|
|---|
| 1358 | <trkpt lat='57.377133' lon='21.523777'>
|
|---|
| 1359 | <time>2007-10-07T09:34:01Z</time>
|
|---|
| 1360 | </trkpt>
|
|---|
| 1361 | <trkpt lat='57.377135' lon='21.523782'>
|
|---|
| 1362 | <time>2007-10-07T09:34:05Z</time>
|
|---|
| 1363 | </trkpt>
|
|---|
| 1364 | <trkpt lat='57.377177' lon='21.523868'>
|
|---|
| 1365 | <time>2007-10-07T09:34:13Z</time>
|
|---|
| 1366 | </trkpt>
|
|---|
| 1367 | <trkpt lat='57.37726' lon='21.524007'>
|
|---|
| 1368 | <time>2007-10-07T09:34:29Z</time>
|
|---|
| 1369 | </trkpt>
|
|---|
| 1370 | <trkpt lat='57.377283' lon='21.52403'>
|
|---|
| 1371 | <time>2007-10-07T09:34:33Z</time>
|
|---|
| 1372 | </trkpt>
|
|---|
| 1373 | <trkpt lat='57.377285' lon='21.524042'>
|
|---|
| 1374 | <time>2007-10-07T09:34:37Z</time>
|
|---|
| 1375 | </trkpt>
|
|---|
| 1376 | <trkpt lat='57.377352' lon='21.524142'>
|
|---|
| 1377 | <time>2007-10-07T09:35:25Z</time>
|
|---|
| 1378 | </trkpt>
|
|---|
| 1379 | <trkpt lat='57.377345' lon='21.524163'>
|
|---|
| 1380 | <time>2007-10-07T09:35:29Z</time>
|
|---|
| 1381 | </trkpt>
|
|---|
| 1382 | <trkpt lat='57.37743' lon='21.524257'>
|
|---|
| 1383 | <time>2007-10-07T09:36:01Z</time>
|
|---|
| 1384 | </trkpt>
|
|---|
| 1385 | <trkpt lat='57.37744' lon='21.524275'>
|
|---|
| 1386 | <time>2007-10-07T09:36:05Z</time>
|
|---|
| 1387 | </trkpt>
|
|---|
| 1388 | <trkpt lat='57.377457' lon='21.524292'>
|
|---|
| 1389 | <time>2007-10-07T09:36:09Z</time>
|
|---|
| 1390 | </trkpt>
|
|---|
| 1391 | <trkpt lat='57.377477' lon='21.524308'>
|
|---|
| 1392 | <time>2007-10-07T09:36:13Z</time>
|
|---|
| 1393 | </trkpt>
|
|---|
| 1394 | <trkpt lat='57.37749' lon='21.524317'>
|
|---|
| 1395 | <time>2007-10-07T09:36:15Z</time>
|
|---|
| 1396 | </trkpt>
|
|---|
| 1397 | <trkpt lat='57.377507' lon='21.52435'>
|
|---|
| 1398 | <time>2007-10-07T09:36:19Z</time>
|
|---|
| 1399 | </trkpt>
|
|---|
| 1400 | <trkpt lat='57.377533' lon='21.524443'>
|
|---|
| 1401 | <time>2007-10-07T09:36:27Z</time>
|
|---|
| 1402 | </trkpt>
|
|---|
| 1403 | <trkpt lat='57.37753' lon='21.524547'>
|
|---|
| 1404 | <time>2007-10-07T09:36:35Z</time>
|
|---|
| 1405 | </trkpt>
|
|---|
| 1406 | <trkpt lat='57.377533' lon='21.524592'>
|
|---|
| 1407 | <time>2007-10-07T09:36:38Z</time>
|
|---|
| 1408 | </trkpt>
|
|---|
| 1409 | <trkpt lat='57.377542' lon='21.524647'>
|
|---|
| 1410 | <time>2007-10-07T09:36:42Z</time>
|
|---|
| 1411 | </trkpt>
|
|---|
| 1412 | <trkpt lat='57.377565' lon='21.524748'>
|
|---|
| 1413 | <time>2007-10-07T09:36:49Z</time>
|
|---|
| 1414 | </trkpt>
|
|---|
| 1415 | <trkpt lat='57.37757' lon='21.524762'>
|
|---|
| 1416 | <time>2007-10-07T09:36:50Z</time>
|
|---|
| 1417 | </trkpt>
|
|---|
| 1418 | <trkpt lat='57.377593' lon='21.52482'>
|
|---|
| 1419 | <time>2007-10-07T09:36:54Z</time>
|
|---|
| 1420 | </trkpt>
|
|---|
| 1421 | <trkpt lat='57.377602' lon='21.524863'>
|
|---|
| 1422 | <time>2007-10-07T09:36:57Z</time>
|
|---|
| 1423 | </trkpt>
|
|---|
| 1424 | <trkpt lat='57.377605' lon='21.524877'>
|
|---|
| 1425 | <time>2007-10-07T09:36:58Z</time>
|
|---|
| 1426 | </trkpt>
|
|---|
| 1427 | <trkpt lat='57.377632' lon='21.52492'>
|
|---|
| 1428 | <time>2007-10-07T09:37:02Z</time>
|
|---|
| 1429 | </trkpt>
|
|---|
| 1430 | <trkpt lat='57.377655' lon='21.524963'>
|
|---|
| 1431 | <time>2007-10-07T09:37:06Z</time>
|
|---|
| 1432 | </trkpt>
|
|---|
| 1433 | <trkpt lat='57.377698' lon='21.525062'>
|
|---|
| 1434 | <time>2007-10-07T09:37:14Z</time>
|
|---|
| 1435 | </trkpt>
|
|---|
| 1436 | <trkpt lat='57.37783' lon='21.525103'>
|
|---|
| 1437 | <time>2007-10-07T09:37:26Z</time>
|
|---|
| 1438 | </trkpt>
|
|---|
| 1439 | <trkpt lat='57.37784' lon='21.525135'>
|
|---|
| 1440 | <time>2007-10-07T09:37:29Z</time>
|
|---|
| 1441 | </trkpt>
|
|---|
| 1442 | <trkpt lat='57.37786' lon='21.52519'>
|
|---|
| 1443 | <time>2007-10-07T09:37:33Z</time>
|
|---|
| 1444 | </trkpt>
|
|---|
| 1445 | <trkpt lat='57.377868' lon='21.525237'>
|
|---|
| 1446 | <time>2007-10-07T09:37:36Z</time>
|
|---|
| 1447 | </trkpt>
|
|---|
| 1448 | <trkpt lat='57.377875' lon='21.525248'>
|
|---|
| 1449 | <time>2007-10-07T09:37:37Z</time>
|
|---|
| 1450 | </trkpt>
|
|---|
| 1451 | <trkpt lat='57.37789' lon='21.525307'>
|
|---|
| 1452 | <time>2007-10-07T09:37:41Z</time>
|
|---|
| 1453 | </trkpt>
|
|---|
| 1454 | <trkpt lat='57.377913' lon='21.52535'>
|
|---|
| 1455 | <time>2007-10-07T09:37:45Z</time>
|
|---|
| 1456 | </trkpt>
|
|---|
| 1457 | <trkpt lat='57.377948' lon='21.52539'>
|
|---|
| 1458 | <time>2007-10-07T09:37:49Z</time>
|
|---|
| 1459 | </trkpt>
|
|---|
| 1460 | <trkpt lat='57.37801' lon='21.525467'>
|
|---|
| 1461 | <time>2007-10-07T09:37:57Z</time>
|
|---|
| 1462 | </trkpt>
|
|---|
| 1463 | <trkpt lat='57.378033' lon='21.5255'>
|
|---|
| 1464 | <time>2007-10-07T09:38:01Z</time>
|
|---|
| 1465 | </trkpt>
|
|---|
| 1466 | <trkpt lat='57.378103' lon='21.525535'>
|
|---|
| 1467 | <time>2007-10-07T09:38:10Z</time>
|
|---|
| 1468 | </trkpt>
|
|---|
| 1469 | <trkpt lat='57.378132' lon='21.525532'>
|
|---|
| 1470 | <time>2007-10-07T09:38:13Z</time>
|
|---|
| 1471 | </trkpt>
|
|---|
| 1472 | <trkpt lat='57.378175' lon='21.52553'>
|
|---|
| 1473 | <time>2007-10-07T09:38:18Z</time>
|
|---|
| 1474 | </trkpt>
|
|---|
| 1475 | <trkpt lat='57.3782' lon='21.525532'>
|
|---|
| 1476 | <time>2007-10-07T09:38:21Z</time>
|
|---|
| 1477 | </trkpt>
|
|---|
| 1478 | <trkpt lat='57.37824' lon='21.525558'>
|
|---|
| 1479 | <time>2007-10-07T09:38:26Z</time>
|
|---|
| 1480 | </trkpt>
|
|---|
| 1481 | <trkpt lat='57.378255' lon='21.525595'>
|
|---|
| 1482 | <time>2007-10-07T09:38:29Z</time>
|
|---|
| 1483 | </trkpt>
|
|---|
| 1484 | <trkpt lat='57.378315' lon='21.525772'>
|
|---|
| 1485 | <time>2007-10-07T09:38:42Z</time>
|
|---|
| 1486 | </trkpt>
|
|---|
| 1487 | <trkpt lat='57.378327' lon='21.525833'>
|
|---|
| 1488 | <time>2007-10-07T09:38:46Z</time>
|
|---|
| 1489 | </trkpt>
|
|---|
| 1490 | <trkpt lat='57.378315' lon='21.525908'>
|
|---|
| 1491 | <time>2007-10-07T09:38:50Z</time>
|
|---|
| 1492 | </trkpt>
|
|---|
| 1493 | <trkpt lat='57.37828' lon='21.525988'>
|
|---|
| 1494 | <time>2007-10-07T09:38:54Z</time>
|
|---|
| 1495 | </trkpt>
|
|---|
| 1496 | <trkpt lat='57.378213' lon='21.526162'>
|
|---|
| 1497 | <time>2007-10-07T09:39:05Z</time>
|
|---|
| 1498 | </trkpt>
|
|---|
| 1499 | <trkpt lat='57.37819' lon='21.526275'>
|
|---|
| 1500 | <time>2007-10-07T09:39:13Z</time>
|
|---|
| 1501 | </trkpt>
|
|---|
| 1502 | <trkpt lat='57.378172' lon='21.526327'>
|
|---|
| 1503 | <time>2007-10-07T09:39:17Z</time>
|
|---|
| 1504 | </trkpt>
|
|---|
| 1505 | <trkpt lat='57.378135' lon='21.526595'>
|
|---|
| 1506 | <time>2007-10-07T09:39:37Z</time>
|
|---|
| 1507 | </trkpt>
|
|---|
| 1508 | <trkpt lat='57.378105' lon='21.526748'>
|
|---|
| 1509 | <time>2007-10-07T09:39:50Z</time>
|
|---|
| 1510 | </trkpt>
|
|---|
| 1511 | <trkpt lat='57.378097' lon='21.526778'>
|
|---|
| 1512 | <time>2007-10-07T09:39:53Z</time>
|
|---|
| 1513 | </trkpt>
|
|---|
| 1514 | <trkpt lat='57.378105' lon='21.526837'>
|
|---|
| 1515 | <time>2007-10-07T09:39:58Z</time>
|
|---|
| 1516 | </trkpt>
|
|---|
| 1517 | <trkpt lat='57.378113' lon='21.52688'>
|
|---|
| 1518 | <time>2007-10-07T09:40:01Z</time>
|
|---|
| 1519 | </trkpt>
|
|---|
| 1520 | <trkpt lat='57.378098' lon='21.526967'>
|
|---|
| 1521 | <time>2007-10-07T09:40:06Z</time>
|
|---|
| 1522 | </trkpt>
|
|---|
| 1523 | <trkpt lat='57.378122' lon='21.527167'>
|
|---|
| 1524 | <time>2007-10-07T09:40:22Z</time>
|
|---|
| 1525 | </trkpt>
|
|---|
| 1526 | <trkpt lat='57.378095' lon='21.52725'>
|
|---|
| 1527 | <time>2007-10-07T09:40:26Z</time>
|
|---|
| 1528 | </trkpt>
|
|---|
| 1529 | <trkpt lat='57.378057' lon='21.527315'>
|
|---|
| 1530 | <time>2007-10-07T09:40:33Z</time>
|
|---|
| 1531 | </trkpt>
|
|---|
| 1532 | <trkpt lat='57.377975' lon='21.527412'>
|
|---|
| 1533 | <time>2007-10-07T09:40:40Z</time>
|
|---|
| 1534 | </trkpt>
|
|---|
| 1535 | <trkpt lat='57.377975' lon='21.527417'>
|
|---|
| 1536 | <time>2007-10-07T09:40:41Z</time>
|
|---|
| 1537 | </trkpt>
|
|---|
| 1538 | <trkpt lat='57.377982' lon='21.527428'>
|
|---|
| 1539 | <time>2007-10-07T09:40:45Z</time>
|
|---|
| 1540 | </trkpt>
|
|---|
| 1541 | <trkpt lat='57.377975' lon='21.527293'>
|
|---|
| 1542 | <time>2007-10-07T09:41:20Z</time>
|
|---|
| 1543 | </trkpt>
|
|---|
| 1544 | <trkpt lat='57.377975' lon='21.527292'>
|
|---|
| 1545 | <time>2007-10-07T09:41:21Z</time>
|
|---|
| 1546 | </trkpt>
|
|---|
| 1547 | <trkpt lat='57.377982' lon='21.527445'>
|
|---|
| 1548 | <time>2007-10-07T09:41:29Z</time>
|
|---|
| 1549 | </trkpt>
|
|---|
| 1550 | <trkpt lat='57.377987' lon='21.527528'>
|
|---|
| 1551 | <time>2007-10-07T09:41:33Z</time>
|
|---|
| 1552 | </trkpt>
|
|---|
| 1553 | <trkpt lat='57.37801' lon='21.527557'>
|
|---|
| 1554 | <time>2007-10-07T09:41:37Z</time>
|
|---|
| 1555 | </trkpt>
|
|---|
| 1556 | <trkpt lat='57.378022' lon='21.527622'>
|
|---|
| 1557 | <time>2007-10-07T09:41:41Z</time>
|
|---|
| 1558 | </trkpt>
|
|---|
| 1559 | <trkpt lat='57.37803' lon='21.527627'>
|
|---|
| 1560 | <time>2007-10-07T09:41:45Z</time>
|
|---|
| 1561 | </trkpt>
|
|---|
| 1562 | <trkpt lat='57.378067' lon='21.527722'>
|
|---|
| 1563 | <time>2007-10-07T09:41:49Z</time>
|
|---|
| 1564 | </trkpt>
|
|---|
| 1565 | <trkpt lat='57.378083' lon='21.527743'>
|
|---|
| 1566 | <time>2007-10-07T09:41:53Z</time>
|
|---|
| 1567 | </trkpt>
|
|---|
| 1568 | <trkpt lat='57.378125' lon='21.527863'>
|
|---|
| 1569 | <time>2007-10-07T09:42:01Z</time>
|
|---|
| 1570 | </trkpt>
|
|---|
| 1571 | <trkpt lat='57.378133' lon='21.527872'>
|
|---|
| 1572 | <time>2007-10-07T09:42:02Z</time>
|
|---|
| 1573 | </trkpt>
|
|---|
| 1574 | <trkpt lat='57.378162' lon='21.527898'>
|
|---|
| 1575 | <time>2007-10-07T09:42:06Z</time>
|
|---|
| 1576 | </trkpt>
|
|---|
| 1577 | <trkpt lat='57.378162' lon='21.527933'>
|
|---|
| 1578 | <time>2007-10-07T09:42:09Z</time>
|
|---|
| 1579 | </trkpt>
|
|---|
| 1580 | <trkpt lat='57.378168' lon='21.527943'>
|
|---|
| 1581 | <time>2007-10-07T09:42:14Z</time>
|
|---|
| 1582 | </trkpt>
|
|---|
| 1583 | <trkpt lat='57.378263' lon='21.528003'>
|
|---|
| 1584 | <time>2007-10-07T09:42:29Z</time>
|
|---|
| 1585 | </trkpt>
|
|---|
| 1586 | <trkpt lat='57.378263' lon='21.528005'>
|
|---|
| 1587 | <time>2007-10-07T09:42:30Z</time>
|
|---|
| 1588 | </trkpt>
|
|---|
| 1589 | <trkpt lat='57.378312' lon='21.528022'>
|
|---|
| 1590 | <time>2007-10-07T09:42:38Z</time>
|
|---|
| 1591 | </trkpt>
|
|---|
| 1592 | <trkpt lat='57.378333' lon='21.528043'>
|
|---|
| 1593 | <time>2007-10-07T09:42:42Z</time>
|
|---|
| 1594 | </trkpt>
|
|---|
| 1595 | <trkpt lat='57.378433' lon='21.528135'>
|
|---|
| 1596 | <time>2007-10-07T09:42:54Z</time>
|
|---|
| 1597 | </trkpt>
|
|---|
| 1598 | <trkpt lat='57.378468' lon='21.528243'>
|
|---|
| 1599 | <time>2007-10-07T09:43:02Z</time>
|
|---|
| 1600 | </trkpt>
|
|---|
| 1601 | <trkpt lat='57.37851' lon='21.52826'>
|
|---|
| 1602 | <time>2007-10-07T09:43:06Z</time>
|
|---|
| 1603 | </trkpt>
|
|---|
| 1604 | <trkpt lat='57.378582' lon='21.528278'>
|
|---|
| 1605 | <time>2007-10-07T09:43:14Z</time>
|
|---|
| 1606 | </trkpt>
|
|---|
| 1607 | <trkpt lat='57.37861' lon='21.528345'>
|
|---|
| 1608 | <time>2007-10-07T09:43:22Z</time>
|
|---|
| 1609 | </trkpt>
|
|---|
| 1610 | <trkpt lat='57.378632' lon='21.528385'>
|
|---|
| 1611 | <time>2007-10-07T09:43:30Z</time>
|
|---|
| 1612 | </trkpt>
|
|---|
| 1613 | <trkpt lat='57.378697' lon='21.528483'>
|
|---|
| 1614 | <time>2007-10-07T09:43:42Z</time>
|
|---|
| 1615 | </trkpt>
|
|---|
| 1616 | <trkpt lat='57.378715' lon='21.5285'>
|
|---|
| 1617 | <time>2007-10-07T09:43:45Z</time>
|
|---|
| 1618 | </trkpt>
|
|---|
| 1619 | <trkpt lat='57.378752' lon='21.528562'>
|
|---|
| 1620 | <time>2007-10-07T09:43:52Z</time>
|
|---|
| 1621 | </trkpt>
|
|---|
| 1622 | <trkpt lat='57.378862' lon='21.528642'>
|
|---|
| 1623 | <time>2007-10-07T09:44:03Z</time>
|
|---|
| 1624 | </trkpt>
|
|---|
| 1625 | <trkpt lat='57.37893' lon='21.528695'>
|
|---|
| 1626 | <time>2007-10-07T09:44:11Z</time>
|
|---|
| 1627 | </trkpt>
|
|---|
| 1628 | <trkpt lat='57.379048' lon='21.528855'>
|
|---|
| 1629 | <time>2007-10-07T09:44:26Z</time>
|
|---|
| 1630 | </trkpt>
|
|---|
| 1631 | <trkpt lat='57.37912' lon='21.52898'>
|
|---|
| 1632 | <time>2007-10-07T09:44:37Z</time>
|
|---|
| 1633 | </trkpt>
|
|---|
| 1634 | <trkpt lat='57.379207' lon='21.529108'>
|
|---|
| 1635 | <time>2007-10-07T09:44:49Z</time>
|
|---|
| 1636 | </trkpt>
|
|---|
| 1637 | <trkpt lat='57.379275' lon='21.5292'>
|
|---|
| 1638 | <time>2007-10-07T09:44:56Z</time>
|
|---|
| 1639 | </trkpt>
|
|---|
| 1640 | <trkpt lat='57.379302' lon='21.52926'>
|
|---|
| 1641 | <time>2007-10-07T09:45:00Z</time>
|
|---|
| 1642 | </trkpt>
|
|---|
| 1643 | <trkpt lat='57.379315' lon='21.529337'>
|
|---|
| 1644 | <time>2007-10-07T09:45:04Z</time>
|
|---|
| 1645 | </trkpt>
|
|---|
| 1646 | <trkpt lat='57.379308' lon='21.529505'>
|
|---|
| 1647 | <time>2007-10-07T09:45:13Z</time>
|
|---|
| 1648 | </trkpt>
|
|---|
| 1649 | <trkpt lat='57.379305' lon='21.529603'>
|
|---|
| 1650 | <time>2007-10-07T09:45:19Z</time>
|
|---|
| 1651 | </trkpt>
|
|---|
| 1652 | <trkpt lat='57.379347' lon='21.52989'>
|
|---|
| 1653 | <time>2007-10-07T09:45:35Z</time>
|
|---|
| 1654 | </trkpt>
|
|---|
| 1655 | <trkpt lat='57.379358' lon='21.52996'>
|
|---|
| 1656 | <time>2007-10-07T09:45:39Z</time>
|
|---|
| 1657 | </trkpt>
|
|---|
| 1658 | <trkpt lat='57.379402' lon='21.530178'>
|
|---|
| 1659 | <time>2007-10-07T09:45:53Z</time>
|
|---|
| 1660 | </trkpt>
|
|---|
| 1661 | <trkpt lat='57.379402' lon='21.530193'>
|
|---|
| 1662 | <time>2007-10-07T09:45:54Z</time>
|
|---|
| 1663 | </trkpt>
|
|---|
| 1664 | <trkpt lat='57.37946' lon='21.530302'>
|
|---|
| 1665 | <time>2007-10-07T09:46:01Z</time>
|
|---|
| 1666 | </trkpt>
|
|---|
| 1667 | <trkpt lat='57.379518' lon='21.530412'>
|
|---|
| 1668 | <time>2007-10-07T09:46:12Z</time>
|
|---|
| 1669 | </trkpt>
|
|---|
| 1670 | <trkpt lat='57.379555' lon='21.530443'>
|
|---|
| 1671 | <time>2007-10-07T09:46:16Z</time>
|
|---|
| 1672 | </trkpt>
|
|---|
| 1673 | <trkpt lat='57.379587' lon='21.530477'>
|
|---|
| 1674 | <time>2007-10-07T09:46:20Z</time>
|
|---|
| 1675 | </trkpt>
|
|---|
| 1676 | <trkpt lat='57.379623' lon='21.530502'>
|
|---|
| 1677 | <time>2007-10-07T09:46:24Z</time>
|
|---|
| 1678 | </trkpt>
|
|---|
| 1679 | <trkpt lat='57.37965' lon='21.530545'>
|
|---|
| 1680 | <time>2007-10-07T09:46:29Z</time>
|
|---|
| 1681 | </trkpt>
|
|---|
| 1682 | <trkpt lat='57.379677' lon='21.53059'>
|
|---|
| 1683 | <time>2007-10-07T09:46:33Z</time>
|
|---|
| 1684 | </trkpt>
|
|---|
| 1685 | <trkpt lat='57.379682' lon='21.530635'>
|
|---|
| 1686 | <time>2007-10-07T09:46:35Z</time>
|
|---|
| 1687 | </trkpt>
|
|---|
| 1688 | <trkpt lat='57.379717' lon='21.53069'>
|
|---|
| 1689 | <time>2007-10-07T09:46:39Z</time>
|
|---|
| 1690 | </trkpt>
|
|---|
| 1691 | <trkpt lat='57.379735' lon='21.530708'>
|
|---|
| 1692 | <time>2007-10-07T09:46:43Z</time>
|
|---|
| 1693 | </trkpt>
|
|---|
| 1694 | <trkpt lat='57.37976' lon='21.530747'>
|
|---|
| 1695 | <time>2007-10-07T09:46:47Z</time>
|
|---|
| 1696 | </trkpt>
|
|---|
| 1697 | <trkpt lat='57.379768' lon='21.530827'>
|
|---|
| 1698 | <time>2007-10-07T09:46:51Z</time>
|
|---|
| 1699 | </trkpt>
|
|---|
| 1700 | <trkpt lat='57.379767' lon='21.530903'>
|
|---|
| 1701 | <time>2007-10-07T09:46:55Z</time>
|
|---|
| 1702 | </trkpt>
|
|---|
| 1703 | <trkpt lat='57.379747' lon='21.530963'>
|
|---|
| 1704 | <time>2007-10-07T09:46:59Z</time>
|
|---|
| 1705 | </trkpt>
|
|---|
| 1706 | <trkpt lat='57.379723' lon='21.530942'>
|
|---|
| 1707 | <time>2007-10-07T09:47:03Z</time>
|
|---|
| 1708 | </trkpt>
|
|---|
| 1709 | <trkpt lat='57.37971' lon='21.530943'>
|
|---|
| 1710 | <time>2007-10-07T09:47:05Z</time>
|
|---|
| 1711 | </trkpt>
|
|---|
| 1712 | <trkpt lat='57.379707' lon='21.530952'>
|
|---|
| 1713 | <time>2007-10-07T09:47:07Z</time>
|
|---|
| 1714 | </trkpt>
|
|---|
| 1715 | <trkpt lat='57.379663' lon='21.530912'>
|
|---|
| 1716 | <time>2007-10-07T09:47:44Z</time>
|
|---|
| 1717 | </trkpt>
|
|---|
| 1718 | <trkpt lat='57.37967' lon='21.530902'>
|
|---|
| 1719 | <time>2007-10-07T09:47:48Z</time>
|
|---|
| 1720 | </trkpt>
|
|---|
| 1721 | <trkpt lat='57.379668' lon='21.530925'>
|
|---|
| 1722 | <time>2007-10-07T09:47:52Z</time>
|
|---|
| 1723 | </trkpt>
|
|---|
| 1724 | <trkpt lat='57.379648' lon='21.530913'>
|
|---|
| 1725 | <time>2007-10-07T09:47:57Z</time>
|
|---|
| 1726 | </trkpt>
|
|---|
| 1727 | <trkpt lat='57.379648' lon='21.530912'>
|
|---|
| 1728 | <time>2007-10-07T09:48:00Z</time>
|
|---|
| 1729 | </trkpt>
|
|---|
| 1730 | <trkpt lat='57.379685' lon='21.530895'>
|
|---|
| 1731 | <time>2007-10-07T09:48:12Z</time>
|
|---|
| 1732 | </trkpt>
|
|---|
| 1733 | <trkpt lat='57.379738' lon='21.531037'>
|
|---|
| 1734 | <time>2007-10-07T09:48:16Z</time>
|
|---|
| 1735 | </trkpt>
|
|---|
| 1736 | <trkpt lat='57.379683' lon='21.5312'>
|
|---|
| 1737 | <time>2007-10-07T09:48:21Z</time>
|
|---|
| 1738 | </trkpt>
|
|---|
| 1739 | <trkpt lat='57.379613' lon='21.531217'>
|
|---|
| 1740 | <time>2007-10-07T09:48:23Z</time>
|
|---|
| 1741 | </trkpt>
|
|---|
| 1742 | <trkpt lat='57.378933' lon='21.531385'>
|
|---|
| 1743 | <time>2007-10-07T09:48:43Z</time>
|
|---|
| 1744 | </trkpt>
|
|---|
| 1745 | <trkpt lat='57.378473' lon='21.531502'>
|
|---|
| 1746 | <time>2007-10-07T09:48:54Z</time>
|
|---|
| 1747 | </trkpt>
|
|---|
| 1748 | <trkpt lat='57.37844' lon='21.531757'>
|
|---|
| 1749 | <time>2007-10-07T09:48:58Z</time>
|
|---|
| 1750 | </trkpt>
|
|---|
| 1751 | <trkpt lat='57.378695' lon='21.533438'>
|
|---|
| 1752 | <time>2007-10-07T09:49:10Z</time>
|
|---|
| 1753 | </trkpt>
|
|---|
| 1754 | <trkpt lat='57.379475' lon='21.535967'>
|
|---|
| 1755 | <time>2007-10-07T09:49:29Z</time>
|
|---|
| 1756 | </trkpt>
|
|---|
| 1757 | <trkpt lat='57.379698' lon='21.536503'>
|
|---|
| 1758 | <time>2007-10-07T09:49:33Z</time>
|
|---|
| 1759 | </trkpt>
|
|---|
| 1760 | <trkpt lat='57.380348' lon='21.537288'>
|
|---|
| 1761 | <time>2007-10-07T09:49:41Z</time>
|
|---|
| 1762 | </trkpt>
|
|---|
| 1763 | <trkpt lat='57.381052' lon='21.537873'>
|
|---|
| 1764 | <time>2007-10-07T09:49:49Z</time>
|
|---|
| 1765 | </trkpt>
|
|---|
| 1766 | <trkpt lat='57.382418' lon='21.538227'>
|
|---|
| 1767 | <time>2007-10-07T09:50:02Z</time>
|
|---|
| 1768 | </trkpt>
|
|---|
| 1769 | <trkpt lat='57.383177' lon='21.538127'>
|
|---|
| 1770 | <time>2007-10-07T09:50:09Z</time>
|
|---|
| 1771 | </trkpt>
|
|---|
| 1772 | <trkpt lat='57.384058' lon='21.537653'>
|
|---|
| 1773 | <time>2007-10-07T09:50:17Z</time>
|
|---|
| 1774 | </trkpt>
|
|---|
| 1775 | <trkpt lat='57.38443' lon='21.537877'>
|
|---|
| 1776 | <time>2007-10-07T09:50:21Z</time>
|
|---|
| 1777 | </trkpt>
|
|---|
| 1778 | <trkpt lat='57.386097' lon='21.54043'>
|
|---|
| 1779 | <time>2007-10-07T09:50:41Z</time>
|
|---|
| 1780 | </trkpt>
|
|---|
| 1781 | <trkpt lat='57.386555' lon='21.541395'>
|
|---|
| 1782 | <time>2007-10-07T09:50:53Z</time>
|
|---|
| 1783 | </trkpt>
|
|---|
| 1784 | <trkpt lat='57.386325' lon='21.541858'>
|
|---|
| 1785 | <time>2007-10-07T09:50:58Z</time>
|
|---|
| 1786 | </trkpt>
|
|---|
| 1787 | <trkpt lat='57.385538' lon='21.543548'>
|
|---|
| 1788 | <time>2007-10-07T09:51:17Z</time>
|
|---|
| 1789 | </trkpt>
|
|---|
| 1790 | <trkpt lat='57.385315' lon='21.54397'>
|
|---|
| 1791 | <time>2007-10-07T09:51:25Z</time>
|
|---|
| 1792 | </trkpt>
|
|---|
| 1793 | <trkpt lat='57.385283' lon='21.544003'>
|
|---|
| 1794 | <time>2007-10-07T09:51:29Z</time>
|
|---|
| 1795 | </trkpt>
|
|---|
| 1796 | <trkpt lat='57.385282' lon='21.544'>
|
|---|
| 1797 | <time>2007-10-07T09:51:33Z</time>
|
|---|
| 1798 | </trkpt>
|
|---|
| 1799 | <trkpt lat='57.391482' lon='21.588582'>
|
|---|
| 1800 | <time>2007-10-07T10:20:04Z</time>
|
|---|
| 1801 | </trkpt>
|
|---|
| 1802 | <trkpt lat='57.392135' lon='21.5888'>
|
|---|
| 1803 | <time>2007-10-07T10:20:08Z</time>
|
|---|
| 1804 | </trkpt>
|
|---|
| 1805 | <trkpt lat='57.393857' lon='21.591107'>
|
|---|
| 1806 | <time>2007-10-07T10:20:24Z</time>
|
|---|
| 1807 | </trkpt>
|
|---|
| 1808 | <trkpt lat='57.394652' lon='21.592585'>
|
|---|
| 1809 | <time>2007-10-07T10:20:32Z</time>
|
|---|
| 1810 | </trkpt>
|
|---|
| 1811 | <trkpt lat='57.395182' lon='21.592912'>
|
|---|
| 1812 | <time>2007-10-07T10:20:36Z</time>
|
|---|
| 1813 | </trkpt>
|
|---|
| 1814 | <trkpt lat='57.398083' lon='21.593403'>
|
|---|
| 1815 | <time>2007-10-07T10:20:56Z</time>
|
|---|
| 1816 | </trkpt>
|
|---|
| 1817 | <trkpt lat='57.399613' lon='21.593978'>
|
|---|
| 1818 | <time>2007-10-07T10:21:08Z</time>
|
|---|
| 1819 | </trkpt>
|
|---|
| 1820 | <trkpt lat='57.401715' lon='21.596875'>
|
|---|
| 1821 | <time>2007-10-07T10:21:28Z</time>
|
|---|
| 1822 | </trkpt>
|
|---|
| 1823 | <trkpt lat='57.403575' lon='21.599363'>
|
|---|
| 1824 | <time>2007-10-07T10:21:48Z</time>
|
|---|
| 1825 | </trkpt>
|
|---|
| 1826 | <trkpt lat='57.404665' lon='21.60152'>
|
|---|
| 1827 | <time>2007-10-07T10:22:01Z</time>
|
|---|
| 1828 | </trkpt>
|
|---|
| 1829 | <trkpt lat='57.405817' lon='21.602705'>
|
|---|
| 1830 | <time>2007-10-07T10:22:12Z</time>
|
|---|
| 1831 | </trkpt>
|
|---|
| 1832 | <trkpt lat='57.406303' lon='21.603155'>
|
|---|
| 1833 | <time>2007-10-07T10:22:20Z</time>
|
|---|
| 1834 | </trkpt>
|
|---|
| 1835 | <trkpt lat='57.406275' lon='21.603557'>
|
|---|
| 1836 | <time>2007-10-07T10:22:25Z</time>
|
|---|
| 1837 | </trkpt>
|
|---|
| 1838 | <trkpt lat='57.405458' lon='21.6063'>
|
|---|
| 1839 | <time>2007-10-07T10:22:41Z</time>
|
|---|
| 1840 | </trkpt>
|
|---|
| 1841 | <trkpt lat='57.40544' lon='21.606672'>
|
|---|
| 1842 | <time>2007-10-07T10:22:45Z</time>
|
|---|
| 1843 | </trkpt>
|
|---|
| 1844 | <trkpt lat='57.405687' lon='21.606728'>
|
|---|
| 1845 | <time>2007-10-07T10:22:49Z</time>
|
|---|
| 1846 | </trkpt>
|
|---|
| 1847 | <trkpt lat='57.493347' lon='21.662042'>
|
|---|
| 1848 | <time>2007-10-07T11:46:21Z</time>
|
|---|
| 1849 | </trkpt>
|
|---|
| 1850 | <trkpt lat='57.493347' lon='21.662023'>
|
|---|
| 1851 | <time>2007-10-07T11:46:22Z</time>
|
|---|
| 1852 | </trkpt>
|
|---|
| 1853 | <trkpt lat='57.493303' lon='21.661952'>
|
|---|
| 1854 | <time>2007-10-07T11:46:37Z</time>
|
|---|
| 1855 | </trkpt>
|
|---|
| 1856 | <trkpt lat='57.493313' lon='21.661958'>
|
|---|
| 1857 | <time>2007-10-07T11:46:41Z</time>
|
|---|
| 1858 | </trkpt>
|
|---|
| 1859 | <trkpt lat='57.493438' lon='21.661985'>
|
|---|
| 1860 | <time>2007-10-07T11:47:01Z</time>
|
|---|
| 1861 | </trkpt>
|
|---|
| 1862 | <trkpt lat='57.493405' lon='21.662025'>
|
|---|
| 1863 | <time>2007-10-07T11:47:56Z</time>
|
|---|
| 1864 | </trkpt>
|
|---|
| 1865 | <trkpt lat='57.493327' lon='21.66193'>
|
|---|
| 1866 | <time>2007-10-07T11:48:05Z</time>
|
|---|
| 1867 | </trkpt>
|
|---|
| 1868 | <trkpt lat='57.493297' lon='21.661945'>
|
|---|
| 1869 | <time>2007-10-07T11:48:09Z</time>
|
|---|
| 1870 | </trkpt>
|
|---|
| 1871 | <trkpt lat='57.493242' lon='21.661822'>
|
|---|
| 1872 | <time>2007-10-07T11:48:17Z</time>
|
|---|
| 1873 | </trkpt>
|
|---|
| 1874 | <trkpt lat='57.493103' lon='21.661712'>
|
|---|
| 1875 | <time>2007-10-07T11:48:21Z</time>
|
|---|
| 1876 | </trkpt>
|
|---|
| 1877 | <trkpt lat='57.492952' lon='21.661637'>
|
|---|
| 1878 | <time>2007-10-07T11:48:25Z</time>
|
|---|
| 1879 | </trkpt>
|
|---|
| 1880 | <trkpt lat='57.492887' lon='21.661415'>
|
|---|
| 1881 | <time>2007-10-07T11:48:29Z</time>
|
|---|
| 1882 | </trkpt>
|
|---|
| 1883 | <trkpt lat='57.492857' lon='21.66102'>
|
|---|
| 1884 | <time>2007-10-07T11:48:34Z</time>
|
|---|
| 1885 | </trkpt>
|
|---|
| 1886 | <trkpt lat='57.492748' lon='21.660808'>
|
|---|
| 1887 | <time>2007-10-07T11:48:37Z</time>
|
|---|
| 1888 | </trkpt>
|
|---|
| 1889 | <trkpt lat='57.492365' lon='21.66014'>
|
|---|
| 1890 | <time>2007-10-07T11:48:46Z</time>
|
|---|
| 1891 | </trkpt>
|
|---|
| 1892 | <trkpt lat='57.4918' lon='21.659232'>
|
|---|
| 1893 | <time>2007-10-07T11:48:58Z</time>
|
|---|
| 1894 | </trkpt>
|
|---|
| 1895 | <trkpt lat='57.49089' lon='21.658045'>
|
|---|
| 1896 | <time>2007-10-07T11:49:15Z</time>
|
|---|
| 1897 | </trkpt>
|
|---|
| 1898 | <trkpt lat='57.490343' lon='21.657162'>
|
|---|
| 1899 | <time>2007-10-07T11:49:26Z</time>
|
|---|
| 1900 | </trkpt>
|
|---|
| 1901 | <trkpt lat='57.489893' lon='21.65585'>
|
|---|
| 1902 | <time>2007-10-07T11:49:38Z</time>
|
|---|
| 1903 | </trkpt>
|
|---|
| 1904 | <trkpt lat='57.489332' lon='21.654283'>
|
|---|
| 1905 | <time>2007-10-07T11:49:53Z</time>
|
|---|
| 1906 | </trkpt>
|
|---|
| 1907 | <trkpt lat='57.488658' lon='21.652417'>
|
|---|
| 1908 | <time>2007-10-07T11:50:08Z</time>
|
|---|
| 1909 | </trkpt>
|
|---|
| 1910 | <trkpt lat='57.48796' lon='21.65038'>
|
|---|
| 1911 | <time>2007-10-07T11:50:25Z</time>
|
|---|
| 1912 | </trkpt>
|
|---|
| 1913 | <trkpt lat='57.487553' lon='21.649525'>
|
|---|
| 1914 | <time>2007-10-07T11:50:33Z</time>
|
|---|
| 1915 | </trkpt>
|
|---|
| 1916 | <trkpt lat='57.487083' lon='21.648907'>
|
|---|
| 1917 | <time>2007-10-07T11:50:41Z</time>
|
|---|
| 1918 | </trkpt>
|
|---|
| 1919 | <trkpt lat='57.486877' lon='21.648688'>
|
|---|
| 1920 | <time>2007-10-07T11:50:45Z</time>
|
|---|
| 1921 | </trkpt>
|
|---|
| 1922 | <trkpt lat='57.486177' lon='21.64786'>
|
|---|
| 1923 | <time>2007-10-07T11:51:01Z</time>
|
|---|
| 1924 | </trkpt>
|
|---|
| 1925 | <trkpt lat='57.485262' lon='21.646878'>
|
|---|
| 1926 | <time>2007-10-07T11:51:17Z</time>
|
|---|
| 1927 | </trkpt>
|
|---|
| 1928 | <trkpt lat='57.48449' lon='21.64604'>
|
|---|
| 1929 | <time>2007-10-07T11:51:30Z</time>
|
|---|
| 1930 | </trkpt>
|
|---|
| 1931 | <trkpt lat='57.483718' lon='21.645333'>
|
|---|
| 1932 | <time>2007-10-07T11:51:42Z</time>
|
|---|
| 1933 | </trkpt>
|
|---|
| 1934 | <trkpt lat='57.482067' lon='21.643922'>
|
|---|
| 1935 | <time>2007-10-07T11:52:10Z</time>
|
|---|
| 1936 | </trkpt>
|
|---|
| 1937 | <trkpt lat='57.481165' lon='21.643173'>
|
|---|
| 1938 | <time>2007-10-07T11:52:25Z</time>
|
|---|
| 1939 | </trkpt>
|
|---|
| 1940 | <trkpt lat='57.4798' lon='21.642085'>
|
|---|
| 1941 | <time>2007-10-07T11:52:45Z</time>
|
|---|
| 1942 | </trkpt>
|
|---|
| 1943 | <trkpt lat='57.478528' lon='21.641092'>
|
|---|
| 1944 | <time>2007-10-07T11:53:01Z</time>
|
|---|
| 1945 | </trkpt>
|
|---|
| 1946 | <trkpt lat='57.477457' lon='21.640133'>
|
|---|
| 1947 | <time>2007-10-07T11:53:14Z</time>
|
|---|
| 1948 | </trkpt>
|
|---|
| 1949 | <trkpt lat='57.476223' lon='21.639065'>
|
|---|
| 1950 | <time>2007-10-07T11:53:29Z</time>
|
|---|
| 1951 | </trkpt>
|
|---|
| 1952 | <trkpt lat='57.475162' lon='21.638175'>
|
|---|
| 1953 | <time>2007-10-07T11:53:48Z</time>
|
|---|
| 1954 | </trkpt>
|
|---|
| 1955 | <trkpt lat='57.47411' lon='21.637257'>
|
|---|
| 1956 | <time>2007-10-07T11:54:05Z</time>
|
|---|
| 1957 | </trkpt>
|
|---|
| 1958 | <trkpt lat='57.473505' lon='21.636582'>
|
|---|
| 1959 | <time>2007-10-07T11:54:15Z</time>
|
|---|
| 1960 | </trkpt>
|
|---|
| 1961 | <trkpt lat='57.473053' lon='21.635833'>
|
|---|
| 1962 | <time>2007-10-07T11:54:25Z</time>
|
|---|
| 1963 | </trkpt>
|
|---|
| 1964 | <trkpt lat='57.472777' lon='21.635762'>
|
|---|
| 1965 | <time>2007-10-07T11:54:29Z</time>
|
|---|
| 1966 | </trkpt>
|
|---|
| 1967 | <trkpt lat='57.470977' lon='21.635672'>
|
|---|
| 1968 | <time>2007-10-07T11:54:49Z</time>
|
|---|
| 1969 | </trkpt>
|
|---|
| 1970 | <trkpt lat='57.468972' lon='21.635505'>
|
|---|
| 1971 | <time>2007-10-07T11:55:09Z</time>
|
|---|
| 1972 | </trkpt>
|
|---|
| 1973 | <trkpt lat='57.467098' lon='21.635343'>
|
|---|
| 1974 | <time>2007-10-07T11:55:26Z</time>
|
|---|
| 1975 | </trkpt>
|
|---|
| 1976 | <trkpt lat='57.465558' lon='21.635235'>
|
|---|
| 1977 | <time>2007-10-07T11:55:41Z</time>
|
|---|
| 1978 | </trkpt>
|
|---|
| 1979 | <trkpt lat='57.46433' lon='21.635113'>
|
|---|
| 1980 | <time>2007-10-07T11:55:54Z</time>
|
|---|
| 1981 | </trkpt>
|
|---|
| 1982 | <trkpt lat='57.462847' lon='21.634998'>
|
|---|
| 1983 | <time>2007-10-07T11:56:09Z</time>
|
|---|
| 1984 | </trkpt>
|
|---|
| 1985 | <trkpt lat='57.461225' lon='21.634873'>
|
|---|
| 1986 | <time>2007-10-07T11:56:30Z</time>
|
|---|
| 1987 | </trkpt>
|
|---|
| 1988 | <trkpt lat='57.459978' lon='21.634752'>
|
|---|
| 1989 | <time>2007-10-07T11:56:48Z</time>
|
|---|
| 1990 | </trkpt>
|
|---|
| 1991 | <trkpt lat='57.458823' lon='21.634653'>
|
|---|
| 1992 | <time>2007-10-07T11:57:07Z</time>
|
|---|
| 1993 | </trkpt>
|
|---|
| 1994 | <trkpt lat='57.457883' lon='21.634628'>
|
|---|
| 1995 | <time>2007-10-07T11:57:25Z</time>
|
|---|
| 1996 | </trkpt>
|
|---|
| 1997 | <trkpt lat='57.457638' lon='21.634412'>
|
|---|
| 1998 | <time>2007-10-07T11:57:30Z</time>
|
|---|
| 1999 | </trkpt>
|
|---|
| 2000 | <trkpt lat='57.457173' lon='21.633868'>
|
|---|
| 2001 | <time>2007-10-07T11:57:38Z</time>
|
|---|
| 2002 | </trkpt>
|
|---|
| 2003 | <trkpt lat='57.456267' lon='21.632832'>
|
|---|
| 2004 | <time>2007-10-07T11:57:56Z</time>
|
|---|
| 2005 | </trkpt>
|
|---|
| 2006 | <trkpt lat='57.456193' lon='21.632698'>
|
|---|
| 2007 | <time>2007-10-07T11:58:00Z</time>
|
|---|
| 2008 | </trkpt>
|
|---|
| 2009 | <trkpt lat='57.455962' lon='21.632395'>
|
|---|
| 2010 | <time>2007-10-07T11:58:08Z</time>
|
|---|
| 2011 | </trkpt>
|
|---|
| 2012 | <trkpt lat='57.455635' lon='21.632108'>
|
|---|
| 2013 | <time>2007-10-07T11:58:15Z</time>
|
|---|
| 2014 | </trkpt>
|
|---|
| 2015 | <trkpt lat='57.454638' lon='21.630823'>
|
|---|
| 2016 | <time>2007-10-07T11:58:35Z</time>
|
|---|
| 2017 | </trkpt>
|
|---|
| 2018 | <trkpt lat='57.453897' lon='21.630008'>
|
|---|
| 2019 | <time>2007-10-07T11:58:49Z</time>
|
|---|
| 2020 | </trkpt>
|
|---|
| 2021 | <trkpt lat='57.452837' lon='21.628942'>
|
|---|
| 2022 | <time>2007-10-07T11:59:04Z</time>
|
|---|
| 2023 | </trkpt>
|
|---|
| 2024 | <trkpt lat='57.450108' lon='21.626442'>
|
|---|
| 2025 | <time>2007-10-07T11:59:26Z</time>
|
|---|
| 2026 | </trkpt>
|
|---|
| 2027 | <trkpt lat='57.447568' lon='21.624127'>
|
|---|
| 2028 | <time>2007-10-07T11:59:45Z</time>
|
|---|
| 2029 | </trkpt>
|
|---|
| 2030 | <trkpt lat='57.445543' lon='21.622195'>
|
|---|
| 2031 | <time>2007-10-07T11:59:59Z</time>
|
|---|
| 2032 | </trkpt>
|
|---|
| 2033 | <trkpt lat='57.44342' lon='21.62008'>
|
|---|
| 2034 | <time>2007-10-07T12:00:15Z</time>
|
|---|
| 2035 | </trkpt>
|
|---|
| 2036 | <trkpt lat='57.44147' lon='21.616715'>
|
|---|
| 2037 | <time>2007-10-07T12:00:35Z</time>
|
|---|
| 2038 | </trkpt>
|
|---|
| 2039 | <trkpt lat='57.440683' lon='21.615897'>
|
|---|
| 2040 | <time>2007-10-07T12:00:42Z</time>
|
|---|
| 2041 | </trkpt>
|
|---|
| 2042 | <trkpt lat='57.439605' lon='21.614157'>
|
|---|
| 2043 | <time>2007-10-07T12:00:57Z</time>
|
|---|
| 2044 | </trkpt>
|
|---|
| 2045 | <trkpt lat='57.439597' lon='21.614057'>
|
|---|
| 2046 | <time>2007-10-07T12:00:58Z</time>
|
|---|
| 2047 | </trkpt>
|
|---|
| 2048 | <trkpt lat='57.439652' lon='21.613598'>
|
|---|
| 2049 | <time>2007-10-07T12:01:02Z</time>
|
|---|
| 2050 | </trkpt>
|
|---|
| 2051 | <trkpt lat='57.439828' lon='21.613198'>
|
|---|
| 2052 | <time>2007-10-07T12:01:05Z</time>
|
|---|
| 2053 | </trkpt>
|
|---|
| 2054 | <trkpt lat='57.441077' lon='21.609927'>
|
|---|
| 2055 | <time>2007-10-07T12:01:26Z</time>
|
|---|
| 2056 | </trkpt>
|
|---|
| 2057 | <trkpt lat='57.441578' lon='21.608383'>
|
|---|
| 2058 | <time>2007-10-07T12:01:37Z</time>
|
|---|
| 2059 | </trkpt>
|
|---|
| 2060 | <trkpt lat='57.441905' lon='21.608418'>
|
|---|
| 2061 | <time>2007-10-07T12:01:41Z</time>
|
|---|
| 2062 | </trkpt>
|
|---|
| 2063 | <trkpt lat='57.442147' lon='21.608272'>
|
|---|
| 2064 | <time>2007-10-07T12:01:45Z</time>
|
|---|
| 2065 | </trkpt>
|
|---|
| 2066 | <trkpt lat='57.443062' lon='21.606595'>
|
|---|
| 2067 | <time>2007-10-07T12:01:58Z</time>
|
|---|
| 2068 | </trkpt>
|
|---|
| 2069 | <trkpt lat='57.444058' lon='21.605188'>
|
|---|
| 2070 | <time>2007-10-07T12:02:13Z</time>
|
|---|
| 2071 | </trkpt>
|
|---|
| 2072 | <trkpt lat='57.444292' lon='21.605457'>
|
|---|
| 2073 | <time>2007-10-07T12:02:17Z</time>
|
|---|
| 2074 | </trkpt>
|
|---|
| 2075 | <trkpt lat='57.444352' lon='21.605512'>
|
|---|
| 2076 | <time>2007-10-07T12:02:18Z</time>
|
|---|
| 2077 | </trkpt>
|
|---|
| 2078 | <trkpt lat='57.44461' lon='21.605553'>
|
|---|
| 2079 | <time>2007-10-07T12:02:22Z</time>
|
|---|
| 2080 | </trkpt>
|
|---|
| 2081 | <trkpt lat='57.444892' lon='21.605495'>
|
|---|
| 2082 | <time>2007-10-07T12:02:34Z</time>
|
|---|
| 2083 | </trkpt>
|
|---|
| 2084 | <trkpt lat='57.444902' lon='21.605493'>
|
|---|
| 2085 | <time>2007-10-07T12:02:38Z</time>
|
|---|
| 2086 | </trkpt>
|
|---|
| 2087 | <trkpt lat='57.444915' lon='21.605548'>
|
|---|
| 2088 | <time>2007-10-07T12:02:58Z</time>
|
|---|
| 2089 | </trkpt>
|
|---|
| 2090 | <trkpt lat='57.4449' lon='21.605587'>
|
|---|
| 2091 | <time>2007-10-07T12:03:18Z</time>
|
|---|
| 2092 | </trkpt>
|
|---|
| 2093 | <trkpt lat='57.44507' lon='21.6055'>
|
|---|
| 2094 | <time>2007-10-07T13:12:03Z</time>
|
|---|
| 2095 | </trkpt>
|
|---|
| 2096 | <trkpt lat='57.445025' lon='21.60553'>
|
|---|
| 2097 | <time>2007-10-07T13:12:07Z</time>
|
|---|
| 2098 | </trkpt>
|
|---|
| 2099 | <trkpt lat='57.444893' lon='21.605593'>
|
|---|
| 2100 | <time>2007-10-07T13:12:11Z</time>
|
|---|
| 2101 | </trkpt>
|
|---|
| 2102 | <trkpt lat='57.444283' lon='21.605473'>
|
|---|
| 2103 | <time>2007-10-07T13:12:23Z</time>
|
|---|
| 2104 | </trkpt>
|
|---|
| 2105 | <trkpt lat='57.443803' lon='21.605402'>
|
|---|
| 2106 | <time>2007-10-07T13:12:31Z</time>
|
|---|
| 2107 | </trkpt>
|
|---|
| 2108 | <trkpt lat='57.443568' lon='21.60578'>
|
|---|
| 2109 | <time>2007-10-07T13:12:35Z</time>
|
|---|
| 2110 | </trkpt>
|
|---|
| 2111 | <trkpt lat='57.442433' lon='21.607872'>
|
|---|
| 2112 | <time>2007-10-07T13:12:54Z</time>
|
|---|
| 2113 | </trkpt>
|
|---|
| 2114 | <trkpt lat='57.441965' lon='21.608475'>
|
|---|
| 2115 | <time>2007-10-07T13:13:02Z</time>
|
|---|
| 2116 | </trkpt>
|
|---|
| 2117 | <trkpt lat='57.441813' lon='21.608445'>
|
|---|
| 2118 | <time>2007-10-07T13:13:04Z</time>
|
|---|
| 2119 | </trkpt>
|
|---|
| 2120 | <trkpt lat='57.441492' lon='21.608532'>
|
|---|
| 2121 | <time>2007-10-07T13:13:08Z</time>
|
|---|
| 2122 | </trkpt>
|
|---|
| 2123 | <trkpt lat='57.441295' lon='21.609083'>
|
|---|
| 2124 | <time>2007-10-07T13:13:12Z</time>
|
|---|
| 2125 | </trkpt>
|
|---|
| 2126 | <trkpt lat='57.440782' lon='21.611288'>
|
|---|
| 2127 | <time>2007-10-07T13:13:24Z</time>
|
|---|
| 2128 | </trkpt>
|
|---|
| 2129 | <trkpt lat='57.440207' lon='21.612568'>
|
|---|
| 2130 | <time>2007-10-07T13:13:32Z</time>
|
|---|
| 2131 | </trkpt>
|
|---|
| 2132 | <trkpt lat='57.43967' lon='21.6138'>
|
|---|
| 2133 | <time>2007-10-07T13:13:40Z</time>
|
|---|
| 2134 | </trkpt>
|
|---|
| 2135 | <trkpt lat='57.439575' lon='21.614185'>
|
|---|
| 2136 | <time>2007-10-07T13:13:43Z</time>
|
|---|
| 2137 | </trkpt>
|
|---|
| 2138 | <trkpt lat='57.439085' lon='21.61667'>
|
|---|
| 2139 | <time>2007-10-07T13:13:55Z</time>
|
|---|
| 2140 | </trkpt>
|
|---|
| 2141 | <trkpt lat='57.439093' lon='21.61774'>
|
|---|
| 2142 | <time>2007-10-07T13:13:59Z</time>
|
|---|
| 2143 | </trkpt>
|
|---|
| 2144 | <trkpt lat='57.439047' lon='21.61979'>
|
|---|
| 2145 | <time>2007-10-07T13:14:07Z</time>
|
|---|
| 2146 | </trkpt>
|
|---|
| 2147 | <trkpt lat='57.43878' lon='21.620338'>
|
|---|
| 2148 | <time>2007-10-07T13:14:10Z</time>
|
|---|
| 2149 | </trkpt>
|
|---|
| 2150 | <trkpt lat='57.437197' lon='21.622425'>
|
|---|
| 2151 | <time>2007-10-07T13:14:23Z</time>
|
|---|
| 2152 | </trkpt>
|
|---|
| 2153 | <trkpt lat='57.434348' lon='21.62565'>
|
|---|
| 2154 | <time>2007-10-07T13:14:43Z</time>
|
|---|
| 2155 | </trkpt>
|
|---|
| 2156 | <trkpt lat='57.433932' lon='21.626715'>
|
|---|
| 2157 | <time>2007-10-07T13:14:47Z</time>
|
|---|
| 2158 | </trkpt>
|
|---|
| 2159 | <trkpt lat='57.43322' lon='21.628503'>
|
|---|
| 2160 | <time>2007-10-07T13:14:54Z</time>
|
|---|
| 2161 | </trkpt>
|
|---|
| 2162 | <trkpt lat='57.43089' lon='21.6316'>
|
|---|
| 2163 | <time>2007-10-07T13:15:10Z</time>
|
|---|
| 2164 | </trkpt>
|
|---|
| 2165 | <trkpt lat='57.428' lon='21.634208'>
|
|---|
| 2166 | <time>2007-10-07T13:15:26Z</time>
|
|---|
| 2167 | </trkpt>
|
|---|
| 2168 | <trkpt lat='57.42543' lon='21.635843'>
|
|---|
| 2169 | <time>2007-10-07T13:15:39Z</time>
|
|---|
| 2170 | </trkpt>
|
|---|
| 2171 | <trkpt lat='57.42519' lon='21.636492'>
|
|---|
| 2172 | <time>2007-10-07T13:15:42Z</time>
|
|---|
| 2173 | </trkpt>
|
|---|
| 2174 | <trkpt lat='57.425183' lon='21.636757'>
|
|---|
| 2175 | <time>2007-10-07T13:15:43Z</time>
|
|---|
| 2176 | </trkpt>
|
|---|
| 2177 | <trkpt lat='57.424932' lon='21.639527'>
|
|---|
| 2178 | <time>2007-10-07T13:15:55Z</time>
|
|---|
| 2179 | </trkpt>
|
|---|
| 2180 | <trkpt lat='57.424705' lon='21.639587'>
|
|---|
| 2181 | <time>2007-10-07T13:15:58Z</time>
|
|---|
| 2182 | </trkpt>
|
|---|
| 2183 | <trkpt lat='57.424642' lon='21.639532'>
|
|---|
| 2184 | <time>2007-10-07T13:15:59Z</time>
|
|---|
| 2185 | </trkpt>
|
|---|
| 2186 | <trkpt lat='57.424373' lon='21.638977'>
|
|---|
| 2187 | <time>2007-10-07T13:16:03Z</time>
|
|---|
| 2188 | </trkpt>
|
|---|
| 2189 | <trkpt lat='57.423668' lon='21.637635'>
|
|---|
| 2190 | <time>2007-10-07T13:16:10Z</time>
|
|---|
| 2191 | </trkpt>
|
|---|
| 2192 | <trkpt lat='57.422963' lon='21.636902'>
|
|---|
| 2193 | <time>2007-10-07T13:16:17Z</time>
|
|---|
| 2194 | </trkpt>
|
|---|
| 2195 | <trkpt lat='57.4215' lon='21.635567'>
|
|---|
| 2196 | <time>2007-10-07T13:16:37Z</time>
|
|---|
| 2197 | </trkpt>
|
|---|
| 2198 | <trkpt lat='57.419863' lon='21.633823'>
|
|---|
| 2199 | <time>2007-10-07T13:16:48Z</time>
|
|---|
| 2200 | </trkpt>
|
|---|
| 2201 | <trkpt lat='57.419613' lon='21.632613'>
|
|---|
| 2202 | <time>2007-10-07T13:16:52Z</time>
|
|---|
| 2203 | </trkpt>
|
|---|
| 2204 | <trkpt lat='57.418372' lon='21.627543'>
|
|---|
| 2205 | <time>2007-10-07T13:17:07Z</time>
|
|---|
| 2206 | </trkpt>
|
|---|
| 2207 | <trkpt lat='57.415613' lon='21.621595'>
|
|---|
| 2208 | <time>2007-10-07T13:17:27Z</time>
|
|---|
| 2209 | </trkpt>
|
|---|
| 2210 | <trkpt lat='57.414935' lon='21.618745'>
|
|---|
| 2211 | <time>2007-10-07T13:17:35Z</time>
|
|---|
| 2212 | </trkpt>
|
|---|
| 2213 | <trkpt lat='57.414042' lon='21.612842'>
|
|---|
| 2214 | <time>2007-10-07T13:17:52Z</time>
|
|---|
| 2215 | </trkpt>
|
|---|
| 2216 | <trkpt lat='57.413758' lon='21.608768'>
|
|---|
| 2217 | <time>2007-10-07T13:18:07Z</time>
|
|---|
| 2218 | </trkpt>
|
|---|
| 2219 | <trkpt lat='57.413183' lon='21.605563'>
|
|---|
| 2220 | <time>2007-10-07T13:18:27Z</time>
|
|---|
| 2221 | </trkpt>
|
|---|
| 2222 | <trkpt lat='57.410852' lon='21.60607'>
|
|---|
| 2223 | <time>2007-10-07T13:18:44Z</time>
|
|---|
| 2224 | </trkpt>
|
|---|
| 2225 | <trkpt lat='57.408657' lon='21.606372'>
|
|---|
| 2226 | <time>2007-10-07T13:18:59Z</time>
|
|---|
| 2227 | </trkpt>
|
|---|
| 2228 | <trkpt lat='57.406682' lon='21.60663'>
|
|---|
| 2229 | <time>2007-10-07T13:19:13Z</time>
|
|---|
| 2230 | </trkpt>
|
|---|
| 2231 | <trkpt lat='57.40551' lon='21.60652'>
|
|---|
| 2232 | <time>2007-10-07T13:19:26Z</time>
|
|---|
| 2233 | </trkpt>
|
|---|
| 2234 | <trkpt lat='57.405585' lon='21.606015'>
|
|---|
| 2235 | <time>2007-10-07T13:19:30Z</time>
|
|---|
| 2236 | </trkpt>
|
|---|
| 2237 | <trkpt lat='57.406298' lon='21.603627'>
|
|---|
| 2238 | <time>2007-10-07T13:19:43Z</time>
|
|---|
| 2239 | </trkpt>
|
|---|
| 2240 | <trkpt lat='57.406335' lon='21.603113'>
|
|---|
| 2241 | <time>2007-10-07T13:19:47Z</time>
|
|---|
| 2242 | </trkpt>
|
|---|
| 2243 | <trkpt lat='57.406145' lon='21.602857'>
|
|---|
| 2244 | <time>2007-10-07T13:19:50Z</time>
|
|---|
| 2245 | </trkpt>
|
|---|
| 2246 | <trkpt lat='57.404208' lon='21.600557'>
|
|---|
| 2247 | <time>2007-10-07T13:20:09Z</time>
|
|---|
| 2248 | </trkpt>
|
|---|
| 2249 | <trkpt lat='57.403062' lon='21.598273'>
|
|---|
| 2250 | <time>2007-10-07T13:20:22Z</time>
|
|---|
| 2251 | </trkpt>
|
|---|
| 2252 | <trkpt lat='57.40153' lon='21.596427'>
|
|---|
| 2253 | <time>2007-10-07T13:20:35Z</time>
|
|---|
| 2254 | </trkpt>
|
|---|
| 2255 | <trkpt lat='57.399343' lon='21.593723'>
|
|---|
| 2256 | <time>2007-10-07T13:20:53Z</time>
|
|---|
| 2257 | </trkpt>
|
|---|
| 2258 | <trkpt lat='57.398818' lon='21.593442'>
|
|---|
| 2259 | <time>2007-10-07T13:20:57Z</time>
|
|---|
| 2260 | </trkpt>
|
|---|
| 2261 | <trkpt lat='57.396278' lon='21.59288'>
|
|---|
| 2262 | <time>2007-10-07T13:21:14Z</time>
|
|---|
| 2263 | </trkpt>
|
|---|
| 2264 | <trkpt lat='57.394535' lon='21.592337'>
|
|---|
| 2265 | <time>2007-10-07T13:21:26Z</time>
|
|---|
| 2266 | </trkpt>
|
|---|
| 2267 | <trkpt lat='57.393997' lon='21.591423'>
|
|---|
| 2268 | <time>2007-10-07T13:21:31Z</time>
|
|---|
| 2269 | </trkpt>
|
|---|
| 2270 | <trkpt lat='57.39287' lon='21.589597'>
|
|---|
| 2271 | <time>2007-10-07T13:21:41Z</time>
|
|---|
| 2272 | </trkpt>
|
|---|
| 2273 | <trkpt lat='57.391473' lon='21.588267'>
|
|---|
| 2274 | <time>2007-10-07T13:21:53Z</time>
|
|---|
| 2275 | </trkpt>
|
|---|
| 2276 | <trkpt lat='57.39074' lon='21.588908'>
|
|---|
| 2277 | <time>2007-10-07T13:22:00Z</time>
|
|---|
| 2278 | </trkpt>
|
|---|
| 2279 | <trkpt lat='57.389863' lon='21.590658'>
|
|---|
| 2280 | <time>2007-10-07T13:22:11Z</time>
|
|---|
| 2281 | </trkpt>
|
|---|
| 2282 | <trkpt lat='57.38958' lon='21.590512'>
|
|---|
| 2283 | <time>2007-10-07T13:22:14Z</time>
|
|---|
| 2284 | </trkpt>
|
|---|
| 2285 | <trkpt lat='57.389177' lon='21.589778'>
|
|---|
| 2286 | <time>2007-10-07T13:22:19Z</time>
|
|---|
| 2287 | </trkpt>
|
|---|
| 2288 | <trkpt lat='57.387737' lon='21.587143'>
|
|---|
| 2289 | <time>2007-10-07T13:22:34Z</time>
|
|---|
| 2290 | </trkpt>
|
|---|
| 2291 | <trkpt lat='57.387268' lon='21.585697'>
|
|---|
| 2292 | <time>2007-10-07T13:22:42Z</time>
|
|---|
| 2293 | </trkpt>
|
|---|
| 2294 | <trkpt lat='57.387307' lon='21.584838'>
|
|---|
| 2295 | <time>2007-10-07T13:22:46Z</time>
|
|---|
| 2296 | </trkpt>
|
|---|
| 2297 | <trkpt lat='57.387985' lon='21.581798'>
|
|---|
| 2298 | <time>2007-10-07T13:22:59Z</time>
|
|---|
| 2299 | </trkpt>
|
|---|
| 2300 | <trkpt lat='57.388693' lon='21.578657'>
|
|---|
| 2301 | <time>2007-10-07T13:23:18Z</time>
|
|---|
| 2302 | </trkpt>
|
|---|
| 2303 | <trkpt lat='57.388695' lon='21.578657'>
|
|---|
| 2304 | <time>2007-10-07T13:23:20Z</time>
|
|---|
| 2305 | </trkpt>
|
|---|
| 2306 | <trkpt lat='57.388698' lon='21.578663'>
|
|---|
| 2307 | <time>2007-10-07T13:23:24Z</time>
|
|---|
| 2308 | </trkpt>
|
|---|
| 2309 | <trkpt lat='57.38875' lon='21.578445'>
|
|---|
| 2310 | <time>2007-10-07T13:23:28Z</time>
|
|---|
| 2311 | </trkpt>
|
|---|
| 2312 | <trkpt lat='57.389238' lon='21.57638'>
|
|---|
| 2313 | <time>2007-10-07T13:23:43Z</time>
|
|---|
| 2314 | </trkpt>
|
|---|
| 2315 | <trkpt lat='57.389595' lon='21.574605'>
|
|---|
| 2316 | <time>2007-10-07T13:24:02Z</time>
|
|---|
| 2317 | </trkpt>
|
|---|
| 2318 | <trkpt lat='57.389677' lon='21.573933'>
|
|---|
| 2319 | <time>2007-10-07T13:24:06Z</time>
|
|---|
| 2320 | </trkpt>
|
|---|
| 2321 | <trkpt lat='57.389672' lon='21.570103'>
|
|---|
| 2322 | <time>2007-10-07T13:24:22Z</time>
|
|---|
| 2323 | </trkpt>
|
|---|
| 2324 | <trkpt lat='57.389665' lon='21.565848'>
|
|---|
| 2325 | <time>2007-10-07T13:24:39Z</time>
|
|---|
| 2326 | </trkpt>
|
|---|
| 2327 | <trkpt lat='57.389655' lon='21.56525'>
|
|---|
| 2328 | <time>2007-10-07T13:24:49Z</time>
|
|---|
| 2329 | </trkpt>
|
|---|
| 2330 | <trkpt lat='57.389653' lon='21.565252'>
|
|---|
| 2331 | <time>2007-10-07T13:24:50Z</time>
|
|---|
| 2332 | </trkpt>
|
|---|
| 2333 | <trkpt lat='57.389647' lon='21.565198'>
|
|---|
| 2334 | <time>2007-10-07T13:24:57Z</time>
|
|---|
| 2335 | </trkpt>
|
|---|
| 2336 | <trkpt lat='57.389645' lon='21.562868'>
|
|---|
| 2337 | <time>2007-10-07T13:25:12Z</time>
|
|---|
| 2338 | </trkpt>
|
|---|
| 2339 | <trkpt lat='57.389662' lon='21.560443'>
|
|---|
| 2340 | <time>2007-10-07T13:25:23Z</time>
|
|---|
| 2341 | </trkpt>
|
|---|
| 2342 | <trkpt lat='57.389693' lon='21.558713'>
|
|---|
| 2343 | <time>2007-10-07T13:25:41Z</time>
|
|---|
| 2344 | </trkpt>
|
|---|
| 2345 | <trkpt lat='57.389643' lon='21.555227'>
|
|---|
| 2346 | <time>2007-10-07T13:25:58Z</time>
|
|---|
| 2347 | </trkpt>
|
|---|
| 2348 | <trkpt lat='57.389703' lon='21.552895'>
|
|---|
| 2349 | <time>2007-10-07T13:26:10Z</time>
|
|---|
| 2350 | </trkpt>
|
|---|
| 2351 | <trkpt lat='57.38974' lon='21.552875'>
|
|---|
| 2352 | <time>2007-10-07T13:26:11Z</time>
|
|---|
| 2353 | </trkpt>
|
|---|
| 2354 | <trkpt lat='57.389905' lon='21.552955'>
|
|---|
| 2355 | <time>2007-10-07T13:26:15Z</time>
|
|---|
| 2356 | </trkpt>
|
|---|
| 2357 | <trkpt lat='57.390223' lon='21.553037'>
|
|---|
| 2358 | <time>2007-10-07T13:26:30Z</time>
|
|---|
| 2359 | </trkpt>
|
|---|
| 2360 | <trkpt lat='57.390243' lon='21.553075'>
|
|---|
| 2361 | <time>2007-10-07T13:26:59Z</time>
|
|---|
| 2362 | </trkpt>
|
|---|
| 2363 | <trkpt lat='57.390325' lon='21.55307'>
|
|---|
| 2364 | <time>2007-10-07T13:27:03Z</time>
|
|---|
| 2365 | </trkpt>
|
|---|
| 2366 | <trkpt lat='57.390337' lon='21.55298'>
|
|---|
| 2367 | <time>2007-10-07T13:27:06Z</time>
|
|---|
| 2368 | </trkpt>
|
|---|
| 2369 | <trkpt lat='57.390337' lon='21.552968'>
|
|---|
| 2370 | <time>2007-10-07T13:27:07Z</time>
|
|---|
| 2371 | </trkpt>
|
|---|
| 2372 | <trkpt lat='57.390335' lon='21.552985'>
|
|---|
| 2373 | <time>2007-10-07T13:27:11Z</time>
|
|---|
| 2374 | </trkpt>
|
|---|
| 2375 | <trkpt lat='57.390328' lon='21.553038'>
|
|---|
| 2376 | <time>2007-10-07T13:27:14Z</time>
|
|---|
| 2377 | </trkpt>
|
|---|
| 2378 | <trkpt lat='57.39032' lon='21.553027'>
|
|---|
| 2379 | <time>2007-10-07T13:27:18Z</time>
|
|---|
| 2380 | </trkpt>
|
|---|
| 2381 | <trkpt lat='57.390237' lon='21.552992'>
|
|---|
| 2382 | <time>2007-10-07T13:27:21Z</time>
|
|---|
| 2383 | </trkpt>
|
|---|
| 2384 | <trkpt lat='57.389728' lon='21.552882'>
|
|---|
| 2385 | <time>2007-10-07T13:27:29Z</time>
|
|---|
| 2386 | </trkpt>
|
|---|
| 2387 | <trkpt lat='57.389658' lon='21.552648'>
|
|---|
| 2388 | <time>2007-10-07T13:27:33Z</time>
|
|---|
| 2389 | </trkpt>
|
|---|
| 2390 | <trkpt lat='57.389658' lon='21.54993'>
|
|---|
| 2391 | <time>2007-10-07T13:27:47Z</time>
|
|---|
| 2392 | </trkpt>
|
|---|
| 2393 | <trkpt lat='57.38965' lon='21.549498'>
|
|---|
| 2394 | <time>2007-10-07T13:27:51Z</time>
|
|---|
| 2395 | </trkpt>
|
|---|
| 2396 | <trkpt lat='57.389472' lon='21.54945'>
|
|---|
| 2397 | <time>2007-10-07T13:27:54Z</time>
|
|---|
| 2398 | </trkpt>
|
|---|
| 2399 | <trkpt lat='57.38691' lon='21.548423'>
|
|---|
| 2400 | <time>2007-10-07T13:28:15Z</time>
|
|---|
| 2401 | </trkpt>
|
|---|
| 2402 | <trkpt lat='57.385473' lon='21.546593'>
|
|---|
| 2403 | <time>2007-10-07T13:28:30Z</time>
|
|---|
| 2404 | </trkpt>
|
|---|
| 2405 | <trkpt lat='57.385502' lon='21.546362'>
|
|---|
| 2406 | <time>2007-10-07T13:28:34Z</time>
|
|---|
| 2407 | </trkpt>
|
|---|
| 2408 | <trkpt lat='57.38589' lon='21.545388'>
|
|---|
| 2409 | <time>2007-10-07T13:28:42Z</time>
|
|---|
| 2410 | </trkpt>
|
|---|
| 2411 | <trkpt lat='57.385895' lon='21.545288'>
|
|---|
| 2412 | <time>2007-10-07T13:28:43Z</time>
|
|---|
| 2413 | </trkpt>
|
|---|
| 2414 | <trkpt lat='57.3857' lon='21.54494'>
|
|---|
| 2415 | <time>2007-10-07T13:28:47Z</time>
|
|---|
| 2416 | </trkpt>
|
|---|
| 2417 | <trkpt lat='57.385227' lon='21.544097'>
|
|---|
| 2418 | <time>2007-10-07T13:28:57Z</time>
|
|---|
| 2419 | </trkpt>
|
|---|
| 2420 | <trkpt lat='57.385287' lon='21.543908'>
|
|---|
| 2421 | <time>2007-10-07T13:29:01Z</time>
|
|---|
| 2422 | </trkpt>
|
|---|
| 2423 | <trkpt lat='57.385293' lon='21.543907'>
|
|---|
| 2424 | <time>2007-10-07T13:29:05Z</time>
|
|---|
| 2425 | </trkpt>
|
|---|
| 2426 | <trkpt lat='57.385297' lon='21.543985'>
|
|---|
| 2427 | <time>2007-10-07T13:29:30Z</time>
|
|---|
| 2428 | </trkpt>
|
|---|
| 2429 | <trkpt lat='57.385297' lon='21.543987'>
|
|---|
| 2430 | <time>2007-10-07T13:29:32Z</time>
|
|---|
| 2431 | </trkpt>
|
|---|
| 2432 | <trkpt lat='57.385293' lon='21.544008'>
|
|---|
| 2433 | <time>2007-10-07T13:30:12Z</time>
|
|---|
| 2434 | </trkpt>
|
|---|
| 2435 | <trkpt lat='57.385272' lon='21.54404'>
|
|---|
| 2436 | <time>2007-10-07T13:31:04Z</time>
|
|---|
| 2437 | </trkpt>
|
|---|
| 2438 | <trkpt lat='57.38526' lon='21.54411'>
|
|---|
| 2439 | <time>2007-10-07T13:31:08Z</time>
|
|---|
| 2440 | </trkpt>
|
|---|
| 2441 | <trkpt lat='57.385268' lon='21.544072'>
|
|---|
| 2442 | <time>2007-10-07T13:31:12Z</time>
|
|---|
| 2443 | </trkpt>
|
|---|
| 2444 | <trkpt lat='57.385272' lon='21.544002'>
|
|---|
| 2445 | <time>2007-10-07T13:31:15Z</time>
|
|---|
| 2446 | </trkpt>
|
|---|
| 2447 | <trkpt lat='57.385262' lon='21.543962'>
|
|---|
| 2448 | <time>2007-10-07T13:31:18Z</time>
|
|---|
| 2449 | </trkpt>
|
|---|
| 2450 | <trkpt lat='57.385248' lon='21.54393'>
|
|---|
| 2451 | <time>2007-10-07T13:31:23Z</time>
|
|---|
| 2452 | </trkpt>
|
|---|
| 2453 | <trkpt lat='57.38523' lon='21.543902'>
|
|---|
| 2454 | <time>2007-10-07T13:31:26Z</time>
|
|---|
| 2455 | </trkpt>
|
|---|
| 2456 | <trkpt lat='57.38522' lon='21.543887'>
|
|---|
| 2457 | <time>2007-10-07T13:31:31Z</time>
|
|---|
| 2458 | </trkpt>
|
|---|
| 2459 | <trkpt lat='57.385198' lon='21.54384'>
|
|---|
| 2460 | <time>2007-10-07T13:31:47Z</time>
|
|---|
| 2461 | </trkpt>
|
|---|
| 2462 | <trkpt lat='57.385178' lon='21.543867'>
|
|---|
| 2463 | <time>2007-10-07T13:32:19Z</time>
|
|---|
| 2464 | </trkpt>
|
|---|
| 2465 | <trkpt lat='57.38519' lon='21.54388'>
|
|---|
| 2466 | <time>2007-10-07T13:32:35Z</time>
|
|---|
| 2467 | </trkpt>
|
|---|
| 2468 | <trkpt lat='57.385193' lon='21.54388'>
|
|---|
| 2469 | <time>2007-10-07T13:32:38Z</time>
|
|---|
| 2470 | </trkpt>
|
|---|
| 2471 | <trkpt lat='57.38523' lon='21.543875'>
|
|---|
| 2472 | <time>2007-10-07T13:32:46Z</time>
|
|---|
| 2473 | </trkpt>
|
|---|
| 2474 | <trkpt lat='57.385243' lon='21.543883'>
|
|---|
| 2475 | <time>2007-10-07T13:32:50Z</time>
|
|---|
| 2476 | </trkpt>
|
|---|
| 2477 | <trkpt lat='57.385242' lon='21.543903'>
|
|---|
| 2478 | <time>2007-10-07T13:32:55Z</time>
|
|---|
| 2479 | </trkpt>
|
|---|
| 2480 | <trkpt lat='57.38755' lon='21.583723'>
|
|---|
| 2481 | <time>2007-10-07T14:40:48Z</time>
|
|---|
| 2482 | </trkpt>
|
|---|
| 2483 | <trkpt lat='57.387305' lon='21.584837'>
|
|---|
| 2484 | <time>2007-10-07T14:40:53Z</time>
|
|---|
| 2485 | </trkpt>
|
|---|
| 2486 | <trkpt lat='57.387105' lon='21.585413'>
|
|---|
| 2487 | <time>2007-10-07T14:40:57Z</time>
|
|---|
| 2488 | </trkpt>
|
|---|
| 2489 | <trkpt lat='57.38698' lon='21.586395'>
|
|---|
| 2490 | <time>2007-10-07T14:41:05Z</time>
|
|---|
| 2491 | </trkpt>
|
|---|
| 2492 | <trkpt lat='57.387363' lon='21.5867'>
|
|---|
| 2493 | <time>2007-10-07T14:41:09Z</time>
|
|---|
| 2494 | </trkpt>
|
|---|
| 2495 | <trkpt lat='57.387718' lon='21.587275'>
|
|---|
| 2496 | <time>2007-10-07T14:41:13Z</time>
|
|---|
| 2497 | </trkpt>
|
|---|
| 2498 | <trkpt lat='57.389318' lon='21.590147'>
|
|---|
| 2499 | <time>2007-10-07T14:41:30Z</time>
|
|---|
| 2500 | </trkpt>
|
|---|
| 2501 | <trkpt lat='57.389635' lon='21.590805'>
|
|---|
| 2502 | <time>2007-10-07T14:41:34Z</time>
|
|---|
| 2503 | </trkpt>
|
|---|
| 2504 | <trkpt lat='57.389797' lon='21.591427'>
|
|---|
| 2505 | <time>2007-10-07T14:41:38Z</time>
|
|---|
| 2506 | </trkpt>
|
|---|
| 2507 | <trkpt lat='57.390005' lon='21.591512'>
|
|---|
| 2508 | <time>2007-10-07T14:41:41Z</time>
|
|---|
| 2509 | </trkpt>
|
|---|
| 2510 | <trkpt lat='57.390157' lon='21.591152'>
|
|---|
| 2511 | <time>2007-10-07T14:41:44Z</time>
|
|---|
| 2512 | </trkpt>
|
|---|
| 2513 | <trkpt lat='57.390167' lon='21.590957'>
|
|---|
| 2514 | <time>2007-10-07T14:41:45Z</time>
|
|---|
| 2515 | </trkpt>
|
|---|
| 2516 | <trkpt lat='57.39033' lon='21.59023'>
|
|---|
| 2517 | <time>2007-10-07T14:41:49Z</time>
|
|---|
| 2518 | </trkpt>
|
|---|
| 2519 | <trkpt lat='57.391213' lon='21.588508'>
|
|---|
| 2520 | <time>2007-10-07T14:41:59Z</time>
|
|---|
| 2521 | </trkpt>
|
|---|
| 2522 | <trkpt lat='57.391718' lon='21.588495'>
|
|---|
| 2523 | <time>2007-10-07T14:42:03Z</time>
|
|---|
| 2524 | </trkpt>
|
|---|
| 2525 | <trkpt lat='57.392227' lon='21.588968'>
|
|---|
| 2526 | <time>2007-10-07T14:42:07Z</time>
|
|---|
| 2527 | </trkpt>
|
|---|
| 2528 | <trkpt lat='57.394035' lon='21.591528'>
|
|---|
| 2529 | <time>2007-10-07T14:42:22Z</time>
|
|---|
| 2530 | </trkpt>
|
|---|
| 2531 | <trkpt lat='57.394692' lon='21.592638'>
|
|---|
| 2532 | <time>2007-10-07T14:42:28Z</time>
|
|---|
| 2533 | </trkpt>
|
|---|
| 2534 | <trkpt lat='57.395398' lon='21.593018'>
|
|---|
| 2535 | <time>2007-10-07T14:42:33Z</time>
|
|---|
| 2536 | </trkpt>
|
|---|
| 2537 | <trkpt lat='57.396445' lon='21.594552'>
|
|---|
| 2538 | <time>2007-10-07T14:42:45Z</time>
|
|---|
| 2539 | </trkpt>
|
|---|
| 2540 | <trkpt lat='57.396368' lon='21.595612'>
|
|---|
| 2541 | <time>2007-10-07T14:42:49Z</time>
|
|---|
| 2542 | </trkpt>
|
|---|
| 2543 | <trkpt lat='57.396323' lon='21.600305'>
|
|---|
| 2544 | <time>2007-10-07T14:43:06Z</time>
|
|---|
| 2545 | </trkpt>
|
|---|
| 2546 | <trkpt lat='57.396363' lon='21.604242'>
|
|---|
| 2547 | <time>2007-10-07T14:43:21Z</time>
|
|---|
| 2548 | </trkpt>
|
|---|
| 2549 | <trkpt lat='57.39652' lon='21.60881'>
|
|---|
| 2550 | <time>2007-10-07T14:43:39Z</time>
|
|---|
| 2551 | </trkpt>
|
|---|
| 2552 | <trkpt lat='57.396575' lon='21.612525'>
|
|---|
| 2553 | <time>2007-10-07T14:43:54Z</time>
|
|---|
| 2554 | </trkpt>
|
|---|
| 2555 | <trkpt lat='57.396645' lon='21.616302'>
|
|---|
| 2556 | <time>2007-10-07T14:44:08Z</time>
|
|---|
| 2557 | </trkpt>
|
|---|
| 2558 | <trkpt lat='57.396953' lon='21.620565'>
|
|---|
| 2559 | <time>2007-10-07T14:44:24Z</time>
|
|---|
| 2560 | </trkpt>
|
|---|
| 2561 | </trkseg>
|
|---|
| 2562 | <trkseg>
|
|---|
| 2563 | <trkpt lat='57.376423' lon='21.556675'>
|
|---|
| 2564 | <time>2007-10-06T08:29:55Z</time>
|
|---|
| 2565 | </trkpt>
|
|---|
| 2566 | <trkpt lat='57.376427' lon='21.556685'>
|
|---|
| 2567 | <time>2007-10-06T08:29:57Z</time>
|
|---|
| 2568 | </trkpt>
|
|---|
| 2569 | <trkpt lat='57.376443' lon='21.556743'>
|
|---|
| 2570 | <time>2007-10-06T08:32:19Z</time>
|
|---|
| 2571 | </trkpt>
|
|---|
| 2572 | <trkpt lat='57.376442' lon='21.556745'>
|
|---|
| 2573 | <time>2007-10-06T08:32:21Z</time>
|
|---|
| 2574 | </trkpt>
|
|---|
| 2575 | <trkpt lat='57.376442' lon='21.556747'>
|
|---|
| 2576 | <time>2007-10-06T08:32:24Z</time>
|
|---|
| 2577 | </trkpt>
|
|---|
| 2578 | <trkpt lat='57.376435' lon='21.55679'>
|
|---|
| 2579 | <time>2007-10-06T08:33:10Z</time>
|
|---|
| 2580 | </trkpt>
|
|---|
| 2581 | <trkpt lat='57.37643' lon='21.556815'>
|
|---|
| 2582 | <time>2007-10-06T08:33:13Z</time>
|
|---|
| 2583 | </trkpt>
|
|---|
| 2584 | <trkpt lat='57.37643' lon='21.556818'>
|
|---|
| 2585 | <time>2007-10-06T08:33:14Z</time>
|
|---|
| 2586 | </trkpt>
|
|---|
| 2587 | <trkpt lat='57.376398' lon='21.556782'>
|
|---|
| 2588 | <time>2007-10-06T08:33:17Z</time>
|
|---|
| 2589 | </trkpt>
|
|---|
| 2590 | <trkpt lat='57.3763' lon='21.556693'>
|
|---|
| 2591 | <time>2007-10-06T08:33:21Z</time>
|
|---|
| 2592 | </trkpt>
|
|---|
| 2593 | <trkpt lat='57.37628' lon='21.556605'>
|
|---|
| 2594 | <time>2007-10-06T08:33:23Z</time>
|
|---|
| 2595 | </trkpt>
|
|---|
| 2596 | <trkpt lat='57.376293' lon='21.55654'>
|
|---|
| 2597 | <time>2007-10-06T08:33:25Z</time>
|
|---|
| 2598 | </trkpt>
|
|---|
| 2599 | <trkpt lat='57.376297' lon='21.556537'>
|
|---|
| 2600 | <time>2007-10-06T08:33:27Z</time>
|
|---|
| 2601 | </trkpt>
|
|---|
| 2602 | <trkpt lat='57.376298' lon='21.556537'>
|
|---|
| 2603 | <time>2007-10-06T08:33:29Z</time>
|
|---|
| 2604 | </trkpt>
|
|---|
| 2605 | <trkpt lat='57.376307' lon='21.556527'>
|
|---|
| 2606 | <time>2007-10-06T08:33:33Z</time>
|
|---|
| 2607 | </trkpt>
|
|---|
| 2608 | <trkpt lat='57.37639' lon='21.556493'>
|
|---|
| 2609 | <time>2007-10-06T08:33:36Z</time>
|
|---|
| 2610 | </trkpt>
|
|---|
| 2611 | <trkpt lat='57.377128' lon='21.557027'>
|
|---|
| 2612 | <time>2007-10-06T08:33:46Z</time>
|
|---|
| 2613 | </trkpt>
|
|---|
| 2614 | <trkpt lat='57.37792' lon='21.55758'>
|
|---|
| 2615 | <time>2007-10-06T08:33:54Z</time>
|
|---|
| 2616 | </trkpt>
|
|---|
| 2617 | <trkpt lat='57.377975' lon='21.557912'>
|
|---|
| 2618 | <time>2007-10-06T08:33:57Z</time>
|
|---|
| 2619 | </trkpt>
|
|---|
| 2620 | <trkpt lat='57.377917' lon='21.55949'>
|
|---|
| 2621 | <time>2007-10-06T08:34:06Z</time>
|
|---|
| 2622 | </trkpt>
|
|---|
| 2623 | <trkpt lat='57.377863' lon='21.56184'>
|
|---|
| 2624 | <time>2007-10-06T08:34:17Z</time>
|
|---|
| 2625 | </trkpt>
|
|---|
| 2626 | <trkpt lat='57.377808' lon='21.564347'>
|
|---|
| 2627 | <time>2007-10-06T08:34:27Z</time>
|
|---|
| 2628 | </trkpt>
|
|---|
| 2629 | <trkpt lat='57.377778' lon='21.565612'>
|
|---|
| 2630 | <time>2007-10-06T08:34:37Z</time>
|
|---|
| 2631 | </trkpt>
|
|---|
| 2632 | <trkpt lat='57.377773' lon='21.565743'>
|
|---|
| 2633 | <time>2007-10-06T08:34:44Z</time>
|
|---|
| 2634 | </trkpt>
|
|---|
| 2635 | <trkpt lat='57.377773' lon='21.565742'>
|
|---|
| 2636 | <time>2007-10-06T08:34:46Z</time>
|
|---|
| 2637 | </trkpt>
|
|---|
| 2638 | <trkpt lat='57.377773' lon='21.565745'>
|
|---|
| 2639 | <time>2007-10-06T08:34:50Z</time>
|
|---|
| 2640 | </trkpt>
|
|---|
| 2641 | <trkpt lat='57.37777' lon='21.565915'>
|
|---|
| 2642 | <time>2007-10-06T08:34:54Z</time>
|
|---|
| 2643 | </trkpt>
|
|---|
| 2644 | <trkpt lat='57.377892' lon='21.56611'>
|
|---|
| 2645 | <time>2007-10-06T08:34:57Z</time>
|
|---|
| 2646 | </trkpt>
|
|---|
| 2647 | <trkpt lat='57.379127' lon='21.566322'>
|
|---|
| 2648 | <time>2007-10-06T08:35:07Z</time>
|
|---|
| 2649 | </trkpt>
|
|---|
| 2650 | <trkpt lat='57.380427' lon='21.566545'>
|
|---|
| 2651 | <time>2007-10-06T08:35:17Z</time>
|
|---|
| 2652 | </trkpt>
|
|---|
| 2653 | <trkpt lat='57.380875' lon='21.566562'>
|
|---|
| 2654 | <time>2007-10-06T08:35:21Z</time>
|
|---|
| 2655 | </trkpt>
|
|---|
| 2656 | <trkpt lat='57.381127' lon='21.566558'>
|
|---|
| 2657 | <time>2007-10-06T08:35:24Z</time>
|
|---|
| 2658 | </trkpt>
|
|---|
| 2659 | <trkpt lat='57.381347' lon='21.566568'>
|
|---|
| 2660 | <time>2007-10-06T08:35:32Z</time>
|
|---|
| 2661 | </trkpt>
|
|---|
| 2662 | <trkpt lat='57.381347' lon='21.56657'>
|
|---|
| 2663 | <time>2007-10-06T08:35:34Z</time>
|
|---|
| 2664 | </trkpt>
|
|---|
| 2665 | <trkpt lat='57.3815' lon='21.566573'>
|
|---|
| 2666 | <time>2007-10-06T08:35:45Z</time>
|
|---|
| 2667 | </trkpt>
|
|---|
| 2668 | <trkpt lat='57.381858' lon='21.566577'>
|
|---|
| 2669 | <time>2007-10-06T08:35:51Z</time>
|
|---|
| 2670 | </trkpt>
|
|---|
| 2671 | <trkpt lat='57.381938' lon='21.566723'>
|
|---|
| 2672 | <time>2007-10-06T08:35:53Z</time>
|
|---|
| 2673 | </trkpt>
|
|---|
| 2674 | <trkpt lat='57.381938' lon='21.566983'>
|
|---|
| 2675 | <time>2007-10-06T08:35:55Z</time>
|
|---|
| 2676 | </trkpt>
|
|---|
| 2677 | <trkpt lat='57.38187' lon='21.568543'>
|
|---|
| 2678 | <time>2007-10-06T08:36:05Z</time>
|
|---|
| 2679 | </trkpt>
|
|---|
| 2680 | <trkpt lat='57.381802' lon='21.568848'>
|
|---|
| 2681 | <time>2007-10-06T08:36:08Z</time>
|
|---|
| 2682 | </trkpt>
|
|---|
| 2683 | <trkpt lat='57.381752' lon='21.56892'>
|
|---|
| 2684 | <time>2007-10-06T08:36:09Z</time>
|
|---|
| 2685 | </trkpt>
|
|---|
| 2686 | <trkpt lat='57.381417' lon='21.5694'>
|
|---|
| 2687 | <time>2007-10-06T08:36:20Z</time>
|
|---|
| 2688 | </trkpt>
|
|---|
| 2689 | <trkpt lat='57.381348' lon='21.569642'>
|
|---|
| 2690 | <time>2007-10-06T08:36:24Z</time>
|
|---|
| 2691 | </trkpt>
|
|---|
| 2692 | <trkpt lat='57.381488' lon='21.57007'>
|
|---|
| 2693 | <time>2007-10-06T08:36:28Z</time>
|
|---|
| 2694 | </trkpt>
|
|---|
| 2695 | <trkpt lat='57.381928' lon='21.571602'>
|
|---|
| 2696 | <time>2007-10-06T08:36:38Z</time>
|
|---|
| 2697 | </trkpt>
|
|---|
| 2698 | <trkpt lat='57.382635' lon='21.573925'>
|
|---|
| 2699 | <time>2007-10-06T08:36:49Z</time>
|
|---|
| 2700 | </trkpt>
|
|---|
| 2701 | <trkpt lat='57.38325' lon='21.57559'>
|
|---|
| 2702 | <time>2007-10-06T08:36:57Z</time>
|
|---|
| 2703 | </trkpt>
|
|---|
| 2704 | <trkpt lat='57.384238' lon='21.57714'>
|
|---|
| 2705 | <time>2007-10-06T08:37:07Z</time>
|
|---|
| 2706 | </trkpt>
|
|---|
| 2707 | <trkpt lat='57.385202' lon='21.578578'>
|
|---|
| 2708 | <time>2007-10-06T08:37:17Z</time>
|
|---|
| 2709 | </trkpt>
|
|---|
| 2710 | <trkpt lat='57.38624' lon='21.580135'>
|
|---|
| 2711 | <time>2007-10-06T08:37:28Z</time>
|
|---|
| 2712 | </trkpt>
|
|---|
| 2713 | <trkpt lat='57.387073' lon='21.581413'>
|
|---|
| 2714 | <time>2007-10-06T08:37:37Z</time>
|
|---|
| 2715 | </trkpt>
|
|---|
| 2716 | <trkpt lat='57.387397' lon='21.582018'>
|
|---|
| 2717 | <time>2007-10-06T08:37:44Z</time>
|
|---|
| 2718 | </trkpt>
|
|---|
| 2719 | <trkpt lat='57.387277' lon='21.582513'>
|
|---|
| 2720 | <time>2007-10-06T08:37:48Z</time>
|
|---|
| 2721 | </trkpt>
|
|---|
| 2722 | <trkpt lat='57.38728' lon='21.583037'>
|
|---|
| 2723 | <time>2007-10-06T08:37:52Z</time>
|
|---|
| 2724 | </trkpt>
|
|---|
| 2725 | <trkpt lat='57.38758' lon='21.583428'>
|
|---|
| 2726 | <time>2007-10-06T08:37:57Z</time>
|
|---|
| 2727 | </trkpt>
|
|---|
| 2728 | <trkpt lat='57.387563' lon='21.583565'>
|
|---|
| 2729 | <time>2007-10-06T08:37:58Z</time>
|
|---|
| 2730 | </trkpt>
|
|---|
| 2731 | <trkpt lat='57.387412' lon='21.584335'>
|
|---|
| 2732 | <time>2007-10-06T08:38:02Z</time>
|
|---|
| 2733 | </trkpt>
|
|---|
| 2734 | <trkpt lat='57.387178' lon='21.585215'>
|
|---|
| 2735 | <time>2007-10-06T08:38:06Z</time>
|
|---|
| 2736 | </trkpt>
|
|---|
| 2737 | <trkpt lat='57.386877' lon='21.585845'>
|
|---|
| 2738 | <time>2007-10-06T08:38:10Z</time>
|
|---|
| 2739 | </trkpt>
|
|---|
| 2740 | <trkpt lat='57.386955' lon='21.586332'>
|
|---|
| 2741 | <time>2007-10-06T08:38:13Z</time>
|
|---|
| 2742 | </trkpt>
|
|---|
| 2743 | <trkpt lat='57.387047' lon='21.586425'>
|
|---|
| 2744 | <time>2007-10-06T08:38:14Z</time>
|
|---|
| 2745 | </trkpt>
|
|---|
| 2746 | <trkpt lat='57.387488' lon='21.586828'>
|
|---|
| 2747 | <time>2007-10-06T08:38:18Z</time>
|
|---|
| 2748 | </trkpt>
|
|---|
| 2749 | <trkpt lat='57.388587' lon='21.588775'>
|
|---|
| 2750 | <time>2007-10-06T08:38:29Z</time>
|
|---|
| 2751 | </trkpt>
|
|---|
| 2752 | <trkpt lat='57.389543' lon='21.590525'>
|
|---|
| 2753 | <time>2007-10-06T08:38:39Z</time>
|
|---|
| 2754 | </trkpt>
|
|---|
| 2755 | <trkpt lat='57.389658' lon='21.590913'>
|
|---|
| 2756 | <time>2007-10-06T08:38:41Z</time>
|
|---|
| 2757 | </trkpt>
|
|---|
| 2758 | <trkpt lat='57.389758' lon='21.591312'>
|
|---|
| 2759 | <time>2007-10-06T08:38:43Z</time>
|
|---|
| 2760 | </trkpt>
|
|---|
| 2761 | <trkpt lat='57.389927' lon='21.591613'>
|
|---|
| 2762 | <time>2007-10-06T08:38:45Z</time>
|
|---|
| 2763 | </trkpt>
|
|---|
| 2764 | <trkpt lat='57.39009' lon='21.591925'>
|
|---|
| 2765 | <time>2007-10-06T08:38:47Z</time>
|
|---|
| 2766 | </trkpt>
|
|---|
| 2767 | <trkpt lat='57.390712' lon='21.594288'>
|
|---|
| 2768 | <time>2007-10-06T08:38:57Z</time>
|
|---|
| 2769 | </trkpt>
|
|---|
| 2770 | <trkpt lat='57.39136' lon='21.597045'>
|
|---|
| 2771 | <time>2007-10-06T08:39:07Z</time>
|
|---|
| 2772 | </trkpt>
|
|---|
| 2773 | <trkpt lat='57.3921' lon='21.600202'>
|
|---|
| 2774 | <time>2007-10-06T08:39:17Z</time>
|
|---|
| 2775 | </trkpt>
|
|---|
| 2776 | <trkpt lat='57.392937' lon='21.603795'>
|
|---|
| 2777 | <time>2007-10-06T08:39:28Z</time>
|
|---|
| 2778 | </trkpt>
|
|---|
| 2779 | <trkpt lat='57.393608' lon='21.606752'>
|
|---|
| 2780 | <time>2007-10-06T08:39:37Z</time>
|
|---|
| 2781 | </trkpt>
|
|---|
| 2782 | <trkpt lat='57.394362' lon='21.610217'>
|
|---|
| 2783 | <time>2007-10-06T08:39:48Z</time>
|
|---|
| 2784 | </trkpt>
|
|---|
| 2785 | <trkpt lat='57.394593' lon='21.612687'>
|
|---|
| 2786 | <time>2007-10-06T08:39:56Z</time>
|
|---|
| 2787 | </trkpt>
|
|---|
| 2788 | <trkpt lat='57.394585' lon='21.613593'>
|
|---|
| 2789 | <time>2007-10-06T08:40:00Z</time>
|
|---|
| 2790 | </trkpt>
|
|---|
| 2791 | <trkpt lat='57.394293' lon='21.614007'>
|
|---|
| 2792 | <time>2007-10-06T08:40:04Z</time>
|
|---|
| 2793 | </trkpt>
|
|---|
| 2794 | <trkpt lat='57.393235' lon='21.615148'>
|
|---|
| 2795 | <time>2007-10-06T08:40:14Z</time>
|
|---|
| 2796 | </trkpt>
|
|---|
| 2797 | <trkpt lat='57.391955' lon='21.616493'>
|
|---|
| 2798 | <time>2007-10-06T08:40:24Z</time>
|
|---|
| 2799 | </trkpt>
|
|---|
| 2800 | <trkpt lat='57.390888' lon='21.616977'>
|
|---|
| 2801 | <time>2007-10-06T08:40:32Z</time>
|
|---|
| 2802 | </trkpt>
|
|---|
| 2803 | <trkpt lat='57.389443' lon='21.616103'>
|
|---|
| 2804 | <time>2007-10-06T08:40:42Z</time>
|
|---|
| 2805 | </trkpt>
|
|---|
| 2806 | <trkpt lat='57.38789' lon='21.615215'>
|
|---|
| 2807 | <time>2007-10-06T08:40:53Z</time>
|
|---|
| 2808 | </trkpt>
|
|---|
| 2809 | <trkpt lat='57.38678' lon='21.614755'>
|
|---|
| 2810 | <time>2007-10-06T08:41:01Z</time>
|
|---|
| 2811 | </trkpt>
|
|---|
| 2812 | <trkpt lat='57.385417' lon='21.614627'>
|
|---|
| 2813 | <time>2007-10-06T08:41:10Z</time>
|
|---|
| 2814 | </trkpt>
|
|---|
| 2815 | <trkpt lat='57.383808' lon='21.614475'>
|
|---|
| 2816 | <time>2007-10-06T08:41:21Z</time>
|
|---|
| 2817 | </trkpt>
|
|---|
| 2818 | <trkpt lat='57.382432' lon='21.614373'>
|
|---|
| 2819 | <time>2007-10-06T08:41:30Z</time>
|
|---|
| 2820 | </trkpt>
|
|---|
| 2821 | <trkpt lat='57.380835' lon='21.614217'>
|
|---|
| 2822 | <time>2007-10-06T08:41:41Z</time>
|
|---|
| 2823 | </trkpt>
|
|---|
| 2824 | <trkpt lat='57.379365' lon='21.614087'>
|
|---|
| 2825 | <time>2007-10-06T08:41:51Z</time>
|
|---|
| 2826 | </trkpt>
|
|---|
| 2827 | <trkpt lat='57.37791' lon='21.613958'>
|
|---|
| 2828 | <time>2007-10-06T08:42:01Z</time>
|
|---|
| 2829 | </trkpt>
|
|---|
| 2830 | <trkpt lat='57.376485' lon='21.613827'>
|
|---|
| 2831 | <time>2007-10-06T08:42:11Z</time>
|
|---|
| 2832 | </trkpt>
|
|---|
| 2833 | <trkpt lat='57.375052' lon='21.613698'>
|
|---|
| 2834 | <time>2007-10-06T08:42:21Z</time>
|
|---|
| 2835 | </trkpt>
|
|---|
| 2836 | <trkpt lat='57.373663' lon='21.613567'>
|
|---|
| 2837 | <time>2007-10-06T08:42:31Z</time>
|
|---|
| 2838 | </trkpt>
|
|---|
| 2839 | <trkpt lat='57.372965' lon='21.613422'>
|
|---|
| 2840 | <time>2007-10-06T08:42:39Z</time>
|
|---|
| 2841 | </trkpt>
|
|---|
| 2842 | <trkpt lat='57.372968' lon='21.613273'>
|
|---|
| 2843 | <time>2007-10-06T08:42:41Z</time>
|
|---|
| 2844 | </trkpt>
|
|---|
| 2845 | <trkpt lat='57.372935' lon='21.612277'>
|
|---|
| 2846 | <time>2007-10-06T08:42:52Z</time>
|
|---|
| 2847 | </trkpt>
|
|---|
| 2848 | <trkpt lat='57.372878' lon='21.611372'>
|
|---|
| 2849 | <time>2007-10-06T08:43:01Z</time>
|
|---|
| 2850 | </trkpt>
|
|---|
| 2851 | <trkpt lat='57.372803' lon='21.610157'>
|
|---|
| 2852 | <time>2007-10-06T08:43:12Z</time>
|
|---|
| 2853 | </trkpt>
|
|---|
| 2854 | <trkpt lat='57.372748' lon='21.609893'>
|
|---|
| 2855 | <time>2007-10-06T08:43:16Z</time>
|
|---|
| 2856 | </trkpt>
|
|---|
| 2857 | <trkpt lat='57.372622' lon='21.60963'>
|
|---|
| 2858 | <time>2007-10-06T08:43:20Z</time>
|
|---|
| 2859 | </trkpt>
|
|---|
| 2860 | <trkpt lat='57.372548' lon='21.609275'>
|
|---|
| 2861 | <time>2007-10-06T08:43:24Z</time>
|
|---|
| 2862 | </trkpt>
|
|---|
| 2863 | <trkpt lat='57.372443' lon='21.608498'>
|
|---|
| 2864 | <time>2007-10-06T08:43:34Z</time>
|
|---|
| 2865 | </trkpt>
|
|---|
| 2866 | <trkpt lat='57.372387' lon='21.608215'>
|
|---|
| 2867 | <time>2007-10-06T08:43:40Z</time>
|
|---|
| 2868 | </trkpt>
|
|---|
| 2869 | <trkpt lat='57.3724' lon='21.608248'>
|
|---|
| 2870 | <time>2007-10-06T08:43:44Z</time>
|
|---|
| 2871 | </trkpt>
|
|---|
| 2872 | <trkpt lat='57.372402' lon='21.608263'>
|
|---|
| 2873 | <time>2007-10-06T08:43:48Z</time>
|
|---|
| 2874 | </trkpt>
|
|---|
| 2875 | <trkpt lat='57.372332' lon='21.608223'>
|
|---|
| 2876 | <time>2007-10-06T08:43:57Z</time>
|
|---|
| 2877 | </trkpt>
|
|---|
| 2878 | <trkpt lat='57.372435' lon='21.607818'>
|
|---|
| 2879 | <time>2007-10-06T10:57:57Z</time>
|
|---|
| 2880 | </trkpt>
|
|---|
| 2881 | <trkpt lat='57.372405' lon='21.608133'>
|
|---|
| 2882 | <time>2007-10-06T10:57:58Z</time>
|
|---|
| 2883 | </trkpt>
|
|---|
| 2884 | <trkpt lat='57.372415' lon='21.608135'>
|
|---|
| 2885 | <time>2007-10-06T10:58:01Z</time>
|
|---|
| 2886 | </trkpt>
|
|---|
| 2887 | <trkpt lat='57.372392' lon='21.608137'>
|
|---|
| 2888 | <time>2007-10-06T10:59:01Z</time>
|
|---|
| 2889 | </trkpt>
|
|---|
| 2890 | <trkpt lat='57.372382' lon='21.608038'>
|
|---|
| 2891 | <time>2007-10-06T10:59:05Z</time>
|
|---|
| 2892 | </trkpt>
|
|---|
| 2893 | <trkpt lat='57.372402' lon='21.608013'>
|
|---|
| 2894 | <time>2007-10-06T10:59:07Z</time>
|
|---|
| 2895 | </trkpt>
|
|---|
| 2896 | <trkpt lat='57.37241' lon='21.608013'>
|
|---|
| 2897 | <time>2007-10-06T10:59:10Z</time>
|
|---|
| 2898 | </trkpt>
|
|---|
| 2899 | <trkpt lat='57.372395' lon='21.608027'>
|
|---|
| 2900 | <time>2007-10-06T10:59:14Z</time>
|
|---|
| 2901 | </trkpt>
|
|---|
| 2902 | <trkpt lat='57.372388' lon='21.608037'>
|
|---|
| 2903 | <time>2007-10-06T10:59:18Z</time>
|
|---|
| 2904 | </trkpt>
|
|---|
| 2905 | <trkpt lat='57.372397' lon='21.60804'>
|
|---|
| 2906 | <time>2007-10-06T10:59:20Z</time>
|
|---|
| 2907 | </trkpt>
|
|---|
| 2908 | <trkpt lat='57.372415' lon='21.60807'>
|
|---|
| 2909 | <time>2007-10-06T10:59:22Z</time>
|
|---|
| 2910 | </trkpt>
|
|---|
| 2911 | <trkpt lat='57.372435' lon='21.608123'>
|
|---|
| 2912 | <time>2007-10-06T10:59:24Z</time>
|
|---|
| 2913 | </trkpt>
|
|---|
| 2914 | <trkpt lat='57.372492' lon='21.608308'>
|
|---|
| 2915 | <time>2007-10-06T10:59:30Z</time>
|
|---|
| 2916 | </trkpt>
|
|---|
| 2917 | <trkpt lat='57.372523' lon='21.608802'>
|
|---|
| 2918 | <time>2007-10-06T10:59:41Z</time>
|
|---|
| 2919 | </trkpt>
|
|---|
| 2920 | <trkpt lat='57.372575' lon='21.609328'>
|
|---|
| 2921 | <time>2007-10-06T10:59:50Z</time>
|
|---|
| 2922 | </trkpt>
|
|---|
| 2923 | <trkpt lat='57.37266' lon='21.609723'>
|
|---|
| 2924 | <time>2007-10-06T10:59:57Z</time>
|
|---|
| 2925 | </trkpt>
|
|---|
| 2926 | <trkpt lat='57.372742' lon='21.609905'>
|
|---|
| 2927 | <time>2007-10-06T11:00:01Z</time>
|
|---|
| 2928 | </trkpt>
|
|---|
| 2929 | <trkpt lat='57.372818' lon='21.6102'>
|
|---|
| 2930 | <time>2007-10-06T11:00:06Z</time>
|
|---|
| 2931 | </trkpt>
|
|---|
| 2932 | <trkpt lat='57.372882' lon='21.611105'>
|
|---|
| 2933 | <time>2007-10-06T11:00:15Z</time>
|
|---|
| 2934 | </trkpt>
|
|---|
| 2935 | <trkpt lat='57.372995' lon='21.61215'>
|
|---|
| 2936 | <time>2007-10-06T11:00:26Z</time>
|
|---|
| 2937 | </trkpt>
|
|---|
| 2938 | <trkpt lat='57.373083' lon='21.613117'>
|
|---|
| 2939 | <time>2007-10-06T11:00:36Z</time>
|
|---|
| 2940 | </trkpt>
|
|---|
| 2941 | <trkpt lat='57.373123' lon='21.613625'>
|
|---|
| 2942 | <time>2007-10-06T11:00:42Z</time>
|
|---|
| 2943 | </trkpt>
|
|---|
| 2944 | <trkpt lat='57.373218' lon='21.613677'>
|
|---|
| 2945 | <time>2007-10-06T11:00:44Z</time>
|
|---|
| 2946 | </trkpt>
|
|---|
| 2947 | <trkpt lat='57.37336' lon='21.613675'>
|
|---|
| 2948 | <time>2007-10-06T11:00:46Z</time>
|
|---|
| 2949 | </trkpt>
|
|---|
| 2950 | <trkpt lat='57.373542' lon='21.613675'>
|
|---|
| 2951 | <time>2007-10-06T11:00:48Z</time>
|
|---|
| 2952 | </trkpt>
|
|---|
| 2953 | <trkpt lat='57.374793' lon='21.613782'>
|
|---|
| 2954 | <time>2007-10-06T11:00:58Z</time>
|
|---|
| 2955 | </trkpt>
|
|---|
| 2956 | <trkpt lat='57.376228' lon='21.613917'>
|
|---|
| 2957 | <time>2007-10-06T11:01:08Z</time>
|
|---|
| 2958 | </trkpt>
|
|---|
| 2959 | <trkpt lat='57.377645' lon='21.614048'>
|
|---|
| 2960 | <time>2007-10-06T11:01:18Z</time>
|
|---|
| 2961 | </trkpt>
|
|---|
| 2962 | <trkpt lat='57.379247' lon='21.614188'>
|
|---|
| 2963 | <time>2007-10-06T11:01:29Z</time>
|
|---|
| 2964 | </trkpt>
|
|---|
| 2965 | <trkpt lat='57.380735' lon='21.614317'>
|
|---|
| 2966 | <time>2007-10-06T11:01:39Z</time>
|
|---|
| 2967 | </trkpt>
|
|---|
| 2968 | <trkpt lat='57.382303' lon='21.614448'>
|
|---|
| 2969 | <time>2007-10-06T11:01:50Z</time>
|
|---|
| 2970 | </trkpt>
|
|---|
| 2971 | <trkpt lat='57.383618' lon='21.614572'>
|
|---|
| 2972 | <time>2007-10-06T11:01:59Z</time>
|
|---|
| 2973 | </trkpt>
|
|---|
| 2974 | <trkpt lat='57.385248' lon='21.614708'>
|
|---|
| 2975 | <time>2007-10-06T11:02:10Z</time>
|
|---|
| 2976 | </trkpt>
|
|---|
| 2977 | <trkpt lat='57.38652' lon='21.614823'>
|
|---|
| 2978 | <time>2007-10-06T11:02:19Z</time>
|
|---|
| 2979 | </trkpt>
|
|---|
| 2980 | <trkpt lat='57.387462' lon='21.615005'>
|
|---|
| 2981 | <time>2007-10-06T11:02:26Z</time>
|
|---|
| 2982 | </trkpt>
|
|---|
| 2983 | <trkpt lat='57.388668' lon='21.615702'>
|
|---|
| 2984 | <time>2007-10-06T11:02:35Z</time>
|
|---|
| 2985 | </trkpt>
|
|---|
| 2986 | <trkpt lat='57.390108' lon='21.616525'>
|
|---|
| 2987 | <time>2007-10-06T11:02:46Z</time>
|
|---|
| 2988 | </trkpt>
|
|---|
| 2989 | <trkpt lat='57.391278' lon='21.617137'>
|
|---|
| 2990 | <time>2007-10-06T11:02:55Z</time>
|
|---|
| 2991 | </trkpt>
|
|---|
| 2992 | <trkpt lat='57.391662' lon='21.616973'>
|
|---|
| 2993 | <time>2007-10-06T11:02:58Z</time>
|
|---|
| 2994 | </trkpt>
|
|---|
| 2995 | <trkpt lat='57.392722' lon='21.615785'>
|
|---|
| 2996 | <time>2007-10-06T11:03:07Z</time>
|
|---|
| 2997 | </trkpt>
|
|---|
| 2998 | <trkpt lat='57.39376' lon='21.614612'>
|
|---|
| 2999 | <time>2007-10-06T11:03:18Z</time>
|
|---|
| 3000 | </trkpt>
|
|---|
| 3001 | <trkpt lat='57.394385' lon='21.613977'>
|
|---|
| 3002 | <time>2007-10-06T11:03:27Z</time>
|
|---|
| 3003 | </trkpt>
|
|---|
| 3004 | <trkpt lat='57.394563' lon='21.613945'>
|
|---|
| 3005 | <time>2007-10-06T11:03:30Z</time>
|
|---|
| 3006 | </trkpt>
|
|---|
| 3007 | <trkpt lat='57.394615' lon='21.613938'>
|
|---|
| 3008 | <time>2007-10-06T11:03:34Z</time>
|
|---|
| 3009 | </trkpt>
|
|---|
| 3010 | <trkpt lat='57.394638' lon='21.613915'>
|
|---|
| 3011 | <time>2007-10-06T11:03:35Z</time>
|
|---|
| 3012 | </trkpt>
|
|---|
| 3013 | <trkpt lat='57.394642' lon='21.61371'>
|
|---|
| 3014 | <time>2007-10-06T11:03:38Z</time>
|
|---|
| 3015 | </trkpt>
|
|---|
| 3016 | <trkpt lat='57.394602' lon='21.613672'>
|
|---|
| 3017 | <time>2007-10-06T11:03:39Z</time>
|
|---|
| 3018 | </trkpt>
|
|---|
| 3019 | <trkpt lat='57.394418' lon='21.613825'>
|
|---|
| 3020 | <time>2007-10-06T11:03:42Z</time>
|
|---|
| 3021 | </trkpt>
|
|---|
| 3022 | <trkpt lat='57.39425' lon='21.613965'>
|
|---|
| 3023 | <time>2007-10-06T11:03:46Z</time>
|
|---|
| 3024 | </trkpt>
|
|---|
| 3025 | <trkpt lat='57.394187' lon='21.614017'>
|
|---|
| 3026 | <time>2007-10-06T11:03:50Z</time>
|
|---|
| 3027 | </trkpt>
|
|---|
| 3028 | <trkpt lat='57.394185' lon='21.614017'>
|
|---|
| 3029 | <time>2007-10-06T11:03:51Z</time>
|
|---|
| 3030 | </trkpt>
|
|---|
| 3031 | <trkpt lat='57.394183' lon='21.614018'>
|
|---|
| 3032 | <time>2007-10-06T11:03:54Z</time>
|
|---|
| 3033 | </trkpt>
|
|---|
| 3034 | <trkpt lat='57.394147' lon='21.614057'>
|
|---|
| 3035 | <time>2007-10-06T11:05:08Z</time>
|
|---|
| 3036 | </trkpt>
|
|---|
| 3037 | <trkpt lat='57.394153' lon='21.614152'>
|
|---|
| 3038 | <time>2007-10-06T11:05:10Z</time>
|
|---|
| 3039 | </trkpt>
|
|---|
| 3040 | <trkpt lat='57.394205' lon='21.614153'>
|
|---|
| 3041 | <time>2007-10-06T11:05:12Z</time>
|
|---|
| 3042 | </trkpt>
|
|---|
| 3043 | <trkpt lat='57.394375' lon='21.613993'>
|
|---|
| 3044 | <time>2007-10-06T11:05:16Z</time>
|
|---|
| 3045 | </trkpt>
|
|---|
| 3046 | <trkpt lat='57.394498' lon='21.613998'>
|
|---|
| 3047 | <time>2007-10-06T11:05:18Z</time>
|
|---|
| 3048 | </trkpt>
|
|---|
| 3049 | <trkpt lat='57.394598' lon='21.61393'>
|
|---|
| 3050 | <time>2007-10-06T11:05:20Z</time>
|
|---|
| 3051 | </trkpt>
|
|---|
| 3052 | <trkpt lat='57.394628' lon='21.613718'>
|
|---|
| 3053 | <time>2007-10-06T11:05:22Z</time>
|
|---|
| 3054 | </trkpt>
|
|---|
| 3055 | <trkpt lat='57.394538' lon='21.611488'>
|
|---|
| 3056 | <time>2007-10-06T11:05:32Z</time>
|
|---|
| 3057 | </trkpt>
|
|---|
| 3058 | <trkpt lat='57.39411' lon='21.608793'>
|
|---|
| 3059 | <time>2007-10-06T11:05:41Z</time>
|
|---|
| 3060 | </trkpt>
|
|---|
| 3061 | <trkpt lat='57.393482' lon='21.606082'>
|
|---|
| 3062 | <time>2007-10-06T11:05:50Z</time>
|
|---|
| 3063 | </trkpt>
|
|---|
| 3064 | <trkpt lat='57.392665' lon='21.602593'>
|
|---|
| 3065 | <time>2007-10-06T11:06:01Z</time>
|
|---|
| 3066 | </trkpt>
|
|---|
| 3067 | <trkpt lat='57.39203' lon='21.59983'>
|
|---|
| 3068 | <time>2007-10-06T11:06:10Z</time>
|
|---|
| 3069 | </trkpt>
|
|---|
| 3070 | <trkpt lat='57.391288' lon='21.596598'>
|
|---|
| 3071 | <time>2007-10-06T11:06:21Z</time>
|
|---|
| 3072 | </trkpt>
|
|---|
| 3073 | <trkpt lat='57.390758' lon='21.594325'>
|
|---|
| 3074 | <time>2007-10-06T11:06:30Z</time>
|
|---|
| 3075 | </trkpt>
|
|---|
| 3076 | <trkpt lat='57.390133' lon='21.591972'>
|
|---|
| 3077 | <time>2007-10-06T11:06:41Z</time>
|
|---|
| 3078 | </trkpt>
|
|---|
| 3079 | <trkpt lat='57.390045' lon='21.591422'>
|
|---|
| 3080 | <time>2007-10-06T11:06:45Z</time>
|
|---|
| 3081 | </trkpt>
|
|---|
| 3082 | <trkpt lat='57.390048' lon='21.590983'>
|
|---|
| 3083 | <time>2007-10-06T11:06:49Z</time>
|
|---|
| 3084 | </trkpt>
|
|---|
| 3085 | <trkpt lat='57.390017' lon='21.590832'>
|
|---|
| 3086 | <time>2007-10-06T11:06:50Z</time>
|
|---|
| 3087 | </trkpt>
|
|---|
| 3088 | <trkpt lat='57.389768' lon='21.590583'>
|
|---|
| 3089 | <time>2007-10-06T11:06:53Z</time>
|
|---|
| 3090 | </trkpt>
|
|---|
| 3091 | <trkpt lat='57.389375' lon='21.590063'>
|
|---|
| 3092 | <time>2007-10-06T11:06:57Z</time>
|
|---|
| 3093 | </trkpt>
|
|---|
| 3094 | <trkpt lat='57.388482' lon='21.588467'>
|
|---|
| 3095 | <time>2007-10-06T11:07:06Z</time>
|
|---|
| 3096 | </trkpt>
|
|---|
| 3097 | <trkpt lat='57.387372' lon='21.58638'>
|
|---|
| 3098 | <time>2007-10-06T11:07:17Z</time>
|
|---|
| 3099 | </trkpt>
|
|---|
| 3100 | <trkpt lat='57.387315' lon='21.586158'>
|
|---|
| 3101 | <time>2007-10-06T11:07:18Z</time>
|
|---|
| 3102 | </trkpt>
|
|---|
| 3103 | <trkpt lat='57.387277' lon='21.585457'>
|
|---|
| 3104 | <time>2007-10-06T11:07:21Z</time>
|
|---|
| 3105 | </trkpt>
|
|---|
| 3106 | <trkpt lat='57.387392' lon='21.584552'>
|
|---|
| 3107 | <time>2007-10-06T11:07:25Z</time>
|
|---|
| 3108 | </trkpt>
|
|---|
| 3109 | <trkpt lat='57.387918' lon='21.582268'>
|
|---|
| 3110 | <time>2007-10-06T11:07:35Z</time>
|
|---|
| 3111 | </trkpt>
|
|---|
| 3112 | <trkpt lat='57.388403' lon='21.580053'>
|
|---|
| 3113 | <time>2007-10-06T11:07:45Z</time>
|
|---|
| 3114 | </trkpt>
|
|---|
| 3115 | <trkpt lat='57.388808' lon='21.578227'>
|
|---|
| 3116 | <time>2007-10-06T11:07:55Z</time>
|
|---|
| 3117 | </trkpt>
|
|---|
| 3118 | <trkpt lat='57.389222' lon='21.57638'>
|
|---|
| 3119 | <time>2007-10-06T11:08:06Z</time>
|
|---|
| 3120 | </trkpt>
|
|---|
| 3121 | <trkpt lat='57.389497' lon='21.575172'>
|
|---|
| 3122 | <time>2007-10-06T11:08:15Z</time>
|
|---|
| 3123 | </trkpt>
|
|---|
| 3124 | <trkpt lat='57.389552' lon='21.574947'>
|
|---|
| 3125 | <time>2007-10-06T11:08:22Z</time>
|
|---|
| 3126 | </trkpt>
|
|---|
| 3127 | <trkpt lat='57.389558' lon='21.574918'>
|
|---|
| 3128 | <time>2007-10-06T11:08:26Z</time>
|
|---|
| 3129 | </trkpt>
|
|---|
| 3130 | <trkpt lat='57.38966' lon='21.574452'>
|
|---|
| 3131 | <time>2007-10-06T11:08:32Z</time>
|
|---|
| 3132 | </trkpt>
|
|---|
| 3133 | <trkpt lat='57.389718' lon='21.573758'>
|
|---|
| 3134 | <time>2007-10-06T11:08:36Z</time>
|
|---|
| 3135 | </trkpt>
|
|---|
| 3136 | <trkpt lat='57.389717' lon='21.571217'>
|
|---|
| 3137 | <time>2007-10-06T11:08:46Z</time>
|
|---|
| 3138 | </trkpt>
|
|---|
| 3139 | <trkpt lat='57.389717' lon='21.568627'>
|
|---|
| 3140 | <time>2007-10-06T11:08:56Z</time>
|
|---|
| 3141 | </trkpt>
|
|---|
| 3142 | <trkpt lat='57.389703' lon='21.566127'>
|
|---|
| 3143 | <time>2007-10-06T11:09:06Z</time>
|
|---|
| 3144 | </trkpt>
|
|---|
| 3145 | <trkpt lat='57.389692' lon='21.565055'>
|
|---|
| 3146 | <time>2007-10-06T11:09:17Z</time>
|
|---|
| 3147 | </trkpt>
|
|---|
| 3148 | <trkpt lat='57.38969' lon='21.56506'>
|
|---|
| 3149 | <time>2007-10-06T11:09:18Z</time>
|
|---|
| 3150 | </trkpt>
|
|---|
| 3151 | <trkpt lat='57.389703' lon='21.565098'>
|
|---|
| 3152 | <time>2007-10-06T11:09:35Z</time>
|
|---|
| 3153 | </trkpt>
|
|---|
| 3154 | <trkpt lat='57.389702' lon='21.564873'>
|
|---|
| 3155 | <time>2007-10-06T11:09:38Z</time>
|
|---|
| 3156 | </trkpt>
|
|---|
| 3157 | <trkpt lat='57.389682' lon='21.563187'>
|
|---|
| 3158 | <time>2007-10-06T11:09:47Z</time>
|
|---|
| 3159 | </trkpt>
|
|---|
| 3160 | <trkpt lat='57.38964' lon='21.560397'>
|
|---|
| 3161 | <time>2007-10-06T11:09:58Z</time>
|
|---|
| 3162 | </trkpt>
|
|---|
| 3163 | <trkpt lat='57.389625' lon='21.559437'>
|
|---|
| 3164 | <time>2007-10-06T11:10:07Z</time>
|
|---|
| 3165 | </trkpt>
|
|---|
| 3166 | <trkpt lat='57.389627' lon='21.55936'>
|
|---|
| 3167 | <time>2007-10-06T11:10:11Z</time>
|
|---|
| 3168 | </trkpt>
|
|---|
| 3169 | <trkpt lat='57.389625' lon='21.55936'>
|
|---|
| 3170 | <time>2007-10-06T11:10:14Z</time>
|
|---|
| 3171 | </trkpt>
|
|---|
| 3172 | <trkpt lat='57.389618' lon='21.559322'>
|
|---|
| 3173 | <time>2007-10-06T11:10:30Z</time>
|
|---|
| 3174 | </trkpt>
|
|---|
| 3175 | <trkpt lat='57.389602' lon='21.557795'>
|
|---|
| 3176 | <time>2007-10-06T11:10:40Z</time>
|
|---|
| 3177 | </trkpt>
|
|---|
| 3178 | <trkpt lat='57.389627' lon='21.555368'>
|
|---|
| 3179 | <time>2007-10-06T11:10:50Z</time>
|
|---|
| 3180 | </trkpt>
|
|---|
| 3181 | <trkpt lat='57.389638' lon='21.552957'>
|
|---|
| 3182 | <time>2007-10-06T11:11:01Z</time>
|
|---|
| 3183 | </trkpt>
|
|---|
| 3184 | <trkpt lat='57.389657' lon='21.550893'>
|
|---|
| 3185 | <time>2007-10-06T11:11:10Z</time>
|
|---|
| 3186 | </trkpt>
|
|---|
| 3187 | <trkpt lat='57.389568' lon='21.549483'>
|
|---|
| 3188 | <time>2007-10-06T11:11:21Z</time>
|
|---|
| 3189 | </trkpt>
|
|---|
| 3190 | <trkpt lat='57.388705' lon='21.549305'>
|
|---|
| 3191 | <time>2007-10-06T11:11:31Z</time>
|
|---|
| 3192 | </trkpt>
|
|---|
| 3193 | <trkpt lat='57.387558' lon='21.54901'>
|
|---|
| 3194 | <time>2007-10-06T11:11:41Z</time>
|
|---|
| 3195 | </trkpt>
|
|---|
| 3196 | <trkpt lat='57.387115' lon='21.548657'>
|
|---|
| 3197 | <time>2007-10-06T11:11:45Z</time>
|
|---|
| 3198 | </trkpt>
|
|---|
| 3199 | <trkpt lat='57.386093' lon='21.547412'>
|
|---|
| 3200 | <time>2007-10-06T11:11:55Z</time>
|
|---|
| 3201 | </trkpt>
|
|---|
| 3202 | <trkpt lat='57.385502' lon='21.546593'>
|
|---|
| 3203 | <time>2007-10-06T11:12:06Z</time>
|
|---|
| 3204 | </trkpt>
|
|---|
| 3205 | <trkpt lat='57.385503' lon='21.546557'>
|
|---|
| 3206 | <time>2007-10-06T11:12:07Z</time>
|
|---|
| 3207 | </trkpt>
|
|---|
| 3208 | <trkpt lat='57.385565' lon='21.546355'>
|
|---|
| 3209 | <time>2007-10-06T11:12:10Z</time>
|
|---|
| 3210 | </trkpt>
|
|---|
| 3211 | <trkpt lat='57.385905' lon='21.545513'>
|
|---|
| 3212 | <time>2007-10-06T11:12:19Z</time>
|
|---|
| 3213 | </trkpt>
|
|---|
| 3214 | <trkpt lat='57.385898' lon='21.545285'>
|
|---|
| 3215 | <time>2007-10-06T11:12:22Z</time>
|
|---|
| 3216 | </trkpt>
|
|---|
| 3217 | <trkpt lat='57.385855' lon='21.545205'>
|
|---|
| 3218 | <time>2007-10-06T11:12:23Z</time>
|
|---|
| 3219 | </trkpt>
|
|---|
| 3220 | <trkpt lat='57.385242' lon='21.544168'>
|
|---|
| 3221 | <time>2007-10-06T11:12:34Z</time>
|
|---|
| 3222 | </trkpt>
|
|---|
| 3223 | <trkpt lat='57.385252' lon='21.544098'>
|
|---|
| 3224 | <time>2007-10-06T11:12:35Z</time>
|
|---|
| 3225 | </trkpt>
|
|---|
| 3226 | <trkpt lat='57.385315' lon='21.543938'>
|
|---|
| 3227 | <time>2007-10-06T11:12:38Z</time>
|
|---|
| 3228 | </trkpt>
|
|---|
| 3229 | <trkpt lat='57.385345' lon='21.543878'>
|
|---|
| 3230 | <time>2007-10-06T11:12:42Z</time>
|
|---|
| 3231 | </trkpt>
|
|---|
| 3232 | <trkpt lat='57.385223' lon='21.54414'>
|
|---|
| 3233 | <time>2007-10-06T11:13:01Z</time>
|
|---|
| 3234 | </trkpt>
|
|---|
| 3235 | <trkpt lat='57.385317' lon='21.544062'>
|
|---|
| 3236 | <time>2007-10-06T11:13:04Z</time>
|
|---|
| 3237 | </trkpt>
|
|---|
| 3238 | <trkpt lat='57.385367' lon='21.544032'>
|
|---|
| 3239 | <time>2007-10-06T11:13:08Z</time>
|
|---|
| 3240 | </trkpt>
|
|---|
| 3241 | <trkpt lat='57.390053' lon='21.552592'>
|
|---|
| 3242 | <time>2007-10-06T13:23:17Z</time>
|
|---|
| 3243 | </trkpt>
|
|---|
| 3244 | <trkpt lat='57.390038' lon='21.552545'>
|
|---|
| 3245 | <time>2007-10-06T13:23:19Z</time>
|
|---|
| 3246 | </trkpt>
|
|---|
| 3247 | <trkpt lat='57.390023' lon='21.552572'>
|
|---|
| 3248 | <time>2007-10-06T13:23:21Z</time>
|
|---|
| 3249 | </trkpt>
|
|---|
| 3250 | <trkpt lat='57.389993' lon='21.552435'>
|
|---|
| 3251 | <time>2007-10-06T13:23:28Z</time>
|
|---|
| 3252 | </trkpt>
|
|---|
| 3253 | <trkpt lat='57.389988' lon='21.552428'>
|
|---|
| 3254 | <time>2007-10-06T13:23:32Z</time>
|
|---|
| 3255 | </trkpt>
|
|---|
| 3256 | <trkpt lat='57.390085' lon='21.552597'>
|
|---|
| 3257 | <time>2007-10-06T13:23:36Z</time>
|
|---|
| 3258 | </trkpt>
|
|---|
| 3259 | <trkpt lat='57.390095' lon='21.552598'>
|
|---|
| 3260 | <time>2007-10-06T13:23:41Z</time>
|
|---|
| 3261 | </trkpt>
|
|---|
| 3262 | <trkpt lat='57.39011' lon='21.552643'>
|
|---|
| 3263 | <time>2007-10-06T13:23:53Z</time>
|
|---|
| 3264 | </trkpt>
|
|---|
| 3265 | <trkpt lat='57.390107' lon='21.552657'>
|
|---|
| 3266 | <time>2007-10-06T13:23:54Z</time>
|
|---|
| 3267 | </trkpt>
|
|---|
| 3268 | <trkpt lat='57.390102' lon='21.552662'>
|
|---|
| 3269 | <time>2007-10-06T13:23:57Z</time>
|
|---|
| 3270 | </trkpt>
|
|---|
| 3271 | <trkpt lat='57.390088' lon='21.552758'>
|
|---|
| 3272 | <time>2007-10-06T13:24:29Z</time>
|
|---|
| 3273 | </trkpt>
|
|---|
| 3274 | <trkpt lat='57.39009' lon='21.55276'>
|
|---|
| 3275 | <time>2007-10-06T13:24:30Z</time>
|
|---|
| 3276 | </trkpt>
|
|---|
| 3277 | <trkpt lat='57.390088' lon='21.55276'>
|
|---|
| 3278 | <time>2007-10-06T13:24:33Z</time>
|
|---|
| 3279 | </trkpt>
|
|---|
| 3280 | <trkpt lat='57.390147' lon='21.552713'>
|
|---|
| 3281 | <time>2007-10-06T13:26:14Z</time>
|
|---|
| 3282 | </trkpt>
|
|---|
| 3283 | <trkpt lat='57.390125' lon='21.55273'>
|
|---|
| 3284 | <time>2007-10-06T13:26:17Z</time>
|
|---|
| 3285 | </trkpt>
|
|---|
| 3286 | <trkpt lat='57.390157' lon='21.552748'>
|
|---|
| 3287 | <time>2007-10-06T13:26:21Z</time>
|
|---|
| 3288 | </trkpt>
|
|---|
| 3289 | <trkpt lat='57.390305' lon='21.552812'>
|
|---|
| 3290 | <time>2007-10-06T13:26:29Z</time>
|
|---|
| 3291 | </trkpt>
|
|---|
| 3292 | <trkpt lat='57.39031' lon='21.55284'>
|
|---|
| 3293 | <time>2007-10-06T13:26:30Z</time>
|
|---|
| 3294 | </trkpt>
|
|---|
| 3295 | <trkpt lat='57.390312' lon='21.552895'>
|
|---|
| 3296 | <time>2007-10-06T13:26:34Z</time>
|
|---|
| 3297 | </trkpt>
|
|---|
| 3298 | <trkpt lat='57.390312' lon='21.552988'>
|
|---|
| 3299 | <time>2007-10-06T13:26:41Z</time>
|
|---|
| 3300 | </trkpt>
|
|---|
| 3301 | <trkpt lat='57.390332' lon='21.55303'>
|
|---|
| 3302 | <time>2007-10-06T13:26:42Z</time>
|
|---|
| 3303 | </trkpt>
|
|---|
| 3304 | <trkpt lat='57.39046' lon='21.553073'>
|
|---|
| 3305 | <time>2007-10-06T13:26:45Z</time>
|
|---|
| 3306 | </trkpt>
|
|---|
| 3307 | <trkpt lat='57.391213' lon='21.553178'>
|
|---|
| 3308 | <time>2007-10-06T13:26:55Z</time>
|
|---|
| 3309 | </trkpt>
|
|---|
| 3310 | <trkpt lat='57.392063' lon='21.553345'>
|
|---|
| 3311 | <time>2007-10-06T13:27:05Z</time>
|
|---|
| 3312 | </trkpt>
|
|---|
| 3313 | <trkpt lat='57.392145' lon='21.553358'>
|
|---|
| 3314 | <time>2007-10-06T13:27:09Z</time>
|
|---|
| 3315 | </trkpt>
|
|---|
| 3316 | <trkpt lat='57.392153' lon='21.553358'>
|
|---|
| 3317 | <time>2007-10-06T13:27:10Z</time>
|
|---|
| 3318 | </trkpt>
|
|---|
| 3319 | <trkpt lat='57.392203' lon='21.553217'>
|
|---|
| 3320 | <time>2007-10-06T13:27:13Z</time>
|
|---|
| 3321 | </trkpt>
|
|---|
| 3322 | <trkpt lat='57.392292' lon='21.55145'>
|
|---|
| 3323 | <time>2007-10-06T13:27:22Z</time>
|
|---|
| 3324 | </trkpt>
|
|---|
| 3325 | <trkpt lat='57.392392' lon='21.55016'>
|
|---|
| 3326 | <time>2007-10-06T13:27:32Z</time>
|
|---|
| 3327 | </trkpt>
|
|---|
| 3328 | <trkpt lat='57.392553' lon='21.550123'>
|
|---|
| 3329 | <time>2007-10-06T13:27:36Z</time>
|
|---|
| 3330 | </trkpt>
|
|---|
| 3331 | <trkpt lat='57.393285' lon='21.550885'>
|
|---|
| 3332 | <time>2007-10-06T13:27:46Z</time>
|
|---|
| 3333 | </trkpt>
|
|---|
| 3334 | <trkpt lat='57.393915' lon='21.551322'>
|
|---|
| 3335 | <time>2007-10-06T13:27:56Z</time>
|
|---|
| 3336 | </trkpt>
|
|---|
| 3337 | <trkpt lat='57.393942' lon='21.551288'>
|
|---|
| 3338 | <time>2007-10-06T13:27:57Z</time>
|
|---|
| 3339 | </trkpt>
|
|---|
| 3340 | <trkpt lat='57.393967' lon='21.5511'>
|
|---|
| 3341 | <time>2007-10-06T13:28:00Z</time>
|
|---|
| 3342 | </trkpt>
|
|---|
| 3343 | <trkpt lat='57.393755' lon='21.549627'>
|
|---|
| 3344 | <time>2007-10-06T13:28:09Z</time>
|
|---|
| 3345 | </trkpt>
|
|---|
| 3346 | <trkpt lat='57.393618' lon='21.548342'>
|
|---|
| 3347 | <time>2007-10-06T13:28:15Z</time>
|
|---|
| 3348 | </trkpt>
|
|---|
| 3349 | <trkpt lat='57.39363' lon='21.547498'>
|
|---|
| 3350 | <time>2007-10-06T13:28:19Z</time>
|
|---|
| 3351 | </trkpt>
|
|---|
| 3352 | <trkpt lat='57.393813' lon='21.5454'>
|
|---|
| 3353 | <time>2007-10-06T13:28:29Z</time>
|
|---|
| 3354 | </trkpt>
|
|---|
| 3355 | <trkpt lat='57.39376' lon='21.54362'>
|
|---|
| 3356 | <time>2007-10-06T13:28:38Z</time>
|
|---|
| 3357 | </trkpt>
|
|---|
| 3358 | <trkpt lat='57.393797' lon='21.542885'>
|
|---|
| 3359 | <time>2007-10-06T13:28:42Z</time>
|
|---|
| 3360 | </trkpt>
|
|---|
| 3361 | <trkpt lat='57.393873' lon='21.542378'>
|
|---|
| 3362 | <time>2007-10-06T13:28:45Z</time>
|
|---|
| 3363 | </trkpt>
|
|---|
| 3364 | <trkpt lat='57.393985' lon='21.541463'>
|
|---|
| 3365 | <time>2007-10-06T13:28:53Z</time>
|
|---|
| 3366 | </trkpt>
|
|---|
| 3367 | <trkpt lat='57.39381' lon='21.54129'>
|
|---|
| 3368 | <time>2007-10-06T13:28:56Z</time>
|
|---|
| 3369 | </trkpt>
|
|---|
| 3370 | <trkpt lat='57.393015' lon='21.540545'>
|
|---|
| 3371 | <time>2007-10-06T13:29:06Z</time>
|
|---|
| 3372 | </trkpt>
|
|---|
| 3373 | <trkpt lat='57.39246' lon='21.539928'>
|
|---|
| 3374 | <time>2007-10-06T13:29:15Z</time>
|
|---|
| 3375 | </trkpt>
|
|---|
| 3376 | <trkpt lat='57.39248' lon='21.539752'>
|
|---|
| 3377 | <time>2007-10-06T13:29:17Z</time>
|
|---|
| 3378 | </trkpt>
|
|---|
| 3379 | <trkpt lat='57.392803' lon='21.53866'>
|
|---|
| 3380 | <time>2007-10-06T13:29:26Z</time>
|
|---|
| 3381 | </trkpt>
|
|---|
| 3382 | <trkpt lat='57.392875' lon='21.538325'>
|
|---|
| 3383 | <time>2007-10-06T13:29:29Z</time>
|
|---|
| 3384 | </trkpt>
|
|---|
| 3385 | <trkpt lat='57.392877' lon='21.538232'>
|
|---|
| 3386 | <time>2007-10-06T13:29:30Z</time>
|
|---|
| 3387 | </trkpt>
|
|---|
| 3388 | <trkpt lat='57.392825' lon='21.53806'>
|
|---|
| 3389 | <time>2007-10-06T13:29:33Z</time>
|
|---|
| 3390 | </trkpt>
|
|---|
| 3391 | <trkpt lat='57.392705' lon='21.537945'>
|
|---|
| 3392 | <time>2007-10-06T13:29:37Z</time>
|
|---|
| 3393 | </trkpt>
|
|---|
| 3394 | <trkpt lat='57.392057' lon='21.53746'>
|
|---|
| 3395 | <time>2007-10-06T13:29:48Z</time>
|
|---|
| 3396 | </trkpt>
|
|---|
| 3397 | <trkpt lat='57.391532' lon='21.537002'>
|
|---|
| 3398 | <time>2007-10-06T13:29:57Z</time>
|
|---|
| 3399 | </trkpt>
|
|---|
| 3400 | <trkpt lat='57.391497' lon='21.536915'>
|
|---|
| 3401 | <time>2007-10-06T13:29:59Z</time>
|
|---|
| 3402 | </trkpt>
|
|---|
| 3403 | <trkpt lat='57.391493' lon='21.536852'>
|
|---|
| 3404 | <time>2007-10-06T13:30:01Z</time>
|
|---|
| 3405 | </trkpt>
|
|---|
| 3406 | <trkpt lat='57.391502' lon='21.536818'>
|
|---|
| 3407 | <time>2007-10-06T13:30:03Z</time>
|
|---|
| 3408 | </trkpt>
|
|---|
| 3409 | <trkpt lat='57.391503' lon='21.536813'>
|
|---|
| 3410 | <time>2007-10-06T13:30:05Z</time>
|
|---|
| 3411 | </trkpt>
|
|---|
| 3412 | <trkpt lat='57.391505' lon='21.536815'>
|
|---|
| 3413 | <time>2007-10-06T13:30:07Z</time>
|
|---|
| 3414 | </trkpt>
|
|---|
| 3415 | <trkpt lat='57.391517' lon='21.536835'>
|
|---|
| 3416 | <time>2007-10-06T13:30:53Z</time>
|
|---|
| 3417 | </trkpt>
|
|---|
| 3418 | <trkpt lat='57.391503' lon='21.53684'>
|
|---|
| 3419 | <time>2007-10-06T13:31:26Z</time>
|
|---|
| 3420 | </trkpt>
|
|---|
| 3421 | <trkpt lat='57.391513' lon='21.536753'>
|
|---|
| 3422 | <time>2007-10-06T13:31:28Z</time>
|
|---|
| 3423 | </trkpt>
|
|---|
| 3424 | <trkpt lat='57.391608' lon='21.536225'>
|
|---|
| 3425 | <time>2007-10-06T13:31:33Z</time>
|
|---|
| 3426 | </trkpt>
|
|---|
| 3427 | <trkpt lat='57.391843' lon='21.535355'>
|
|---|
| 3428 | <time>2007-10-06T13:31:39Z</time>
|
|---|
| 3429 | </trkpt>
|
|---|
| 3430 | <trkpt lat='57.391987' lon='21.533922'>
|
|---|
| 3431 | <time>2007-10-06T13:31:49Z</time>
|
|---|
| 3432 | </trkpt>
|
|---|
| 3433 | <trkpt lat='57.392107' lon='21.533008'>
|
|---|
| 3434 | <time>2007-10-06T13:31:57Z</time>
|
|---|
| 3435 | </trkpt>
|
|---|
| 3436 | <trkpt lat='57.392148' lon='21.532922'>
|
|---|
| 3437 | <time>2007-10-06T13:31:58Z</time>
|
|---|
| 3438 | </trkpt>
|
|---|
| 3439 | <trkpt lat='57.392345' lon='21.532853'>
|
|---|
| 3440 | <time>2007-10-06T13:32:01Z</time>
|
|---|
| 3441 | </trkpt>
|
|---|
| 3442 | <trkpt lat='57.392588' lon='21.532862'>
|
|---|
| 3443 | <time>2007-10-06T13:32:04Z</time>
|
|---|
| 3444 | </trkpt>
|
|---|
| 3445 | <trkpt lat='57.393257' lon='21.532703'>
|
|---|
| 3446 | <time>2007-10-06T13:32:12Z</time>
|
|---|
| 3447 | </trkpt>
|
|---|
| 3448 | <trkpt lat='57.393565' lon='21.532775'>
|
|---|
| 3449 | <time>2007-10-06T13:32:16Z</time>
|
|---|
| 3450 | </trkpt>
|
|---|
| 3451 | <trkpt lat='57.394208' lon='21.533033'>
|
|---|
| 3452 | <time>2007-10-06T13:32:25Z</time>
|
|---|
| 3453 | </trkpt>
|
|---|
| 3454 | <trkpt lat='57.394908' lon='21.533343'>
|
|---|
| 3455 | <time>2007-10-06T13:32:34Z</time>
|
|---|
| 3456 | </trkpt>
|
|---|
| 3457 | <trkpt lat='57.395678' lon='21.533628'>
|
|---|
| 3458 | <time>2007-10-06T13:32:45Z</time>
|
|---|
| 3459 | </trkpt>
|
|---|
| 3460 | <trkpt lat='57.395893' lon='21.533627'>
|
|---|
| 3461 | <time>2007-10-06T13:32:48Z</time>
|
|---|
| 3462 | </trkpt>
|
|---|
| 3463 | <trkpt lat='57.396125' lon='21.533385'>
|
|---|
| 3464 | <time>2007-10-06T13:32:52Z</time>
|
|---|
| 3465 | </trkpt>
|
|---|
| 3466 | <trkpt lat='57.39646' lon='21.53287'>
|
|---|
| 3467 | <time>2007-10-06T13:33:00Z</time>
|
|---|
| 3468 | </trkpt>
|
|---|
| 3469 | <trkpt lat='57.396618' lon='21.532827'>
|
|---|
| 3470 | <time>2007-10-06T13:33:03Z</time>
|
|---|
| 3471 | </trkpt>
|
|---|
| 3472 | <trkpt lat='57.396835' lon='21.532968'>
|
|---|
| 3473 | <time>2007-10-06T13:33:09Z</time>
|
|---|
| 3474 | </trkpt>
|
|---|
| 3475 | <trkpt lat='57.396873' lon='21.532985'>
|
|---|
| 3476 | <time>2007-10-06T13:33:11Z</time>
|
|---|
| 3477 | </trkpt>
|
|---|
| 3478 | <trkpt lat='57.396915' lon='21.532973'>
|
|---|
| 3479 | <time>2007-10-06T13:33:15Z</time>
|
|---|
| 3480 | </trkpt>
|
|---|
| 3481 | <trkpt lat='57.39694' lon='21.532982'>
|
|---|
| 3482 | <time>2007-10-06T13:33:41Z</time>
|
|---|
| 3483 | </trkpt>
|
|---|
| 3484 | <trkpt lat='57.397212' lon='21.533085'>
|
|---|
| 3485 | <time>2007-10-06T13:33:52Z</time>
|
|---|
| 3486 | </trkpt>
|
|---|
| 3487 | <trkpt lat='57.397483' lon='21.533107'>
|
|---|
| 3488 | <time>2007-10-06T13:34:01Z</time>
|
|---|
| 3489 | </trkpt>
|
|---|
| 3490 | <trkpt lat='57.397542' lon='21.533098'>
|
|---|
| 3491 | <time>2007-10-06T13:34:03Z</time>
|
|---|
| 3492 | </trkpt>
|
|---|
| 3493 | <trkpt lat='57.397593' lon='21.533052'>
|
|---|
| 3494 | <time>2007-10-06T13:34:05Z</time>
|
|---|
| 3495 | </trkpt>
|
|---|
| 3496 | <trkpt lat='57.397605' lon='21.532968'>
|
|---|
| 3497 | <time>2007-10-06T13:34:07Z</time>
|
|---|
| 3498 | </trkpt>
|
|---|
| 3499 | <trkpt lat='57.39757' lon='21.532913'>
|
|---|
| 3500 | <time>2007-10-06T13:34:09Z</time>
|
|---|
| 3501 | </trkpt>
|
|---|
| 3502 | <trkpt lat='57.397517' lon='21.53291'>
|
|---|
| 3503 | <time>2007-10-06T13:34:11Z</time>
|
|---|
| 3504 | </trkpt>
|
|---|
| 3505 | <trkpt lat='57.397153' lon='21.532868'>
|
|---|
| 3506 | <time>2007-10-06T13:34:21Z</time>
|
|---|
| 3507 | </trkpt>
|
|---|
| 3508 | <trkpt lat='57.396507' lon='21.5328'>
|
|---|
| 3509 | <time>2007-10-06T13:34:30Z</time>
|
|---|
| 3510 | </trkpt>
|
|---|
| 3511 | <trkpt lat='57.396343' lon='21.532898'>
|
|---|
| 3512 | <time>2007-10-06T13:34:33Z</time>
|
|---|
| 3513 | </trkpt>
|
|---|
| 3514 | <trkpt lat='57.396155' lon='21.53318'>
|
|---|
| 3515 | <time>2007-10-06T13:34:37Z</time>
|
|---|
| 3516 | </trkpt>
|
|---|
| 3517 | <trkpt lat='57.395788' lon='21.533582'>
|
|---|
| 3518 | <time>2007-10-06T13:34:44Z</time>
|
|---|
| 3519 | </trkpt>
|
|---|
| 3520 | <trkpt lat='57.395457' lon='21.533535'>
|
|---|
| 3521 | <time>2007-10-06T13:34:48Z</time>
|
|---|
| 3522 | </trkpt>
|
|---|
| 3523 | <trkpt lat='57.394663' lon='21.5332'>
|
|---|
| 3524 | <time>2007-10-06T13:34:57Z</time>
|
|---|
| 3525 | </trkpt>
|
|---|
| 3526 | <trkpt lat='57.39392' lon='21.532888'>
|
|---|
| 3527 | <time>2007-10-06T13:35:07Z</time>
|
|---|
| 3528 | </trkpt>
|
|---|
| 3529 | <trkpt lat='57.393238' lon='21.532678'>
|
|---|
| 3530 | <time>2007-10-06T13:35:17Z</time>
|
|---|
| 3531 | </trkpt>
|
|---|
| 3532 | <trkpt lat='57.392942' lon='21.532697'>
|
|---|
| 3533 | <time>2007-10-06T13:35:21Z</time>
|
|---|
| 3534 | </trkpt>
|
|---|
| 3535 | <trkpt lat='57.392228' lon='21.532817'>
|
|---|
| 3536 | <time>2007-10-06T13:35:32Z</time>
|
|---|
| 3537 | </trkpt>
|
|---|
| 3538 | <trkpt lat='57.392053' lon='21.533072'>
|
|---|
| 3539 | <time>2007-10-06T13:35:36Z</time>
|
|---|
| 3540 | </trkpt>
|
|---|
| 3541 | <trkpt lat='57.391935' lon='21.534103'>
|
|---|
| 3542 | <time>2007-10-06T13:35:43Z</time>
|
|---|
| 3543 | </trkpt>
|
|---|
| 3544 | <trkpt lat='57.391742' lon='21.535775'>
|
|---|
| 3545 | <time>2007-10-06T13:35:53Z</time>
|
|---|
| 3546 | </trkpt>
|
|---|
| 3547 | <trkpt lat='57.391517' lon='21.53641'>
|
|---|
| 3548 | <time>2007-10-06T13:35:57Z</time>
|
|---|
| 3549 | </trkpt>
|
|---|
| 3550 | <trkpt lat='57.391228' lon='21.536827'>
|
|---|
| 3551 | <time>2007-10-06T13:36:01Z</time>
|
|---|
| 3552 | </trkpt>
|
|---|
| 3553 | <trkpt lat='57.391167' lon='21.536917'>
|
|---|
| 3554 | <time>2007-10-06T13:36:02Z</time>
|
|---|
| 3555 | </trkpt>
|
|---|
| 3556 | <trkpt lat='57.391052' lon='21.537355'>
|
|---|
| 3557 | <time>2007-10-06T13:36:05Z</time>
|
|---|
| 3558 | </trkpt>
|
|---|
| 3559 | <trkpt lat='57.390817' lon='21.538342'>
|
|---|
| 3560 | <time>2007-10-06T13:36:12Z</time>
|
|---|
| 3561 | </trkpt>
|
|---|
| 3562 | <trkpt lat='57.390612' lon='21.538225'>
|
|---|
| 3563 | <time>2007-10-06T13:36:16Z</time>
|
|---|
| 3564 | </trkpt>
|
|---|
| 3565 | <trkpt lat='57.390428' lon='21.538207'>
|
|---|
| 3566 | <time>2007-10-06T13:36:20Z</time>
|
|---|
| 3567 | </trkpt>
|
|---|
| 3568 | <trkpt lat='57.390262' lon='21.538465'>
|
|---|
| 3569 | <time>2007-10-06T13:36:25Z</time>
|
|---|
| 3570 | </trkpt>
|
|---|
| 3571 | <trkpt lat='57.389955' lon='21.538383'>
|
|---|
| 3572 | <time>2007-10-06T13:36:33Z</time>
|
|---|
| 3573 | </trkpt>
|
|---|
| 3574 | <trkpt lat='57.389642' lon='21.537995'>
|
|---|
| 3575 | <time>2007-10-06T13:36:41Z</time>
|
|---|
| 3576 | </trkpt>
|
|---|
| 3577 | <trkpt lat='57.389477' lon='21.537662'>
|
|---|
| 3578 | <time>2007-10-06T13:36:46Z</time>
|
|---|
| 3579 | </trkpt>
|
|---|
| 3580 | <trkpt lat='57.389153' lon='21.53729'>
|
|---|
| 3581 | <time>2007-10-06T13:36:54Z</time>
|
|---|
| 3582 | </trkpt>
|
|---|
| 3583 | <trkpt lat='57.389068' lon='21.537222'>
|
|---|
| 3584 | <time>2007-10-06T13:36:57Z</time>
|
|---|
| 3585 | </trkpt>
|
|---|
| 3586 | <trkpt lat='57.388978' lon='21.537268'>
|
|---|
| 3587 | <time>2007-10-06T13:37:01Z</time>
|
|---|
| 3588 | </trkpt>
|
|---|
| 3589 | <trkpt lat='57.388958' lon='21.537327'>
|
|---|
| 3590 | <time>2007-10-06T13:37:02Z</time>
|
|---|
| 3591 | </trkpt>
|
|---|
| 3592 | <trkpt lat='57.388837' lon='21.538007'>
|
|---|
| 3593 | <time>2007-10-06T13:37:12Z</time>
|
|---|
| 3594 | </trkpt>
|
|---|
| 3595 | <trkpt lat='57.38894' lon='21.538137'>
|
|---|
| 3596 | <time>2007-10-06T13:37:16Z</time>
|
|---|
| 3597 | </trkpt>
|
|---|
| 3598 | <trkpt lat='57.389322' lon='21.538598'>
|
|---|
| 3599 | <time>2007-10-06T13:37:25Z</time>
|
|---|
| 3600 | </trkpt>
|
|---|
| 3601 | <trkpt lat='57.389695' lon='21.539083'>
|
|---|
| 3602 | <time>2007-10-06T13:37:33Z</time>
|
|---|
| 3603 | </trkpt>
|
|---|
| 3604 | <trkpt lat='57.389695' lon='21.53916'>
|
|---|
| 3605 | <time>2007-10-06T13:37:35Z</time>
|
|---|
| 3606 | </trkpt>
|
|---|
| 3607 | <trkpt lat='57.389655' lon='21.539263'>
|
|---|
| 3608 | <time>2007-10-06T13:37:37Z</time>
|
|---|
| 3609 | </trkpt>
|
|---|
| 3610 | <trkpt lat='57.389282' lon='21.540058'>
|
|---|
| 3611 | <time>2007-10-06T13:37:46Z</time>
|
|---|
| 3612 | </trkpt>
|
|---|
| 3613 | <trkpt lat='57.389015' lon='21.540755'>
|
|---|
| 3614 | <time>2007-10-06T13:37:56Z</time>
|
|---|
| 3615 | </trkpt>
|
|---|
| 3616 | <trkpt lat='57.389142' lon='21.54095'>
|
|---|
| 3617 | <time>2007-10-06T13:38:00Z</time>
|
|---|
| 3618 | </trkpt>
|
|---|
| 3619 | <trkpt lat='57.38957' lon='21.54162'>
|
|---|
| 3620 | <time>2007-10-06T13:38:09Z</time>
|
|---|
| 3621 | </trkpt>
|
|---|
| 3622 | <trkpt lat='57.389633' lon='21.541708'>
|
|---|
| 3623 | <time>2007-10-06T13:38:15Z</time>
|
|---|
| 3624 | </trkpt>
|
|---|
| 3625 | <trkpt lat='57.389642' lon='21.541727'>
|
|---|
| 3626 | <time>2007-10-06T13:38:21Z</time>
|
|---|
| 3627 | </trkpt>
|
|---|
| 3628 | <trkpt lat='57.389628' lon='21.541845'>
|
|---|
| 3629 | <time>2007-10-06T13:38:23Z</time>
|
|---|
| 3630 | </trkpt>
|
|---|
| 3631 | <trkpt lat='57.389557' lon='21.542013'>
|
|---|
| 3632 | <time>2007-10-06T13:38:25Z</time>
|
|---|
| 3633 | </trkpt>
|
|---|
| 3634 | <trkpt lat='57.389083' lon='21.543022'>
|
|---|
| 3635 | <time>2007-10-06T13:38:34Z</time>
|
|---|
| 3636 | </trkpt>
|
|---|
| 3637 | <trkpt lat='57.388563' lon='21.544103'>
|
|---|
| 3638 | <time>2007-10-06T13:38:44Z</time>
|
|---|
| 3639 | </trkpt>
|
|---|
| 3640 | <trkpt lat='57.388538' lon='21.544167'>
|
|---|
| 3641 | <time>2007-10-06T13:38:48Z</time>
|
|---|
| 3642 | </trkpt>
|
|---|
| 3643 | <trkpt lat='57.388557' lon='21.54431'>
|
|---|
| 3644 | <time>2007-10-06T13:38:51Z</time>
|
|---|
| 3645 | </trkpt>
|
|---|
| 3646 | <trkpt lat='57.388647' lon='21.544457'>
|
|---|
| 3647 | <time>2007-10-06T13:38:53Z</time>
|
|---|
| 3648 | </trkpt>
|
|---|
| 3649 | <trkpt lat='57.38915' lon='21.545182'>
|
|---|
| 3650 | <time>2007-10-06T13:39:01Z</time>
|
|---|
| 3651 | </trkpt>
|
|---|
| 3652 | <trkpt lat='57.389233' lon='21.545173'>
|
|---|
| 3653 | <time>2007-10-06T13:39:03Z</time>
|
|---|
| 3654 | </trkpt>
|
|---|
| 3655 | <trkpt lat='57.389278' lon='21.545075'>
|
|---|
| 3656 | <time>2007-10-06T13:39:05Z</time>
|
|---|
| 3657 | </trkpt>
|
|---|
| 3658 | <trkpt lat='57.389637' lon='21.544253'>
|
|---|
| 3659 | <time>2007-10-06T13:39:14Z</time>
|
|---|
| 3660 | </trkpt>
|
|---|
| 3661 | <trkpt lat='57.39018' lon='21.543127'>
|
|---|
| 3662 | <time>2007-10-06T13:39:26Z</time>
|
|---|
| 3663 | </trkpt>
|
|---|
| 3664 | <trkpt lat='57.390363' lon='21.542743'>
|
|---|
| 3665 | <time>2007-10-06T13:39:35Z</time>
|
|---|
| 3666 | </trkpt>
|
|---|
| 3667 | <trkpt lat='57.390703' lon='21.542028'>
|
|---|
| 3668 | <time>2007-10-06T13:39:45Z</time>
|
|---|
| 3669 | </trkpt>
|
|---|
| 3670 | <trkpt lat='57.391038' lon='21.541287'>
|
|---|
| 3671 | <time>2007-10-06T13:39:54Z</time>
|
|---|
| 3672 | </trkpt>
|
|---|
| 3673 | <trkpt lat='57.39147' lon='21.539702'>
|
|---|
| 3674 | <time>2007-10-06T13:40:06Z</time>
|
|---|
| 3675 | </trkpt>
|
|---|
| 3676 | <trkpt lat='57.39162' lon='21.539338'>
|
|---|
| 3677 | <time>2007-10-06T13:40:12Z</time>
|
|---|
| 3678 | </trkpt>
|
|---|
| 3679 | <trkpt lat='57.391665' lon='21.53936'>
|
|---|
| 3680 | <time>2007-10-06T13:40:13Z</time>
|
|---|
| 3681 | </trkpt>
|
|---|
| 3682 | <trkpt lat='57.392363' lon='21.540083'>
|
|---|
| 3683 | <time>2007-10-06T13:40:23Z</time>
|
|---|
| 3684 | </trkpt>
|
|---|
| 3685 | <trkpt lat='57.39236' lon='21.540233'>
|
|---|
| 3686 | <time>2007-10-06T13:40:25Z</time>
|
|---|
| 3687 | </trkpt>
|
|---|
| 3688 | <trkpt lat='57.39204' lon='21.541385'>
|
|---|
| 3689 | <time>2007-10-06T13:40:34Z</time>
|
|---|
| 3690 | </trkpt>
|
|---|
| 3691 | <trkpt lat='57.39195' lon='21.541445'>
|
|---|
| 3692 | <time>2007-10-06T13:40:37Z</time>
|
|---|
| 3693 | </trkpt>
|
|---|
| 3694 | <trkpt lat='57.391908' lon='21.541413'>
|
|---|
| 3695 | <time>2007-10-06T13:40:38Z</time>
|
|---|
| 3696 | </trkpt>
|
|---|
| 3697 | <trkpt lat='57.39124' lon='21.54075'>
|
|---|
| 3698 | <time>2007-10-06T13:40:50Z</time>
|
|---|
| 3699 | </trkpt>
|
|---|
| 3700 | <trkpt lat='57.390678' lon='21.540228'>
|
|---|
| 3701 | <time>2007-10-06T13:40:59Z</time>
|
|---|
| 3702 | </trkpt>
|
|---|
| 3703 | <trkpt lat='57.390432' lon='21.53996'>
|
|---|
| 3704 | <time>2007-10-06T13:41:05Z</time>
|
|---|
| 3705 | </trkpt>
|
|---|
| 3706 | <trkpt lat='57.390433' lon='21.539845'>
|
|---|
| 3707 | <time>2007-10-06T13:41:07Z</time>
|
|---|
| 3708 | </trkpt>
|
|---|
| 3709 | <trkpt lat='57.390753' lon='21.538643'>
|
|---|
| 3710 | <time>2007-10-06T13:41:17Z</time>
|
|---|
| 3711 | </trkpt>
|
|---|
| 3712 | <trkpt lat='57.390768' lon='21.538533'>
|
|---|
| 3713 | <time>2007-10-06T13:41:18Z</time>
|
|---|
| 3714 | </trkpt>
|
|---|
| 3715 | <trkpt lat='57.390682' lon='21.538222'>
|
|---|
| 3716 | <time>2007-10-06T13:41:21Z</time>
|
|---|
| 3717 | </trkpt>
|
|---|
| 3718 | <trkpt lat='57.389803' lon='21.537332'>
|
|---|
| 3719 | <time>2007-10-06T13:41:32Z</time>
|
|---|
| 3720 | </trkpt>
|
|---|
| 3721 | <trkpt lat='57.389307' lon='21.536827'>
|
|---|
| 3722 | <time>2007-10-06T13:41:41Z</time>
|
|---|
| 3723 | </trkpt>
|
|---|
| 3724 | <trkpt lat='57.389193' lon='21.536658'>
|
|---|
| 3725 | <time>2007-10-06T13:41:45Z</time>
|
|---|
| 3726 | </trkpt>
|
|---|
| 3727 | <trkpt lat='57.389208' lon='21.536542'>
|
|---|
| 3728 | <time>2007-10-06T13:41:47Z</time>
|
|---|
| 3729 | </trkpt>
|
|---|
| 3730 | <trkpt lat='57.389488' lon='21.535625'>
|
|---|
| 3731 | <time>2007-10-06T13:41:57Z</time>
|
|---|
| 3732 | </trkpt>
|
|---|
| 3733 | <trkpt lat='57.389892' lon='21.534225'>
|
|---|
| 3734 | <time>2007-10-06T13:42:08Z</time>
|
|---|
| 3735 | </trkpt>
|
|---|
| 3736 | <trkpt lat='57.390035' lon='21.533727'>
|
|---|
| 3737 | <time>2007-10-06T13:42:12Z</time>
|
|---|
| 3738 | </trkpt>
|
|---|
| 3739 | <trkpt lat='57.390037' lon='21.533583'>
|
|---|
| 3740 | <time>2007-10-06T13:42:13Z</time>
|
|---|
| 3741 | </trkpt>
|
|---|
| 3742 | <trkpt lat='57.389937' lon='21.533172'>
|
|---|
| 3743 | <time>2007-10-06T13:42:16Z</time>
|
|---|
| 3744 | </trkpt>
|
|---|
| 3745 | <trkpt lat='57.389777' lon='21.532927'>
|
|---|
| 3746 | <time>2007-10-06T13:42:19Z</time>
|
|---|
| 3747 | </trkpt>
|
|---|
| 3748 | <trkpt lat='57.389405' lon='21.532473'>
|
|---|
| 3749 | <time>2007-10-06T13:42:29Z</time>
|
|---|
| 3750 | </trkpt>
|
|---|
| 3751 | <trkpt lat='57.389207' lon='21.532212'>
|
|---|
| 3752 | <time>2007-10-06T13:42:34Z</time>
|
|---|
| 3753 | </trkpt>
|
|---|
| 3754 | <trkpt lat='57.389155' lon='21.53205'>
|
|---|
| 3755 | <time>2007-10-06T13:42:38Z</time>
|
|---|
| 3756 | </trkpt>
|
|---|
| 3757 | <trkpt lat='57.389027' lon='21.531888'>
|
|---|
| 3758 | <time>2007-10-06T13:42:42Z</time>
|
|---|
| 3759 | </trkpt>
|
|---|
| 3760 | <trkpt lat='57.388503' lon='21.531365'>
|
|---|
| 3761 | <time>2007-10-06T13:42:54Z</time>
|
|---|
| 3762 | </trkpt>
|
|---|
| 3763 | <trkpt lat='57.388005' lon='21.530775'>
|
|---|
| 3764 | <time>2007-10-06T13:43:03Z</time>
|
|---|
| 3765 | </trkpt>
|
|---|
| 3766 | <trkpt lat='57.387957' lon='21.530668'>
|
|---|
| 3767 | <time>2007-10-06T13:43:05Z</time>
|
|---|
| 3768 | </trkpt>
|
|---|
| 3769 | <trkpt lat='57.387913' lon='21.530563'>
|
|---|
| 3770 | <time>2007-10-06T13:43:07Z</time>
|
|---|
| 3771 | </trkpt>
|
|---|
| 3772 | <trkpt lat='57.387845' lon='21.530482'>
|
|---|
| 3773 | <time>2007-10-06T13:43:09Z</time>
|
|---|
| 3774 | </trkpt>
|
|---|
| 3775 | <trkpt lat='57.387617' lon='21.530205'>
|
|---|
| 3776 | <time>2007-10-06T13:43:15Z</time>
|
|---|
| 3777 | </trkpt>
|
|---|
| 3778 | <trkpt lat='57.387372' lon='21.529883'>
|
|---|
| 3779 | <time>2007-10-06T13:43:21Z</time>
|
|---|
| 3780 | </trkpt>
|
|---|
| 3781 | <trkpt lat='57.386947' lon='21.529367'>
|
|---|
| 3782 | <time>2007-10-06T13:43:30Z</time>
|
|---|
| 3783 | </trkpt>
|
|---|
| 3784 | <trkpt lat='57.386813' lon='21.529227'>
|
|---|
| 3785 | <time>2007-10-06T13:43:36Z</time>
|
|---|
| 3786 | </trkpt>
|
|---|
| 3787 | <trkpt lat='57.386778' lon='21.529297'>
|
|---|
| 3788 | <time>2007-10-06T13:43:40Z</time>
|
|---|
| 3789 | </trkpt>
|
|---|
| 3790 | <trkpt lat='57.386842' lon='21.529412'>
|
|---|
| 3791 | <time>2007-10-06T13:43:44Z</time>
|
|---|
| 3792 | </trkpt>
|
|---|
| 3793 | <trkpt lat='57.386873' lon='21.52943'>
|
|---|
| 3794 | <time>2007-10-06T13:43:45Z</time>
|
|---|
| 3795 | </trkpt>
|
|---|
| 3796 | <trkpt lat='57.386985' lon='21.529497'>
|
|---|
| 3797 | <time>2007-10-06T13:43:49Z</time>
|
|---|
| 3798 | </trkpt>
|
|---|
| 3799 | <trkpt lat='57.387208' lon='21.529738'>
|
|---|
| 3800 | <time>2007-10-06T13:43:55Z</time>
|
|---|
| 3801 | </trkpt>
|
|---|
| 3802 | <trkpt lat='57.387683' lon='21.530342'>
|
|---|
| 3803 | <time>2007-10-06T13:44:05Z</time>
|
|---|
| 3804 | </trkpt>
|
|---|
| 3805 | <trkpt lat='57.387827' lon='21.530582'>
|
|---|
| 3806 | <time>2007-10-06T13:44:09Z</time>
|
|---|
| 3807 | </trkpt>
|
|---|
| 3808 | <trkpt lat='57.387975' lon='21.530798'>
|
|---|
| 3809 | <time>2007-10-06T13:44:13Z</time>
|
|---|
| 3810 | </trkpt>
|
|---|
| 3811 | <trkpt lat='57.388245' lon='21.531043'>
|
|---|
| 3812 | <time>2007-10-06T13:44:18Z</time>
|
|---|
| 3813 | </trkpt>
|
|---|
| 3814 | <trkpt lat='57.389083' lon='21.53204'>
|
|---|
| 3815 | <time>2007-10-06T13:44:30Z</time>
|
|---|
| 3816 | </trkpt>
|
|---|
| 3817 | <trkpt lat='57.389723' lon='21.532825'>
|
|---|
| 3818 | <time>2007-10-06T13:44:39Z</time>
|
|---|
| 3819 | </trkpt>
|
|---|
| 3820 | <trkpt lat='57.390017' lon='21.533237'>
|
|---|
| 3821 | <time>2007-10-06T13:44:45Z</time>
|
|---|
| 3822 | </trkpt>
|
|---|
| 3823 | <trkpt lat='57.390088' lon='21.533465'>
|
|---|
| 3824 | <time>2007-10-06T13:44:47Z</time>
|
|---|
| 3825 | </trkpt>
|
|---|
| 3826 | <trkpt lat='57.390113' lon='21.533748'>
|
|---|
| 3827 | <time>2007-10-06T13:44:49Z</time>
|
|---|
| 3828 | </trkpt>
|
|---|
| 3829 | <trkpt lat='57.39007' lon='21.534043'>
|
|---|
| 3830 | <time>2007-10-06T13:44:51Z</time>
|
|---|
| 3831 | </trkpt>
|
|---|
| 3832 | <trkpt lat='57.389622' lon='21.53549'>
|
|---|
| 3833 | <time>2007-10-06T13:45:01Z</time>
|
|---|
| 3834 | </trkpt>
|
|---|
| 3835 | <trkpt lat='57.389127' lon='21.53696'>
|
|---|
| 3836 | <time>2007-10-06T13:45:12Z</time>
|
|---|
| 3837 | </trkpt>
|
|---|
| 3838 | <trkpt lat='57.38869' lon='21.538373'>
|
|---|
| 3839 | <time>2007-10-06T13:45:21Z</time>
|
|---|
| 3840 | </trkpt>
|
|---|
| 3841 | <trkpt lat='57.38833' lon='21.539548'>
|
|---|
| 3842 | <time>2007-10-06T13:45:31Z</time>
|
|---|
| 3843 | </trkpt>
|
|---|
| 3844 | <trkpt lat='57.388132' lon='21.54002'>
|
|---|
| 3845 | <time>2007-10-06T13:45:37Z</time>
|
|---|
| 3846 | </trkpt>
|
|---|
| 3847 | <trkpt lat='57.387703' lon='21.540922'>
|
|---|
| 3848 | <time>2007-10-06T13:45:46Z</time>
|
|---|
| 3849 | </trkpt>
|
|---|
| 3850 | <trkpt lat='57.387177' lon='21.542002'>
|
|---|
| 3851 | <time>2007-10-06T13:45:58Z</time>
|
|---|
| 3852 | </trkpt>
|
|---|
| 3853 | <trkpt lat='57.387177' lon='21.542'>
|
|---|
| 3854 | <time>2007-10-06T13:46:01Z</time>
|
|---|
| 3855 | </trkpt>
|
|---|
| 3856 | <trkpt lat='57.387185' lon='21.542043'>
|
|---|
| 3857 | <time>2007-10-06T13:46:20Z</time>
|
|---|
| 3858 | </trkpt>
|
|---|
| 3859 | <trkpt lat='57.38719' lon='21.542102'>
|
|---|
| 3860 | <time>2007-10-06T13:46:21Z</time>
|
|---|
| 3861 | </trkpt>
|
|---|
| 3862 | <trkpt lat='57.38726' lon='21.54225'>
|
|---|
| 3863 | <time>2007-10-06T13:46:23Z</time>
|
|---|
| 3864 | </trkpt>
|
|---|
| 3865 | <trkpt lat='57.387795' lon='21.543078'>
|
|---|
| 3866 | <time>2007-10-06T13:46:33Z</time>
|
|---|
| 3867 | </trkpt>
|
|---|
| 3868 | <trkpt lat='57.387825' lon='21.543103'>
|
|---|
| 3869 | <time>2007-10-06T13:46:34Z</time>
|
|---|
| 3870 | </trkpt>
|
|---|
| 3871 | <trkpt lat='57.387895' lon='21.543055'>
|
|---|
| 3872 | <time>2007-10-06T13:46:37Z</time>
|
|---|
| 3873 | </trkpt>
|
|---|
| 3874 | <trkpt lat='57.388248' lon='21.542263'>
|
|---|
| 3875 | <time>2007-10-06T13:46:46Z</time>
|
|---|
| 3876 | </trkpt>
|
|---|
| 3877 | <trkpt lat='57.388883' lon='21.540857'>
|
|---|
| 3878 | <time>2007-10-06T13:46:58Z</time>
|
|---|
| 3879 | </trkpt>
|
|---|
| 3880 | <trkpt lat='57.388938' lon='21.540758'>
|
|---|
| 3881 | <time>2007-10-06T13:47:00Z</time>
|
|---|
| 3882 | </trkpt>
|
|---|
| 3883 | <trkpt lat='57.388965' lon='21.540742'>
|
|---|
| 3884 | <time>2007-10-06T13:47:01Z</time>
|
|---|
| 3885 | </trkpt>
|
|---|
| 3886 | <trkpt lat='57.389058' lon='21.540848'>
|
|---|
| 3887 | <time>2007-10-06T13:47:04Z</time>
|
|---|
| 3888 | </trkpt>
|
|---|
| 3889 | <trkpt lat='57.389412' lon='21.541423'>
|
|---|
| 3890 | <time>2007-10-06T13:47:13Z</time>
|
|---|
| 3891 | </trkpt>
|
|---|
| 3892 | <trkpt lat='57.389592' lon='21.541703'>
|
|---|
| 3893 | <time>2007-10-06T13:47:22Z</time>
|
|---|
| 3894 | </trkpt>
|
|---|
| 3895 | <trkpt lat='57.389893' lon='21.542227'>
|
|---|
| 3896 | <time>2007-10-06T13:47:33Z</time>
|
|---|
| 3897 | </trkpt>
|
|---|
| 3898 | <trkpt lat='57.390283' lon='21.542868'>
|
|---|
| 3899 | <time>2007-10-06T13:47:44Z</time>
|
|---|
| 3900 | </trkpt>
|
|---|
| 3901 | <trkpt lat='57.390283' lon='21.542983'>
|
|---|
| 3902 | <time>2007-10-06T13:47:48Z</time>
|
|---|
| 3903 | </trkpt>
|
|---|
| 3904 | <trkpt lat='57.390165' lon='21.543427'>
|
|---|
| 3905 | <time>2007-10-06T13:47:53Z</time>
|
|---|
| 3906 | </trkpt>
|
|---|
| 3907 | <trkpt lat='57.390255' lon='21.543623'>
|
|---|
| 3908 | <time>2007-10-06T13:47:56Z</time>
|
|---|
| 3909 | </trkpt>
|
|---|
| 3910 | <trkpt lat='57.390697' lon='21.544423'>
|
|---|
| 3911 | <time>2007-10-06T13:48:05Z</time>
|
|---|
| 3912 | </trkpt>
|
|---|
| 3913 | <trkpt lat='57.390983' lon='21.544952'>
|
|---|
| 3914 | <time>2007-10-06T13:48:13Z</time>
|
|---|
| 3915 | </trkpt>
|
|---|
| 3916 | <trkpt lat='57.390983' lon='21.54495'>
|
|---|
| 3917 | <time>2007-10-06T13:48:14Z</time>
|
|---|
| 3918 | </trkpt>
|
|---|
| 3919 | <trkpt lat='57.390993' lon='21.544993'>
|
|---|
| 3920 | <time>2007-10-06T13:48:21Z</time>
|
|---|
| 3921 | </trkpt>
|
|---|
| 3922 | <trkpt lat='57.390992' lon='21.545047'>
|
|---|
| 3923 | <time>2007-10-06T13:48:22Z</time>
|
|---|
| 3924 | </trkpt>
|
|---|
| 3925 | <trkpt lat='57.390932' lon='21.545283'>
|
|---|
| 3926 | <time>2007-10-06T13:48:25Z</time>
|
|---|
| 3927 | </trkpt>
|
|---|
| 3928 | <trkpt lat='57.39087' lon='21.545608'>
|
|---|
| 3929 | <time>2007-10-06T13:48:32Z</time>
|
|---|
| 3930 | </trkpt>
|
|---|
| 3931 | <trkpt lat='57.390992' lon='21.545697'>
|
|---|
| 3932 | <time>2007-10-06T13:48:36Z</time>
|
|---|
| 3933 | </trkpt>
|
|---|
| 3934 | <trkpt lat='57.391252' lon='21.54584'>
|
|---|
| 3935 | <time>2007-10-06T13:48:45Z</time>
|
|---|
| 3936 | </trkpt>
|
|---|
| 3937 | <trkpt lat='57.391623' lon='21.546037'>
|
|---|
| 3938 | <time>2007-10-06T13:48:55Z</time>
|
|---|
| 3939 | </trkpt>
|
|---|
| 3940 | <trkpt lat='57.391688' lon='21.546077'>
|
|---|
| 3941 | <time>2007-10-06T13:49:01Z</time>
|
|---|
| 3942 | </trkpt>
|
|---|
| 3943 | <trkpt lat='57.391705' lon='21.54608'>
|
|---|
| 3944 | <time>2007-10-06T13:49:05Z</time>
|
|---|
| 3945 | </trkpt>
|
|---|
| 3946 | <trkpt lat='57.392003' lon='21.546242'>
|
|---|
| 3947 | <time>2007-10-06T13:49:14Z</time>
|
|---|
| 3948 | </trkpt>
|
|---|
| 3949 | <trkpt lat='57.392267' lon='21.54639'>
|
|---|
| 3950 | <time>2007-10-06T13:49:24Z</time>
|
|---|
| 3951 | </trkpt>
|
|---|
| 3952 | <trkpt lat='57.392303' lon='21.546408'>
|
|---|
| 3953 | <time>2007-10-06T13:49:28Z</time>
|
|---|
| 3954 | </trkpt>
|
|---|
| 3955 | <trkpt lat='57.392623' lon='21.546578'>
|
|---|
| 3956 | <time>2007-10-06T13:49:37Z</time>
|
|---|
| 3957 | </trkpt>
|
|---|
| 3958 | <trkpt lat='57.392727' lon='21.54664'>
|
|---|
| 3959 | <time>2007-10-06T13:49:43Z</time>
|
|---|
| 3960 | </trkpt>
|
|---|
| 3961 | <trkpt lat='57.392735' lon='21.546642'>
|
|---|
| 3962 | <time>2007-10-06T13:49:45Z</time>
|
|---|
| 3963 | </trkpt>
|
|---|
| 3964 | <trkpt lat='57.392765' lon='21.546618'>
|
|---|
| 3965 | <time>2007-10-06T13:49:47Z</time>
|
|---|
| 3966 | </trkpt>
|
|---|
| 3967 | <trkpt lat='57.392795' lon='21.54653'>
|
|---|
| 3968 | <time>2007-10-06T13:49:49Z</time>
|
|---|
| 3969 | </trkpt>
|
|---|
| 3970 | <trkpt lat='57.392968' lon='21.545948'>
|
|---|
| 3971 | <time>2007-10-06T13:49:59Z</time>
|
|---|
| 3972 | </trkpt>
|
|---|
| 3973 | <trkpt lat='57.393002' lon='21.545768'>
|
|---|
| 3974 | <time>2007-10-06T13:50:02Z</time>
|
|---|
| 3975 | </trkpt>
|
|---|
| 3976 | <trkpt lat='57.393017' lon='21.545668'>
|
|---|
| 3977 | <time>2007-10-06T13:50:05Z</time>
|
|---|
| 3978 | </trkpt>
|
|---|
| 3979 | <trkpt lat='57.393018' lon='21.545665'>
|
|---|
| 3980 | <time>2007-10-06T13:50:06Z</time>
|
|---|
| 3981 | </trkpt>
|
|---|
| 3982 | <trkpt lat='57.39302' lon='21.545662'>
|
|---|
| 3983 | <time>2007-10-06T13:50:09Z</time>
|
|---|
| 3984 | </trkpt>
|
|---|
| 3985 | <trkpt lat='57.393032' lon='21.545582'>
|
|---|
| 3986 | <time>2007-10-06T13:50:13Z</time>
|
|---|
| 3987 | </trkpt>
|
|---|
| 3988 | <trkpt lat='57.39306' lon='21.54539'>
|
|---|
| 3989 | <time>2007-10-06T13:50:17Z</time>
|
|---|
| 3990 | </trkpt>
|
|---|
| 3991 | <trkpt lat='57.393105' lon='21.544782'>
|
|---|
| 3992 | <time>2007-10-06T13:50:28Z</time>
|
|---|
| 3993 | </trkpt>
|
|---|
| 3994 | <trkpt lat='57.393137' lon='21.544335'>
|
|---|
| 3995 | <time>2007-10-06T13:50:36Z</time>
|
|---|
| 3996 | </trkpt>
|
|---|
| 3997 | <trkpt lat='57.39314' lon='21.543812'>
|
|---|
| 3998 | <time>2007-10-06T13:50:45Z</time>
|
|---|
| 3999 | </trkpt>
|
|---|
| 4000 | <trkpt lat='57.393157' lon='21.543445'>
|
|---|
| 4001 | <time>2007-10-06T13:50:53Z</time>
|
|---|
| 4002 | </trkpt>
|
|---|
| 4003 | <trkpt lat='57.393145' lon='21.543395'>
|
|---|
| 4004 | <time>2007-10-06T13:50:55Z</time>
|
|---|
| 4005 | </trkpt>
|
|---|
| 4006 | <trkpt lat='57.393113' lon='21.543342'>
|
|---|
| 4007 | <time>2007-10-06T13:50:57Z</time>
|
|---|
| 4008 | </trkpt>
|
|---|
| 4009 | <trkpt lat='57.393008' lon='21.54328'>
|
|---|
| 4010 | <time>2007-10-06T13:51:01Z</time>
|
|---|
| 4011 | </trkpt>
|
|---|
| 4012 | <trkpt lat='57.39274' lon='21.543107'>
|
|---|
| 4013 | <time>2007-10-06T13:51:10Z</time>
|
|---|
| 4014 | </trkpt>
|
|---|
| 4015 | <trkpt lat='57.392728' lon='21.543093'>
|
|---|
| 4016 | <time>2007-10-06T13:51:13Z</time>
|
|---|
| 4017 | </trkpt>
|
|---|
| 4018 | <trkpt lat='57.392733' lon='21.543085'>
|
|---|
| 4019 | <time>2007-10-06T13:51:21Z</time>
|
|---|
| 4020 | </trkpt>
|
|---|
| 4021 | <trkpt lat='57.392727' lon='21.542912'>
|
|---|
| 4022 | <time>2007-10-06T13:51:24Z</time>
|
|---|
| 4023 | </trkpt>
|
|---|
| 4024 | <trkpt lat='57.392808' lon='21.54253'>
|
|---|
| 4025 | <time>2007-10-06T13:51:32Z</time>
|
|---|
| 4026 | </trkpt>
|
|---|
| 4027 | <trkpt lat='57.392808' lon='21.542532'>
|
|---|
| 4028 | <time>2007-10-06T13:51:33Z</time>
|
|---|
| 4029 | </trkpt>
|
|---|
| 4030 | <trkpt lat='57.392802' lon='21.542483'>
|
|---|
| 4031 | <time>2007-10-06T13:51:36Z</time>
|
|---|
| 4032 | </trkpt>
|
|---|
| 4033 | <trkpt lat='57.392785' lon='21.542462'>
|
|---|
| 4034 | <time>2007-10-06T13:51:37Z</time>
|
|---|
| 4035 | </trkpt>
|
|---|
| 4036 | <trkpt lat='57.392505' lon='21.542252'>
|
|---|
| 4037 | <time>2007-10-06T13:51:47Z</time>
|
|---|
| 4038 | </trkpt>
|
|---|
| 4039 | <trkpt lat='57.392343' lon='21.542135'>
|
|---|
| 4040 | <time>2007-10-06T13:51:53Z</time>
|
|---|
| 4041 | </trkpt>
|
|---|
| 4042 | <trkpt lat='57.392292' lon='21.54211'>
|
|---|
| 4043 | <time>2007-10-06T13:51:55Z</time>
|
|---|
| 4044 | </trkpt>
|
|---|
| 4045 | <trkpt lat='57.391973' lon='21.54184'>
|
|---|
| 4046 | <time>2007-10-06T13:52:05Z</time>
|
|---|
| 4047 | </trkpt>
|
|---|
| 4048 | <trkpt lat='57.391945' lon='21.54181'>
|
|---|
| 4049 | <time>2007-10-06T13:52:09Z</time>
|
|---|
| 4050 | </trkpt>
|
|---|
| 4051 | <trkpt lat='57.391942' lon='21.54179'>
|
|---|
| 4052 | <time>2007-10-06T13:52:24Z</time>
|
|---|
| 4053 | </trkpt>
|
|---|
| 4054 | <trkpt lat='57.39194' lon='21.541783'>
|
|---|
| 4055 | <time>2007-10-06T13:52:28Z</time>
|
|---|
| 4056 | </trkpt>
|
|---|
| 4057 | <trkpt lat='57.391925' lon='21.541822'>
|
|---|
| 4058 | <time>2007-10-06T13:53:49Z</time>
|
|---|
| 4059 | </trkpt>
|
|---|
| 4060 | <trkpt lat='57.391927' lon='21.541835'>
|
|---|
| 4061 | <time>2007-10-06T13:53:53Z</time>
|
|---|
| 4062 | </trkpt>
|
|---|
| 4063 | <trkpt lat='57.391928' lon='21.541835'>
|
|---|
| 4064 | <time>2007-10-06T13:54:02Z</time>
|
|---|
| 4065 | </trkpt>
|
|---|
| 4066 | <trkpt lat='57.391948' lon='21.541803'>
|
|---|
| 4067 | <time>2007-10-06T13:54:33Z</time>
|
|---|
| 4068 | </trkpt>
|
|---|
| 4069 | <trkpt lat='57.391912' lon='21.541812'>
|
|---|
| 4070 | <time>2007-10-06T13:54:36Z</time>
|
|---|
| 4071 | </trkpt>
|
|---|
| 4072 | <trkpt lat='57.391852' lon='21.541953'>
|
|---|
| 4073 | <time>2007-10-06T13:54:40Z</time>
|
|---|
| 4074 | </trkpt>
|
|---|
| 4075 | <trkpt lat='57.391498' lon='21.543177'>
|
|---|
| 4076 | <time>2007-10-06T13:54:49Z</time>
|
|---|
| 4077 | </trkpt>
|
|---|
| 4078 | <trkpt lat='57.390908' lon='21.545198'>
|
|---|
| 4079 | <time>2007-10-06T13:54:59Z</time>
|
|---|
| 4080 | </trkpt>
|
|---|
| 4081 | <trkpt lat='57.390485' lon='21.54665'>
|
|---|
| 4082 | <time>2007-10-06T13:55:09Z</time>
|
|---|
| 4083 | </trkpt>
|
|---|
| 4084 | <trkpt lat='57.390427' lon='21.546857'>
|
|---|
| 4085 | <time>2007-10-06T13:55:16Z</time>
|
|---|
| 4086 | </trkpt>
|
|---|
| 4087 | <trkpt lat='57.390425' lon='21.546855'>
|
|---|
| 4088 | <time>2007-10-06T13:55:20Z</time>
|
|---|
| 4089 | </trkpt>
|
|---|
| 4090 | <trkpt lat='57.390407' lon='21.546842'>
|
|---|
| 4091 | <time>2007-10-06T13:55:30Z</time>
|
|---|
| 4092 | </trkpt>
|
|---|
| 4093 | <trkpt lat='57.390388' lon='21.546895'>
|
|---|
| 4094 | <time>2007-10-06T13:55:32Z</time>
|
|---|
| 4095 | </trkpt>
|
|---|
| 4096 | <trkpt lat='57.39036' lon='21.547135'>
|
|---|
| 4097 | <time>2007-10-06T13:55:36Z</time>
|
|---|
| 4098 | </trkpt>
|
|---|
| 4099 | <trkpt lat='57.390383' lon='21.547213'>
|
|---|
| 4100 | <time>2007-10-06T13:55:37Z</time>
|
|---|
| 4101 | </trkpt>
|
|---|
| 4102 | <trkpt lat='57.390472' lon='21.54738'>
|
|---|
| 4103 | <time>2007-10-06T13:55:39Z</time>
|
|---|
| 4104 | </trkpt>
|
|---|
| 4105 | <trkpt lat='57.391338' lon='21.548637'>
|
|---|
| 4106 | <time>2007-10-06T13:55:49Z</time>
|
|---|
| 4107 | </trkpt>
|
|---|
| 4108 | <trkpt lat='57.392268' lon='21.549847'>
|
|---|
| 4109 | <time>2007-10-06T13:55:58Z</time>
|
|---|
| 4110 | </trkpt>
|
|---|
| 4111 | <trkpt lat='57.39336' lon='21.55097'>
|
|---|
| 4112 | <time>2007-10-06T13:56:09Z</time>
|
|---|
| 4113 | </trkpt>
|
|---|
| 4114 | <trkpt lat='57.39385' lon='21.551365'>
|
|---|
| 4115 | <time>2007-10-06T13:56:14Z</time>
|
|---|
| 4116 | </trkpt>
|
|---|
| 4117 | <trkpt lat='57.39401' lon='21.551643'>
|
|---|
| 4118 | <time>2007-10-06T13:56:16Z</time>
|
|---|
| 4119 | </trkpt>
|
|---|
| 4120 | <trkpt lat='57.394598' lon='21.553302'>
|
|---|
| 4121 | <time>2007-10-06T13:56:26Z</time>
|
|---|
| 4122 | </trkpt>
|
|---|
| 4123 | <trkpt lat='57.394747' lon='21.5535'>
|
|---|
| 4124 | <time>2007-10-06T13:56:28Z</time>
|
|---|
| 4125 | </trkpt>
|
|---|
| 4126 | <trkpt lat='57.395373' lon='21.55398'>
|
|---|
| 4127 | <time>2007-10-06T13:56:35Z</time>
|
|---|
| 4128 | </trkpt>
|
|---|
| 4129 | <trkpt lat='57.395503' lon='21.55432'>
|
|---|
| 4130 | <time>2007-10-06T13:56:37Z</time>
|
|---|
| 4131 | </trkpt>
|
|---|
| 4132 | <trkpt lat='57.396087' lon='21.556563'>
|
|---|
| 4133 | <time>2007-10-06T13:56:47Z</time>
|
|---|
| 4134 | </trkpt>
|
|---|
| 4135 | <trkpt lat='57.396635' lon='21.55876'>
|
|---|
| 4136 | <time>2007-10-06T13:56:57Z</time>
|
|---|
| 4137 | </trkpt>
|
|---|
| 4138 | <trkpt lat='57.396952' lon='21.560407'>
|
|---|
| 4139 | <time>2007-10-06T13:57:06Z</time>
|
|---|
| 4140 | </trkpt>
|
|---|
| 4141 | <trkpt lat='57.397057' lon='21.56082'>
|
|---|
| 4142 | <time>2007-10-06T13:57:08Z</time>
|
|---|
| 4143 | </trkpt>
|
|---|
| 4144 | <trkpt lat='57.397452' lon='21.562458'>
|
|---|
| 4145 | <time>2007-10-06T13:57:16Z</time>
|
|---|
| 4146 | </trkpt>
|
|---|
| 4147 | <trkpt lat='57.397457' lon='21.562618'>
|
|---|
| 4148 | <time>2007-10-06T13:57:17Z</time>
|
|---|
| 4149 | </trkpt>
|
|---|
| 4150 | <trkpt lat='57.397433' lon='21.562895'>
|
|---|
| 4151 | <time>2007-10-06T13:57:19Z</time>
|
|---|
| 4152 | </trkpt>
|
|---|
| 4153 | <trkpt lat='57.397415' lon='21.563175'>
|
|---|
| 4154 | <time>2007-10-06T13:57:21Z</time>
|
|---|
| 4155 | </trkpt>
|
|---|
| 4156 | <trkpt lat='57.397448' lon='21.563483'>
|
|---|
| 4157 | <time>2007-10-06T13:57:23Z</time>
|
|---|
| 4158 | </trkpt>
|
|---|
| 4159 | <trkpt lat='57.397795' lon='21.564747'>
|
|---|
| 4160 | <time>2007-10-06T13:57:31Z</time>
|
|---|
| 4161 | </trkpt>
|
|---|
| 4162 | <trkpt lat='57.398168' lon='21.565707'>
|
|---|
| 4163 | <time>2007-10-06T13:57:41Z</time>
|
|---|
| 4164 | </trkpt>
|
|---|
| 4165 | <trkpt lat='57.398352' lon='21.566478'>
|
|---|
| 4166 | <time>2007-10-06T13:57:52Z</time>
|
|---|
| 4167 | </trkpt>
|
|---|
| 4168 | <trkpt lat='57.3985' lon='21.567148'>
|
|---|
| 4169 | <time>2007-10-06T13:58:01Z</time>
|
|---|
| 4170 | </trkpt>
|
|---|
| 4171 | <trkpt lat='57.39869' lon='21.568062'>
|
|---|
| 4172 | <time>2007-10-06T13:58:11Z</time>
|
|---|
| 4173 | </trkpt>
|
|---|
| 4174 | <trkpt lat='57.398715' lon='21.568345'>
|
|---|
| 4175 | <time>2007-10-06T13:58:15Z</time>
|
|---|
| 4176 | </trkpt>
|
|---|
| 4177 | <trkpt lat='57.398707' lon='21.568728'>
|
|---|
| 4178 | <time>2007-10-06T13:58:19Z</time>
|
|---|
| 4179 | </trkpt>
|
|---|
| 4180 | <trkpt lat='57.398662' lon='21.56902'>
|
|---|
| 4181 | <time>2007-10-06T13:58:22Z</time>
|
|---|
| 4182 | </trkpt>
|
|---|
| 4183 | <trkpt lat='57.398568' lon='21.569263'>
|
|---|
| 4184 | <time>2007-10-06T13:58:25Z</time>
|
|---|
| 4185 | </trkpt>
|
|---|
| 4186 | <trkpt lat='57.398523' lon='21.569317'>
|
|---|
| 4187 | <time>2007-10-06T13:58:26Z</time>
|
|---|
| 4188 | </trkpt>
|
|---|
| 4189 | <trkpt lat='57.398415' lon='21.56937'>
|
|---|
| 4190 | <time>2007-10-06T13:58:29Z</time>
|
|---|
| 4191 | </trkpt>
|
|---|
| 4192 | <trkpt lat='57.398165' lon='21.56947'>
|
|---|
| 4193 | <time>2007-10-06T13:58:40Z</time>
|
|---|
| 4194 | </trkpt>
|
|---|
| 4195 | <trkpt lat='57.397717' lon='21.569677'>
|
|---|
| 4196 | <time>2007-10-06T13:58:49Z</time>
|
|---|
| 4197 | </trkpt>
|
|---|
| 4198 | <trkpt lat='57.397033' lon='21.56989'>
|
|---|
| 4199 | <time>2007-10-06T13:58:59Z</time>
|
|---|
| 4200 | </trkpt>
|
|---|
| 4201 | <trkpt lat='57.397005' lon='21.569908'>
|
|---|
| 4202 | <time>2007-10-06T13:59:01Z</time>
|
|---|
| 4203 | </trkpt>
|
|---|
| 4204 | <trkpt lat='57.396987' lon='21.569948'>
|
|---|
| 4205 | <time>2007-10-06T13:59:03Z</time>
|
|---|
| 4206 | </trkpt>
|
|---|
| 4207 | <trkpt lat='57.396993' lon='21.570057'>
|
|---|
| 4208 | <time>2007-10-06T13:59:05Z</time>
|
|---|
| 4209 | </trkpt>
|
|---|
| 4210 | <trkpt lat='57.397052' lon='21.570677'>
|
|---|
| 4211 | <time>2007-10-06T13:59:14Z</time>
|
|---|
| 4212 | </trkpt>
|
|---|
| 4213 | <trkpt lat='57.397047' lon='21.57072'>
|
|---|
| 4214 | <time>2007-10-06T13:59:18Z</time>
|
|---|
| 4215 | </trkpt>
|
|---|
| 4216 | <trkpt lat='57.39714' lon='21.571817'>
|
|---|
| 4217 | <time>2007-10-06T13:59:29Z</time>
|
|---|
| 4218 | </trkpt>
|
|---|
| 4219 | <trkpt lat='57.39722' lon='21.572243'>
|
|---|
| 4220 | <time>2007-10-06T13:59:36Z</time>
|
|---|
| 4221 | </trkpt>
|
|---|
| 4222 | <trkpt lat='57.397348' lon='21.57223'>
|
|---|
| 4223 | <time>2007-10-06T13:59:40Z</time>
|
|---|
| 4224 | </trkpt>
|
|---|
| 4225 | <trkpt lat='57.397883' lon='21.57202'>
|
|---|
| 4226 | <time>2007-10-06T13:59:49Z</time>
|
|---|
| 4227 | </trkpt>
|
|---|
| 4228 | <trkpt lat='57.398397' lon='21.571682'>
|
|---|
| 4229 | <time>2007-10-06T13:59:59Z</time>
|
|---|
| 4230 | </trkpt>
|
|---|
| 4231 | <trkpt lat='57.39844' lon='21.571622'>
|
|---|
| 4232 | <time>2007-10-06T14:00:01Z</time>
|
|---|
| 4233 | </trkpt>
|
|---|
| 4234 | <trkpt lat='57.398448' lon='21.571523'>
|
|---|
| 4235 | <time>2007-10-06T14:00:03Z</time>
|
|---|
| 4236 | </trkpt>
|
|---|
| 4237 | <trkpt lat='57.398472' lon='21.571197'>
|
|---|
| 4238 | <time>2007-10-06T14:00:07Z</time>
|
|---|
| 4239 | </trkpt>
|
|---|
| 4240 | <trkpt lat='57.398542' lon='21.570703'>
|
|---|
| 4241 | <time>2007-10-06T14:00:14Z</time>
|
|---|
| 4242 | </trkpt>
|
|---|
| 4243 | <trkpt lat='57.398567' lon='21.570645'>
|
|---|
| 4244 | <time>2007-10-06T14:00:17Z</time>
|
|---|
| 4245 | </trkpt>
|
|---|
| 4246 | <trkpt lat='57.398583' lon='21.570627'>
|
|---|
| 4247 | <time>2007-10-06T14:00:18Z</time>
|
|---|
| 4248 | </trkpt>
|
|---|
| 4249 | <trkpt lat='57.39864' lon='21.570627'>
|
|---|
| 4250 | <time>2007-10-06T14:00:21Z</time>
|
|---|
| 4251 | </trkpt>
|
|---|
| 4252 | <trkpt lat='57.398653' lon='21.570637'>
|
|---|
| 4253 | <time>2007-10-06T14:00:22Z</time>
|
|---|
| 4254 | </trkpt>
|
|---|
| 4255 | <trkpt lat='57.398677' lon='21.5707'>
|
|---|
| 4256 | <time>2007-10-06T14:00:25Z</time>
|
|---|
| 4257 | </trkpt>
|
|---|
| 4258 | <trkpt lat='57.39868' lon='21.570737'>
|
|---|
| 4259 | <time>2007-10-06T14:00:26Z</time>
|
|---|
| 4260 | </trkpt>
|
|---|
| 4261 | <trkpt lat='57.398658' lon='21.570823'>
|
|---|
| 4262 | <time>2007-10-06T14:00:29Z</time>
|
|---|
| 4263 | </trkpt>
|
|---|
| 4264 | <trkpt lat='57.39861' lon='21.570768'>
|
|---|
| 4265 | <time>2007-10-06T14:00:32Z</time>
|
|---|
| 4266 | </trkpt>
|
|---|
| 4267 | <trkpt lat='57.398562' lon='21.570682'>
|
|---|
| 4268 | <time>2007-10-06T14:00:36Z</time>
|
|---|
| 4269 | </trkpt>
|
|---|
| 4270 | <trkpt lat='57.398478' lon='21.570817'>
|
|---|
| 4271 | <time>2007-10-06T14:00:40Z</time>
|
|---|
| 4272 | </trkpt>
|
|---|
| 4273 | <trkpt lat='57.398388' lon='21.571287'>
|
|---|
| 4274 | <time>2007-10-06T14:00:45Z</time>
|
|---|
| 4275 | </trkpt>
|
|---|
| 4276 | <trkpt lat='57.398368' lon='21.571562'>
|
|---|
| 4277 | <time>2007-10-06T14:00:49Z</time>
|
|---|
| 4278 | </trkpt>
|
|---|
| 4279 | <trkpt lat='57.398313' lon='21.571622'>
|
|---|
| 4280 | <time>2007-10-06T14:00:51Z</time>
|
|---|
| 4281 | </trkpt>
|
|---|
| 4282 | <trkpt lat='57.398125' lon='21.571735'>
|
|---|
| 4283 | <time>2007-10-06T14:00:55Z</time>
|
|---|
| 4284 | </trkpt>
|
|---|
| 4285 | <trkpt lat='57.397985' lon='21.57187'>
|
|---|
| 4286 | <time>2007-10-06T14:00:59Z</time>
|
|---|
| 4287 | </trkpt>
|
|---|
| 4288 | <trkpt lat='57.397933' lon='21.571883'>
|
|---|
| 4289 | <time>2007-10-06T14:01:01Z</time>
|
|---|
| 4290 | </trkpt>
|
|---|
| 4291 | <trkpt lat='57.39791' lon='21.571872'>
|
|---|
| 4292 | <time>2007-10-06T14:01:02Z</time>
|
|---|
| 4293 | </trkpt>
|
|---|
| 4294 | <trkpt lat='57.397875' lon='21.57177'>
|
|---|
| 4295 | <time>2007-10-06T14:01:05Z</time>
|
|---|
| 4296 | </trkpt>
|
|---|
| 4297 | <trkpt lat='57.397837' lon='21.571408'>
|
|---|
| 4298 | <time>2007-10-06T14:01:10Z</time>
|
|---|
| 4299 | </trkpt>
|
|---|
| 4300 | <trkpt lat='57.397787' lon='21.57056'>
|
|---|
| 4301 | <time>2007-10-06T14:01:21Z</time>
|
|---|
| 4302 | </trkpt>
|
|---|
| 4303 | <trkpt lat='57.397807' lon='21.57049'>
|
|---|
| 4304 | <time>2007-10-06T14:01:22Z</time>
|
|---|
| 4305 | </trkpt>
|
|---|
| 4306 | <trkpt lat='57.39799' lon='21.569972'>
|
|---|
| 4307 | <time>2007-10-06T14:01:28Z</time>
|
|---|
| 4308 | </trkpt>
|
|---|
| 4309 | <trkpt lat='57.398183' lon='21.56943'>
|
|---|
| 4310 | <time>2007-10-06T14:01:36Z</time>
|
|---|
| 4311 | </trkpt>
|
|---|
| 4312 | <trkpt lat='57.398317' lon='21.569232'>
|
|---|
| 4313 | <time>2007-10-06T14:01:40Z</time>
|
|---|
| 4314 | </trkpt>
|
|---|
| 4315 | <trkpt lat='57.398325' lon='21.56915'>
|
|---|
| 4316 | <time>2007-10-06T14:01:41Z</time>
|
|---|
| 4317 | </trkpt>
|
|---|
| 4318 | <trkpt lat='57.398297' lon='21.568967'>
|
|---|
| 4319 | <time>2007-10-06T14:01:43Z</time>
|
|---|
| 4320 | </trkpt>
|
|---|
| 4321 | <trkpt lat='57.39811' lon='21.568272'>
|
|---|
| 4322 | <time>2007-10-06T14:01:51Z</time>
|
|---|
| 4323 | </trkpt>
|
|---|
| 4324 | <trkpt lat='57.398073' lon='21.568218'>
|
|---|
| 4325 | <time>2007-10-06T14:01:53Z</time>
|
|---|
| 4326 | </trkpt>
|
|---|
| 4327 | <trkpt lat='57.397977' lon='21.5681'>
|
|---|
| 4328 | <time>2007-10-06T14:01:57Z</time>
|
|---|
| 4329 | </trkpt>
|
|---|
| 4330 | <trkpt lat='57.397932' lon='21.567948'>
|
|---|
| 4331 | <time>2007-10-06T14:01:59Z</time>
|
|---|
| 4332 | </trkpt>
|
|---|
| 4333 | <trkpt lat='57.397765' lon='21.566947'>
|
|---|
| 4334 | <time>2007-10-06T14:02:09Z</time>
|
|---|
| 4335 | </trkpt>
|
|---|
| 4336 | <trkpt lat='57.397693' lon='21.566413'>
|
|---|
| 4337 | <time>2007-10-06T14:02:18Z</time>
|
|---|
| 4338 | </trkpt>
|
|---|
| 4339 | <trkpt lat='57.397648' lon='21.566112'>
|
|---|
| 4340 | <time>2007-10-06T14:02:22Z</time>
|
|---|
| 4341 | </trkpt>
|
|---|
| 4342 | <trkpt lat='57.397538' lon='21.565647'>
|
|---|
| 4343 | <time>2007-10-06T14:02:34Z</time>
|
|---|
| 4344 | </trkpt>
|
|---|
| 4345 | <trkpt lat='57.397423' lon='21.565112'>
|
|---|
| 4346 | <time>2007-10-06T14:02:44Z</time>
|
|---|
| 4347 | </trkpt>
|
|---|
| 4348 | <trkpt lat='57.397413' lon='21.565093'>
|
|---|
| 4349 | <time>2007-10-06T14:02:45Z</time>
|
|---|
| 4350 | </trkpt>
|
|---|
| 4351 | <trkpt lat='57.397363' lon='21.565087'>
|
|---|
| 4352 | <time>2007-10-06T14:02:47Z</time>
|
|---|
| 4353 | </trkpt>
|
|---|
| 4354 | <trkpt lat='57.396827' lon='21.565515'>
|
|---|
| 4355 | <time>2007-10-06T14:02:57Z</time>
|
|---|
| 4356 | </trkpt>
|
|---|
| 4357 | <trkpt lat='57.396493' lon='21.565728'>
|
|---|
| 4358 | <time>2007-10-06T14:03:05Z</time>
|
|---|
| 4359 | </trkpt>
|
|---|
| 4360 | <trkpt lat='57.396492' lon='21.565732'>
|
|---|
| 4361 | <time>2007-10-06T14:03:06Z</time>
|
|---|
| 4362 | </trkpt>
|
|---|
| 4363 | <trkpt lat='57.396498' lon='21.565737'>
|
|---|
| 4364 | <time>2007-10-06T14:03:09Z</time>
|
|---|
| 4365 | </trkpt>
|
|---|
| 4366 | <trkpt lat='57.396472' lon='21.565787'>
|
|---|
| 4367 | <time>2007-10-06T14:03:17Z</time>
|
|---|
| 4368 | </trkpt>
|
|---|
| 4369 | <trkpt lat='57.396353' lon='21.565987'>
|
|---|
| 4370 | <time>2007-10-06T14:03:21Z</time>
|
|---|
| 4371 | </trkpt>
|
|---|
| 4372 | <trkpt lat='57.396222' lon='21.566735'>
|
|---|
| 4373 | <time>2007-10-06T14:03:30Z</time>
|
|---|
| 4374 | </trkpt>
|
|---|
| 4375 | <trkpt lat='57.396053' lon='21.567378'>
|
|---|
| 4376 | <time>2007-10-06T14:03:40Z</time>
|
|---|
| 4377 | </trkpt>
|
|---|
| 4378 | <trkpt lat='57.395915' lon='21.567483'>
|
|---|
| 4379 | <time>2007-10-06T14:03:44Z</time>
|
|---|
| 4380 | </trkpt>
|
|---|
| 4381 | <trkpt lat='57.395835' lon='21.567537'>
|
|---|
| 4382 | <time>2007-10-06T14:03:47Z</time>
|
|---|
| 4383 | </trkpt>
|
|---|
| 4384 | <trkpt lat='57.395802' lon='21.567607'>
|
|---|
| 4385 | <time>2007-10-06T14:03:49Z</time>
|
|---|
| 4386 | </trkpt>
|
|---|
| 4387 | <trkpt lat='57.395803' lon='21.56772'>
|
|---|
| 4388 | <time>2007-10-06T14:03:51Z</time>
|
|---|
| 4389 | </trkpt>
|
|---|
| 4390 | <trkpt lat='57.395872' lon='21.5684'>
|
|---|
| 4391 | <time>2007-10-06T14:04:01Z</time>
|
|---|
| 4392 | </trkpt>
|
|---|
| 4393 | <trkpt lat='57.396018' lon='21.569072'>
|
|---|
| 4394 | <time>2007-10-06T14:04:10Z</time>
|
|---|
| 4395 | </trkpt>
|
|---|
| 4396 | <trkpt lat='57.3961' lon='21.569475'>
|
|---|
| 4397 | <time>2007-10-06T14:04:17Z</time>
|
|---|
| 4398 | </trkpt>
|
|---|
| 4399 | <trkpt lat='57.396148' lon='21.569558'>
|
|---|
| 4400 | <time>2007-10-06T14:04:21Z</time>
|
|---|
| 4401 | </trkpt>
|
|---|
| 4402 | <trkpt lat='57.396183' lon='21.569557'>
|
|---|
| 4403 | <time>2007-10-06T14:04:22Z</time>
|
|---|
| 4404 | </trkpt>
|
|---|
| 4405 | <trkpt lat='57.396347' lon='21.569412'>
|
|---|
| 4406 | <time>2007-10-06T14:04:25Z</time>
|
|---|
| 4407 | </trkpt>
|
|---|
| 4408 | <trkpt lat='57.3968' lon='21.569032'>
|
|---|
| 4409 | <time>2007-10-06T14:04:36Z</time>
|
|---|
| 4410 | </trkpt>
|
|---|
| 4411 | <trkpt lat='57.396808' lon='21.568985'>
|
|---|
| 4412 | <time>2007-10-06T14:04:40Z</time>
|
|---|
| 4413 | </trkpt>
|
|---|
| 4414 | <trkpt lat='57.39679' lon='21.568717'>
|
|---|
| 4415 | <time>2007-10-06T14:04:44Z</time>
|
|---|
| 4416 | </trkpt>
|
|---|
| 4417 | <trkpt lat='57.396682' lon='21.567612'>
|
|---|
| 4418 | <time>2007-10-06T14:04:53Z</time>
|
|---|
| 4419 | </trkpt>
|
|---|
| 4420 | <trkpt lat='57.396535' lon='21.566627'>
|
|---|
| 4421 | <time>2007-10-06T14:05:03Z</time>
|
|---|
| 4422 | </trkpt>
|
|---|
| 4423 | <trkpt lat='57.39636' lon='21.56503'>
|
|---|
| 4424 | <time>2007-10-06T14:05:13Z</time>
|
|---|
| 4425 | </trkpt>
|
|---|
| 4426 | <trkpt lat='57.396188' lon='21.563412'>
|
|---|
| 4427 | <time>2007-10-06T14:05:22Z</time>
|
|---|
| 4428 | </trkpt>
|
|---|
| 4429 | <trkpt lat='57.396145' lon='21.56244'>
|
|---|
| 4430 | <time>2007-10-06T14:05:32Z</time>
|
|---|
| 4431 | </trkpt>
|
|---|
| 4432 | <trkpt lat='57.396075' lon='21.562417'>
|
|---|
| 4433 | <time>2007-10-06T14:05:36Z</time>
|
|---|
| 4434 | </trkpt>
|
|---|
| 4435 | <trkpt lat='57.395727' lon='21.562412'>
|
|---|
| 4436 | <time>2007-10-06T14:05:44Z</time>
|
|---|
| 4437 | </trkpt>
|
|---|
| 4438 | <trkpt lat='57.395702' lon='21.562393'>
|
|---|
| 4439 | <time>2007-10-06T14:05:45Z</time>
|
|---|
| 4440 | </trkpt>
|
|---|
| 4441 | <trkpt lat='57.395663' lon='21.562288'>
|
|---|
| 4442 | <time>2007-10-06T14:05:47Z</time>
|
|---|
| 4443 | </trkpt>
|
|---|
| 4444 | <trkpt lat='57.395445' lon='21.561202'>
|
|---|
| 4445 | <time>2007-10-06T14:05:57Z</time>
|
|---|
| 4446 | </trkpt>
|
|---|
| 4447 | <trkpt lat='57.39542' lon='21.561112'>
|
|---|
| 4448 | <time>2007-10-06T14:06:03Z</time>
|
|---|
| 4449 | </trkpt>
|
|---|
| 4450 | <trkpt lat='57.395425' lon='21.56112'>
|
|---|
| 4451 | <time>2007-10-06T14:06:07Z</time>
|
|---|
| 4452 | </trkpt>
|
|---|
| 4453 | <trkpt lat='57.395393' lon='21.56108'>
|
|---|
| 4454 | <time>2007-10-06T14:06:09Z</time>
|
|---|
| 4455 | </trkpt>
|
|---|
| 4456 | <trkpt lat='57.395302' lon='21.561092'>
|
|---|
| 4457 | <time>2007-10-06T14:06:11Z</time>
|
|---|
| 4458 | </trkpt>
|
|---|
| 4459 | <trkpt lat='57.39478' lon='21.561423'>
|
|---|
| 4460 | <time>2007-10-06T14:06:21Z</time>
|
|---|
| 4461 | </trkpt>
|
|---|
| 4462 | <trkpt lat='57.394693' lon='21.561672'>
|
|---|
| 4463 | <time>2007-10-06T14:06:25Z</time>
|
|---|
| 4464 | </trkpt>
|
|---|
| 4465 | <trkpt lat='57.394622' lon='21.561873'>
|
|---|
| 4466 | <time>2007-10-06T14:06:29Z</time>
|
|---|
| 4467 | </trkpt>
|
|---|
| 4468 | <trkpt lat='57.394612' lon='21.561898'>
|
|---|
| 4469 | <time>2007-10-06T14:06:33Z</time>
|
|---|
| 4470 | </trkpt>
|
|---|
| 4471 | <trkpt lat='57.394608' lon='21.56191'>
|
|---|
| 4472 | <time>2007-10-06T14:06:36Z</time>
|
|---|
| 4473 | </trkpt>
|
|---|
| 4474 | <trkpt lat='57.394383' lon='21.562693'>
|
|---|
| 4475 | <time>2007-10-06T14:06:44Z</time>
|
|---|
| 4476 | </trkpt>
|
|---|
| 4477 | <trkpt lat='57.394088' lon='21.563938'>
|
|---|
| 4478 | <time>2007-10-06T14:06:53Z</time>
|
|---|
| 4479 | </trkpt>
|
|---|
| 4480 | <trkpt lat='57.393938' lon='21.564378'>
|
|---|
| 4481 | <time>2007-10-06T14:06:59Z</time>
|
|---|
| 4482 | </trkpt>
|
|---|
| 4483 | <trkpt lat='57.393788' lon='21.564643'>
|
|---|
| 4484 | <time>2007-10-06T14:07:09Z</time>
|
|---|
| 4485 | </trkpt>
|
|---|
| 4486 | <trkpt lat='57.393802' lon='21.564678'>
|
|---|
| 4487 | <time>2007-10-06T14:07:41Z</time>
|
|---|
| 4488 | </trkpt>
|
|---|
| 4489 | <trkpt lat='57.393747' lon='21.564707'>
|
|---|
| 4490 | <time>2007-10-06T14:07:43Z</time>
|
|---|
| 4491 | </trkpt>
|
|---|
| 4492 | <trkpt lat='57.393645' lon='21.564632'>
|
|---|
| 4493 | <time>2007-10-06T14:07:45Z</time>
|
|---|
| 4494 | </trkpt>
|
|---|
| 4495 | <trkpt lat='57.393162' lon='21.564067'>
|
|---|
| 4496 | <time>2007-10-06T14:07:53Z</time>
|
|---|
| 4497 | </trkpt>
|
|---|
| 4498 | <trkpt lat='57.39314' lon='21.563992'>
|
|---|
| 4499 | <time>2007-10-06T14:07:54Z</time>
|
|---|
| 4500 | </trkpt>
|
|---|
| 4501 | <trkpt lat='57.393167' lon='21.563793'>
|
|---|
| 4502 | <time>2007-10-06T14:07:57Z</time>
|
|---|
| 4503 | </trkpt>
|
|---|
| 4504 | <trkpt lat='57.393247' lon='21.563455'>
|
|---|
| 4505 | <time>2007-10-06T14:08:01Z</time>
|
|---|
| 4506 | </trkpt>
|
|---|
| 4507 | <trkpt lat='57.393503' lon='21.562307'>
|
|---|
| 4508 | <time>2007-10-06T14:08:12Z</time>
|
|---|
| 4509 | </trkpt>
|
|---|
| 4510 | <trkpt lat='57.393567' lon='21.562363'>
|
|---|
| 4511 | <time>2007-10-06T14:08:16Z</time>
|
|---|
| 4512 | </trkpt>
|
|---|
| 4513 | <trkpt lat='57.39366' lon='21.562473'>
|
|---|
| 4514 | <time>2007-10-06T14:08:20Z</time>
|
|---|
| 4515 | </trkpt>
|
|---|
| 4516 | <trkpt lat='57.393688' lon='21.562485'>
|
|---|
| 4517 | <time>2007-10-06T14:08:21Z</time>
|
|---|
| 4518 | </trkpt>
|
|---|
| 4519 | <trkpt lat='57.39376' lon='21.562428'>
|
|---|
| 4520 | <time>2007-10-06T14:08:24Z</time>
|
|---|
| 4521 | </trkpt>
|
|---|
| 4522 | <trkpt lat='57.393832' lon='21.562387'>
|
|---|
| 4523 | <time>2007-10-06T14:08:27Z</time>
|
|---|
| 4524 | </trkpt>
|
|---|
| 4525 | <trkpt lat='57.393867' lon='21.562338'>
|
|---|
| 4526 | <time>2007-10-06T14:08:29Z</time>
|
|---|
| 4527 | </trkpt>
|
|---|
| 4528 | <trkpt lat='57.393927' lon='21.562155'>
|
|---|
| 4529 | <time>2007-10-06T14:08:33Z</time>
|
|---|
| 4530 | </trkpt>
|
|---|
| 4531 | <trkpt lat='57.393978' lon='21.562105'>
|
|---|
| 4532 | <time>2007-10-06T14:08:35Z</time>
|
|---|
| 4533 | </trkpt>
|
|---|
| 4534 | <trkpt lat='57.39404' lon='21.562042'>
|
|---|
| 4535 | <time>2007-10-06T14:08:37Z</time>
|
|---|
| 4536 | </trkpt>
|
|---|
| 4537 | <trkpt lat='57.394078' lon='21.561927'>
|
|---|
| 4538 | <time>2007-10-06T14:08:39Z</time>
|
|---|
| 4539 | </trkpt>
|
|---|
| 4540 | <trkpt lat='57.394113' lon='21.561815'>
|
|---|
| 4541 | <time>2007-10-06T14:08:43Z</time>
|
|---|
| 4542 | </trkpt>
|
|---|
| 4543 | <trkpt lat='57.394117' lon='21.561812'>
|
|---|
| 4544 | <time>2007-10-06T14:08:45Z</time>
|
|---|
| 4545 | </trkpt>
|
|---|
| 4546 | <trkpt lat='57.394118' lon='21.561763'>
|
|---|
| 4547 | <time>2007-10-06T14:08:47Z</time>
|
|---|
| 4548 | </trkpt>
|
|---|
| 4549 | <trkpt lat='57.39407' lon='21.561678'>
|
|---|
| 4550 | <time>2007-10-06T14:08:49Z</time>
|
|---|
| 4551 | </trkpt>
|
|---|
| 4552 | <trkpt lat='57.393707' lon='21.561423'>
|
|---|
| 4553 | <time>2007-10-06T14:08:57Z</time>
|
|---|
| 4554 | </trkpt>
|
|---|
| 4555 | <trkpt lat='57.393697' lon='21.561373'>
|
|---|
| 4556 | <time>2007-10-06T14:08:58Z</time>
|
|---|
| 4557 | </trkpt>
|
|---|
| 4558 | <trkpt lat='57.393718' lon='21.56121'>
|
|---|
| 4559 | <time>2007-10-06T14:09:01Z</time>
|
|---|
| 4560 | </trkpt>
|
|---|
| 4561 | <trkpt lat='57.393775' lon='21.560852'>
|
|---|
| 4562 | <time>2007-10-06T14:09:09Z</time>
|
|---|
| 4563 | </trkpt>
|
|---|
| 4564 | <trkpt lat='57.393693' lon='21.560758'>
|
|---|
| 4565 | <time>2007-10-06T14:09:12Z</time>
|
|---|
| 4566 | </trkpt>
|
|---|
| 4567 | <trkpt lat='57.393285' lon='21.560602'>
|
|---|
| 4568 | <time>2007-10-06T14:09:22Z</time>
|
|---|
| 4569 | </trkpt>
|
|---|
| 4570 | <trkpt lat='57.392598' lon='21.560242'>
|
|---|
| 4571 | <time>2007-10-06T14:09:31Z</time>
|
|---|
| 4572 | </trkpt>
|
|---|
| 4573 | <trkpt lat='57.391977' lon='21.559947'>
|
|---|
| 4574 | <time>2007-10-06T14:09:41Z</time>
|
|---|
| 4575 | </trkpt>
|
|---|
| 4576 | <trkpt lat='57.39125' lon='21.559592'>
|
|---|
| 4577 | <time>2007-10-06T14:09:51Z</time>
|
|---|
| 4578 | </trkpt>
|
|---|
| 4579 | <trkpt lat='57.391198' lon='21.559548'>
|
|---|
| 4580 | <time>2007-10-06T14:09:53Z</time>
|
|---|
| 4581 | </trkpt>
|
|---|
| 4582 | <trkpt lat='57.391183' lon='21.55953'>
|
|---|
| 4583 | <time>2007-10-06T14:09:57Z</time>
|
|---|
| 4584 | </trkpt>
|
|---|
| 4585 | <trkpt lat='57.391185' lon='21.55949'>
|
|---|
| 4586 | <time>2007-10-06T14:10:31Z</time>
|
|---|
| 4587 | </trkpt>
|
|---|
| 4588 | <trkpt lat='57.391187' lon='21.559483'>
|
|---|
| 4589 | <time>2007-10-06T14:10:35Z</time>
|
|---|
| 4590 | </trkpt>
|
|---|
| 4591 | <trkpt lat='57.391185' lon='21.559542'>
|
|---|
| 4592 | <time>2007-10-06T14:13:18Z</time>
|
|---|
| 4593 | </trkpt>
|
|---|
| 4594 | <trkpt lat='57.391153' lon='21.559542'>
|
|---|
| 4595 | <time>2007-10-06T14:13:20Z</time>
|
|---|
| 4596 | </trkpt>
|
|---|
| 4597 | <trkpt lat='57.391057' lon='21.559508'>
|
|---|
| 4598 | <time>2007-10-06T14:13:24Z</time>
|
|---|
| 4599 | </trkpt>
|
|---|
| 4600 | <trkpt lat='57.390793' lon='21.55939'>
|
|---|
| 4601 | <time>2007-10-06T14:13:33Z</time>
|
|---|
| 4602 | </trkpt>
|
|---|
| 4603 | <trkpt lat='57.39033' lon='21.559158'>
|
|---|
| 4604 | <time>2007-10-06T14:13:43Z</time>
|
|---|
| 4605 | </trkpt>
|
|---|
| 4606 | <trkpt lat='57.389257' lon='21.558542'>
|
|---|
| 4607 | <time>2007-10-06T14:13:53Z</time>
|
|---|
| 4608 | </trkpt>
|
|---|
| 4609 | <trkpt lat='57.388452' lon='21.558063'>
|
|---|
| 4610 | <time>2007-10-06T14:14:02Z</time>
|
|---|
| 4611 | </trkpt>
|
|---|
| 4612 | <trkpt lat='57.387427' lon='21.557295'>
|
|---|
| 4613 | <time>2007-10-06T14:14:14Z</time>
|
|---|
| 4614 | </trkpt>
|
|---|
| 4615 | <trkpt lat='57.386625' lon='21.55667'>
|
|---|
| 4616 | <time>2007-10-06T14:14:23Z</time>
|
|---|
| 4617 | </trkpt>
|
|---|
| 4618 | <trkpt lat='57.385962' lon='21.556075'>
|
|---|
| 4619 | <time>2007-10-06T14:14:33Z</time>
|
|---|
| 4620 | </trkpt>
|
|---|
| 4621 | <trkpt lat='57.385943' lon='21.555945'>
|
|---|
| 4622 | <time>2007-10-06T14:14:35Z</time>
|
|---|
| 4623 | </trkpt>
|
|---|
| 4624 | <trkpt lat='57.385983' lon='21.555765'>
|
|---|
| 4625 | <time>2007-10-06T14:14:37Z</time>
|
|---|
| 4626 | </trkpt>
|
|---|
| 4627 | <trkpt lat='57.386348' lon='21.55416'>
|
|---|
| 4628 | <time>2007-10-06T14:14:46Z</time>
|
|---|
| 4629 | </trkpt>
|
|---|
| 4630 | <trkpt lat='57.386758' lon='21.552302'>
|
|---|
| 4631 | <time>2007-10-06T14:14:58Z</time>
|
|---|
| 4632 | </trkpt>
|
|---|
| 4633 | <trkpt lat='57.386722' lon='21.552188'>
|
|---|
| 4634 | <time>2007-10-06T14:15:00Z</time>
|
|---|
| 4635 | </trkpt>
|
|---|
| 4636 | <trkpt lat='57.386498' lon='21.551987'>
|
|---|
| 4637 | <time>2007-10-06T14:15:04Z</time>
|
|---|
| 4638 | </trkpt>
|
|---|
| 4639 | <trkpt lat='57.385682' lon='21.551407'>
|
|---|
| 4640 | <time>2007-10-06T14:15:13Z</time>
|
|---|
| 4641 | </trkpt>
|
|---|
| 4642 | <trkpt lat='57.384983' lon='21.550868'>
|
|---|
| 4643 | <time>2007-10-06T14:15:23Z</time>
|
|---|
| 4644 | </trkpt>
|
|---|
| 4645 | <trkpt lat='57.384312' lon='21.55038'>
|
|---|
| 4646 | <time>2007-10-06T14:15:33Z</time>
|
|---|
| 4647 | </trkpt>
|
|---|
| 4648 | <trkpt lat='57.38353' lon='21.549827'>
|
|---|
| 4649 | <time>2007-10-06T14:15:45Z</time>
|
|---|
| 4650 | </trkpt>
|
|---|
| 4651 | <trkpt lat='57.382885' lon='21.54939'>
|
|---|
| 4652 | <time>2007-10-06T14:15:56Z</time>
|
|---|
| 4653 | </trkpt>
|
|---|
| 4654 | <trkpt lat='57.382687' lon='21.549298'>
|
|---|
| 4655 | <time>2007-10-06T14:16:00Z</time>
|
|---|
| 4656 | </trkpt>
|
|---|
| 4657 | <trkpt lat='57.382663' lon='21.549323'>
|
|---|
| 4658 | <time>2007-10-06T14:16:01Z</time>
|
|---|
| 4659 | </trkpt>
|
|---|
| 4660 | <trkpt lat='57.3826' lon='21.54948'>
|
|---|
| 4661 | <time>2007-10-06T14:16:04Z</time>
|
|---|
| 4662 | </trkpt>
|
|---|
| 4663 | <trkpt lat='57.382435' lon='21.550472'>
|
|---|
| 4664 | <time>2007-10-06T14:16:13Z</time>
|
|---|
| 4665 | </trkpt>
|
|---|
| 4666 | <trkpt lat='57.382363' lon='21.550972'>
|
|---|
| 4667 | <time>2007-10-06T14:16:17Z</time>
|
|---|
| 4668 | </trkpt>
|
|---|
| 4669 | <trkpt lat='57.382325' lon='21.551985'>
|
|---|
| 4670 | <time>2007-10-06T14:16:23Z</time>
|
|---|
| 4671 | </trkpt>
|
|---|
| 4672 | <trkpt lat='57.382142' lon='21.553095'>
|
|---|
| 4673 | <time>2007-10-06T14:16:29Z</time>
|
|---|
| 4674 | </trkpt>
|
|---|
| 4675 | <trkpt lat='57.381973' lon='21.553558'>
|
|---|
| 4676 | <time>2007-10-06T14:16:33Z</time>
|
|---|
| 4677 | </trkpt>
|
|---|
| 4678 | <trkpt lat='57.381908' lon='21.553662'>
|
|---|
| 4679 | <time>2007-10-06T14:16:35Z</time>
|
|---|
| 4680 | </trkpt>
|
|---|
| 4681 | <trkpt lat='57.381825' lon='21.553678'>
|
|---|
| 4682 | <time>2007-10-06T14:16:37Z</time>
|
|---|
| 4683 | </trkpt>
|
|---|
| 4684 | <trkpt lat='57.381572' lon='21.553525'>
|
|---|
| 4685 | <time>2007-10-06T14:16:41Z</time>
|
|---|
| 4686 | </trkpt>
|
|---|
| 4687 | <trkpt lat='57.380927' lon='21.553158'>
|
|---|
| 4688 | <time>2007-10-06T14:16:50Z</time>
|
|---|
| 4689 | </trkpt>
|
|---|
| 4690 | <trkpt lat='57.380838' lon='21.553245'>
|
|---|
| 4691 | <time>2007-10-06T14:16:53Z</time>
|
|---|
| 4692 | </trkpt>
|
|---|
| 4693 | <trkpt lat='57.38082' lon='21.553325'>
|
|---|
| 4694 | <time>2007-10-06T14:16:54Z</time>
|
|---|
| 4695 | </trkpt>
|
|---|
| 4696 | <trkpt lat='57.380428' lon='21.555255'>
|
|---|
| 4697 | <time>2007-10-06T14:17:06Z</time>
|
|---|
| 4698 | </trkpt>
|
|---|
| 4699 | <trkpt lat='57.37996' lon='21.557557'>
|
|---|
| 4700 | <time>2007-10-06T14:17:16Z</time>
|
|---|
| 4701 | </trkpt>
|
|---|
| 4702 | <trkpt lat='57.379723' lon='21.558667'>
|
|---|
| 4703 | <time>2007-10-06T14:17:25Z</time>
|
|---|
| 4704 | </trkpt>
|
|---|
| 4705 | <trkpt lat='57.379722' lon='21.558733'>
|
|---|
| 4706 | <time>2007-10-06T14:17:27Z</time>
|
|---|
| 4707 | </trkpt>
|
|---|
| 4708 | <trkpt lat='57.379753' lon='21.558808'>
|
|---|
| 4709 | <time>2007-10-06T14:17:29Z</time>
|
|---|
| 4710 | </trkpt>
|
|---|
| 4711 | <trkpt lat='57.379852' lon='21.55887'>
|
|---|
| 4712 | <time>2007-10-06T14:17:31Z</time>
|
|---|
| 4713 | </trkpt>
|
|---|
| 4714 | <trkpt lat='57.380648' lon='21.559215'>
|
|---|
| 4715 | <time>2007-10-06T14:17:41Z</time>
|
|---|
| 4716 | </trkpt>
|
|---|
| 4717 | <trkpt lat='57.381165' lon='21.559485'>
|
|---|
| 4718 | <time>2007-10-06T14:17:49Z</time>
|
|---|
| 4719 | </trkpt>
|
|---|
| 4720 | <trkpt lat='57.381238' lon='21.559665'>
|
|---|
| 4721 | <time>2007-10-06T14:17:53Z</time>
|
|---|
| 4722 | </trkpt>
|
|---|
| 4723 | <trkpt lat='57.381197' lon='21.559943'>
|
|---|
| 4724 | <time>2007-10-06T14:17:56Z</time>
|
|---|
| 4725 | </trkpt>
|
|---|
| 4726 | <trkpt lat='57.381062' lon='21.56086'>
|
|---|
| 4727 | <time>2007-10-06T14:18:05Z</time>
|
|---|
| 4728 | </trkpt>
|
|---|
| 4729 | <trkpt lat='57.380952' lon='21.562025'>
|
|---|
| 4730 | <time>2007-10-06T14:18:15Z</time>
|
|---|
| 4731 | </trkpt>
|
|---|
| 4732 | <trkpt lat='57.380867' lon='21.563987'>
|
|---|
| 4733 | <time>2007-10-06T14:18:25Z</time>
|
|---|
| 4734 | </trkpt>
|
|---|
| 4735 | <trkpt lat='57.380785' lon='21.565873'>
|
|---|
| 4736 | <time>2007-10-06T14:18:34Z</time>
|
|---|
| 4737 | </trkpt>
|
|---|
| 4738 | <trkpt lat='57.380762' lon='21.566313'>
|
|---|
| 4739 | <time>2007-10-06T14:18:41Z</time>
|
|---|
| 4740 | </trkpt>
|
|---|
| 4741 | <trkpt lat='57.380762' lon='21.56631'>
|
|---|
| 4742 | <time>2007-10-06T14:18:42Z</time>
|
|---|
| 4743 | </trkpt>
|
|---|
| 4744 | <trkpt lat='57.38076' lon='21.566305'>
|
|---|
| 4745 | <time>2007-10-06T14:18:45Z</time>
|
|---|
| 4746 | </trkpt>
|
|---|
| 4747 | <trkpt lat='57.380768' lon='21.56631'>
|
|---|
| 4748 | <time>2007-10-06T14:19:00Z</time>
|
|---|
| 4749 | </trkpt>
|
|---|
| 4750 | <trkpt lat='57.380825' lon='21.566503'>
|
|---|
| 4751 | <time>2007-10-06T14:19:04Z</time>
|
|---|
| 4752 | </trkpt>
|
|---|
| 4753 | <trkpt lat='57.380878' lon='21.566528'>
|
|---|
| 4754 | <time>2007-10-06T14:19:05Z</time>
|
|---|
| 4755 | </trkpt>
|
|---|
| 4756 | <trkpt lat='57.381187' lon='21.566552'>
|
|---|
| 4757 | <time>2007-10-06T14:19:11Z</time>
|
|---|
| 4758 | </trkpt>
|
|---|
| 4759 | <trkpt lat='57.381752' lon='21.566542'>
|
|---|
| 4760 | <time>2007-10-06T14:19:19Z</time>
|
|---|
| 4761 | </trkpt>
|
|---|
| 4762 | <trkpt lat='57.381852' lon='21.56664'>
|
|---|
| 4763 | <time>2007-10-06T14:19:21Z</time>
|
|---|
| 4764 | </trkpt>
|
|---|
| 4765 | <trkpt lat='57.381897' lon='21.566838'>
|
|---|
| 4766 | <time>2007-10-06T14:19:23Z</time>
|
|---|
| 4767 | </trkpt>
|
|---|
| 4768 | <trkpt lat='57.381898' lon='21.56708'>
|
|---|
| 4769 | <time>2007-10-06T14:19:25Z</time>
|
|---|
| 4770 | </trkpt>
|
|---|
| 4771 | <trkpt lat='57.381863' lon='21.568358'>
|
|---|
| 4772 | <time>2007-10-06T14:19:34Z</time>
|
|---|
| 4773 | </trkpt>
|
|---|
| 4774 | <trkpt lat='57.381822' lon='21.568718'>
|
|---|
| 4775 | <time>2007-10-06T14:19:37Z</time>
|
|---|
| 4776 | </trkpt>
|
|---|
| 4777 | <trkpt lat='57.38167' lon='21.569002'>
|
|---|
| 4778 | <time>2007-10-06T14:19:40Z</time>
|
|---|
| 4779 | </trkpt>
|
|---|
| 4780 | <trkpt lat='57.381193' lon='21.569818'>
|
|---|
| 4781 | <time>2007-10-06T14:19:49Z</time>
|
|---|
| 4782 | </trkpt>
|
|---|
| 4783 | <trkpt lat='57.380883' lon='21.570225'>
|
|---|
| 4784 | <time>2007-10-06T14:19:53Z</time>
|
|---|
| 4785 | </trkpt>
|
|---|
| 4786 | <trkpt lat='57.379895' lon='21.571033'>
|
|---|
| 4787 | <time>2007-10-06T14:20:03Z</time>
|
|---|
| 4788 | </trkpt>
|
|---|
| 4789 | <trkpt lat='57.379635' lon='21.571377'>
|
|---|
| 4790 | <time>2007-10-06T14:20:06Z</time>
|
|---|
| 4791 | </trkpt>
|
|---|
| 4792 | <trkpt lat='57.37876' lon='21.572783'>
|
|---|
| 4793 | <time>2007-10-06T14:20:17Z</time>
|
|---|
| 4794 | </trkpt>
|
|---|
| 4795 | <trkpt lat='57.378507' lon='21.573095'>
|
|---|
| 4796 | <time>2007-10-06T14:20:20Z</time>
|
|---|
| 4797 | </trkpt>
|
|---|
| 4798 | <trkpt lat='57.378125' lon='21.573325'>
|
|---|
| 4799 | <time>2007-10-06T14:20:24Z</time>
|
|---|
| 4800 | </trkpt>
|
|---|
| 4801 | <trkpt lat='57.3772' lon='21.573488'>
|
|---|
| 4802 | <time>2007-10-06T14:20:33Z</time>
|
|---|
| 4803 | </trkpt>
|
|---|
| 4804 | <trkpt lat='57.376472' lon='21.573597'>
|
|---|
| 4805 | <time>2007-10-06T14:20:41Z</time>
|
|---|
| 4806 | </trkpt>
|
|---|
| 4807 | <trkpt lat='57.376358' lon='21.573822'>
|
|---|
| 4808 | <time>2007-10-06T14:20:43Z</time>
|
|---|
| 4809 | </trkpt>
|
|---|
| 4810 | <trkpt lat='57.376277' lon='21.574138'>
|
|---|
| 4811 | <time>2007-10-06T14:20:45Z</time>
|
|---|
| 4812 | </trkpt>
|
|---|
| 4813 | <trkpt lat='57.376302' lon='21.574972'>
|
|---|
| 4814 | <time>2007-10-06T14:20:49Z</time>
|
|---|
| 4815 | </trkpt>
|
|---|
| 4816 | <trkpt lat='57.376577' lon='21.577808'>
|
|---|
| 4817 | <time>2007-10-06T14:21:00Z</time>
|
|---|
| 4818 | </trkpt>
|
|---|
| 4819 | <trkpt lat='57.376745' lon='21.579793'>
|
|---|
| 4820 | <time>2007-10-06T14:21:09Z</time>
|
|---|
| 4821 | </trkpt>
|
|---|
| 4822 | <trkpt lat='57.376742' lon='21.580103'>
|
|---|
| 4823 | <time>2007-10-06T14:21:11Z</time>
|
|---|
| 4824 | </trkpt>
|
|---|
| 4825 | <trkpt lat='57.376502' lon='21.581712'>
|
|---|
| 4826 | <time>2007-10-06T14:21:21Z</time>
|
|---|
| 4827 | </trkpt>
|
|---|
| 4828 | <trkpt lat='57.376332' lon='21.58276'>
|
|---|
| 4829 | <time>2007-10-06T14:21:30Z</time>
|
|---|
| 4830 | </trkpt>
|
|---|
| 4831 | <trkpt lat='57.376017' lon='21.584035'>
|
|---|
| 4832 | <time>2007-10-06T14:21:37Z</time>
|
|---|
| 4833 | </trkpt>
|
|---|
| 4834 | <trkpt lat='57.375275' lon='21.585682'>
|
|---|
| 4835 | <time>2007-10-06T14:21:45Z</time>
|
|---|
| 4836 | </trkpt>
|
|---|
| 4837 | <trkpt lat='57.374567' lon='21.587298'>
|
|---|
| 4838 | <time>2007-10-06T14:21:55Z</time>
|
|---|
| 4839 | </trkpt>
|
|---|
| 4840 | <trkpt lat='57.374123' lon='21.588205'>
|
|---|
| 4841 | <time>2007-10-06T14:22:05Z</time>
|
|---|
| 4842 | </trkpt>
|
|---|
| 4843 | <trkpt lat='57.374068' lon='21.588192'>
|
|---|
| 4844 | <time>2007-10-06T14:22:06Z</time>
|
|---|
| 4845 | </trkpt>
|
|---|
| 4846 | <trkpt lat='57.37315' lon='21.587457'>
|
|---|
| 4847 | <time>2007-10-06T14:22:17Z</time>
|
|---|
| 4848 | </trkpt>
|
|---|
| 4849 | <trkpt lat='57.372178' lon='21.586678'>
|
|---|
| 4850 | <time>2007-10-06T14:22:27Z</time>
|
|---|
| 4851 | </trkpt>
|
|---|
| 4852 | <trkpt lat='57.371238' lon='21.58592'>
|
|---|
| 4853 | <time>2007-10-06T14:22:37Z</time>
|
|---|
| 4854 | </trkpt>
|
|---|
| 4855 | <trkpt lat='57.371128' lon='21.58587'>
|
|---|
| 4856 | <time>2007-10-06T14:22:41Z</time>
|
|---|
| 4857 | </trkpt>
|
|---|
| 4858 | <trkpt lat='57.371073' lon='21.586003'>
|
|---|
| 4859 | <time>2007-10-06T14:22:44Z</time>
|
|---|
| 4860 | </trkpt>
|
|---|
| 4861 | <trkpt lat='57.371018' lon='21.58641'>
|
|---|
| 4862 | <time>2007-10-06T14:22:48Z</time>
|
|---|
| 4863 | </trkpt>
|
|---|
| 4864 | <trkpt lat='57.371133' lon='21.586813'>
|
|---|
| 4865 | <time>2007-10-06T14:22:52Z</time>
|
|---|
| 4866 | </trkpt>
|
|---|
| 4867 | <trkpt lat='57.371653' lon='21.588032'>
|
|---|
| 4868 | <time>2007-10-06T14:23:01Z</time>
|
|---|
| 4869 | </trkpt>
|
|---|
| 4870 | <trkpt lat='57.372223' lon='21.589405'>
|
|---|
| 4871 | <time>2007-10-06T14:23:10Z</time>
|
|---|
| 4872 | </trkpt>
|
|---|
| 4873 | <trkpt lat='57.37292' lon='21.591085'>
|
|---|
| 4874 | <time>2007-10-06T14:23:20Z</time>
|
|---|
| 4875 | </trkpt>
|
|---|
| 4876 | <trkpt lat='57.373317' lon='21.591995'>
|
|---|
| 4877 | <time>2007-10-06T14:23:29Z</time>
|
|---|
| 4878 | </trkpt>
|
|---|
| 4879 | <trkpt lat='57.373335' lon='21.592063'>
|
|---|
| 4880 | <time>2007-10-06T14:23:32Z</time>
|
|---|
| 4881 | </trkpt>
|
|---|
| 4882 | <trkpt lat='57.373332' lon='21.592078'>
|
|---|
| 4883 | <time>2007-10-06T14:23:33Z</time>
|
|---|
| 4884 | </trkpt>
|
|---|
| 4885 | <trkpt lat='57.373307' lon='21.592138'>
|
|---|
| 4886 | <time>2007-10-06T14:23:35Z</time>
|
|---|
| 4887 | </trkpt>
|
|---|
| 4888 | <trkpt lat='57.373215' lon='21.592165'>
|
|---|
| 4889 | <time>2007-10-06T14:23:37Z</time>
|
|---|
| 4890 | </trkpt>
|
|---|
| 4891 | <trkpt lat='57.372835' lon='21.592235'>
|
|---|
| 4892 | <time>2007-10-06T14:23:43Z</time>
|
|---|
| 4893 | </trkpt>
|
|---|
| 4894 | <trkpt lat='57.372787' lon='21.592295'>
|
|---|
| 4895 | <time>2007-10-06T14:23:45Z</time>
|
|---|
| 4896 | </trkpt>
|
|---|
| 4897 | <trkpt lat='57.372763' lon='21.592335'>
|
|---|
| 4898 | <time>2007-10-06T14:23:49Z</time>
|
|---|
| 4899 | </trkpt>
|
|---|
| 4900 | <trkpt lat='57.372765' lon='21.592335'>
|
|---|
| 4901 | <time>2007-10-06T14:23:50Z</time>
|
|---|
| 4902 | </trkpt>
|
|---|
| 4903 | <trkpt lat='57.372763' lon='21.592343'>
|
|---|
| 4904 | <time>2007-10-06T14:23:58Z</time>
|
|---|
| 4905 | </trkpt>
|
|---|
| 4906 | <trkpt lat='57.372728' lon='21.592285'>
|
|---|
| 4907 | <time>2007-10-06T14:24:01Z</time>
|
|---|
| 4908 | </trkpt>
|
|---|
| 4909 | <trkpt lat='57.372777' lon='21.592228'>
|
|---|
| 4910 | <time>2007-10-06T14:24:04Z</time>
|
|---|
| 4911 | </trkpt>
|
|---|
| 4912 | <trkpt lat='57.373312' lon='21.592137'>
|
|---|
| 4913 | <time>2007-10-06T14:24:13Z</time>
|
|---|
| 4914 | </trkpt>
|
|---|
| 4915 | <trkpt lat='57.373457' lon='21.592088'>
|
|---|
| 4916 | <time>2007-10-06T14:24:15Z</time>
|
|---|
| 4917 | </trkpt>
|
|---|
| 4918 | <trkpt lat='57.373555' lon='21.591975'>
|
|---|
| 4919 | <time>2007-10-06T14:24:17Z</time>
|
|---|
| 4920 | </trkpt>
|
|---|
| 4921 | <trkpt lat='57.373608' lon='21.591803'>
|
|---|
| 4922 | <time>2007-10-06T14:24:19Z</time>
|
|---|
| 4923 | </trkpt>
|
|---|
| 4924 | <trkpt lat='57.373615' lon='21.59157'>
|
|---|
| 4925 | <time>2007-10-06T14:24:21Z</time>
|
|---|
| 4926 | </trkpt>
|
|---|
| 4927 | <trkpt lat='57.373673' lon='21.590305'>
|
|---|
| 4928 | <time>2007-10-06T14:24:29Z</time>
|
|---|
| 4929 | </trkpt>
|
|---|
| 4930 | <trkpt lat='57.374053' lon='21.588645'>
|
|---|
| 4931 | <time>2007-10-06T14:24:40Z</time>
|
|---|
| 4932 | </trkpt>
|
|---|
| 4933 | <trkpt lat='57.374145' lon='21.588287'>
|
|---|
| 4934 | <time>2007-10-06T14:24:44Z</time>
|
|---|
| 4935 | </trkpt>
|
|---|
| 4936 | <trkpt lat='57.37419' lon='21.58817'>
|
|---|
| 4937 | <time>2007-10-06T14:24:48Z</time>
|
|---|
| 4938 | </trkpt>
|
|---|
| 4939 | <trkpt lat='57.374217' lon='21.588123'>
|
|---|
| 4940 | <time>2007-10-06T14:24:51Z</time>
|
|---|
| 4941 | </trkpt>
|
|---|
| 4942 | <trkpt lat='57.374257' lon='21.588132'>
|
|---|
| 4943 | <time>2007-10-06T14:24:53Z</time>
|
|---|
| 4944 | </trkpt>
|
|---|
| 4945 | <trkpt lat='57.374307' lon='21.588238'>
|
|---|
| 4946 | <time>2007-10-06T14:24:55Z</time>
|
|---|
| 4947 | </trkpt>
|
|---|
| 4948 | <trkpt lat='57.374395' lon='21.588382'>
|
|---|
| 4949 | <time>2007-10-06T14:24:57Z</time>
|
|---|
| 4950 | </trkpt>
|
|---|
| 4951 | <trkpt lat='57.375052' lon='21.58917'>
|
|---|
| 4952 | <time>2007-10-06T14:25:06Z</time>
|
|---|
| 4953 | </trkpt>
|
|---|
| 4954 | <trkpt lat='57.375973' lon='21.59029'>
|
|---|
| 4955 | <time>2007-10-06T14:25:18Z</time>
|
|---|
| 4956 | </trkpt>
|
|---|
| 4957 | <trkpt lat='57.376363' lon='21.590802'>
|
|---|
| 4958 | <time>2007-10-06T14:25:25Z</time>
|
|---|
| 4959 | </trkpt>
|
|---|
| 4960 | <trkpt lat='57.37643' lon='21.590967'>
|
|---|
| 4961 | <time>2007-10-06T14:25:27Z</time>
|
|---|
| 4962 | </trkpt>
|
|---|
| 4963 | <trkpt lat='57.37664' lon='21.591903'>
|
|---|
| 4964 | <time>2007-10-06T14:25:33Z</time>
|
|---|
| 4965 | </trkpt>
|
|---|
| 4966 | <trkpt lat='57.376982' lon='21.593628'>
|
|---|
| 4967 | <time>2007-10-06T14:25:42Z</time>
|
|---|
| 4968 | </trkpt>
|
|---|
| 4969 | <trkpt lat='57.377045' lon='21.59419'>
|
|---|
| 4970 | <time>2007-10-06T14:25:45Z</time>
|
|---|
| 4971 | </trkpt>
|
|---|
| 4972 | <trkpt lat='57.377153' lon='21.596315'>
|
|---|
| 4973 | <time>2007-10-06T14:25:56Z</time>
|
|---|
| 4974 | </trkpt>
|
|---|
| 4975 | <trkpt lat='57.377238' lon='21.59808'>
|
|---|
| 4976 | <time>2007-10-06T14:26:05Z</time>
|
|---|
| 4977 | </trkpt>
|
|---|
| 4978 | <trkpt lat='57.377298' lon='21.599382'>
|
|---|
| 4979 | <time>2007-10-06T14:26:14Z</time>
|
|---|
| 4980 | </trkpt>
|
|---|
| 4981 | <trkpt lat='57.377263' lon='21.59998'>
|
|---|
| 4982 | <time>2007-10-06T14:26:21Z</time>
|
|---|
| 4983 | </trkpt>
|
|---|
| 4984 | <trkpt lat='57.377255' lon='21.600033'>
|
|---|
| 4985 | <time>2007-10-06T14:26:22Z</time>
|
|---|
| 4986 | </trkpt>
|
|---|
| 4987 | <trkpt lat='57.377258' lon='21.600138'>
|
|---|
| 4988 | <time>2007-10-06T14:26:25Z</time>
|
|---|
| 4989 | </trkpt>
|
|---|
| 4990 | <trkpt lat='57.37726' lon='21.600137'>
|
|---|
| 4991 | <time>2007-10-06T14:26:28Z</time>
|
|---|
| 4992 | </trkpt>
|
|---|
| 4993 | <trkpt lat='57.377258' lon='21.600182'>
|
|---|
| 4994 | <time>2007-10-06T14:26:32Z</time>
|
|---|
| 4995 | </trkpt>
|
|---|
| 4996 | <trkpt lat='57.377147' lon='21.600245'>
|
|---|
| 4997 | <time>2007-10-06T14:26:36Z</time>
|
|---|
| 4998 | </trkpt>
|
|---|
| 4999 | <trkpt lat='57.377125' lon='21.600205'>
|
|---|
| 5000 | <time>2007-10-06T14:26:37Z</time>
|
|---|
| 5001 | </trkpt>
|
|---|
| 5002 | <trkpt lat='57.377123' lon='21.600097'>
|
|---|
| 5003 | <time>2007-10-06T14:26:39Z</time>
|
|---|
| 5004 | </trkpt>
|
|---|
| 5005 | <trkpt lat='57.377177' lon='21.599995'>
|
|---|
| 5006 | <time>2007-10-06T14:26:41Z</time>
|
|---|
| 5007 | </trkpt>
|
|---|
| 5008 | <trkpt lat='57.377248' lon='21.599848'>
|
|---|
| 5009 | <time>2007-10-06T14:26:43Z</time>
|
|---|
| 5010 | </trkpt>
|
|---|
| 5011 | <trkpt lat='57.377298' lon='21.599628'>
|
|---|
| 5012 | <time>2007-10-06T14:26:45Z</time>
|
|---|
| 5013 | </trkpt>
|
|---|
| 5014 | <trkpt lat='57.377303' lon='21.599355'>
|
|---|
| 5015 | <time>2007-10-06T14:26:47Z</time>
|
|---|
| 5016 | </trkpt>
|
|---|
| 5017 | <trkpt lat='57.377205' lon='21.597378'>
|
|---|
| 5018 | <time>2007-10-06T14:26:57Z</time>
|
|---|
| 5019 | </trkpt>
|
|---|
| 5020 | <trkpt lat='57.377065' lon='21.594767'>
|
|---|
| 5021 | <time>2007-10-06T14:27:08Z</time>
|
|---|
| 5022 | </trkpt>
|
|---|
| 5023 | <trkpt lat='57.376962' lon='21.593653'>
|
|---|
| 5024 | <time>2007-10-06T14:27:13Z</time>
|
|---|
| 5025 | </trkpt>
|
|---|
| 5026 | <trkpt lat='57.376572' lon='21.591518'>
|
|---|
| 5027 | <time>2007-10-06T14:27:23Z</time>
|
|---|
| 5028 | </trkpt>
|
|---|
| 5029 | <trkpt lat='57.3764' lon='21.590872'>
|
|---|
| 5030 | <time>2007-10-06T14:27:27Z</time>
|
|---|
| 5031 | </trkpt>
|
|---|
| 5032 | <trkpt lat='57.376267' lon='21.590612'>
|
|---|
| 5033 | <time>2007-10-06T14:27:29Z</time>
|
|---|
| 5034 | </trkpt>
|
|---|
| 5035 | <trkpt lat='57.375857' lon='21.59003'>
|
|---|
| 5036 | <time>2007-10-06T14:27:37Z</time>
|
|---|
| 5037 | </trkpt>
|
|---|
| 5038 | <trkpt lat='57.375862' lon='21.589963'>
|
|---|
| 5039 | <time>2007-10-06T14:27:38Z</time>
|
|---|
| 5040 | </trkpt>
|
|---|
| 5041 | <trkpt lat='57.376202' lon='21.58849'>
|
|---|
| 5042 | <time>2007-10-06T14:27:49Z</time>
|
|---|
| 5043 | </trkpt>
|
|---|
| 5044 | <trkpt lat='57.376293' lon='21.588162'>
|
|---|
| 5045 | <time>2007-10-06T14:27:52Z</time>
|
|---|
| 5046 | </trkpt>
|
|---|
| 5047 | <trkpt lat='57.376335' lon='21.58808'>
|
|---|
| 5048 | <time>2007-10-06T14:27:53Z</time>
|
|---|
| 5049 | </trkpt>
|
|---|
| 5050 | <trkpt lat='57.37649' lon='21.587828'>
|
|---|
| 5051 | <time>2007-10-06T14:27:59Z</time>
|
|---|
| 5052 | </trkpt>
|
|---|
| 5053 | <trkpt lat='57.376462' lon='21.587752'>
|
|---|
| 5054 | <time>2007-10-06T14:28:01Z</time>
|
|---|
| 5055 | </trkpt>
|
|---|
| 5056 | <trkpt lat='57.375987' lon='21.587042'>
|
|---|
| 5057 | <time>2007-10-06T14:28:10Z</time>
|
|---|
| 5058 | </trkpt>
|
|---|
| 5059 | <trkpt lat='57.375907' lon='21.586887'>
|
|---|
| 5060 | <time>2007-10-06T14:28:13Z</time>
|
|---|
| 5061 | </trkpt>
|
|---|
| 5062 | <trkpt lat='57.375915' lon='21.586767'>
|
|---|
| 5063 | <time>2007-10-06T14:28:16Z</time>
|
|---|
| 5064 | </trkpt>
|
|---|
| 5065 | <trkpt lat='57.376285' lon='21.585907'>
|
|---|
| 5066 | <time>2007-10-06T14:28:25Z</time>
|
|---|
| 5067 | </trkpt>
|
|---|
| 5068 | <trkpt lat='57.376907' lon='21.584448'>
|
|---|
| 5069 | <time>2007-10-06T14:28:35Z</time>
|
|---|
| 5070 | </trkpt>
|
|---|
| 5071 | <trkpt lat='57.377045' lon='21.584025'>
|
|---|
| 5072 | <time>2007-10-06T14:28:41Z</time>
|
|---|
| 5073 | </trkpt>
|
|---|
| 5074 | <trkpt lat='57.377025' lon='21.58397'>
|
|---|
| 5075 | <time>2007-10-06T14:28:42Z</time>
|
|---|
| 5076 | </trkpt>
|
|---|
| 5077 | <trkpt lat='57.376882' lon='21.583828'>
|
|---|
| 5078 | <time>2007-10-06T14:28:45Z</time>
|
|---|
| 5079 | </trkpt>
|
|---|
| 5080 | <trkpt lat='57.376318' lon='21.583383'>
|
|---|
| 5081 | <time>2007-10-06T14:28:54Z</time>
|
|---|
| 5082 | </trkpt>
|
|---|
| 5083 | <trkpt lat='57.376293' lon='21.583303'>
|
|---|
| 5084 | <time>2007-10-06T14:28:56Z</time>
|
|---|
| 5085 | </trkpt>
|
|---|
| 5086 | <trkpt lat='57.37629' lon='21.58323'>
|
|---|
| 5087 | <time>2007-10-06T14:28:57Z</time>
|
|---|
| 5088 | </trkpt>
|
|---|
| 5089 | <trkpt lat='57.376318' lon='21.583015'>
|
|---|
| 5090 | <time>2007-10-06T14:28:59Z</time>
|
|---|
| 5091 | </trkpt>
|
|---|
| 5092 | <trkpt lat='57.376455' lon='21.582085'>
|
|---|
| 5093 | <time>2007-10-06T14:29:09Z</time>
|
|---|
| 5094 | </trkpt>
|
|---|
| 5095 | <trkpt lat='57.376532' lon='21.581687'>
|
|---|
| 5096 | <time>2007-10-06T14:29:13Z</time>
|
|---|
| 5097 | </trkpt>
|
|---|
| 5098 | <trkpt lat='57.376577' lon='21.581613'>
|
|---|
| 5099 | <time>2007-10-06T14:29:14Z</time>
|
|---|
| 5100 | </trkpt>
|
|---|
| 5101 | <trkpt lat='57.37677' lon='21.581512'>
|
|---|
| 5102 | <time>2007-10-06T14:29:17Z</time>
|
|---|
| 5103 | </trkpt>
|
|---|
| 5104 | <trkpt lat='57.377635' lon='21.581082'>
|
|---|
| 5105 | <time>2007-10-06T14:29:26Z</time>
|
|---|
| 5106 | </trkpt>
|
|---|
| 5107 | <trkpt lat='57.378622' lon='21.580552'>
|
|---|
| 5108 | <time>2007-10-06T14:29:35Z</time>
|
|---|
| 5109 | </trkpt>
|
|---|
| 5110 | <trkpt lat='57.379675' lon='21.57999'>
|
|---|
| 5111 | <time>2007-10-06T14:29:45Z</time>
|
|---|
| 5112 | </trkpt>
|
|---|
| 5113 | <trkpt lat='57.380375' lon='21.579612'>
|
|---|
| 5114 | <time>2007-10-06T14:29:54Z</time>
|
|---|
| 5115 | </trkpt>
|
|---|
| 5116 | <trkpt lat='57.381147' lon='21.579197'>
|
|---|
| 5117 | <time>2007-10-06T14:30:05Z</time>
|
|---|
| 5118 | </trkpt>
|
|---|
| 5119 | <trkpt lat='57.381287' lon='21.579112'>
|
|---|
| 5120 | <time>2007-10-06T14:30:09Z</time>
|
|---|
| 5121 | </trkpt>
|
|---|
| 5122 | <trkpt lat='57.381338' lon='21.579152'>
|
|---|
| 5123 | <time>2007-10-06T14:30:11Z</time>
|
|---|
| 5124 | </trkpt>
|
|---|
| 5125 | <trkpt lat='57.38145' lon='21.579445'>
|
|---|
| 5126 | <time>2007-10-06T14:30:15Z</time>
|
|---|
| 5127 | </trkpt>
|
|---|
| 5128 | <trkpt lat='57.381522' lon='21.579602'>
|
|---|
| 5129 | <time>2007-10-06T14:30:17Z</time>
|
|---|
| 5130 | </trkpt>
|
|---|
| 5131 | <trkpt lat='57.381603' lon='21.579663'>
|
|---|
| 5132 | <time>2007-10-06T14:30:19Z</time>
|
|---|
| 5133 | </trkpt>
|
|---|
| 5134 | <trkpt lat='57.38166' lon='21.579635'>
|
|---|
| 5135 | <time>2007-10-06T14:30:21Z</time>
|
|---|
| 5136 | </trkpt>
|
|---|
| 5137 | <trkpt lat='57.381678' lon='21.579593'>
|
|---|
| 5138 | <time>2007-10-06T14:30:22Z</time>
|
|---|
| 5139 | </trkpt>
|
|---|
| 5140 | <trkpt lat='57.381705' lon='21.579312'>
|
|---|
| 5141 | <time>2007-10-06T14:30:25Z</time>
|
|---|
| 5142 | </trkpt>
|
|---|
| 5143 | <trkpt lat='57.381798' lon='21.577838'>
|
|---|
| 5144 | <time>2007-10-06T14:30:34Z</time>
|
|---|
| 5145 | </trkpt>
|
|---|
| 5146 | <trkpt lat='57.381943' lon='21.57718'>
|
|---|
| 5147 | <time>2007-10-06T14:30:40Z</time>
|
|---|
| 5148 | </trkpt>
|
|---|
| 5149 | <trkpt lat='57.382007' lon='21.57714'>
|
|---|
| 5150 | <time>2007-10-06T14:30:41Z</time>
|
|---|
| 5151 | </trkpt>
|
|---|
| 5152 | <trkpt lat='57.383112' lon='21.576708'>
|
|---|
| 5153 | <time>2007-10-06T14:30:51Z</time>
|
|---|
| 5154 | </trkpt>
|
|---|
| 5155 | <trkpt lat='57.384027' lon='21.576297'>
|
|---|
| 5156 | <time>2007-10-06T14:31:01Z</time>
|
|---|
| 5157 | </trkpt>
|
|---|
| 5158 | <trkpt lat='57.384955' lon='21.575852'>
|
|---|
| 5159 | <time>2007-10-06T14:31:10Z</time>
|
|---|
| 5160 | </trkpt>
|
|---|
| 5161 | <trkpt lat='57.385053' lon='21.57576'>
|
|---|
| 5162 | <time>2007-10-06T14:31:12Z</time>
|
|---|
| 5163 | </trkpt>
|
|---|
| 5164 | <trkpt lat='57.385082' lon='21.575693'>
|
|---|
| 5165 | <time>2007-10-06T14:31:13Z</time>
|
|---|
| 5166 | </trkpt>
|
|---|
| 5167 | <trkpt lat='57.385085' lon='21.575487'>
|
|---|
| 5168 | <time>2007-10-06T14:31:15Z</time>
|
|---|
| 5169 | </trkpt>
|
|---|
| 5170 | <trkpt lat='57.385002' lon='21.57364'>
|
|---|
| 5171 | <time>2007-10-06T14:31:25Z</time>
|
|---|
| 5172 | </trkpt>
|
|---|
| 5173 | <trkpt lat='57.385027' lon='21.573333'>
|
|---|
| 5174 | <time>2007-10-06T14:31:27Z</time>
|
|---|
| 5175 | </trkpt>
|
|---|
| 5176 | <trkpt lat='57.385117' lon='21.573012'>
|
|---|
| 5177 | <time>2007-10-06T14:31:29Z</time>
|
|---|
| 5178 | </trkpt>
|
|---|
| 5179 | <trkpt lat='57.385705' lon='21.571267'>
|
|---|
| 5180 | <time>2007-10-06T14:31:38Z</time>
|
|---|
| 5181 | </trkpt>
|
|---|
| 5182 | <trkpt lat='57.386175' lon='21.569743'>
|
|---|
| 5183 | <time>2007-10-06T14:31:48Z</time>
|
|---|
| 5184 | </trkpt>
|
|---|
| 5185 | <trkpt lat='57.386427' lon='21.568648'>
|
|---|
| 5186 | <time>2007-10-06T14:31:57Z</time>
|
|---|
| 5187 | </trkpt>
|
|---|
| 5188 | <trkpt lat='57.38658' lon='21.567557'>
|
|---|
| 5189 | <time>2007-10-06T14:32:06Z</time>
|
|---|
| 5190 | </trkpt>
|
|---|
| 5191 | <trkpt lat='57.386558' lon='21.567057'>
|
|---|
| 5192 | <time>2007-10-06T14:32:09Z</time>
|
|---|
| 5193 | </trkpt>
|
|---|
| 5194 | <trkpt lat='57.3864' lon='21.565992'>
|
|---|
| 5195 | <time>2007-10-06T14:32:20Z</time>
|
|---|
| 5196 | </trkpt>
|
|---|
| 5197 | <trkpt lat='57.3864' lon='21.566002'>
|
|---|
| 5198 | <time>2007-10-06T14:32:24Z</time>
|
|---|
| 5199 | </trkpt>
|
|---|
| 5200 | <trkpt lat='57.386393' lon='21.56601'>
|
|---|
| 5201 | <time>2007-10-06T14:32:34Z</time>
|
|---|
| 5202 | </trkpt>
|
|---|
| 5203 | <trkpt lat='57.38635' lon='21.565937'>
|
|---|
| 5204 | <time>2007-10-06T14:32:36Z</time>
|
|---|
| 5205 | </trkpt>
|
|---|
| 5206 | <trkpt lat='57.3863' lon='21.565915'>
|
|---|
| 5207 | <time>2007-10-06T14:32:37Z</time>
|
|---|
| 5208 | </trkpt>
|
|---|
| 5209 | <trkpt lat='57.386068' lon='21.56597'>
|
|---|
| 5210 | <time>2007-10-06T14:32:40Z</time>
|
|---|
| 5211 | </trkpt>
|
|---|
| 5212 | <trkpt lat='57.38504' lon='21.566222'>
|
|---|
| 5213 | <time>2007-10-06T14:32:49Z</time>
|
|---|
| 5214 | </trkpt>
|
|---|
| 5215 | <trkpt lat='57.384387' lon='21.566217'>
|
|---|
| 5216 | <time>2007-10-06T14:32:57Z</time>
|
|---|
| 5217 | </trkpt>
|
|---|
| 5218 | <trkpt lat='57.384362' lon='21.566168'>
|
|---|
| 5219 | <time>2007-10-06T14:32:58Z</time>
|
|---|
| 5220 | </trkpt>
|
|---|
| 5221 | <trkpt lat='57.384358' lon='21.565877'>
|
|---|
| 5222 | <time>2007-10-06T14:33:01Z</time>
|
|---|
| 5223 | </trkpt>
|
|---|
| 5224 | <trkpt lat='57.384428' lon='21.564167'>
|
|---|
| 5225 | <time>2007-10-06T14:33:10Z</time>
|
|---|
| 5226 | </trkpt>
|
|---|
| 5227 | <trkpt lat='57.384535' lon='21.562352'>
|
|---|
| 5228 | <time>2007-10-06T14:33:19Z</time>
|
|---|
| 5229 | </trkpt>
|
|---|
| 5230 | <trkpt lat='57.384738' lon='21.561132'>
|
|---|
| 5231 | <time>2007-10-06T14:33:29Z</time>
|
|---|
| 5232 | </trkpt>
|
|---|
| 5233 | <trkpt lat='57.384735' lon='21.561112'>
|
|---|
| 5234 | <time>2007-10-06T14:33:33Z</time>
|
|---|
| 5235 | </trkpt>
|
|---|
| 5236 | <trkpt lat='57.384733' lon='21.561107'>
|
|---|
| 5237 | <time>2007-10-06T14:33:34Z</time>
|
|---|
| 5238 | </trkpt>
|
|---|
| 5239 | <trkpt lat='57.384748' lon='21.561037'>
|
|---|
| 5240 | <time>2007-10-06T14:33:37Z</time>
|
|---|
| 5241 | </trkpt>
|
|---|
| 5242 | <trkpt lat='57.3851' lon='21.559453'>
|
|---|
| 5243 | <time>2007-10-06T14:33:48Z</time>
|
|---|
| 5244 | </trkpt>
|
|---|
| 5245 | <trkpt lat='57.385302' lon='21.558738'>
|
|---|
| 5246 | <time>2007-10-06T14:33:55Z</time>
|
|---|
| 5247 | </trkpt>
|
|---|
| 5248 | <trkpt lat='57.385365' lon='21.558768'>
|
|---|
| 5249 | <time>2007-10-06T14:33:57Z</time>
|
|---|
| 5250 | </trkpt>
|
|---|
| 5251 | <trkpt lat='57.385953' lon='21.55909'>
|
|---|
| 5252 | <time>2007-10-06T14:34:06Z</time>
|
|---|
| 5253 | </trkpt>
|
|---|
| 5254 | <trkpt lat='57.386527' lon='21.559422'>
|
|---|
| 5255 | <time>2007-10-06T14:34:14Z</time>
|
|---|
| 5256 | </trkpt>
|
|---|
| 5257 | <trkpt lat='57.386537' lon='21.559475'>
|
|---|
| 5258 | <time>2007-10-06T14:34:16Z</time>
|
|---|
| 5259 | </trkpt>
|
|---|
| 5260 | <trkpt lat='57.386485' lon='21.559785'>
|
|---|
| 5261 | <time>2007-10-06T14:34:20Z</time>
|
|---|
| 5262 | </trkpt>
|
|---|
| 5263 | <trkpt lat='57.386168' lon='21.561185'>
|
|---|
| 5264 | <time>2007-10-06T14:34:29Z</time>
|
|---|
| 5265 | </trkpt>
|
|---|
| 5266 | <trkpt lat='57.386103' lon='21.561512'>
|
|---|
| 5267 | <time>2007-10-06T14:34:33Z</time>
|
|---|
| 5268 | </trkpt>
|
|---|
| 5269 | <trkpt lat='57.386122' lon='21.561632'>
|
|---|
| 5270 | <time>2007-10-06T14:34:37Z</time>
|
|---|
| 5271 | </trkpt>
|
|---|
| 5272 | <trkpt lat='57.386203' lon='21.561675'>
|
|---|
| 5273 | <time>2007-10-06T14:34:39Z</time>
|
|---|
| 5274 | </trkpt>
|
|---|
| 5275 | <trkpt lat='57.386913' lon='21.561867'>
|
|---|
| 5276 | <time>2007-10-06T14:34:49Z</time>
|
|---|
| 5277 | </trkpt>
|
|---|
| 5278 | <trkpt lat='57.387068' lon='21.561778'>
|
|---|
| 5279 | <time>2007-10-06T14:34:53Z</time>
|
|---|
| 5280 | </trkpt>
|
|---|
| 5281 | <trkpt lat='57.38709' lon='21.561475'>
|
|---|
| 5282 | <time>2007-10-06T14:34:56Z</time>
|
|---|
| 5283 | </trkpt>
|
|---|
| 5284 | <trkpt lat='57.387038' lon='21.560083'>
|
|---|
| 5285 | <time>2007-10-06T14:35:05Z</time>
|
|---|
| 5286 | </trkpt>
|
|---|
| 5287 | <trkpt lat='57.38696' lon='21.55801'>
|
|---|
| 5288 | <time>2007-10-06T14:35:15Z</time>
|
|---|
| 5289 | </trkpt>
|
|---|
| 5290 | <trkpt lat='57.386927' lon='21.557018'>
|
|---|
| 5291 | <time>2007-10-06T14:35:25Z</time>
|
|---|
| 5292 | </trkpt>
|
|---|
| 5293 | <trkpt lat='57.386913' lon='21.55697'>
|
|---|
| 5294 | <time>2007-10-06T14:35:26Z</time>
|
|---|
| 5295 | </trkpt>
|
|---|
| 5296 | <trkpt lat='57.386782' lon='21.556805'>
|
|---|
| 5297 | <time>2007-10-06T14:35:29Z</time>
|
|---|
| 5298 | </trkpt>
|
|---|
| 5299 | <trkpt lat='57.385948' lon='21.55617'>
|
|---|
| 5300 | <time>2007-10-06T14:35:40Z</time>
|
|---|
| 5301 | </trkpt>
|
|---|
| 5302 | <trkpt lat='57.385915' lon='21.556112'>
|
|---|
| 5303 | <time>2007-10-06T14:35:41Z</time>
|
|---|
| 5304 | </trkpt>
|
|---|
| 5305 | <trkpt lat='57.385918' lon='21.555862'>
|
|---|
| 5306 | <time>2007-10-06T14:35:44Z</time>
|
|---|
| 5307 | </trkpt>
|
|---|
| 5308 | <trkpt lat='57.386265' lon='21.554358'>
|
|---|
| 5309 | <time>2007-10-06T14:35:53Z</time>
|
|---|
| 5310 | </trkpt>
|
|---|
| 5311 | <trkpt lat='57.386655' lon='21.552603'>
|
|---|
| 5312 | <time>2007-10-06T14:36:02Z</time>
|
|---|
| 5313 | </trkpt>
|
|---|
| 5314 | <trkpt lat='57.386822' lon='21.551865'>
|
|---|
| 5315 | <time>2007-10-06T14:36:12Z</time>
|
|---|
| 5316 | </trkpt>
|
|---|
| 5317 | <trkpt lat='57.387175' lon='21.550218'>
|
|---|
| 5318 | <time>2007-10-06T14:36:21Z</time>
|
|---|
| 5319 | </trkpt>
|
|---|
| 5320 | <trkpt lat='57.387432' lon='21.549048'>
|
|---|
| 5321 | <time>2007-10-06T14:36:30Z</time>
|
|---|
| 5322 | </trkpt>
|
|---|
| 5323 | <trkpt lat='57.38756' lon='21.54899'>
|
|---|
| 5324 | <time>2007-10-06T14:36:33Z</time>
|
|---|
| 5325 | </trkpt>
|
|---|
| 5326 | <trkpt lat='57.387998' lon='21.549118'>
|
|---|
| 5327 | <time>2007-10-06T14:36:42Z</time>
|
|---|
| 5328 | </trkpt>
|
|---|
| 5329 | <trkpt lat='57.388012' lon='21.549117'>
|
|---|
| 5330 | <time>2007-10-06T14:36:45Z</time>
|
|---|
| 5331 | </trkpt>
|
|---|
| 5332 | <trkpt lat='57.388028' lon='21.549098'>
|
|---|
| 5333 | <time>2007-10-06T14:36:46Z</time>
|
|---|
| 5334 | </trkpt>
|
|---|
| 5335 | <trkpt lat='57.388042' lon='21.548978'>
|
|---|
| 5336 | <time>2007-10-06T14:36:48Z</time>
|
|---|
| 5337 | </trkpt>
|
|---|
| 5338 | <trkpt lat='57.388018' lon='21.547622'>
|
|---|
| 5339 | <time>2007-10-06T14:36:57Z</time>
|
|---|
| 5340 | </trkpt>
|
|---|
| 5341 | <trkpt lat='57.388018' lon='21.545748'>
|
|---|
| 5342 | <time>2007-10-06T14:37:07Z</time>
|
|---|
| 5343 | </trkpt>
|
|---|
| 5344 | <trkpt lat='57.388065' lon='21.545467'>
|
|---|
| 5345 | <time>2007-10-06T14:37:09Z</time>
|
|---|
| 5346 | </trkpt>
|
|---|
| 5347 | <trkpt lat='57.388153' lon='21.545223'>
|
|---|
| 5348 | <time>2007-10-06T14:37:11Z</time>
|
|---|
| 5349 | </trkpt>
|
|---|
| 5350 | <trkpt lat='57.388588' lon='21.544437'>
|
|---|
| 5351 | <time>2007-10-06T14:37:21Z</time>
|
|---|
| 5352 | </trkpt>
|
|---|
| 5353 | <trkpt lat='57.388612' lon='21.544442'>
|
|---|
| 5354 | <time>2007-10-06T14:37:22Z</time>
|
|---|
| 5355 | </trkpt>
|
|---|
| 5356 | <trkpt lat='57.38872' lon='21.544622'>
|
|---|
| 5357 | <time>2007-10-06T14:37:25Z</time>
|
|---|
| 5358 | </trkpt>
|
|---|
| 5359 | <trkpt lat='57.389475' lon='21.545808'>
|
|---|
| 5360 | <time>2007-10-06T14:37:36Z</time>
|
|---|
| 5361 | </trkpt>
|
|---|
| 5362 | <trkpt lat='57.389637' lon='21.54617'>
|
|---|
| 5363 | <time>2007-10-06T14:37:40Z</time>
|
|---|
| 5364 | </trkpt>
|
|---|
| 5365 | <trkpt lat='57.389645' lon='21.546273'>
|
|---|
| 5366 | <time>2007-10-06T14:37:41Z</time>
|
|---|
| 5367 | </trkpt>
|
|---|
| 5368 | <trkpt lat='57.38964' lon='21.548023'>
|
|---|
| 5369 | <time>2007-10-06T14:37:51Z</time>
|
|---|
| 5370 | </trkpt>
|
|---|
| 5371 | <trkpt lat='57.389668' lon='21.54877'>
|
|---|
| 5372 | <time>2007-10-06T14:37:57Z</time>
|
|---|
| 5373 | </trkpt>
|
|---|
| 5374 | <trkpt lat='57.389702' lon='21.548808'>
|
|---|
| 5375 | <time>2007-10-06T14:37:58Z</time>
|
|---|
| 5376 | </trkpt>
|
|---|
| 5377 | <trkpt lat='57.389875' lon='21.548942'>
|
|---|
| 5378 | <time>2007-10-06T14:38:05Z</time>
|
|---|
| 5379 | </trkpt>
|
|---|
| 5380 | <trkpt lat='57.389867' lon='21.54899'>
|
|---|
| 5381 | <time>2007-10-06T14:38:06Z</time>
|
|---|
| 5382 | </trkpt>
|
|---|
| 5383 | <trkpt lat='57.389613' lon='21.550268'>
|
|---|
| 5384 | <time>2007-10-06T14:38:16Z</time>
|
|---|
| 5385 | </trkpt>
|
|---|
| 5386 | <trkpt lat='57.389618' lon='21.552257'>
|
|---|
| 5387 | <time>2007-10-06T14:38:25Z</time>
|
|---|
| 5388 | </trkpt>
|
|---|
| 5389 | <trkpt lat='57.389643' lon='21.552858'>
|
|---|
| 5390 | <time>2007-10-06T14:38:29Z</time>
|
|---|
| 5391 | </trkpt>
|
|---|
| 5392 | <trkpt lat='57.389718' lon='21.552985'>
|
|---|
| 5393 | <time>2007-10-06T14:38:31Z</time>
|
|---|
| 5394 | </trkpt>
|
|---|
| 5395 | <trkpt lat='57.38981' lon='21.552982'>
|
|---|
| 5396 | <time>2007-10-06T14:38:33Z</time>
|
|---|
| 5397 | </trkpt>
|
|---|
| 5398 | <trkpt lat='57.390022' lon='21.552958'>
|
|---|
| 5399 | <time>2007-10-06T14:38:38Z</time>
|
|---|
| 5400 | </trkpt>
|
|---|
| 5401 | <trkpt lat='57.390118' lon='21.552935'>
|
|---|
| 5402 | <time>2007-10-06T14:38:41Z</time>
|
|---|
| 5403 | </trkpt>
|
|---|
| 5404 | <trkpt lat='57.390148' lon='21.552932'>
|
|---|
| 5405 | <time>2007-10-06T14:38:42Z</time>
|
|---|
| 5406 | </trkpt>
|
|---|
| 5407 | <trkpt lat='57.390253' lon='21.552867'>
|
|---|
| 5408 | <time>2007-10-06T14:38:45Z</time>
|
|---|
| 5409 | </trkpt>
|
|---|
| 5410 | <trkpt lat='57.390265' lon='21.552825'>
|
|---|
| 5411 | <time>2007-10-06T14:38:46Z</time>
|
|---|
| 5412 | </trkpt>
|
|---|
| 5413 | <trkpt lat='57.390243' lon='21.552735'>
|
|---|
| 5414 | <time>2007-10-06T14:38:49Z</time>
|
|---|
| 5415 | </trkpt>
|
|---|
| 5416 | <trkpt lat='57.390148' lon='21.552697'>
|
|---|
| 5417 | <time>2007-10-06T14:38:52Z</time>
|
|---|
| 5418 | </trkpt>
|
|---|
| 5419 | <trkpt lat='57.390127' lon='21.552685'>
|
|---|
| 5420 | <time>2007-10-06T14:38:56Z</time>
|
|---|
| 5421 | </trkpt>
|
|---|
| 5422 | <trkpt lat='57.390132' lon='21.552688'>
|
|---|
| 5423 | <time>2007-10-06T14:39:01Z</time>
|
|---|
| 5424 | </trkpt>
|
|---|
| 5425 | <trkpt lat='57.39014' lon='21.552687'>
|
|---|
| 5426 | <time>2007-10-06T14:39:08Z</time>
|
|---|
| 5427 | </trkpt>
|
|---|
| 5428 | <trkpt lat='57.390132' lon='21.552647'>
|
|---|
| 5429 | <time>2007-10-06T14:39:12Z</time>
|
|---|
| 5430 | </trkpt>
|
|---|
| 5431 | <trkpt lat='57.390125' lon='21.552625'>
|
|---|
| 5432 | <time>2007-10-06T14:39:21Z</time>
|
|---|
| 5433 | </trkpt>
|
|---|
| 5434 | <trkpt lat='57.39012' lon='21.552595'>
|
|---|
| 5435 | <time>2007-10-06T14:39:22Z</time>
|
|---|
| 5436 | </trkpt>
|
|---|
| 5437 | <trkpt lat='57.38966' lon='21.554575'>
|
|---|
| 5438 | <time>2007-10-06T14:40:37Z</time>
|
|---|
| 5439 | </trkpt>
|
|---|
| 5440 | <trkpt lat='57.389703' lon='21.554328'>
|
|---|
| 5441 | <time>2007-10-06T14:40:39Z</time>
|
|---|
| 5442 | </trkpt>
|
|---|
| 5443 | <trkpt lat='57.38977' lon='21.553992'>
|
|---|
| 5444 | <time>2007-10-06T14:40:41Z</time>
|
|---|
| 5445 | </trkpt>
|
|---|
| 5446 | <trkpt lat='57.389925' lon='21.553372'>
|
|---|
| 5447 | <time>2007-10-06T14:40:45Z</time>
|
|---|
| 5448 | </trkpt>
|
|---|
| 5449 | <trkpt lat='57.390138' lon='21.553295'>
|
|---|
| 5450 | <time>2007-10-06T14:40:48Z</time>
|
|---|
| 5451 | </trkpt>
|
|---|
| 5452 | <trkpt lat='57.390368' lon='21.553408'>
|
|---|
| 5453 | <time>2007-10-06T14:40:52Z</time>
|
|---|
| 5454 | </trkpt>
|
|---|
| 5455 | </trkseg>
|
|---|
| 5456 | <trkseg>
|
|---|
| 5457 | <trkpt lat='57.38549' lon='21.544047'>
|
|---|
| 5458 | <time>2000-01-01T16:05:21Z</time>
|
|---|
| 5459 | </trkpt>
|
|---|
| 5460 | <trkpt lat='57.38489' lon='21.54384'>
|
|---|
| 5461 | <time>2007-10-06T16:05:25Z</time>
|
|---|
| 5462 | </trkpt>
|
|---|
| 5463 | <trkpt lat='57.384995' lon='21.543858'>
|
|---|
| 5464 | <time>2007-10-06T16:05:26Z</time>
|
|---|
| 5465 | </trkpt>
|
|---|
| 5466 | <trkpt lat='57.385243' lon='21.5439'>
|
|---|
| 5467 | <time>2007-10-06T16:05:33Z</time>
|
|---|
| 5468 | </trkpt>
|
|---|
| 5469 | <trkpt lat='57.385252' lon='21.543898'>
|
|---|
| 5470 | <time>2007-10-06T16:05:34Z</time>
|
|---|
| 5471 | </trkpt>
|
|---|
| 5472 | <trkpt lat='57.385282' lon='21.543925'>
|
|---|
| 5473 | <time>2007-10-06T16:05:49Z</time>
|
|---|
| 5474 | </trkpt>
|
|---|
| 5475 | <trkpt lat='57.385285' lon='21.543928'>
|
|---|
| 5476 | <time>2007-10-06T16:05:51Z</time>
|
|---|
| 5477 | </trkpt>
|
|---|
| 5478 | <trkpt lat='57.38531' lon='21.543907'>
|
|---|
| 5479 | <time>2007-10-06T16:06:04Z</time>
|
|---|
| 5480 | </trkpt>
|
|---|
| 5481 | <trkpt lat='57.385315' lon='21.543907'>
|
|---|
| 5482 | <time>2007-10-06T16:06:05Z</time>
|
|---|
| 5483 | </trkpt>
|
|---|
| 5484 | <trkpt lat='57.385317' lon='21.543908'>
|
|---|
| 5485 | <time>2007-10-06T16:06:08Z</time>
|
|---|
| 5486 | </trkpt>
|
|---|
| 5487 | <trkpt lat='57.385357' lon='21.543892'>
|
|---|
| 5488 | <time>2007-10-06T16:06:18Z</time>
|
|---|
| 5489 | </trkpt>
|
|---|
| 5490 | <trkpt lat='57.3854' lon='21.543818'>
|
|---|
| 5491 | <time>2007-10-06T16:06:20Z</time>
|
|---|
| 5492 | </trkpt>
|
|---|
| 5493 | <trkpt lat='57.385533' lon='21.543708'>
|
|---|
| 5494 | <time>2007-10-06T16:06:24Z</time>
|
|---|
| 5495 | </trkpt>
|
|---|
| 5496 | <trkpt lat='57.385683' lon='21.543942'>
|
|---|
| 5497 | <time>2007-10-06T16:06:28Z</time>
|
|---|
| 5498 | </trkpt>
|
|---|
| 5499 | <trkpt lat='57.386147' lon='21.544658'>
|
|---|
| 5500 | <time>2007-10-06T16:06:37Z</time>
|
|---|
| 5501 | </trkpt>
|
|---|
| 5502 | <trkpt lat='57.386157' lon='21.544857'>
|
|---|
| 5503 | <time>2007-10-06T16:06:40Z</time>
|
|---|
| 5504 | </trkpt>
|
|---|
| 5505 | <trkpt lat='57.385663' lon='21.546075'>
|
|---|
| 5506 | <time>2007-10-06T16:06:49Z</time>
|
|---|
| 5507 | </trkpt>
|
|---|
| 5508 | <trkpt lat='57.38549' lon='21.546788'>
|
|---|
| 5509 | <time>2007-10-06T16:06:56Z</time>
|
|---|
| 5510 | </trkpt>
|
|---|
| 5511 | <trkpt lat='57.385528' lon='21.546828'>
|
|---|
| 5512 | <time>2007-10-06T16:06:57Z</time>
|
|---|
| 5513 | </trkpt>
|
|---|
| 5514 | <trkpt lat='57.386398' lon='21.547868'>
|
|---|
| 5515 | <time>2007-10-06T16:07:08Z</time>
|
|---|
| 5516 | </trkpt>
|
|---|
| 5517 | <trkpt lat='57.387413' lon='21.549053'>
|
|---|
| 5518 | <time>2007-10-06T16:07:17Z</time>
|
|---|
| 5519 | </trkpt>
|
|---|
| 5520 | <trkpt lat='57.387665' lon='21.549182'>
|
|---|
| 5521 | <time>2007-10-06T16:07:19Z</time>
|
|---|
| 5522 | </trkpt>
|
|---|
| 5523 | <trkpt lat='57.388972' lon='21.549477'>
|
|---|
| 5524 | <time>2007-10-06T16:07:29Z</time>
|
|---|
| 5525 | </trkpt>
|
|---|
| 5526 | <trkpt lat='57.389623' lon='21.549655'>
|
|---|
| 5527 | <time>2007-10-06T16:07:35Z</time>
|
|---|
| 5528 | </trkpt>
|
|---|
| 5529 | <trkpt lat='57.389677' lon='21.549805'>
|
|---|
| 5530 | <time>2007-10-06T16:07:37Z</time>
|
|---|
| 5531 | </trkpt>
|
|---|
| 5532 | <trkpt lat='57.389655' lon='21.550087'>
|
|---|
| 5533 | <time>2007-10-06T16:07:39Z</time>
|
|---|
| 5534 | </trkpt>
|
|---|
| 5535 | <trkpt lat='57.389633' lon='21.552168'>
|
|---|
| 5536 | <time>2007-10-06T16:07:49Z</time>
|
|---|
| 5537 | </trkpt>
|
|---|
| 5538 | <trkpt lat='57.3896' lon='21.55424'>
|
|---|
| 5539 | <time>2007-10-06T16:07:59Z</time>
|
|---|
| 5540 | </trkpt>
|
|---|
| 5541 | <trkpt lat='57.389585' lon='21.556832'>
|
|---|
| 5542 | <time>2007-10-06T16:08:09Z</time>
|
|---|
| 5543 | </trkpt>
|
|---|
| 5544 | <trkpt lat='57.389607' lon='21.558328'>
|
|---|
| 5545 | <time>2007-10-06T16:08:19Z</time>
|
|---|
| 5546 | </trkpt>
|
|---|
| 5547 | <trkpt lat='57.38961' lon='21.558333'>
|
|---|
| 5548 | <time>2007-10-06T16:08:21Z</time>
|
|---|
| 5549 | </trkpt>
|
|---|
| 5550 | <trkpt lat='57.389607' lon='21.558323'>
|
|---|
| 5551 | <time>2007-10-06T16:08:23Z</time>
|
|---|
| 5552 | </trkpt>
|
|---|
| 5553 | <trkpt lat='57.389602' lon='21.558453'>
|
|---|
| 5554 | <time>2007-10-06T16:08:36Z</time>
|
|---|
| 5555 | </trkpt>
|
|---|
| 5556 | <trkpt lat='57.389598' lon='21.560065'>
|
|---|
| 5557 | <time>2007-10-06T16:08:45Z</time>
|
|---|
| 5558 | </trkpt>
|
|---|
| 5559 | <trkpt lat='57.389628' lon='21.562317'>
|
|---|
| 5560 | <time>2007-10-06T16:08:56Z</time>
|
|---|
| 5561 | </trkpt>
|
|---|
| 5562 | <trkpt lat='57.389637' lon='21.562505'>
|
|---|
| 5563 | <time>2007-10-06T16:09:04Z</time>
|
|---|
| 5564 | </trkpt>
|
|---|
| 5565 | <trkpt lat='57.389648' lon='21.562532'>
|
|---|
| 5566 | <time>2007-10-06T16:09:34Z</time>
|
|---|
| 5567 | </trkpt>
|
|---|
| 5568 | <trkpt lat='57.389653' lon='21.562672'>
|
|---|
| 5569 | <time>2007-10-06T16:09:36Z</time>
|
|---|
| 5570 | </trkpt>
|
|---|
| 5571 | <trkpt lat='57.389653' lon='21.564057'>
|
|---|
| 5572 | <time>2007-10-06T16:09:46Z</time>
|
|---|
| 5573 | </trkpt>
|
|---|
| 5574 | <trkpt lat='57.389652' lon='21.566332'>
|
|---|
| 5575 | <time>2007-10-06T16:09:56Z</time>
|
|---|
| 5576 | </trkpt>
|
|---|
| 5577 | <trkpt lat='57.389663' lon='21.568802'>
|
|---|
| 5578 | <time>2007-10-06T16:10:06Z</time>
|
|---|
| 5579 | </trkpt>
|
|---|
| 5580 | <trkpt lat='57.389668' lon='21.571195'>
|
|---|
| 5581 | <time>2007-10-06T16:10:16Z</time>
|
|---|
| 5582 | </trkpt>
|
|---|
| 5583 | <trkpt lat='57.389665' lon='21.573342'>
|
|---|
| 5584 | <time>2007-10-06T16:10:26Z</time>
|
|---|
| 5585 | </trkpt>
|
|---|
| 5586 | <trkpt lat='57.389532' lon='21.575078'>
|
|---|
| 5587 | <time>2007-10-06T16:10:36Z</time>
|
|---|
| 5588 | </trkpt>
|
|---|
| 5589 | <trkpt lat='57.3891' lon='21.576922'>
|
|---|
| 5590 | <time>2007-10-06T16:10:46Z</time>
|
|---|
| 5591 | </trkpt>
|
|---|
| 5592 | <trkpt lat='57.388707' lon='21.578772'>
|
|---|
| 5593 | <time>2007-10-06T16:10:56Z</time>
|
|---|
| 5594 | </trkpt>
|
|---|
| 5595 | <trkpt lat='57.388568' lon='21.578798'>
|
|---|
| 5596 | <time>2007-10-06T16:11:00Z</time>
|
|---|
| 5597 | </trkpt>
|
|---|
| 5598 | <trkpt lat='57.38853' lon='21.578758'>
|
|---|
| 5599 | <time>2007-10-06T16:11:01Z</time>
|
|---|
| 5600 | </trkpt>
|
|---|
| 5601 | <trkpt lat='57.388413' lon='21.578808'>
|
|---|
| 5602 | <time>2007-10-06T16:11:04Z</time>
|
|---|
| 5603 | </trkpt>
|
|---|
| 5604 | <trkpt lat='57.388207' lon='21.579572'>
|
|---|
| 5605 | <time>2007-10-06T16:11:13Z</time>
|
|---|
| 5606 | </trkpt>
|
|---|
| 5607 | <trkpt lat='57.38816' lon='21.579817'>
|
|---|
| 5608 | <time>2007-10-06T16:11:16Z</time>
|
|---|
| 5609 | </trkpt>
|
|---|
| 5610 | <trkpt lat='57.388085' lon='21.580217'>
|
|---|
| 5611 | <time>2007-10-06T16:11:20Z</time>
|
|---|
| 5612 | </trkpt>
|
|---|
| 5613 | <trkpt lat='57.38807' lon='21.58048'>
|
|---|
| 5614 | <time>2007-10-06T16:11:24Z</time>
|
|---|
| 5615 | </trkpt>
|
|---|
| 5616 | <trkpt lat='57.388083' lon='21.580482'>
|
|---|
| 5617 | <time>2007-10-06T16:11:25Z</time>
|
|---|
| 5618 | </trkpt>
|
|---|
| 5619 | <trkpt lat='57.388097' lon='21.580467'>
|
|---|
| 5620 | <time>2007-10-06T16:11:28Z</time>
|
|---|
| 5621 | </trkpt>
|
|---|
| 5622 | <trkpt lat='57.387948' lon='21.580482'>
|
|---|
| 5623 | <time>2007-10-06T16:24:30Z</time>
|
|---|
| 5624 | </trkpt>
|
|---|
| 5625 | <trkpt lat='57.388073' lon='21.580463'>
|
|---|
| 5626 | <time>2007-10-06T16:24:37Z</time>
|
|---|
| 5627 | </trkpt>
|
|---|
| 5628 | <trkpt lat='57.388063' lon='21.580453'>
|
|---|
| 5629 | <time>2007-10-06T16:24:38Z</time>
|
|---|
| 5630 | </trkpt>
|
|---|
| 5631 | <trkpt lat='57.388088' lon='21.580467'>
|
|---|
| 5632 | <time>2007-10-06T16:24:55Z</time>
|
|---|
| 5633 | </trkpt>
|
|---|
| 5634 | <trkpt lat='57.388087' lon='21.580462'>
|
|---|
| 5635 | <time>2007-10-06T16:24:57Z</time>
|
|---|
| 5636 | </trkpt>
|
|---|
| 5637 | <trkpt lat='57.388077' lon='21.58045'>
|
|---|
| 5638 | <time>2007-10-06T16:25:01Z</time>
|
|---|
| 5639 | </trkpt>
|
|---|
| 5640 | <trkpt lat='57.388063' lon='21.58044'>
|
|---|
| 5641 | <time>2007-10-06T16:25:03Z</time>
|
|---|
| 5642 | </trkpt>
|
|---|
| 5643 | <trkpt lat='57.388053' lon='21.580438'>
|
|---|
| 5644 | <time>2007-10-06T16:25:05Z</time>
|
|---|
| 5645 | </trkpt>
|
|---|
| 5646 | <trkpt lat='57.388053' lon='21.580435'>
|
|---|
| 5647 | <time>2007-10-06T16:25:07Z</time>
|
|---|
| 5648 | </trkpt>
|
|---|
| 5649 | <trkpt lat='57.388075' lon='21.58037'>
|
|---|
| 5650 | <time>2007-10-06T16:25:09Z</time>
|
|---|
| 5651 | </trkpt>
|
|---|
| 5652 | <trkpt lat='57.38839' lon='21.579007'>
|
|---|
| 5653 | <time>2007-10-06T16:25:19Z</time>
|
|---|
| 5654 | </trkpt>
|
|---|
| 5655 | <trkpt lat='57.388492' lon='21.578712'>
|
|---|
| 5656 | <time>2007-10-06T16:25:23Z</time>
|
|---|
| 5657 | </trkpt>
|
|---|
| 5658 | <trkpt lat='57.388547' lon='21.578737'>
|
|---|
| 5659 | <time>2007-10-06T16:25:25Z</time>
|
|---|
| 5660 | </trkpt>
|
|---|
| 5661 | <trkpt lat='57.38862' lon='21.578828'>
|
|---|
| 5662 | <time>2007-10-06T16:25:29Z</time>
|
|---|
| 5663 | </trkpt>
|
|---|
| 5664 | <trkpt lat='57.38864' lon='21.578918'>
|
|---|
| 5665 | <time>2007-10-06T16:25:31Z</time>
|
|---|
| 5666 | </trkpt>
|
|---|
| 5667 | <trkpt lat='57.38861' lon='21.579082'>
|
|---|
| 5668 | <time>2007-10-06T16:25:33Z</time>
|
|---|
| 5669 | </trkpt>
|
|---|
| 5670 | <trkpt lat='57.388295' lon='21.580485'>
|
|---|
| 5671 | <time>2007-10-06T16:25:43Z</time>
|
|---|
| 5672 | </trkpt>
|
|---|
| 5673 | <trkpt lat='57.388062' lon='21.581368'>
|
|---|
| 5674 | <time>2007-10-06T16:25:53Z</time>
|
|---|
| 5675 | </trkpt>
|
|---|
| 5676 | <trkpt lat='57.388063' lon='21.581365'>
|
|---|
| 5677 | <time>2007-10-06T16:25:55Z</time>
|
|---|
| 5678 | </trkpt>
|
|---|
| 5679 | <trkpt lat='57.388065' lon='21.581362'>
|
|---|
| 5680 | <time>2007-10-06T16:25:57Z</time>
|
|---|
| 5681 | </trkpt>
|
|---|
| 5682 | <trkpt lat='57.388058' lon='21.581405'>
|
|---|
| 5683 | <time>2007-10-06T16:25:59Z</time>
|
|---|
| 5684 | </trkpt>
|
|---|
| 5685 | <trkpt lat='57.387825' lon='21.582473'>
|
|---|
| 5686 | <time>2007-10-06T16:26:09Z</time>
|
|---|
| 5687 | </trkpt>
|
|---|
| 5688 | <trkpt lat='57.38748' lon='21.584087'>
|
|---|
| 5689 | <time>2007-10-06T16:26:19Z</time>
|
|---|
| 5690 | </trkpt>
|
|---|
| 5691 | <trkpt lat='57.387175' lon='21.585295'>
|
|---|
| 5692 | <time>2007-10-06T16:26:27Z</time>
|
|---|
| 5693 | </trkpt>
|
|---|
| 5694 | <trkpt lat='57.386907' lon='21.585827'>
|
|---|
| 5695 | <time>2007-10-06T16:26:34Z</time>
|
|---|
| 5696 | </trkpt>
|
|---|
| 5697 | <trkpt lat='57.386925' lon='21.586173'>
|
|---|
| 5698 | <time>2007-10-06T16:26:37Z</time>
|
|---|
| 5699 | </trkpt>
|
|---|
| 5700 | <trkpt lat='57.38698' lon='21.586272'>
|
|---|
| 5701 | <time>2007-10-06T16:26:38Z</time>
|
|---|
| 5702 | </trkpt>
|
|---|
| 5703 | <trkpt lat='57.387225' lon='21.58648'>
|
|---|
| 5704 | <time>2007-10-06T16:26:41Z</time>
|
|---|
| 5705 | </trkpt>
|
|---|
| 5706 | <trkpt lat='57.387575' lon='21.5869'>
|
|---|
| 5707 | <time>2007-10-06T16:26:45Z</time>
|
|---|
| 5708 | </trkpt>
|
|---|
| 5709 | <trkpt lat='57.388317' lon='21.588218'>
|
|---|
| 5710 | <time>2007-10-06T16:26:54Z</time>
|
|---|
| 5711 | </trkpt>
|
|---|
| 5712 | <trkpt lat='57.389163' lon='21.589738'>
|
|---|
| 5713 | <time>2007-10-06T16:27:05Z</time>
|
|---|
| 5714 | </trkpt>
|
|---|
| 5715 | <trkpt lat='57.389727' lon='21.59109'>
|
|---|
| 5716 | <time>2007-10-06T16:27:16Z</time>
|
|---|
| 5717 | </trkpt>
|
|---|
| 5718 | <trkpt lat='57.389917' lon='21.591458'>
|
|---|
| 5719 | <time>2007-10-06T16:27:20Z</time>
|
|---|
| 5720 | </trkpt>
|
|---|
| 5721 | <trkpt lat='57.390135' lon='21.591145'>
|
|---|
| 5722 | <time>2007-10-06T16:27:24Z</time>
|
|---|
| 5723 | </trkpt>
|
|---|
| 5724 | <trkpt lat='57.390443' lon='21.58989'>
|
|---|
| 5725 | <time>2007-10-06T16:27:32Z</time>
|
|---|
| 5726 | </trkpt>
|
|---|
| 5727 | <trkpt lat='57.390943' lon='21.58873'>
|
|---|
| 5728 | <time>2007-10-06T16:27:40Z</time>
|
|---|
| 5729 | </trkpt>
|
|---|
| 5730 | <trkpt lat='57.391375' lon='21.588365'>
|
|---|
| 5731 | <time>2007-10-06T16:27:44Z</time>
|
|---|
| 5732 | </trkpt>
|
|---|
| 5733 | <trkpt lat='57.391753' lon='21.588435'>
|
|---|
| 5734 | <time>2007-10-06T16:27:47Z</time>
|
|---|
| 5735 | </trkpt>
|
|---|
| 5736 | <trkpt lat='57.391997' lon='21.588648'>
|
|---|
| 5737 | <time>2007-10-06T16:27:49Z</time>
|
|---|
| 5738 | </trkpt>
|
|---|
| 5739 | <trkpt lat='57.39321' lon='21.590012'>
|
|---|
| 5740 | <time>2007-10-06T16:27:59Z</time>
|
|---|
| 5741 | </trkpt>
|
|---|
| 5742 | <trkpt lat='57.393978' lon='21.591303'>
|
|---|
| 5743 | <time>2007-10-06T16:28:05Z</time>
|
|---|
| 5744 | </trkpt>
|
|---|
| 5745 | <trkpt lat='57.39484' lon='21.592733'>
|
|---|
| 5746 | <time>2007-10-06T16:28:11Z</time>
|
|---|
| 5747 | </trkpt>
|
|---|
| 5748 | <trkpt lat='57.395197' lon='21.592923'>
|
|---|
| 5749 | <time>2007-10-06T16:28:13Z</time>
|
|---|
| 5750 | </trkpt>
|
|---|
| 5751 | <trkpt lat='57.39615' lon='21.593248'>
|
|---|
| 5752 | <time>2007-10-06T16:28:19Z</time>
|
|---|
| 5753 | </trkpt>
|
|---|
| 5754 | <trkpt lat='57.396355' lon='21.593547'>
|
|---|
| 5755 | <time>2007-10-06T16:28:21Z</time>
|
|---|
| 5756 | </trkpt>
|
|---|
| 5757 | <trkpt lat='57.396453' lon='21.593932'>
|
|---|
| 5758 | <time>2007-10-06T16:28:23Z</time>
|
|---|
| 5759 | </trkpt>
|
|---|
| 5760 | <trkpt lat='57.396443' lon='21.594303'>
|
|---|
| 5761 | <time>2007-10-06T16:28:25Z</time>
|
|---|
| 5762 | </trkpt>
|
|---|
| 5763 | <trkpt lat='57.396357' lon='21.594542'>
|
|---|
| 5764 | <time>2007-10-06T16:28:27Z</time>
|
|---|
| 5765 | </trkpt>
|
|---|
| 5766 | <trkpt lat='57.396185' lon='21.594662'>
|
|---|
| 5767 | <time>2007-10-06T16:28:29Z</time>
|
|---|
| 5768 | </trkpt>
|
|---|
| 5769 | <trkpt lat='57.396092' lon='21.594635'>
|
|---|
| 5770 | <time>2007-10-06T16:28:30Z</time>
|
|---|
| 5771 | </trkpt>
|
|---|
| 5772 | <trkpt lat='57.39588' lon='21.594212'>
|
|---|
| 5773 | <time>2007-10-06T16:28:33Z</time>
|
|---|
| 5774 | </trkpt>
|
|---|
| 5775 | <trkpt lat='57.395875' lon='21.594018'>
|
|---|
| 5776 | <time>2007-10-06T16:28:34Z</time>
|
|---|
| 5777 | </trkpt>
|
|---|
| 5778 | <trkpt lat='57.39593' lon='21.59344'>
|
|---|
| 5779 | <time>2007-10-06T16:28:37Z</time>
|
|---|
| 5780 | </trkpt>
|
|---|
| 5781 | <trkpt lat='57.396157' lon='21.59172'>
|
|---|
| 5782 | <time>2007-10-06T16:28:49Z</time>
|
|---|
| 5783 | </trkpt>
|
|---|
| 5784 | <trkpt lat='57.396438' lon='21.590815'>
|
|---|
| 5785 | <time>2007-10-06T16:28:57Z</time>
|
|---|
| 5786 | </trkpt>
|
|---|
| 5787 | <trkpt lat='57.396837' lon='21.59003'>
|
|---|
| 5788 | <time>2007-10-06T16:29:05Z</time>
|
|---|
| 5789 | </trkpt>
|
|---|
| 5790 | <trkpt lat='57.397762' lon='21.588718'>
|
|---|
| 5791 | <time>2007-10-06T16:29:14Z</time>
|
|---|
| 5792 | </trkpt>
|
|---|
| 5793 | <trkpt lat='57.398303' lon='21.588508'>
|
|---|
| 5794 | <time>2007-10-06T16:29:20Z</time>
|
|---|
| 5795 | </trkpt>
|
|---|
| 5796 | <trkpt lat='57.399427' lon='21.589092'>
|
|---|
| 5797 | <time>2007-10-06T16:29:29Z</time>
|
|---|
| 5798 | </trkpt>
|
|---|
| 5799 | <trkpt lat='57.400748' lon='21.58975'>
|
|---|
| 5800 | <time>2007-10-06T16:29:40Z</time>
|
|---|
| 5801 | </trkpt>
|
|---|
| 5802 | <trkpt lat='57.401817' lon='21.590038'>
|
|---|
| 5803 | <time>2007-10-06T16:29:49Z</time>
|
|---|
| 5804 | </trkpt>
|
|---|
| 5805 | <trkpt lat='57.403127' lon='21.590348'>
|
|---|
| 5806 | <time>2007-10-06T16:30:00Z</time>
|
|---|
| 5807 | </trkpt>
|
|---|
| 5808 | <trkpt lat='57.403487' lon='21.590462'>
|
|---|
| 5809 | <time>2007-10-06T16:30:05Z</time>
|
|---|
| 5810 | </trkpt>
|
|---|
| 5811 | <trkpt lat='57.40348' lon='21.590727'>
|
|---|
| 5812 | <time>2007-10-06T16:30:08Z</time>
|
|---|
| 5813 | </trkpt>
|
|---|
| 5814 | <trkpt lat='57.403375' lon='21.592395'>
|
|---|
| 5815 | <time>2007-10-06T16:30:17Z</time>
|
|---|
| 5816 | </trkpt>
|
|---|
| 5817 | <trkpt lat='57.403262' lon='21.594268'>
|
|---|
| 5818 | <time>2007-10-06T16:30:27Z</time>
|
|---|
| 5819 | </trkpt>
|
|---|
| 5820 | <trkpt lat='57.403272' lon='21.5946'>
|
|---|
| 5821 | <time>2007-10-06T16:30:31Z</time>
|
|---|
| 5822 | </trkpt>
|
|---|
| 5823 | <trkpt lat='57.403357' lon='21.594727'>
|
|---|
| 5824 | <time>2007-10-06T16:30:33Z</time>
|
|---|
| 5825 | </trkpt>
|
|---|
| 5826 | <trkpt lat='57.40374' lon='21.595025'>
|
|---|
| 5827 | <time>2007-10-06T16:30:43Z</time>
|
|---|
| 5828 | </trkpt>
|
|---|
| 5829 | <trkpt lat='57.403915' lon='21.595232'>
|
|---|
| 5830 | <time>2007-10-06T16:30:47Z</time>
|
|---|
| 5831 | </trkpt>
|
|---|
| 5832 | <trkpt lat='57.404557' lon='21.596578'>
|
|---|
| 5833 | <time>2007-10-06T16:30:57Z</time>
|
|---|
| 5834 | </trkpt>
|
|---|
| 5835 | <trkpt lat='57.405118' lon='21.597595'>
|
|---|
| 5836 | <time>2007-10-06T16:31:05Z</time>
|
|---|
| 5837 | </trkpt>
|
|---|
| 5838 | <trkpt lat='57.406013' lon='21.598273'>
|
|---|
| 5839 | <time>2007-10-06T16:31:15Z</time>
|
|---|
| 5840 | </trkpt>
|
|---|
| 5841 | <trkpt lat='57.406107' lon='21.598235'>
|
|---|
| 5842 | <time>2007-10-06T16:31:17Z</time>
|
|---|
| 5843 | </trkpt>
|
|---|
| 5844 | <trkpt lat='57.406167' lon='21.598088'>
|
|---|
| 5845 | <time>2007-10-06T16:31:19Z</time>
|
|---|
| 5846 | </trkpt>
|
|---|
| 5847 | <trkpt lat='57.406267' lon='21.59766'>
|
|---|
| 5848 | <time>2007-10-06T16:31:23Z</time>
|
|---|
| 5849 | </trkpt>
|
|---|
| 5850 | <trkpt lat='57.406652' lon='21.59613'>
|
|---|
| 5851 | <time>2007-10-06T16:31:33Z</time>
|
|---|
| 5852 | </trkpt>
|
|---|
| 5853 | <trkpt lat='57.406843' lon='21.595275'>
|
|---|
| 5854 | <time>2007-10-06T16:31:39Z</time>
|
|---|
| 5855 | </trkpt>
|
|---|
| 5856 | <trkpt lat='57.407105' lon='21.593792'>
|
|---|
| 5857 | <time>2007-10-06T16:31:49Z</time>
|
|---|
| 5858 | </trkpt>
|
|---|
| 5859 | <trkpt lat='57.407237' lon='21.593043'>
|
|---|
| 5860 | <time>2007-10-06T16:31:57Z</time>
|
|---|
| 5861 | </trkpt>
|
|---|
| 5862 | <trkpt lat='57.407217' lon='21.59301'>
|
|---|
| 5863 | <time>2007-10-06T16:31:58Z</time>
|
|---|
| 5864 | </trkpt>
|
|---|
| 5865 | <trkpt lat='57.407038' lon='21.59288'>
|
|---|
| 5866 | <time>2007-10-06T16:32:01Z</time>
|
|---|
| 5867 | </trkpt>
|
|---|
| 5868 | <trkpt lat='57.406803' lon='21.592852'>
|
|---|
| 5869 | <time>2007-10-06T16:32:05Z</time>
|
|---|
| 5870 | </trkpt>
|
|---|
| 5871 | <trkpt lat='57.406653' lon='21.592883'>
|
|---|
| 5872 | <time>2007-10-06T16:32:09Z</time>
|
|---|
| 5873 | </trkpt>
|
|---|
| 5874 | <trkpt lat='57.40648' lon='21.592795'>
|
|---|
| 5875 | <time>2007-10-06T16:32:14Z</time>
|
|---|
| 5876 | </trkpt>
|
|---|
| 5877 | <trkpt lat='57.40648' lon='21.592793'>
|
|---|
| 5878 | <time>2007-10-06T16:32:17Z</time>
|
|---|
| 5879 | </trkpt>
|
|---|
| 5880 | <trkpt lat='57.406465' lon='21.592783'>
|
|---|
| 5881 | <time>2007-10-06T16:32:35Z</time>
|
|---|
| 5882 | </trkpt>
|
|---|
| 5883 | <trkpt lat='57.406463' lon='21.592783'>
|
|---|
| 5884 | <time>2007-10-06T16:32:37Z</time>
|
|---|
| 5885 | </trkpt>
|
|---|
| 5886 | <trkpt lat='57.406525' lon='21.59333'>
|
|---|
| 5887 | <time>2007-10-06T16:42:04Z</time>
|
|---|
| 5888 | </trkpt>
|
|---|
| 5889 | <trkpt lat='57.406567' lon='21.593545'>
|
|---|
| 5890 | <time>2007-10-06T16:42:14Z</time>
|
|---|
| 5891 | </trkpt>
|
|---|
| 5892 | <trkpt lat='57.406575' lon='21.593583'>
|
|---|
| 5893 | <time>2007-10-06T16:42:23Z</time>
|
|---|
| 5894 | </trkpt>
|
|---|
| 5895 | <trkpt lat='57.406545' lon='21.593595'>
|
|---|
| 5896 | <time>2007-10-06T16:42:25Z</time>
|
|---|
| 5897 | </trkpt>
|
|---|
| 5898 | <trkpt lat='57.406535' lon='21.5936'>
|
|---|
| 5899 | <time>2007-10-06T16:42:27Z</time>
|
|---|
| 5900 | </trkpt>
|
|---|
| 5901 | <trkpt lat='57.40648' lon='21.593643'>
|
|---|
| 5902 | <time>2007-10-06T16:42:33Z</time>
|
|---|
| 5903 | </trkpt>
|
|---|
| 5904 | <trkpt lat='57.406368' lon='21.593917'>
|
|---|
| 5905 | <time>2007-10-06T16:42:43Z</time>
|
|---|
| 5906 | </trkpt>
|
|---|
| 5907 | <trkpt lat='57.406275' lon='21.594227'>
|
|---|
| 5908 | <time>2007-10-06T16:42:53Z</time>
|
|---|
| 5909 | </trkpt>
|
|---|
| 5910 | <trkpt lat='57.406217' lon='21.594405'>
|
|---|
| 5911 | <time>2007-10-06T16:43:01Z</time>
|
|---|
| 5912 | </trkpt>
|
|---|
| 5913 | <trkpt lat='57.40623' lon='21.594393'>
|
|---|
| 5914 | <time>2007-10-06T16:43:03Z</time>
|
|---|
| 5915 | </trkpt>
|
|---|
| 5916 | <trkpt lat='57.406285' lon='21.594368'>
|
|---|
| 5917 | <time>2007-10-06T16:43:09Z</time>
|
|---|
| 5918 | </trkpt>
|
|---|
| 5919 | <trkpt lat='57.406305' lon='21.594382'>
|
|---|
| 5920 | <time>2007-10-06T16:43:12Z</time>
|
|---|
| 5921 | </trkpt>
|
|---|
| 5922 | <trkpt lat='57.406337' lon='21.594413'>
|
|---|
| 5923 | <time>2007-10-06T16:43:16Z</time>
|
|---|
| 5924 | </trkpt>
|
|---|
| 5925 | <trkpt lat='57.406718' lon='21.594665'>
|
|---|
| 5926 | <time>2007-10-06T16:43:26Z</time>
|
|---|
| 5927 | </trkpt>
|
|---|
| 5928 | <trkpt lat='57.406822' lon='21.594982'>
|
|---|
| 5929 | <time>2007-10-06T16:43:32Z</time>
|
|---|
| 5930 | </trkpt>
|
|---|
| 5931 | <trkpt lat='57.406607' lon='21.596015'>
|
|---|
| 5932 | <time>2007-10-06T16:43:40Z</time>
|
|---|
| 5933 | </trkpt>
|
|---|
| 5934 | <trkpt lat='57.406322' lon='21.597212'>
|
|---|
| 5935 | <time>2007-10-06T16:43:50Z</time>
|
|---|
| 5936 | </trkpt>
|
|---|
| 5937 | <trkpt lat='57.406132' lon='21.598022'>
|
|---|
| 5938 | <time>2007-10-06T16:44:00Z</time>
|
|---|
| 5939 | </trkpt>
|
|---|
| 5940 | <trkpt lat='57.406055' lon='21.598155'>
|
|---|
| 5941 | <time>2007-10-06T16:44:08Z</time>
|
|---|
| 5942 | </trkpt>
|
|---|
| 5943 | <trkpt lat='57.40601' lon='21.598127'>
|
|---|
| 5944 | <time>2007-10-06T16:44:09Z</time>
|
|---|
| 5945 | </trkpt>
|
|---|
| 5946 | <trkpt lat='57.40521' lon='21.597508'>
|
|---|
| 5947 | <time>2007-10-06T16:44:20Z</time>
|
|---|
| 5948 | </trkpt>
|
|---|
| 5949 | <trkpt lat='57.404908' lon='21.597145'>
|
|---|
| 5950 | <time>2007-10-06T16:44:24Z</time>
|
|---|
| 5951 | </trkpt>
|
|---|
| 5952 | <trkpt lat='57.404285' lon='21.595795'>
|
|---|
| 5953 | <time>2007-10-06T16:44:33Z</time>
|
|---|
| 5954 | </trkpt>
|
|---|
| 5955 | <trkpt lat='57.403833' lon='21.59491'>
|
|---|
| 5956 | <time>2007-10-06T16:44:41Z</time>
|
|---|
| 5957 | </trkpt>
|
|---|
| 5958 | <trkpt lat='57.40378' lon='21.59483'>
|
|---|
| 5959 | <time>2007-10-06T16:44:47Z</time>
|
|---|
| 5960 | </trkpt>
|
|---|
| 5961 | <trkpt lat='57.403785' lon='21.594703'>
|
|---|
| 5962 | <time>2007-10-06T16:44:49Z</time>
|
|---|
| 5963 | </trkpt>
|
|---|
| 5964 | <trkpt lat='57.40393' lon='21.593305'>
|
|---|
| 5965 | <time>2007-10-06T16:44:59Z</time>
|
|---|
| 5966 | </trkpt>
|
|---|
| 5967 | <trkpt lat='57.404012' lon='21.591375'>
|
|---|
| 5968 | <time>2007-10-06T16:45:09Z</time>
|
|---|
| 5969 | </trkpt>
|
|---|
| 5970 | <trkpt lat='57.403952' lon='21.590778'>
|
|---|
| 5971 | <time>2007-10-06T16:45:13Z</time>
|
|---|
| 5972 | </trkpt>
|
|---|
| 5973 | <trkpt lat='57.403807' lon='21.590367'>
|
|---|
| 5974 | <time>2007-10-06T16:45:17Z</time>
|
|---|
| 5975 | </trkpt>
|
|---|
| 5976 | <trkpt lat='57.403743' lon='21.590337'>
|
|---|
| 5977 | <time>2007-10-06T16:45:18Z</time>
|
|---|
| 5978 | </trkpt>
|
|---|
| 5979 | <trkpt lat='57.402687' lon='21.59014'>
|
|---|
| 5980 | <time>2007-10-06T16:45:29Z</time>
|
|---|
| 5981 | </trkpt>
|
|---|
| 5982 | <trkpt lat='57.401543' lon='21.589908'>
|
|---|
| 5983 | <time>2007-10-06T16:45:38Z</time>
|
|---|
| 5984 | </trkpt>
|
|---|
| 5985 | <trkpt lat='57.400207' lon='21.58946'>
|
|---|
| 5986 | <time>2007-10-06T16:45:49Z</time>
|
|---|
| 5987 | </trkpt>
|
|---|
| 5988 | <trkpt lat='57.399945' lon='21.589323'>
|
|---|
| 5989 | <time>2007-10-06T16:45:53Z</time>
|
|---|
| 5990 | </trkpt>
|
|---|
| 5991 | <trkpt lat='57.399932' lon='21.589092'>
|
|---|
| 5992 | <time>2007-10-06T16:45:56Z</time>
|
|---|
| 5993 | </trkpt>
|
|---|
| 5994 | <trkpt lat='57.399955' lon='21.588187'>
|
|---|
| 5995 | <time>2007-10-06T16:46:04Z</time>
|
|---|
| 5996 | </trkpt>
|
|---|
| 5997 | <trkpt lat='57.399473' lon='21.587255'>
|
|---|
| 5998 | <time>2007-10-06T16:46:12Z</time>
|
|---|
| 5999 | </trkpt>
|
|---|
| 6000 | <trkpt lat='57.39926' lon='21.586713'>
|
|---|
| 6001 | <time>2007-10-06T16:46:20Z</time>
|
|---|
| 6002 | </trkpt>
|
|---|
| 6003 | <trkpt lat='57.39927' lon='21.586635'>
|
|---|
| 6004 | <time>2007-10-06T16:46:21Z</time>
|
|---|
| 6005 | </trkpt>
|
|---|
| 6006 | <trkpt lat='57.399393' lon='21.586427'>
|
|---|
| 6007 | <time>2007-10-06T16:46:24Z</time>
|
|---|
| 6008 | </trkpt>
|
|---|
| 6009 | <trkpt lat='57.399882' lon='21.585785'>
|
|---|
| 6010 | <time>2007-10-06T16:46:33Z</time>
|
|---|
| 6011 | </trkpt>
|
|---|
| 6012 | <trkpt lat='57.400745' lon='21.584713'>
|
|---|
| 6013 | <time>2007-10-06T16:46:43Z</time>
|
|---|
| 6014 | </trkpt>
|
|---|
| 6015 | <trkpt lat='57.401498' lon='21.583478'>
|
|---|
| 6016 | <time>2007-10-06T16:46:51Z</time>
|
|---|
| 6017 | </trkpt>
|
|---|
| 6018 | <trkpt lat='57.40208' lon='21.582068'>
|
|---|
| 6019 | <time>2007-10-06T16:46:59Z</time>
|
|---|
| 6020 | </trkpt>
|
|---|
| 6021 | <trkpt lat='57.402602' lon='21.580042'>
|
|---|
| 6022 | <time>2007-10-06T16:47:09Z</time>
|
|---|
| 6023 | </trkpt>
|
|---|
| 6024 | <trkpt lat='57.402902' lon='21.578657'>
|
|---|
| 6025 | <time>2007-10-06T16:47:17Z</time>
|
|---|
| 6026 | </trkpt>
|
|---|
| 6027 | <trkpt lat='57.402978' lon='21.578537'>
|
|---|
| 6028 | <time>2007-10-06T16:47:19Z</time>
|
|---|
| 6029 | </trkpt>
|
|---|
| 6030 | <trkpt lat='57.403077' lon='21.578527'>
|
|---|
| 6031 | <time>2007-10-06T16:47:21Z</time>
|
|---|
| 6032 | </trkpt>
|
|---|
| 6033 | <trkpt lat='57.40328' lon='21.578485'>
|
|---|
| 6034 | <time>2007-10-06T16:47:25Z</time>
|
|---|
| 6035 | </trkpt>
|
|---|
| 6036 | <trkpt lat='57.403327' lon='21.57829'>
|
|---|
| 6037 | <time>2007-10-06T16:47:27Z</time>
|
|---|
| 6038 | </trkpt>
|
|---|
| 6039 | <trkpt lat='57.403398' lon='21.577112'>
|
|---|
| 6040 | <time>2007-10-06T16:47:34Z</time>
|
|---|
| 6041 | </trkpt>
|
|---|
| 6042 | <trkpt lat='57.403348' lon='21.576267'>
|
|---|
| 6043 | <time>2007-10-06T16:47:38Z</time>
|
|---|
| 6044 | </trkpt>
|
|---|
| 6045 | <trkpt lat='57.402977' lon='21.573963'>
|
|---|
| 6046 | <time>2007-10-06T16:47:49Z</time>
|
|---|
| 6047 | </trkpt>
|
|---|
| 6048 | <trkpt lat='57.40279' lon='21.57208'>
|
|---|
| 6049 | <time>2007-10-06T16:47:58Z</time>
|
|---|
| 6050 | </trkpt>
|
|---|
| 6051 | <trkpt lat='57.40259' lon='21.570623'>
|
|---|
| 6052 | <time>2007-10-06T16:48:05Z</time>
|
|---|
| 6053 | </trkpt>
|
|---|
| 6054 | <trkpt lat='57.402077' lon='21.568573'>
|
|---|
| 6055 | <time>2007-10-06T16:48:16Z</time>
|
|---|
| 6056 | </trkpt>
|
|---|
| 6057 | <trkpt lat='57.401648' lon='21.566792'>
|
|---|
| 6058 | <time>2007-10-06T16:48:26Z</time>
|
|---|
| 6059 | </trkpt>
|
|---|
| 6060 | <trkpt lat='57.40146' lon='21.566087'>
|
|---|
| 6061 | <time>2007-10-06T16:48:32Z</time>
|
|---|
| 6062 | </trkpt>
|
|---|
| 6063 | <trkpt lat='57.401402' lon='21.565973'>
|
|---|
| 6064 | <time>2007-10-06T16:48:37Z</time>
|
|---|
| 6065 | </trkpt>
|
|---|
| 6066 | <trkpt lat='57.401402' lon='21.565977'>
|
|---|
| 6067 | <time>2007-10-06T16:48:40Z</time>
|
|---|
| 6068 | </trkpt>
|
|---|
| 6069 | <trkpt lat='57.40144' lon='21.56602'>
|
|---|
| 6070 | <time>2007-10-06T16:49:55Z</time>
|
|---|
| 6071 | </trkpt>
|
|---|
| 6072 | <trkpt lat='57.40143' lon='21.565865'>
|
|---|
| 6073 | <time>2007-10-06T16:49:59Z</time>
|
|---|
| 6074 | </trkpt>
|
|---|
| 6075 | <trkpt lat='57.401272' lon='21.565102'>
|
|---|
| 6076 | <time>2007-10-06T16:50:09Z</time>
|
|---|
| 6077 | </trkpt>
|
|---|
| 6078 | <trkpt lat='57.401123' lon='21.564368'>
|
|---|
| 6079 | <time>2007-10-06T16:50:18Z</time>
|
|---|
| 6080 | </trkpt>
|
|---|
| 6081 | <trkpt lat='57.400817' lon='21.56331'>
|
|---|
| 6082 | <time>2007-10-06T16:50:30Z</time>
|
|---|
| 6083 | </trkpt>
|
|---|
| 6084 | <trkpt lat='57.400632' lon='21.562888'>
|
|---|
| 6085 | <time>2007-10-06T16:50:36Z</time>
|
|---|
| 6086 | </trkpt>
|
|---|
| 6087 | <trkpt lat='57.400582' lon='21.562865'>
|
|---|
| 6088 | <time>2007-10-06T16:50:37Z</time>
|
|---|
| 6089 | </trkpt>
|
|---|
| 6090 | <trkpt lat='57.400428' lon='21.562912'>
|
|---|
| 6091 | <time>2007-10-06T16:50:40Z</time>
|
|---|
| 6092 | </trkpt>
|
|---|
| 6093 | <trkpt lat='57.400277' lon='21.562982'>
|
|---|
| 6094 | <time>2007-10-06T16:50:43Z</time>
|
|---|
| 6095 | </trkpt>
|
|---|
| 6096 | <trkpt lat='57.400193' lon='21.562917'>
|
|---|
| 6097 | <time>2007-10-06T16:50:45Z</time>
|
|---|
| 6098 | </trkpt>
|
|---|
| 6099 | <trkpt lat='57.400147' lon='21.562743'>
|
|---|
| 6100 | <time>2007-10-06T16:50:47Z</time>
|
|---|
| 6101 | </trkpt>
|
|---|
| 6102 | <trkpt lat='57.40006' lon='21.56228'>
|
|---|
| 6103 | <time>2007-10-06T16:50:51Z</time>
|
|---|
| 6104 | </trkpt>
|
|---|
| 6105 | <trkpt lat='57.399765' lon='21.561077'>
|
|---|
| 6106 | <time>2007-10-06T16:51:01Z</time>
|
|---|
| 6107 | </trkpt>
|
|---|
| 6108 | <trkpt lat='57.39949' lon='21.559953'>
|
|---|
| 6109 | <time>2007-10-06T16:51:10Z</time>
|
|---|
| 6110 | </trkpt>
|
|---|
| 6111 | <trkpt lat='57.399192' lon='21.55869'>
|
|---|
| 6112 | <time>2007-10-06T16:51:22Z</time>
|
|---|
| 6113 | </trkpt>
|
|---|
| 6114 | <trkpt lat='57.399158' lon='21.558595'>
|
|---|
| 6115 | <time>2007-10-06T16:51:24Z</time>
|
|---|
| 6116 | </trkpt>
|
|---|
| 6117 | <trkpt lat='57.399135' lon='21.558607'>
|
|---|
| 6118 | <time>2007-10-06T16:51:28Z</time>
|
|---|
| 6119 | </trkpt>
|
|---|
| 6120 | <trkpt lat='57.399145' lon='21.558612'>
|
|---|
| 6121 | <time>2007-10-06T16:51:32Z</time>
|
|---|
| 6122 | </trkpt>
|
|---|
| 6123 | <trkpt lat='57.399178' lon='21.55864'>
|
|---|
| 6124 | <time>2007-10-06T16:51:44Z</time>
|
|---|
| 6125 | </trkpt>
|
|---|
| 6126 | <trkpt lat='57.399192' lon='21.558642'>
|
|---|
| 6127 | <time>2007-10-06T16:51:48Z</time>
|
|---|
| 6128 | </trkpt>
|
|---|
| 6129 | <trkpt lat='57.399145' lon='21.558672'>
|
|---|
| 6130 | <time>2007-10-06T19:07:35Z</time>
|
|---|
| 6131 | </trkpt>
|
|---|
| 6132 | <trkpt lat='57.398965' lon='21.558602'>
|
|---|
| 6133 | <time>2007-10-06T19:07:36Z</time>
|
|---|
| 6134 | </trkpt>
|
|---|
| 6135 | <trkpt lat='57.3991' lon='21.558617'>
|
|---|
| 6136 | <time>2007-10-06T19:07:39Z</time>
|
|---|
| 6137 | </trkpt>
|
|---|
| 6138 | <trkpt lat='57.399143' lon='21.558612'>
|
|---|
| 6139 | <time>2007-10-06T19:07:41Z</time>
|
|---|
| 6140 | </trkpt>
|
|---|
| 6141 | <trkpt lat='57.399153' lon='21.558608'>
|
|---|
| 6142 | <time>2007-10-06T19:07:43Z</time>
|
|---|
| 6143 | </trkpt>
|
|---|
| 6144 | <trkpt lat='57.399163' lon='21.558607'>
|
|---|
| 6145 | <time>2007-10-06T19:07:45Z</time>
|
|---|
| 6146 | </trkpt>
|
|---|
| 6147 | <trkpt lat='57.39912' lon='21.558605'>
|
|---|
| 6148 | <time>2007-10-06T19:07:47Z</time>
|
|---|
| 6149 | </trkpt>
|
|---|
| 6150 | <trkpt lat='57.399097' lon='21.558583'>
|
|---|
| 6151 | <time>2007-10-06T19:07:50Z</time>
|
|---|
| 6152 | </trkpt>
|
|---|
| 6153 | <trkpt lat='57.399093' lon='21.558582'>
|
|---|
| 6154 | <time>2007-10-06T19:07:51Z</time>
|
|---|
| 6155 | </trkpt>
|
|---|
| 6156 | <trkpt lat='57.399093' lon='21.558583'>
|
|---|
| 6157 | <time>2007-10-06T19:07:54Z</time>
|
|---|
| 6158 | </trkpt>
|
|---|
| 6159 | <trkpt lat='57.399148' lon='21.558617'>
|
|---|
| 6160 | <time>2007-10-06T19:07:58Z</time>
|
|---|
| 6161 | </trkpt>
|
|---|
| 6162 | <trkpt lat='57.399263' lon='21.558837'>
|
|---|
| 6163 | <time>2007-10-06T19:08:04Z</time>
|
|---|
| 6164 | </trkpt>
|
|---|
| 6165 | <trkpt lat='57.399257' lon='21.558888'>
|
|---|
| 6166 | <time>2007-10-06T19:08:07Z</time>
|
|---|
| 6167 | </trkpt>
|
|---|
| 6168 | <trkpt lat='57.399252' lon='21.558897'>
|
|---|
| 6169 | <time>2007-10-06T19:08:08Z</time>
|
|---|
| 6170 | </trkpt>
|
|---|
| 6171 | <trkpt lat='57.399243' lon='21.5589'>
|
|---|
| 6172 | <time>2007-10-06T19:08:11Z</time>
|
|---|
| 6173 | </trkpt>
|
|---|
| 6174 | <trkpt lat='57.39925' lon='21.558917'>
|
|---|
| 6175 | <time>2007-10-06T19:08:15Z</time>
|
|---|
| 6176 | </trkpt>
|
|---|
| 6177 | <trkpt lat='57.399252' lon='21.558933'>
|
|---|
| 6178 | <time>2007-10-06T19:08:17Z</time>
|
|---|
| 6179 | </trkpt>
|
|---|
| 6180 | <trkpt lat='57.399248' lon='21.558942'>
|
|---|
| 6181 | <time>2007-10-06T19:08:19Z</time>
|
|---|
| 6182 | </trkpt>
|
|---|
| 6183 | <trkpt lat='57.39925' lon='21.558982'>
|
|---|
| 6184 | <time>2007-10-06T19:08:21Z</time>
|
|---|
| 6185 | </trkpt>
|
|---|
| 6186 | <trkpt lat='57.399263' lon='21.55907'>
|
|---|
| 6187 | <time>2007-10-06T19:08:23Z</time>
|
|---|
| 6188 | </trkpt>
|
|---|
| 6189 | <trkpt lat='57.399505' lon='21.560083'>
|
|---|
| 6190 | <time>2007-10-06T19:08:34Z</time>
|
|---|
| 6191 | </trkpt>
|
|---|
| 6192 | <trkpt lat='57.399853' lon='21.561497'>
|
|---|
| 6193 | <time>2007-10-06T19:08:44Z</time>
|
|---|
| 6194 | </trkpt>
|
|---|
| 6195 | <trkpt lat='57.400123' lon='21.562775'>
|
|---|
| 6196 | <time>2007-10-06T19:08:55Z</time>
|
|---|
| 6197 | </trkpt>
|
|---|
| 6198 | <trkpt lat='57.400263' lon='21.562993'>
|
|---|
| 6199 | <time>2007-10-06T19:08:59Z</time>
|
|---|
| 6200 | </trkpt>
|
|---|
| 6201 | <trkpt lat='57.400313' lon='21.562978'>
|
|---|
| 6202 | <time>2007-10-06T19:09:00Z</time>
|
|---|
| 6203 | </trkpt>
|
|---|
| 6204 | <trkpt lat='57.400627' lon='21.562898'>
|
|---|
| 6205 | <time>2007-10-06T19:09:07Z</time>
|
|---|
| 6206 | </trkpt>
|
|---|
| 6207 | <trkpt lat='57.400663' lon='21.562945'>
|
|---|
| 6208 | <time>2007-10-06T19:09:08Z</time>
|
|---|
| 6209 | </trkpt>
|
|---|
| 6210 | <trkpt lat='57.400753' lon='21.56316'>
|
|---|
| 6211 | <time>2007-10-06T19:09:11Z</time>
|
|---|
| 6212 | </trkpt>
|
|---|
| 6213 | <trkpt lat='57.400967' lon='21.56402'>
|
|---|
| 6214 | <time>2007-10-06T19:09:20Z</time>
|
|---|
| 6215 | </trkpt>
|
|---|
| 6216 | <trkpt lat='57.401052' lon='21.564308'>
|
|---|
| 6217 | <time>2007-10-06T19:09:24Z</time>
|
|---|
| 6218 | </trkpt>
|
|---|
| 6219 | <trkpt lat='57.401255' lon='21.565343'>
|
|---|
| 6220 | <time>2007-10-06T19:09:35Z</time>
|
|---|
| 6221 | </trkpt>
|
|---|
| 6222 | <trkpt lat='57.40131' lon='21.565677'>
|
|---|
| 6223 | <time>2007-10-06T19:09:45Z</time>
|
|---|
| 6224 | </trkpt>
|
|---|
| 6225 | <trkpt lat='57.401318' lon='21.565735'>
|
|---|
| 6226 | <time>2007-10-06T19:09:54Z</time>
|
|---|
| 6227 | </trkpt>
|
|---|
| 6228 | <trkpt lat='57.401488' lon='21.566508'>
|
|---|
| 6229 | <time>2007-10-06T19:10:04Z</time>
|
|---|
| 6230 | </trkpt>
|
|---|
| 6231 | <trkpt lat='57.401545' lon='21.566728'>
|
|---|
| 6232 | <time>2007-10-06T19:10:06Z</time>
|
|---|
| 6233 | </trkpt>
|
|---|
| 6234 | <trkpt lat='57.401955' lon='21.568362'>
|
|---|
| 6235 | <time>2007-10-06T19:10:16Z</time>
|
|---|
| 6236 | </trkpt>
|
|---|
| 6237 | <trkpt lat='57.402507' lon='21.570563'>
|
|---|
| 6238 | <time>2007-10-06T19:10:26Z</time>
|
|---|
| 6239 | </trkpt>
|
|---|
| 6240 | <trkpt lat='57.402763' lon='21.572487'>
|
|---|
| 6241 | <time>2007-10-06T19:10:34Z</time>
|
|---|
| 6242 | </trkpt>
|
|---|
| 6243 | <trkpt lat='57.403045' lon='21.574777'>
|
|---|
| 6244 | <time>2007-10-06T19:10:44Z</time>
|
|---|
| 6245 | </trkpt>
|
|---|
| 6246 | <trkpt lat='57.403325' lon='21.577018'>
|
|---|
| 6247 | <time>2007-10-06T19:10:54Z</time>
|
|---|
| 6248 | </trkpt>
|
|---|
| 6249 | <trkpt lat='57.403287' lon='21.577823'>
|
|---|
| 6250 | <time>2007-10-06T19:10:58Z</time>
|
|---|
| 6251 | </trkpt>
|
|---|
| 6252 | <trkpt lat='57.40319' lon='21.578398'>
|
|---|
| 6253 | <time>2007-10-06T19:11:02Z</time>
|
|---|
| 6254 | </trkpt>
|
|---|
| 6255 | <trkpt lat='57.402988' lon='21.578542'>
|
|---|
| 6256 | <time>2007-10-06T19:11:06Z</time>
|
|---|
| 6257 | </trkpt>
|
|---|
| 6258 | <trkpt lat='57.4028' lon='21.578605'>
|
|---|
| 6259 | <time>2007-10-06T19:11:10Z</time>
|
|---|
| 6260 | </trkpt>
|
|---|
| 6261 | <trkpt lat='57.402695' lon='21.57908'>
|
|---|
| 6262 | <time>2007-10-06T19:11:14Z</time>
|
|---|
| 6263 | </trkpt>
|
|---|
| 6264 | <trkpt lat='57.402147' lon='21.581453'>
|
|---|
| 6265 | <time>2007-10-06T19:11:27Z</time>
|
|---|
| 6266 | </trkpt>
|
|---|
| 6267 | <trkpt lat='57.401557' lon='21.583043'>
|
|---|
| 6268 | <time>2007-10-06T19:11:36Z</time>
|
|---|
| 6269 | </trkpt>
|
|---|
| 6270 | <trkpt lat='57.40055' lon='21.584772'>
|
|---|
| 6271 | <time>2007-10-06T19:11:47Z</time>
|
|---|
| 6272 | </trkpt>
|
|---|
| 6273 | <trkpt lat='57.399625' lon='21.585948'>
|
|---|
| 6274 | <time>2007-10-06T19:11:56Z</time>
|
|---|
| 6275 | </trkpt>
|
|---|
| 6276 | <trkpt lat='57.399147' lon='21.586708'>
|
|---|
| 6277 | <time>2007-10-06T19:12:03Z</time>
|
|---|
| 6278 | </trkpt>
|
|---|
| 6279 | <trkpt lat='57.399168' lon='21.58679'>
|
|---|
| 6280 | <time>2007-10-06T19:12:04Z</time>
|
|---|
| 6281 | </trkpt>
|
|---|
| 6282 | <trkpt lat='57.399312' lon='21.58704'>
|
|---|
| 6283 | <time>2007-10-06T19:12:07Z</time>
|
|---|
| 6284 | </trkpt>
|
|---|
| 6285 | <trkpt lat='57.39982' lon='21.588068'>
|
|---|
| 6286 | <time>2007-10-06T19:12:16Z</time>
|
|---|
| 6287 | </trkpt>
|
|---|
| 6288 | <trkpt lat='57.399953' lon='21.588388'>
|
|---|
| 6289 | <time>2007-10-06T19:12:19Z</time>
|
|---|
| 6290 | </trkpt>
|
|---|
| 6291 | <trkpt lat='57.39997' lon='21.588503'>
|
|---|
| 6292 | <time>2007-10-06T19:12:20Z</time>
|
|---|
| 6293 | </trkpt>
|
|---|
| 6294 | <trkpt lat='57.399922' lon='21.588878'>
|
|---|
| 6295 | <time>2007-10-06T19:12:23Z</time>
|
|---|
| 6296 | </trkpt>
|
|---|
| 6297 | <trkpt lat='57.399878' lon='21.589148'>
|
|---|
| 6298 | <time>2007-10-06T19:12:31Z</time>
|
|---|
| 6299 | </trkpt>
|
|---|
| 6300 | <trkpt lat='57.399878' lon='21.589175'>
|
|---|
| 6301 | <time>2007-10-06T19:12:35Z</time>
|
|---|
| 6302 | </trkpt>
|
|---|
| 6303 | <trkpt lat='57.399883' lon='21.589202'>
|
|---|
| 6304 | <time>2007-10-06T19:12:36Z</time>
|
|---|
| 6305 | </trkpt>
|
|---|
| 6306 | <trkpt lat='57.399973' lon='21.589322'>
|
|---|
| 6307 | <time>2007-10-06T19:12:39Z</time>
|
|---|
| 6308 | </trkpt>
|
|---|
| 6309 | <trkpt lat='57.400707' lon='21.589683'>
|
|---|
| 6310 | <time>2007-10-06T19:12:48Z</time>
|
|---|
| 6311 | </trkpt>
|
|---|
| 6312 | <trkpt lat='57.402072' lon='21.590032'>
|
|---|
| 6313 | <time>2007-10-06T19:12:59Z</time>
|
|---|
| 6314 | </trkpt>
|
|---|
| 6315 | <trkpt lat='57.40331' lon='21.590323'>
|
|---|
| 6316 | <time>2007-10-06T19:13:09Z</time>
|
|---|
| 6317 | </trkpt>
|
|---|
| 6318 | <trkpt lat='57.403477' lon='21.590393'>
|
|---|
| 6319 | <time>2007-10-06T19:13:13Z</time>
|
|---|
| 6320 | </trkpt>
|
|---|
| 6321 | <trkpt lat='57.40349' lon='21.590438'>
|
|---|
| 6322 | <time>2007-10-06T19:13:15Z</time>
|
|---|
| 6323 | </trkpt>
|
|---|
| 6324 | <trkpt lat='57.403493' lon='21.590535'>
|
|---|
| 6325 | <time>2007-10-06T19:13:17Z</time>
|
|---|
| 6326 | </trkpt>
|
|---|
| 6327 | <trkpt lat='57.403422' lon='21.591598'>
|
|---|
| 6328 | <time>2007-10-06T19:13:27Z</time>
|
|---|
| 6329 | </trkpt>
|
|---|
| 6330 | <trkpt lat='57.40333' lon='21.592998'>
|
|---|
| 6331 | <time>2007-10-06T19:13:37Z</time>
|
|---|
| 6332 | </trkpt>
|
|---|
| 6333 | <trkpt lat='57.403253' lon='21.594255'>
|
|---|
| 6334 | <time>2007-10-06T19:13:47Z</time>
|
|---|
| 6335 | </trkpt>
|
|---|
| 6336 | <trkpt lat='57.403248' lon='21.594545'>
|
|---|
| 6337 | <time>2007-10-06T19:13:51Z</time>
|
|---|
| 6338 | </trkpt>
|
|---|
| 6339 | <trkpt lat='57.403373' lon='21.594707'>
|
|---|
| 6340 | <time>2007-10-06T19:13:54Z</time>
|
|---|
| 6341 | </trkpt>
|
|---|
| 6342 | <trkpt lat='57.40371' lon='21.594923'>
|
|---|
| 6343 | <time>2007-10-06T19:14:03Z</time>
|
|---|
| 6344 | </trkpt>
|
|---|
| 6345 | <trkpt lat='57.403825' lon='21.595023'>
|
|---|
| 6346 | <time>2007-10-06T19:14:06Z</time>
|
|---|
| 6347 | </trkpt>
|
|---|
| 6348 | <trkpt lat='57.403988' lon='21.59532'>
|
|---|
| 6349 | <time>2007-10-06T19:14:10Z</time>
|
|---|
| 6350 | </trkpt>
|
|---|
| 6351 | <trkpt lat='57.404517' lon='21.596497'>
|
|---|
| 6352 | <time>2007-10-06T19:14:20Z</time>
|
|---|
| 6353 | </trkpt>
|
|---|
| 6354 | <trkpt lat='57.40511' lon='21.59755'>
|
|---|
| 6355 | <time>2007-10-06T19:14:30Z</time>
|
|---|
| 6356 | </trkpt>
|
|---|
| 6357 | <trkpt lat='57.405922' lon='21.598172'>
|
|---|
| 6358 | <time>2007-10-06T19:14:40Z</time>
|
|---|
| 6359 | </trkpt>
|
|---|
| 6360 | <trkpt lat='57.406017' lon='21.598185'>
|
|---|
| 6361 | <time>2007-10-06T19:14:42Z</time>
|
|---|
| 6362 | </trkpt>
|
|---|
| 6363 | <trkpt lat='57.406125' lon='21.597935'>
|
|---|
| 6364 | <time>2007-10-06T19:14:46Z</time>
|
|---|
| 6365 | </trkpt>
|
|---|
| 6366 | <trkpt lat='57.406407' lon='21.596855'>
|
|---|
| 6367 | <time>2007-10-06T19:14:56Z</time>
|
|---|
| 6368 | </trkpt>
|
|---|
| 6369 | <trkpt lat='57.406763' lon='21.595525'>
|
|---|
| 6370 | <time>2007-10-06T19:15:07Z</time>
|
|---|
| 6371 | </trkpt>
|
|---|
| 6372 | <trkpt lat='57.406983' lon='21.594253'>
|
|---|
| 6373 | <time>2007-10-06T19:15:16Z</time>
|
|---|
| 6374 | </trkpt>
|
|---|
| 6375 | <trkpt lat='57.407123' lon='21.59323'>
|
|---|
| 6376 | <time>2007-10-06T19:15:27Z</time>
|
|---|
| 6377 | </trkpt>
|
|---|
| 6378 | <trkpt lat='57.407092' lon='21.593267'>
|
|---|
| 6379 | <time>2007-10-06T19:15:28Z</time>
|
|---|
| 6380 | </trkpt>
|
|---|
| 6381 | <trkpt lat='57.40705' lon='21.593477'>
|
|---|
| 6382 | <time>2007-10-06T19:15:31Z</time>
|
|---|
| 6383 | </trkpt>
|
|---|
| 6384 | <trkpt lat='57.406948' lon='21.593658'>
|
|---|
| 6385 | <time>2007-10-06T19:15:35Z</time>
|
|---|
| 6386 | </trkpt>
|
|---|
| 6387 | <trkpt lat='57.406868' lon='21.593617'>
|
|---|
| 6388 | <time>2007-10-06T19:15:37Z</time>
|
|---|
| 6389 | </trkpt>
|
|---|
| 6390 | <trkpt lat='57.406635' lon='21.593475'>
|
|---|
| 6391 | <time>2007-10-06T19:15:43Z</time>
|
|---|
| 6392 | </trkpt>
|
|---|
| 6393 | <trkpt lat='57.406563' lon='21.593487'>
|
|---|
| 6394 | <time>2007-10-06T19:15:47Z</time>
|
|---|
| 6395 | </trkpt>
|
|---|
| 6396 | <trkpt lat='57.406548' lon='21.593515'>
|
|---|
| 6397 | <time>2007-10-06T19:15:51Z</time>
|
|---|
| 6398 | </trkpt>
|
|---|
| 6399 | <trkpt lat='57.406548' lon='21.593512'>
|
|---|
| 6400 | <time>2007-10-06T19:15:53Z</time>
|
|---|
| 6401 | </trkpt>
|
|---|
| 6402 | <trkpt lat='57.406605' lon='21.593478'>
|
|---|
| 6403 | <time>2007-10-06T19:16:16Z</time>
|
|---|
| 6404 | </trkpt>
|
|---|
| 6405 | <trkpt lat='57.406602' lon='21.593475'>
|
|---|
| 6406 | <time>2007-10-06T19:16:17Z</time>
|
|---|
| 6407 | </trkpt>
|
|---|
| 6408 | <trkpt lat='57.406527' lon='21.593445'>
|
|---|
| 6409 | <time>2007-10-06T19:16:19Z</time>
|
|---|
| 6410 | </trkpt>
|
|---|
| 6411 | <trkpt lat='57.406327' lon='21.592713'>
|
|---|
| 6412 | <time>2007-10-06T19:21:07Z</time>
|
|---|
| 6413 | </trkpt>
|
|---|
| 6414 | <trkpt lat='57.406378' lon='21.592752'>
|
|---|
| 6415 | <time>2007-10-06T19:21:08Z</time>
|
|---|
| 6416 | </trkpt>
|
|---|
| 6417 | <trkpt lat='57.406425' lon='21.592795'>
|
|---|
| 6418 | <time>2007-10-06T19:21:15Z</time>
|
|---|
| 6419 | </trkpt>
|
|---|
| 6420 | <trkpt lat='57.40643' lon='21.592795'>
|
|---|
| 6421 | <time>2007-10-06T19:21:16Z</time>
|
|---|
| 6422 | </trkpt>
|
|---|
| 6423 | <trkpt lat='57.40641' lon='21.59281'>
|
|---|
| 6424 | <time>2007-10-06T19:22:23Z</time>
|
|---|
| 6425 | </trkpt>
|
|---|
| 6426 | <trkpt lat='57.406402' lon='21.592792'>
|
|---|
| 6427 | <time>2007-10-06T19:22:24Z</time>
|
|---|
| 6428 | </trkpt>
|
|---|
| 6429 | <trkpt lat='57.406368' lon='21.592678'>
|
|---|
| 6430 | <time>2007-10-06T19:22:27Z</time>
|
|---|
| 6431 | </trkpt>
|
|---|
| 6432 | <trkpt lat='57.406363' lon='21.592637'>
|
|---|
| 6433 | <time>2007-10-06T19:22:28Z</time>
|
|---|
| 6434 | </trkpt>
|
|---|
| 6435 | <trkpt lat='57.406357' lon='21.5926'>
|
|---|
| 6436 | <time>2007-10-06T19:22:31Z</time>
|
|---|
| 6437 | </trkpt>
|
|---|
| 6438 | <trkpt lat='57.406365' lon='21.592548'>
|
|---|
| 6439 | <time>2007-10-06T19:22:35Z</time>
|
|---|
| 6440 | </trkpt>
|
|---|
| 6441 | <trkpt lat='57.406387' lon='21.59253'>
|
|---|
| 6442 | <time>2007-10-06T19:22:36Z</time>
|
|---|
| 6443 | </trkpt>
|
|---|
| 6444 | <trkpt lat='57.40649' lon='21.592593'>
|
|---|
| 6445 | <time>2007-10-06T19:22:39Z</time>
|
|---|
| 6446 | </trkpt>
|
|---|
| 6447 | <trkpt lat='57.406975' lon='21.592987'>
|
|---|
| 6448 | <time>2007-10-06T19:22:48Z</time>
|
|---|
| 6449 | </trkpt>
|
|---|
| 6450 | <trkpt lat='57.407852' lon='21.593672'>
|
|---|
| 6451 | <time>2007-10-06T19:22:59Z</time>
|
|---|
| 6452 | </trkpt>
|
|---|
| 6453 | <trkpt lat='57.408418' lon='21.594132'>
|
|---|
| 6454 | <time>2007-10-06T19:23:07Z</time>
|
|---|
| 6455 | </trkpt>
|
|---|
| 6456 | <trkpt lat='57.408457' lon='21.594212'>
|
|---|
| 6457 | <time>2007-10-06T19:23:08Z</time>
|
|---|
| 6458 | </trkpt>
|
|---|
| 6459 | <trkpt lat='57.408425' lon='21.594535'>
|
|---|
| 6460 | <time>2007-10-06T19:23:11Z</time>
|
|---|
| 6461 | </trkpt>
|
|---|
| 6462 | <trkpt lat='57.407863' lon='21.596935'>
|
|---|
| 6463 | <time>2007-10-06T19:23:24Z</time>
|
|---|
| 6464 | </trkpt>
|
|---|
| 6465 | <trkpt lat='57.407455' lon='21.59871'>
|
|---|
| 6466 | <time>2007-10-06T19:23:34Z</time>
|
|---|
| 6467 | </trkpt>
|
|---|
| 6468 | <trkpt lat='57.4073' lon='21.599188'>
|
|---|
| 6469 | <time>2007-10-06T19:23:38Z</time>
|
|---|
| 6470 | </trkpt>
|
|---|
| 6471 | <trkpt lat='57.407073' lon='21.599133'>
|
|---|
| 6472 | <time>2007-10-06T19:23:42Z</time>
|
|---|
| 6473 | </trkpt>
|
|---|
| 6474 | <trkpt lat='57.406113' lon='21.598358'>
|
|---|
| 6475 | <time>2007-10-06T19:23:52Z</time>
|
|---|
| 6476 | </trkpt>
|
|---|
| 6477 | <trkpt lat='57.405138' lon='21.597547'>
|
|---|
| 6478 | <time>2007-10-06T19:24:02Z</time>
|
|---|
| 6479 | </trkpt>
|
|---|
| 6480 | <trkpt lat='57.404847' lon='21.597145'>
|
|---|
| 6481 | <time>2007-10-06T19:24:06Z</time>
|
|---|
| 6482 | </trkpt>
|
|---|
| 6483 | <trkpt lat='57.40427' lon='21.595868'>
|
|---|
| 6484 | <time>2007-10-06T19:24:15Z</time>
|
|---|
| 6485 | </trkpt>
|
|---|
| 6486 | <trkpt lat='57.403862' lon='21.594993'>
|
|---|
| 6487 | <time>2007-10-06T19:24:23Z</time>
|
|---|
| 6488 | </trkpt>
|
|---|
| 6489 | <trkpt lat='57.40382' lon='21.594952'>
|
|---|
| 6490 | <time>2007-10-06T19:24:26Z</time>
|
|---|
| 6491 | </trkpt>
|
|---|
| 6492 | <trkpt lat='57.403817' lon='21.59495'>
|
|---|
| 6493 | <time>2007-10-06T19:24:27Z</time>
|
|---|
| 6494 | </trkpt>
|
|---|
| 6495 | <trkpt lat='57.403813' lon='21.594952'>
|
|---|
| 6496 | <time>2007-10-06T19:24:30Z</time>
|
|---|
| 6497 | </trkpt>
|
|---|
| 6498 | <trkpt lat='57.4038' lon='21.594947'>
|
|---|
| 6499 | <time>2007-10-06T19:24:31Z</time>
|
|---|
| 6500 | </trkpt>
|
|---|
| 6501 | <trkpt lat='57.403727' lon='21.595022'>
|
|---|
| 6502 | <time>2007-10-06T19:24:34Z</time>
|
|---|
| 6503 | </trkpt>
|
|---|
| 6504 | <trkpt lat='57.403713' lon='21.595085'>
|
|---|
| 6505 | <time>2007-10-06T19:24:35Z</time>
|
|---|
| 6506 | </trkpt>
|
|---|
| 6507 | <trkpt lat='57.403533' lon='21.596437'>
|
|---|
| 6508 | <time>2007-10-06T19:24:46Z</time>
|
|---|
| 6509 | </trkpt>
|
|---|
| 6510 | <trkpt lat='57.403433' lon='21.596863'>
|
|---|
| 6511 | <time>2007-10-06T19:24:51Z</time>
|
|---|
| 6512 | </trkpt>
|
|---|
| 6513 | <trkpt lat='57.40294' lon='21.598168'>
|
|---|
| 6514 | <time>2007-10-06T19:25:02Z</time>
|
|---|
| 6515 | </trkpt>
|
|---|
| 6516 | <trkpt lat='57.402898' lon='21.598122'>
|
|---|
| 6517 | <time>2007-10-06T19:25:03Z</time>
|
|---|
| 6518 | </trkpt>
|
|---|
| 6519 | <trkpt lat='57.401843' lon='21.596805'>
|
|---|
| 6520 | <time>2007-10-06T19:25:14Z</time>
|
|---|
| 6521 | </trkpt>
|
|---|
| 6522 | <trkpt lat='57.400832' lon='21.59555'>
|
|---|
| 6523 | <time>2007-10-06T19:25:23Z</time>
|
|---|
| 6524 | </trkpt>
|
|---|
| 6525 | <trkpt lat='57.399688' lon='21.594108'>
|
|---|
| 6526 | <time>2007-10-06T19:25:33Z</time>
|
|---|
| 6527 | </trkpt>
|
|---|
| 6528 | <trkpt lat='57.399233' lon='21.593595'>
|
|---|
| 6529 | <time>2007-10-06T19:25:37Z</time>
|
|---|
| 6530 | </trkpt>
|
|---|
| 6531 | <trkpt lat='57.398973' lon='21.59348'>
|
|---|
| 6532 | <time>2007-10-06T19:25:39Z</time>
|
|---|
| 6533 | </trkpt>
|
|---|
| 6534 | <trkpt lat='57.397527' lon='21.593197'>
|
|---|
| 6535 | <time>2007-10-06T19:25:49Z</time>
|
|---|
| 6536 | </trkpt>
|
|---|
| 6537 | <trkpt lat='57.396135' lon='21.592843'>
|
|---|
| 6538 | <time>2007-10-06T19:25:59Z</time>
|
|---|
| 6539 | </trkpt>
|
|---|
| 6540 | <trkpt lat='57.394862' lon='21.592558'>
|
|---|
| 6541 | <time>2007-10-06T19:26:08Z</time>
|
|---|
| 6542 | </trkpt>
|
|---|
| 6543 | <trkpt lat='57.394482' lon='21.592283'>
|
|---|
| 6544 | <time>2007-10-06T19:26:11Z</time>
|
|---|
| 6545 | </trkpt>
|
|---|
| 6546 | <trkpt lat='57.394067' lon='21.5916'>
|
|---|
| 6547 | <time>2007-10-06T19:26:15Z</time>
|
|---|
| 6548 | </trkpt>
|
|---|
| 6549 | <trkpt lat='57.393243' lon='21.590128'>
|
|---|
| 6550 | <time>2007-10-06T19:26:23Z</time>
|
|---|
| 6551 | </trkpt>
|
|---|
| 6552 | <trkpt lat='57.392165' lon='21.588807'>
|
|---|
| 6553 | <time>2007-10-06T19:26:32Z</time>
|
|---|
| 6554 | </trkpt>
|
|---|
| 6555 | <trkpt lat='57.391682' lon='21.58835'>
|
|---|
| 6556 | <time>2007-10-06T19:26:36Z</time>
|
|---|
| 6557 | </trkpt>
|
|---|
| 6558 | <trkpt lat='57.391287' lon='21.588265'>
|
|---|
| 6559 | <time>2007-10-06T19:26:39Z</time>
|
|---|
| 6560 | </trkpt>
|
|---|
| 6561 | <trkpt lat='57.390917' lon='21.588545'>
|
|---|
| 6562 | <time>2007-10-06T19:26:42Z</time>
|
|---|
| 6563 | </trkpt>
|
|---|
| 6564 | <trkpt lat='57.390542' lon='21.589312'>
|
|---|
| 6565 | <time>2007-10-06T19:26:46Z</time>
|
|---|
| 6566 | </trkpt>
|
|---|
| 6567 | <trkpt lat='57.389832' lon='21.590662'>
|
|---|
| 6568 | <time>2007-10-06T19:26:54Z</time>
|
|---|
| 6569 | </trkpt>
|
|---|
| 6570 | <trkpt lat='57.389415' lon='21.590237'>
|
|---|
| 6571 | <time>2007-10-06T19:26:58Z</time>
|
|---|
| 6572 | </trkpt>
|
|---|
| 6573 | <trkpt lat='57.38854' lon='21.5886'>
|
|---|
| 6574 | <time>2007-10-06T19:27:07Z</time>
|
|---|
| 6575 | </trkpt>
|
|---|
| 6576 | <trkpt lat='57.387513' lon='21.586703'>
|
|---|
| 6577 | <time>2007-10-06T19:27:17Z</time>
|
|---|
| 6578 | </trkpt>
|
|---|
| 6579 | <trkpt lat='57.387347' lon='21.586337'>
|
|---|
| 6580 | <time>2007-10-06T19:27:19Z</time>
|
|---|
| 6581 | </trkpt>
|
|---|
| 6582 | <trkpt lat='57.387272' lon='21.585958'>
|
|---|
| 6583 | <time>2007-10-06T19:27:21Z</time>
|
|---|
| 6584 | </trkpt>
|
|---|
| 6585 | <trkpt lat='57.387258' lon='21.585578'>
|
|---|
| 6586 | <time>2007-10-06T19:27:23Z</time>
|
|---|
| 6587 | </trkpt>
|
|---|
| 6588 | <trkpt lat='57.387317' lon='21.584825'>
|
|---|
| 6589 | <time>2007-10-06T19:27:27Z</time>
|
|---|
| 6590 | </trkpt>
|
|---|
| 6591 | <trkpt lat='57.38778' lon='21.582817'>
|
|---|
| 6592 | <time>2007-10-06T19:27:37Z</time>
|
|---|
| 6593 | </trkpt>
|
|---|
| 6594 | <trkpt lat='57.388265' lon='21.580612'>
|
|---|
| 6595 | <time>2007-10-06T19:27:47Z</time>
|
|---|
| 6596 | </trkpt>
|
|---|
| 6597 | <trkpt lat='57.388692' lon='21.578697'>
|
|---|
| 6598 | <time>2007-10-06T19:27:57Z</time>
|
|---|
| 6599 | </trkpt>
|
|---|
| 6600 | <trkpt lat='57.38906' lon='21.577098'>
|
|---|
| 6601 | <time>2007-10-06T19:28:07Z</time>
|
|---|
| 6602 | </trkpt>
|
|---|
| 6603 | <trkpt lat='57.389352' lon='21.575845'>
|
|---|
| 6604 | <time>2007-10-06T19:28:17Z</time>
|
|---|
| 6605 | </trkpt>
|
|---|
| 6606 | <trkpt lat='57.389662' lon='21.574498'>
|
|---|
| 6607 | <time>2007-10-06T19:28:27Z</time>
|
|---|
| 6608 | </trkpt>
|
|---|
| 6609 | <trkpt lat='57.389755' lon='21.57379'>
|
|---|
| 6610 | <time>2007-10-06T19:28:31Z</time>
|
|---|
| 6611 | </trkpt>
|
|---|
| 6612 | <trkpt lat='57.389747' lon='21.571533'>
|
|---|
| 6613 | <time>2007-10-06T19:28:41Z</time>
|
|---|
| 6614 | </trkpt>
|
|---|
| 6615 | <trkpt lat='57.389735' lon='21.569342'>
|
|---|
| 6616 | <time>2007-10-06T19:28:51Z</time>
|
|---|
| 6617 | </trkpt>
|
|---|
| 6618 | <trkpt lat='57.389718' lon='21.567143'>
|
|---|
| 6619 | <time>2007-10-06T19:29:01Z</time>
|
|---|
| 6620 | </trkpt>
|
|---|
| 6621 | <trkpt lat='57.389705' lon='21.565357'>
|
|---|
| 6622 | <time>2007-10-06T19:29:11Z</time>
|
|---|
| 6623 | </trkpt>
|
|---|
| 6624 | <trkpt lat='57.389703' lon='21.563865'>
|
|---|
| 6625 | <time>2007-10-06T19:29:21Z</time>
|
|---|
| 6626 | </trkpt>
|
|---|
| 6627 | <trkpt lat='57.38967' lon='21.561467'>
|
|---|
| 6628 | <time>2007-10-06T19:29:31Z</time>
|
|---|
| 6629 | </trkpt>
|
|---|
| 6630 | <trkpt lat='57.389655' lon='21.559342'>
|
|---|
| 6631 | <time>2007-10-06T19:29:41Z</time>
|
|---|
| 6632 | </trkpt>
|
|---|
| 6633 | <trkpt lat='57.38965' lon='21.559207'>
|
|---|
| 6634 | <time>2007-10-06T19:29:45Z</time>
|
|---|
| 6635 | </trkpt>
|
|---|
| 6636 | <trkpt lat='57.389652' lon='21.559218'>
|
|---|
| 6637 | <time>2007-10-06T19:29:47Z</time>
|
|---|
| 6638 | </trkpt>
|
|---|
| 6639 | <trkpt lat='57.389652' lon='21.559182'>
|
|---|
| 6640 | <time>2007-10-06T19:29:51Z</time>
|
|---|
| 6641 | </trkpt>
|
|---|
| 6642 | <trkpt lat='57.389645' lon='21.557433'>
|
|---|
| 6643 | <time>2007-10-06T19:30:02Z</time>
|
|---|
| 6644 | </trkpt>
|
|---|
| 6645 | <trkpt lat='57.389655' lon='21.555123'>
|
|---|
| 6646 | <time>2007-10-06T19:30:11Z</time>
|
|---|
| 6647 | </trkpt>
|
|---|
| 6648 | <trkpt lat='57.389683' lon='21.552908'>
|
|---|
| 6649 | <time>2007-10-06T19:30:22Z</time>
|
|---|
| 6650 | </trkpt>
|
|---|
| 6651 | <trkpt lat='57.389717' lon='21.55287'>
|
|---|
| 6652 | <time>2007-10-06T19:30:23Z</time>
|
|---|
| 6653 | </trkpt>
|
|---|
| 6654 | <trkpt lat='57.389845' lon='21.552908'>
|
|---|
| 6655 | <time>2007-10-06T19:30:26Z</time>
|
|---|
| 6656 | </trkpt>
|
|---|
| 6657 | <trkpt lat='57.390153' lon='21.552973'>
|
|---|
| 6658 | <time>2007-10-06T19:30:36Z</time>
|
|---|
| 6659 | </trkpt>
|
|---|
| 6660 | <trkpt lat='57.390123' lon='21.552978'>
|
|---|
| 6661 | <time>2007-10-06T19:30:38Z</time>
|
|---|
| 6662 | </trkpt>
|
|---|
| 6663 | <trkpt lat='57.390092' lon='21.552975'>
|
|---|
| 6664 | <time>2007-10-06T19:30:42Z</time>
|
|---|
| 6665 | </trkpt>
|
|---|
| 6666 | <trkpt lat='57.390067' lon='21.552962'>
|
|---|
| 6667 | <time>2007-10-06T19:30:46Z</time>
|
|---|
| 6668 | </trkpt>
|
|---|
| 6669 | <trkpt lat='57.390042' lon='21.55294'>
|
|---|
| 6670 | <time>2007-10-06T19:30:50Z</time>
|
|---|
| 6671 | </trkpt>
|
|---|
| 6672 | <trkpt lat='57.390047' lon='21.552953'>
|
|---|
| 6673 | <time>2007-10-06T19:31:03Z</time>
|
|---|
| 6674 | </trkpt>
|
|---|
| 6675 | <trkpt lat='57.39' lon='21.552933'>
|
|---|
| 6676 | <time>2007-10-06T19:31:14Z</time>
|
|---|
| 6677 | </trkpt>
|
|---|
| 6678 | </trkseg>
|
|---|
| 6679 | <trkseg>
|
|---|
| 6680 | <trkpt lat='57.385167' lon='21.544657'>
|
|---|
| 6681 | <time>2007-10-06T08:18:55Z</time>
|
|---|
| 6682 | </trkpt>
|
|---|
| 6683 | <trkpt lat='57.385498' lon='21.545098'>
|
|---|
| 6684 | <time>2007-10-06T08:19:05Z</time>
|
|---|
| 6685 | </trkpt>
|
|---|
| 6686 | <trkpt lat='57.385832' lon='21.545547'>
|
|---|
| 6687 | <time>2007-10-06T08:19:16Z</time>
|
|---|
| 6688 | </trkpt>
|
|---|
| 6689 | <trkpt lat='57.385837' lon='21.545618'>
|
|---|
| 6690 | <time>2007-10-06T08:19:19Z</time>
|
|---|
| 6691 | </trkpt>
|
|---|
| 6692 | <trkpt lat='57.385765' lon='21.545845'>
|
|---|
| 6693 | <time>2007-10-06T08:19:23Z</time>
|
|---|
| 6694 | </trkpt>
|
|---|
| 6695 | <trkpt lat='57.385353' lon='21.54687'>
|
|---|
| 6696 | <time>2007-10-06T08:19:33Z</time>
|
|---|
| 6697 | </trkpt>
|
|---|
| 6698 | <trkpt lat='57.384798' lon='21.548285'>
|
|---|
| 6699 | <time>2007-10-06T08:19:43Z</time>
|
|---|
| 6700 | </trkpt>
|
|---|
| 6701 | <trkpt lat='57.384172' lon='21.549948'>
|
|---|
| 6702 | <time>2007-10-06T08:19:55Z</time>
|
|---|
| 6703 | </trkpt>
|
|---|
| 6704 | <trkpt lat='57.384135' lon='21.550088'>
|
|---|
| 6705 | <time>2007-10-06T08:20:00Z</time>
|
|---|
| 6706 | </trkpt>
|
|---|
| 6707 | <trkpt lat='57.384125' lon='21.550138'>
|
|---|
| 6708 | <time>2007-10-06T08:20:03Z</time>
|
|---|
| 6709 | </trkpt>
|
|---|
| 6710 | <trkpt lat='57.383868' lon='21.551365'>
|
|---|
| 6711 | <time>2007-10-06T08:20:13Z</time>
|
|---|
| 6712 | </trkpt>
|
|---|
| 6713 | <trkpt lat='57.383425' lon='21.553435'>
|
|---|
| 6714 | <time>2007-10-06T08:20:23Z</time>
|
|---|
| 6715 | </trkpt>
|
|---|
| 6716 | <trkpt lat='57.383293' lon='21.553993'>
|
|---|
| 6717 | <time>2007-10-06T08:20:31Z</time>
|
|---|
| 6718 | </trkpt>
|
|---|
| 6719 | <trkpt lat='57.383293' lon='21.55399'>
|
|---|
| 6720 | <time>2007-10-06T08:20:32Z</time>
|
|---|
| 6721 | </trkpt>
|
|---|
| 6722 | <trkpt lat='57.38329' lon='21.554005'>
|
|---|
| 6723 | <time>2007-10-06T08:20:39Z</time>
|
|---|
| 6724 | </trkpt>
|
|---|
| 6725 | <trkpt lat='57.383152' lon='21.554382'>
|
|---|
| 6726 | <time>2007-10-06T08:20:45Z</time>
|
|---|
| 6727 | </trkpt>
|
|---|
| 6728 | <trkpt lat='57.383033' lon='21.554325'>
|
|---|
| 6729 | <time>2007-10-06T08:20:47Z</time>
|
|---|
| 6730 | </trkpt>
|
|---|
| 6731 | <trkpt lat='57.382038' lon='21.55373'>
|
|---|
| 6732 | <time>2007-10-06T08:20:58Z</time>
|
|---|
| 6733 | </trkpt>
|
|---|
| 6734 | <trkpt lat='57.380967' lon='21.553107'>
|
|---|
| 6735 | <time>2007-10-06T08:21:08Z</time>
|
|---|
| 6736 | </trkpt>
|
|---|
| 6737 | <trkpt lat='57.379652' lon='21.552412'>
|
|---|
| 6738 | <time>2007-10-06T08:21:19Z</time>
|
|---|
| 6739 | </trkpt>
|
|---|
| 6740 | <trkpt lat='57.379022' lon='21.55218'>
|
|---|
| 6741 | <time>2007-10-06T08:21:27Z</time>
|
|---|
| 6742 | </trkpt>
|
|---|
| 6743 | <trkpt lat='57.378998' lon='21.552243'>
|
|---|
| 6744 | <time>2007-10-06T08:21:28Z</time>
|
|---|
| 6745 | </trkpt>
|
|---|
| 6746 | <trkpt lat='57.378953' lon='21.552537'>
|
|---|
| 6747 | <time>2007-10-06T08:21:31Z</time>
|
|---|
| 6748 | </trkpt>
|
|---|
| 6749 | <trkpt lat='57.378615' lon='21.554295'>
|
|---|
| 6750 | <time>2007-10-06T08:21:41Z</time>
|
|---|
| 6751 | </trkpt>
|
|---|
| 6752 | <trkpt lat='57.378168' lon='21.556488'>
|
|---|
| 6753 | <time>2007-10-06T08:21:51Z</time>
|
|---|
| 6754 | </trkpt>
|
|---|
| 6755 | <trkpt lat='57.37789' lon='21.557487'>
|
|---|
| 6756 | <time>2007-10-06T08:22:02Z</time>
|
|---|
| 6757 | </trkpt>
|
|---|
| 6758 | <trkpt lat='57.377623' lon='21.557303'>
|
|---|
| 6759 | <time>2007-10-06T08:22:07Z</time>
|
|---|
| 6760 | </trkpt>
|
|---|
| 6761 | <trkpt lat='57.376802' lon='21.556742'>
|
|---|
| 6762 | <time>2007-10-06T08:22:16Z</time>
|
|---|
| 6763 | </trkpt>
|
|---|
| 6764 | <trkpt lat='57.376322' lon='21.556475'>
|
|---|
| 6765 | <time>2007-10-06T08:22:23Z</time>
|
|---|
| 6766 | </trkpt>
|
|---|
| 6767 | <trkpt lat='57.376273' lon='21.556567'>
|
|---|
| 6768 | <time>2007-10-06T08:22:25Z</time>
|
|---|
| 6769 | </trkpt>
|
|---|
| 6770 | <trkpt lat='57.376275' lon='21.556663'>
|
|---|
| 6771 | <time>2007-10-06T08:22:27Z</time>
|
|---|
| 6772 | </trkpt>
|
|---|
| 6773 | <trkpt lat='57.376302' lon='21.556733'>
|
|---|
| 6774 | <time>2007-10-06T08:22:29Z</time>
|
|---|
| 6775 | </trkpt>
|
|---|
| 6776 | <trkpt lat='57.376337' lon='21.556772'>
|
|---|
| 6777 | <time>2007-10-06T08:22:31Z</time>
|
|---|
| 6778 | </trkpt>
|
|---|
| 6779 | <trkpt lat='57.376408' lon='21.556773'>
|
|---|
| 6780 | <time>2007-10-06T08:22:35Z</time>
|
|---|
| 6781 | </trkpt>
|
|---|
| 6782 | <trkpt lat='57.376423' lon='21.55671'>
|
|---|
| 6783 | <time>2007-10-06T08:22:37Z</time>
|
|---|
| 6784 | </trkpt>
|
|---|
| 6785 | <trkpt lat='57.376425' lon='21.556688'>
|
|---|
| 6786 | <time>2007-10-06T08:22:39Z</time>
|
|---|
| 6787 | </trkpt>
|
|---|
| 6788 | <trkpt lat='57.376427' lon='21.556688'>
|
|---|
| 6789 | <time>2007-10-06T08:22:42Z</time>
|
|---|
| 6790 | </trkpt>
|
|---|
| 6791 | <trkpt lat='57.376493' lon='21.556745'>
|
|---|
| 6792 | <time>2007-10-06T08:23:38Z</time>
|
|---|
| 6793 | </trkpt>
|
|---|
| 6794 | <trkpt lat='57.376488' lon='21.556743'>
|
|---|
| 6795 | <time>2007-10-06T08:23:40Z</time>
|
|---|
| 6796 | </trkpt>
|
|---|
| 6797 | <trkpt lat='57.376473' lon='21.556728'>
|
|---|
| 6798 | <time>2007-10-06T08:23:43Z</time>
|
|---|
| 6799 | </trkpt>
|
|---|
| 6800 | <trkpt lat='57.376423' lon='21.556708'>
|
|---|
| 6801 | <time>2007-10-06T08:23:48Z</time>
|
|---|
| 6802 | </trkpt>
|
|---|
| 6803 | <trkpt lat='57.376403' lon='21.556687'>
|
|---|
| 6804 | <time>2007-10-06T08:23:51Z</time>
|
|---|
| 6805 | </trkpt>
|
|---|
| 6806 | <trkpt lat='57.37637' lon='21.556688'>
|
|---|
| 6807 | <time>2007-10-06T08:23:57Z</time>
|
|---|
| 6808 | </trkpt>
|
|---|
| 6809 | <trkpt lat='57.376363' lon='21.556683'>
|
|---|
| 6810 | <time>2007-10-06T08:23:59Z</time>
|
|---|
| 6811 | </trkpt>
|
|---|
| 6812 | <trkpt lat='57.37636' lon='21.556673'>
|
|---|
| 6813 | <time>2007-10-06T08:24:02Z</time>
|
|---|
| 6814 | </trkpt>
|
|---|
| 6815 | <trkpt lat='57.376405' lon='21.556653'>
|
|---|
| 6816 | <time>2007-10-06T08:24:06Z</time>
|
|---|
| 6817 | </trkpt>
|
|---|
| 6818 | <trkpt lat='57.376438' lon='21.556703'>
|
|---|
| 6819 | <time>2007-10-06T08:24:10Z</time>
|
|---|
| 6820 | </trkpt>
|
|---|
| 6821 | <trkpt lat='57.376422' lon='21.556713'>
|
|---|
| 6822 | <time>2007-10-06T08:24:12Z</time>
|
|---|
| 6823 | </trkpt>
|
|---|
| 6824 | <trkpt lat='57.376413' lon='21.55671'>
|
|---|
| 6825 | <time>2007-10-06T08:24:15Z</time>
|
|---|
| 6826 | </trkpt>
|
|---|
| 6827 | <trkpt lat='57.376465' lon='21.556717'>
|
|---|
| 6828 | <time>2007-10-06T08:24:25Z</time>
|
|---|
| 6829 | </trkpt>
|
|---|
| 6830 | <trkpt lat='57.376468' lon='21.556707'>
|
|---|
| 6831 | <time>2007-10-06T08:24:27Z</time>
|
|---|
| 6832 | </trkpt>
|
|---|
| 6833 | <trkpt lat='57.376473' lon='21.5567'>
|
|---|
| 6834 | <time>2007-10-06T08:24:29Z</time>
|
|---|
| 6835 | </trkpt>
|
|---|
| 6836 | <trkpt lat='57.376483' lon='21.55651'>
|
|---|
| 6837 | <time>2007-10-06T08:24:41Z</time>
|
|---|
| 6838 | </trkpt>
|
|---|
| 6839 | <trkpt lat='57.37655' lon='21.556682'>
|
|---|
| 6840 | <time>2007-10-06T08:24:45Z</time>
|
|---|
| 6841 | </trkpt>
|
|---|
| 6842 | <trkpt lat='57.376545' lon='21.556672'>
|
|---|
| 6843 | <time>2007-10-06T08:24:55Z</time>
|
|---|
| 6844 | </trkpt>
|
|---|
| 6845 | <trkpt lat='57.376525' lon='21.55664'>
|
|---|
| 6846 | <time>2007-10-06T08:24:57Z</time>
|
|---|
| 6847 | </trkpt>
|
|---|
| 6848 | <trkpt lat='57.376523' lon='21.556615'>
|
|---|
| 6849 | <time>2007-10-06T08:25:00Z</time>
|
|---|
| 6850 | </trkpt>
|
|---|
| 6851 | <trkpt lat='57.37651' lon='21.55663'>
|
|---|
| 6852 | <time>2007-10-06T08:25:04Z</time>
|
|---|
| 6853 | </trkpt>
|
|---|
| 6854 | <trkpt lat='57.376492' lon='21.556677'>
|
|---|
| 6855 | <time>2007-10-06T08:25:19Z</time>
|
|---|
| 6856 | </trkpt>
|
|---|
| 6857 | <trkpt lat='57.376495' lon='21.556663'>
|
|---|
| 6858 | <time>2007-10-06T08:25:21Z</time>
|
|---|
| 6859 | </trkpt>
|
|---|
| 6860 | <trkpt lat='57.376507' lon='21.55666'>
|
|---|
| 6861 | <time>2007-10-06T08:25:24Z</time>
|
|---|
| 6862 | </trkpt>
|
|---|
| 6863 | <trkpt lat='57.376525' lon='21.556672'>
|
|---|
| 6864 | <time>2007-10-06T08:25:37Z</time>
|
|---|
| 6865 | </trkpt>
|
|---|
| 6866 | <trkpt lat='57.376517' lon='21.556683'>
|
|---|
| 6867 | <time>2007-10-06T08:25:38Z</time>
|
|---|
| 6868 | </trkpt>
|
|---|
| 6869 | </trkseg>
|
|---|
| 6870 | </trk>
|
|---|
| 6871 | </gpx>
|
|---|